<?xml version="1.0" encoding="UTF-8" standalone="no" ?>
<gpx xmlns="http://www.topografix.com/GPX/1/1" xmlns:xsi="http://www.w3.org/2001/XMLSchema-instance" xsi:schemaLocation="http://www.topografix.com/GPX/1/1 http://www.topografix.com/GPX/1/1/gpx.xsd" version="1.1" creator="VisuGPX - https://www.visugpx.com">
  <metadata>
    <name>VTT du samedi 3 juillet 2021 (le Sabot, à 2)</name>
    <desc><![CDATA[Après toutes les pluies des jours précédents, on a profité du soleil pour partir à 10h15 faire un tour sans originalité (je voulais éviter les herbes et sous-bois propices aux tiques). Jacky a pu découvrir l'aménagement du chemin en bas de Fanicamp (beurk !). Au sabot, le passage habituellement boueux ne l'était pas ...]]></desc>
  </metadata>
  <wpt lat="47.64443" lon="6.1831">
    <ele>230.7</ele>
    <name><![CDATA[0000277]]></name>
    <type><![CDATA[Point de départ]]></type>
  </wpt>
  <wpt lat="47.6447" lon="6.18071">
    <ele>222.9</ele>
    <name><![CDATA[0000278]]></name>
    <desc><![CDATA[<p><br /><h3>Nom: Segment: 1</h3><br />Heure de départ: 07/03/2021 10:13<br/>Heure d'arrivée: 07/03/2021 12:05<br/>Distance: 18km (01:51)<br/>Temps déplacement: 01:45<br/>Vitesse moyenne: 9,7 km/h<br/>Vitesse moyenne mouv.: 10,16 km/h<br/>Vitesse Max.: 35,48 km/h<br/>Altitude minimale: 224 m<br/>Altitude maximale: 376 m<br/>Vitesse de montée: 285,6 m/h<br/>Vitesse de descente: -509,6 m/h<br/>Gain d'altitude: 312 m<br/>Perte d'altitude: -311 m<br/>Temps de montée: 01:05<br/>Temps de descente: 00:36<br/></p>]]></desc>
    <type><![CDATA[Point d'arrivée]]></type>
  </wpt>
  <trk>
    <name><![CDATA[2021-07-03 10:13]]></name>
    <desc><![CDATA[<p>Heure de départ: 07/03/2021 10:13<br/>Heure d'arrivée: 07/03/2021 12:05<br/>Distance: 18 km (01:51)<br/>Temps déplacement: 01:45<br/>Vitesse moyenne: 9,7 km/h<br/>Vitesse moyenne mouv.: 10,24 km/h<br/>Vitesse Max.: 35,48 km/h<br/>Altitude minimale: 224 m<br/>Altitude maximale: 376 m<br/>Vitesse de montée: 211,5 m/h<br/>Vitesse de descente: -465,1 m/h<br/>Gain d'altitude: 250 m<br/>Perte d'altitude: -248 m<br/>Temps de montée: 01:11<br/>Temps de descente: 00:32<br/></p><hr align="center" width="480" style="height: 2px; width: 517px"/>]]></desc>
    <trkseg>
      <trkpt lat="47.64443" lon="6.1831">
        <ele>230.7</ele>
        <time>2021-07-03T08:13:32Z</time>
      </trkpt>
      <trkpt lat="47.64448" lon="6.18312">
        <ele>231.9</ele>
        <time>2021-07-03T08:13:34Z</time>
      </trkpt>
      <trkpt lat="47.64443" lon="6.18316">
        <ele>231.4</ele>
        <time>2021-07-03T08:13:37Z</time>
      </trkpt>
      <trkpt lat="47.64441" lon="6.1831">
        <ele>230.3</ele>
        <time>2021-07-03T08:13:50Z</time>
      </trkpt>
      <trkpt lat="47.64444" lon="6.18303">
        <ele>230.2</ele>
        <time>2021-07-03T08:13:55Z</time>
      </trkpt>
      <trkpt lat="47.64448" lon="6.18298">
        <ele>230.3</ele>
        <time>2021-07-03T08:13:57Z</time>
      </trkpt>
      <trkpt lat="47.64451" lon="6.18292">
        <ele>230.2</ele>
        <time>2021-07-03T08:14:00Z</time>
      </trkpt>
      <trkpt lat="47.64454" lon="6.18286">
        <ele>229.9</ele>
        <time>2021-07-03T08:14:04Z</time>
      </trkpt>
      <trkpt lat="47.64457" lon="6.1828">
        <ele>229.8</ele>
        <time>2021-07-03T08:14:06Z</time>
      </trkpt>
      <trkpt lat="47.64461" lon="6.18274">
        <ele>229.5</ele>
        <time>2021-07-03T08:14:10Z</time>
      </trkpt>
      <trkpt lat="47.64464" lon="6.18269">
        <ele>229.4</ele>
        <time>2021-07-03T08:14:12Z</time>
      </trkpt>
      <trkpt lat="47.6447" lon="6.18262">
        <ele>229.2</ele>
        <time>2021-07-03T08:14:15Z</time>
      </trkpt>
      <trkpt lat="47.64481" lon="6.18246">
        <ele>228.7</ele>
        <time>2021-07-03T08:14:17Z</time>
      </trkpt>
      <trkpt lat="47.64486" lon="6.18235">
        <ele>228.6</ele>
        <time>2021-07-03T08:14:19Z</time>
      </trkpt>
      <trkpt lat="47.6449" lon="6.18225">
        <ele>228.4</ele>
        <time>2021-07-03T08:14:21Z</time>
      </trkpt>
      <trkpt lat="47.64493" lon="6.18217">
        <ele>228.1</ele>
        <time>2021-07-03T08:14:23Z</time>
      </trkpt>
      <trkpt lat="47.64496" lon="6.18209">
        <ele>227.8</ele>
        <time>2021-07-03T08:14:25Z</time>
      </trkpt>
      <trkpt lat="47.64499" lon="6.18199">
        <ele>227.3</ele>
        <time>2021-07-03T08:14:27Z</time>
      </trkpt>
      <trkpt lat="47.64502" lon="6.18188">
        <ele>226.8</ele>
        <time>2021-07-03T08:14:29Z</time>
      </trkpt>
      <trkpt lat="47.64502" lon="6.18175">
        <ele>226</ele>
        <time>2021-07-03T08:14:31Z</time>
      </trkpt>
      <trkpt lat="47.645" lon="6.18168">
        <ele>225.1</ele>
        <time>2021-07-03T08:14:32Z</time>
      </trkpt>
      <trkpt lat="47.64497" lon="6.18156">
        <ele>224.7</ele>
        <time>2021-07-03T08:14:34Z</time>
      </trkpt>
      <trkpt lat="47.64495" lon="6.18144">
        <ele>224.4</ele>
        <time>2021-07-03T08:14:36Z</time>
      </trkpt>
      <trkpt lat="47.64494" lon="6.18134">
        <ele>224.1</ele>
        <time>2021-07-03T08:14:38Z</time>
      </trkpt>
      <trkpt lat="47.64496" lon="6.18123">
        <ele>223.9</ele>
        <time>2021-07-03T08:14:40Z</time>
      </trkpt>
      <trkpt lat="47.64498" lon="6.18113">
        <ele>223.7</ele>
        <time>2021-07-03T08:14:42Z</time>
      </trkpt>
      <trkpt lat="47.645" lon="6.18101">
        <ele>223.4</ele>
        <time>2021-07-03T08:14:44Z</time>
      </trkpt>
      <trkpt lat="47.64502" lon="6.18093">
        <ele>223.6</ele>
        <time>2021-07-03T08:14:46Z</time>
      </trkpt>
      <trkpt lat="47.64504" lon="6.18083">
        <ele>223.8</ele>
        <time>2021-07-03T08:14:48Z</time>
      </trkpt>
      <trkpt lat="47.64506" lon="6.18074">
        <ele>224.2</ele>
        <time>2021-07-03T08:14:50Z</time>
      </trkpt>
      <trkpt lat="47.64508" lon="6.18065">
        <ele>224.5</ele>
        <time>2021-07-03T08:14:52Z</time>
      </trkpt>
      <trkpt lat="47.64511" lon="6.18057">
        <ele>224.9</ele>
        <time>2021-07-03T08:14:54Z</time>
      </trkpt>
      <trkpt lat="47.64513" lon="6.1805">
        <ele>225.2</ele>
        <time>2021-07-03T08:14:56Z</time>
      </trkpt>
      <trkpt lat="47.64517" lon="6.18044">
        <ele>225.8</ele>
        <time>2021-07-03T08:14:58Z</time>
      </trkpt>
      <trkpt lat="47.64521" lon="6.1804">
        <ele>226.3</ele>
        <time>2021-07-03T08:15:01Z</time>
      </trkpt>
      <trkpt lat="47.64527" lon="6.18035">
        <ele>227.1</ele>
        <time>2021-07-03T08:15:03Z</time>
      </trkpt>
      <trkpt lat="47.64531" lon="6.18031">
        <ele>227.6</ele>
        <time>2021-07-03T08:15:04Z</time>
      </trkpt>
      <trkpt lat="47.64536" lon="6.18029">
        <ele>228.4</ele>
        <time>2021-07-03T08:15:07Z</time>
      </trkpt>
      <trkpt lat="47.64542" lon="6.18032">
        <ele>229.3</ele>
        <time>2021-07-03T08:15:11Z</time>
      </trkpt>
      <trkpt lat="47.6454" lon="6.1804">
        <ele>229.4</ele>
        <time>2021-07-03T08:15:13Z</time>
      </trkpt>
      <trkpt lat="47.6454" lon="6.18047">
        <ele>229.7</ele>
        <time>2021-07-03T08:15:16Z</time>
      </trkpt>
      <trkpt lat="47.64541" lon="6.18055">
        <ele>230.2</ele>
        <time>2021-07-03T08:15:19Z</time>
      </trkpt>
      <trkpt lat="47.64541" lon="6.18063">
        <ele>230.6</ele>
        <time>2021-07-03T08:15:23Z</time>
      </trkpt>
      <trkpt lat="47.64543" lon="6.18071">
        <ele>231.2</ele>
        <time>2021-07-03T08:15:26Z</time>
      </trkpt>
      <trkpt lat="47.64542" lon="6.18078">
        <ele>231.4</ele>
        <time>2021-07-03T08:15:32Z</time>
      </trkpt>
      <trkpt lat="47.64543" lon="6.18086">
        <ele>231.9</ele>
        <time>2021-07-03T08:15:36Z</time>
      </trkpt>
      <trkpt lat="47.64544" lon="6.18093">
        <ele>232.1</ele>
        <time>2021-07-03T08:15:40Z</time>
      </trkpt>
      <trkpt lat="47.64545" lon="6.181">
        <ele>232.6</ele>
        <time>2021-07-03T08:15:44Z</time>
      </trkpt>
      <trkpt lat="47.6455" lon="6.18104">
        <ele>233.6</ele>
        <time>2021-07-03T08:15:47Z</time>
      </trkpt>
      <trkpt lat="47.64554" lon="6.181">
        <ele>234.5</ele>
        <time>2021-07-03T08:15:52Z</time>
      </trkpt>
      <trkpt lat="47.64558" lon="6.18095">
        <ele>235.2</ele>
        <time>2021-07-03T08:15:56Z</time>
      </trkpt>
      <trkpt lat="47.64562" lon="6.18089">
        <ele>235.7</ele>
        <time>2021-07-03T08:15:59Z</time>
      </trkpt>
      <trkpt lat="47.64564" lon="6.18083">
        <ele>236</ele>
        <time>2021-07-03T08:16:04Z</time>
      </trkpt>
      <trkpt lat="47.64567" lon="6.18076">
        <ele>236.1</ele>
        <time>2021-07-03T08:16:08Z</time>
      </trkpt>
      <trkpt lat="47.6457" lon="6.1807">
        <ele>236.3</ele>
        <time>2021-07-03T08:16:13Z</time>
      </trkpt>
      <trkpt lat="47.64572" lon="6.18063">
        <ele>236.1</ele>
        <time>2021-07-03T08:16:18Z</time>
      </trkpt>
      <trkpt lat="47.64574" lon="6.18057">
        <ele>236.2</ele>
        <time>2021-07-03T08:16:21Z</time>
      </trkpt>
      <trkpt lat="47.64578" lon="6.18052">
        <ele>236.5</ele>
        <time>2021-07-03T08:16:27Z</time>
      </trkpt>
      <trkpt lat="47.64582" lon="6.18047">
        <ele>236.7</ele>
        <time>2021-07-03T08:16:31Z</time>
      </trkpt>
      <trkpt lat="47.64584" lon="6.18041">
        <ele>236.5</ele>
        <time>2021-07-03T08:16:36Z</time>
      </trkpt>
      <trkpt lat="47.64587" lon="6.18034">
        <ele>236</ele>
        <time>2021-07-03T08:16:41Z</time>
      </trkpt>
      <trkpt lat="47.64591" lon="6.1803">
        <ele>235.9</ele>
        <time>2021-07-03T08:16:47Z</time>
      </trkpt>
      <trkpt lat="47.64593" lon="6.18024">
        <ele>235.4</ele>
        <time>2021-07-03T08:16:51Z</time>
      </trkpt>
      <trkpt lat="47.64598" lon="6.18022">
        <ele>235.4</ele>
        <time>2021-07-03T08:16:56Z</time>
      </trkpt>
      <trkpt lat="47.64603" lon="6.18022">
        <ele>235.6</ele>
        <time>2021-07-03T08:17:00Z</time>
      </trkpt>
      <trkpt lat="47.64607" lon="6.18017">
        <ele>235.3</ele>
        <time>2021-07-03T08:17:03Z</time>
      </trkpt>
      <trkpt lat="47.64612" lon="6.18014">
        <ele>235.1</ele>
        <time>2021-07-03T08:17:06Z</time>
      </trkpt>
      <trkpt lat="47.64617" lon="6.18014">
        <ele>235.3</ele>
        <time>2021-07-03T08:17:10Z</time>
      </trkpt>
      <trkpt lat="47.64621" lon="6.18011">
        <ele>235.1</ele>
        <time>2021-07-03T08:17:16Z</time>
      </trkpt>
      <trkpt lat="47.64627" lon="6.18015">
        <ele>235.8</ele>
        <time>2021-07-03T08:17:20Z</time>
      </trkpt>
      <trkpt lat="47.64631" lon="6.18021">
        <ele>236.7</ele>
        <time>2021-07-03T08:17:27Z</time>
      </trkpt>
      <trkpt lat="47.64637" lon="6.18027">
        <ele>237.7</ele>
        <time>2021-07-03T08:17:30Z</time>
      </trkpt>
      <trkpt lat="47.64642" lon="6.18033">
        <ele>238.6</ele>
        <time>2021-07-03T08:17:36Z</time>
      </trkpt>
      <trkpt lat="47.64646" lon="6.18037">
        <ele>239.3</ele>
        <time>2021-07-03T08:17:40Z</time>
      </trkpt>
      <trkpt lat="47.6465" lon="6.1804">
        <ele>239.9</ele>
        <time>2021-07-03T08:17:44Z</time>
      </trkpt>
      <trkpt lat="47.64655" lon="6.18043">
        <ele>240.6</ele>
        <time>2021-07-03T08:17:48Z</time>
      </trkpt>
      <trkpt lat="47.64659" lon="6.1805">
        <ele>241.8</ele>
        <time>2021-07-03T08:17:51Z</time>
      </trkpt>
      <trkpt lat="47.64663" lon="6.18056">
        <ele>242.8</ele>
        <time>2021-07-03T08:17:55Z</time>
      </trkpt>
      <trkpt lat="47.64667" lon="6.18062">
        <ele>243.9</ele>
        <time>2021-07-03T08:17:58Z</time>
      </trkpt>
      <trkpt lat="47.6467" lon="6.18066">
        <ele>244</ele>
        <time>2021-07-03T08:18:01Z</time>
      </trkpt>
      <trkpt lat="47.64675" lon="6.18071">
        <ele>244.1</ele>
        <time>2021-07-03T08:18:05Z</time>
      </trkpt>
      <trkpt lat="47.64679" lon="6.18075">
        <ele>244.1</ele>
        <time>2021-07-03T08:18:08Z</time>
      </trkpt>
      <trkpt lat="47.64683" lon="6.18081">
        <ele>244.4</ele>
        <time>2021-07-03T08:18:12Z</time>
      </trkpt>
      <trkpt lat="47.64687" lon="6.18087">
        <ele>244.6</ele>
        <time>2021-07-03T08:18:14Z</time>
      </trkpt>
      <trkpt lat="47.64692" lon="6.18093">
        <ele>244.4</ele>
        <time>2021-07-03T08:18:19Z</time>
      </trkpt>
      <trkpt lat="47.64696" lon="6.18098">
        <ele>244.4</ele>
        <time>2021-07-03T08:18:21Z</time>
      </trkpt>
      <trkpt lat="47.647" lon="6.18103">
        <ele>244.5</ele>
        <time>2021-07-03T08:18:25Z</time>
      </trkpt>
      <trkpt lat="47.64703" lon="6.18109">
        <ele>244.7</ele>
        <time>2021-07-03T08:18:27Z</time>
      </trkpt>
      <trkpt lat="47.64707" lon="6.18116">
        <ele>245</ele>
        <time>2021-07-03T08:18:31Z</time>
      </trkpt>
      <trkpt lat="47.64711" lon="6.18121">
        <ele>245.2</ele>
        <time>2021-07-03T08:18:32Z</time>
      </trkpt>
      <trkpt lat="47.64714" lon="6.18126">
        <ele>245.5</ele>
        <time>2021-07-03T08:18:35Z</time>
      </trkpt>
      <trkpt lat="47.64718" lon="6.18131">
        <ele>245.7</ele>
        <time>2021-07-03T08:18:38Z</time>
      </trkpt>
      <trkpt lat="47.64722" lon="6.18137">
        <ele>246.1</ele>
        <time>2021-07-03T08:18:41Z</time>
      </trkpt>
      <trkpt lat="47.64725" lon="6.18142">
        <ele>246.5</ele>
        <time>2021-07-03T08:18:43Z</time>
      </trkpt>
      <trkpt lat="47.6473" lon="6.18149">
        <ele>247.2</ele>
        <time>2021-07-03T08:18:46Z</time>
      </trkpt>
      <trkpt lat="47.64734" lon="6.18155">
        <ele>247.8</ele>
        <time>2021-07-03T08:18:49Z</time>
      </trkpt>
      <trkpt lat="47.64737" lon="6.1816">
        <ele>248.3</ele>
        <time>2021-07-03T08:18:51Z</time>
      </trkpt>
      <trkpt lat="47.64741" lon="6.18165">
        <ele>248.9</ele>
        <time>2021-07-03T08:18:54Z</time>
      </trkpt>
      <trkpt lat="47.64744" lon="6.1817">
        <ele>249.3</ele>
        <time>2021-07-03T08:18:55Z</time>
      </trkpt>
      <trkpt lat="47.64749" lon="6.18175">
        <ele>249.6</ele>
        <time>2021-07-03T08:18:59Z</time>
      </trkpt>
      <trkpt lat="47.64754" lon="6.1818">
        <ele>249.5</ele>
        <time>2021-07-03T08:19:01Z</time>
      </trkpt>
      <trkpt lat="47.64758" lon="6.18184">
        <ele>249.3</ele>
        <time>2021-07-03T08:19:03Z</time>
      </trkpt>
      <trkpt lat="47.64763" lon="6.18191">
        <ele>249.1</ele>
        <time>2021-07-03T08:19:06Z</time>
      </trkpt>
      <trkpt lat="47.64767" lon="6.18195">
        <ele>249.1</ele>
        <time>2021-07-03T08:19:07Z</time>
      </trkpt>
      <trkpt lat="47.64773" lon="6.18202">
        <ele>249</ele>
        <time>2021-07-03T08:19:10Z</time>
      </trkpt>
      <trkpt lat="47.64784" lon="6.18212">
        <ele>248.9</ele>
        <time>2021-07-03T08:19:13Z</time>
      </trkpt>
      <trkpt lat="47.64788" lon="6.18215">
        <ele>248.8</ele>
        <time>2021-07-03T08:19:14Z</time>
      </trkpt>
      <trkpt lat="47.64794" lon="6.18219">
        <ele>248.8</ele>
        <time>2021-07-03T08:19:15Z</time>
      </trkpt>
      <trkpt lat="47.64799" lon="6.18223">
        <ele>248.7</ele>
        <time>2021-07-03T08:19:17Z</time>
      </trkpt>
      <trkpt lat="47.64804" lon="6.18226">
        <ele>248.7</ele>
        <time>2021-07-03T08:19:18Z</time>
      </trkpt>
      <trkpt lat="47.64816" lon="6.18232">
        <ele>248.5</ele>
        <time>2021-07-03T08:19:20Z</time>
      </trkpt>
      <trkpt lat="47.64821" lon="6.18235">
        <ele>248.6</ele>
        <time>2021-07-03T08:19:22Z</time>
      </trkpt>
      <trkpt lat="47.64832" lon="6.18241">
        <ele>248.7</ele>
        <time>2021-07-03T08:19:25Z</time>
      </trkpt>
      <trkpt lat="47.64838" lon="6.18243">
        <ele>248.8</ele>
        <time>2021-07-03T08:19:27Z</time>
      </trkpt>
      <trkpt lat="47.64842" lon="6.18246">
        <ele>249</ele>
        <time>2021-07-03T08:19:29Z</time>
      </trkpt>
      <trkpt lat="47.64849" lon="6.1825">
        <ele>249.4</ele>
        <time>2021-07-03T08:19:32Z</time>
      </trkpt>
      <trkpt lat="47.64854" lon="6.18253">
        <ele>249.4</ele>
        <time>2021-07-03T08:19:33Z</time>
      </trkpt>
      <trkpt lat="47.64858" lon="6.18258">
        <ele>249.6</ele>
        <time>2021-07-03T08:19:36Z</time>
      </trkpt>
      <trkpt lat="47.64863" lon="6.18261">
        <ele>249.7</ele>
        <time>2021-07-03T08:19:38Z</time>
      </trkpt>
      <trkpt lat="47.64868" lon="6.18265">
        <ele>249.8</ele>
        <time>2021-07-03T08:19:40Z</time>
      </trkpt>
      <trkpt lat="47.64872" lon="6.18268">
        <ele>249.9</ele>
        <time>2021-07-03T08:19:42Z</time>
      </trkpt>
      <trkpt lat="47.64877" lon="6.18272">
        <ele>250</ele>
        <time>2021-07-03T08:19:43Z</time>
      </trkpt>
      <trkpt lat="47.64882" lon="6.18275">
        <ele>250.1</ele>
        <time>2021-07-03T08:19:45Z</time>
      </trkpt>
      <trkpt lat="47.64887" lon="6.18279">
        <ele>250.2</ele>
        <time>2021-07-03T08:19:47Z</time>
      </trkpt>
      <trkpt lat="47.64892" lon="6.18282">
        <ele>250.3</ele>
        <time>2021-07-03T08:19:49Z</time>
      </trkpt>
      <trkpt lat="47.64898" lon="6.18286">
        <ele>250.5</ele>
        <time>2021-07-03T08:19:52Z</time>
      </trkpt>
      <trkpt lat="47.64902" lon="6.1829">
        <ele>250.7</ele>
        <time>2021-07-03T08:19:55Z</time>
      </trkpt>
      <trkpt lat="47.64907" lon="6.18295">
        <ele>251</ele>
        <time>2021-07-03T08:19:59Z</time>
      </trkpt>
      <trkpt lat="47.64911" lon="6.18298">
        <ele>251.2</ele>
        <time>2021-07-03T08:20:03Z</time>
      </trkpt>
      <trkpt lat="47.64916" lon="6.18301">
        <ele>251.3</ele>
        <time>2021-07-03T08:20:08Z</time>
      </trkpt>
      <trkpt lat="47.64921" lon="6.18305">
        <ele>251.6</ele>
        <time>2021-07-03T08:20:10Z</time>
      </trkpt>
      <trkpt lat="47.64925" lon="6.18308">
        <ele>251.9</ele>
        <time>2021-07-03T08:20:13Z</time>
      </trkpt>
      <trkpt lat="47.64931" lon="6.18308">
        <ele>252</ele>
        <time>2021-07-03T08:20:18Z</time>
      </trkpt>
      <trkpt lat="47.64937" lon="6.18308">
        <ele>252</ele>
        <time>2021-07-03T08:20:20Z</time>
      </trkpt>
      <trkpt lat="47.64943" lon="6.18308">
        <ele>252</ele>
        <time>2021-07-03T08:20:22Z</time>
      </trkpt>
      <trkpt lat="47.64949" lon="6.18308">
        <ele>252.1</ele>
        <time>2021-07-03T08:20:24Z</time>
      </trkpt>
      <trkpt lat="47.64954" lon="6.18308">
        <ele>252.2</ele>
        <time>2021-07-03T08:20:24Z</time>
      </trkpt>
      <trkpt lat="47.64959" lon="6.18308">
        <ele>252.2</ele>
        <time>2021-07-03T08:20:28Z</time>
      </trkpt>
      <trkpt lat="47.64964" lon="6.18308">
        <ele>252.2</ele>
        <time>2021-07-03T08:20:30Z</time>
      </trkpt>
      <trkpt lat="47.6497" lon="6.18309">
        <ele>252.3</ele>
        <time>2021-07-03T08:20:33Z</time>
      </trkpt>
      <trkpt lat="47.64977" lon="6.18309">
        <ele>252.4</ele>
        <time>2021-07-03T08:20:36Z</time>
      </trkpt>
      <trkpt lat="47.64982" lon="6.1831">
        <ele>252.5</ele>
        <time>2021-07-03T08:20:38Z</time>
      </trkpt>
      <trkpt lat="47.64989" lon="6.18309">
        <ele>252.5</ele>
        <time>2021-07-03T08:20:41Z</time>
      </trkpt>
      <trkpt lat="47.64995" lon="6.18309">
        <ele>252.5</ele>
        <time>2021-07-03T08:20:41Z</time>
      </trkpt>
      <trkpt lat="47.65001" lon="6.18309">
        <ele>252.6</ele>
        <time>2021-07-03T08:20:46Z</time>
      </trkpt>
      <trkpt lat="47.65007" lon="6.1831">
        <ele>252.8</ele>
        <time>2021-07-03T08:20:48Z</time>
      </trkpt>
      <trkpt lat="47.65012" lon="6.18311">
        <ele>253</ele>
        <time>2021-07-03T08:20:48Z</time>
      </trkpt>
      <trkpt lat="47.65018" lon="6.1831">
        <ele>253.2</ele>
        <time>2021-07-03T08:20:53Z</time>
      </trkpt>
      <trkpt lat="47.65024" lon="6.18313">
        <ele>253.5</ele>
        <time>2021-07-03T08:20:55Z</time>
      </trkpt>
      <trkpt lat="47.65029" lon="6.18315">
        <ele>253.7</ele>
        <time>2021-07-03T08:20:57Z</time>
      </trkpt>
      <trkpt lat="47.65034" lon="6.18317">
        <ele>254</ele>
        <time>2021-07-03T08:20:59Z</time>
      </trkpt>
      <trkpt lat="47.65039" lon="6.18319">
        <ele>254.2</ele>
        <time>2021-07-03T08:21:02Z</time>
      </trkpt>
      <trkpt lat="47.65044" lon="6.18321">
        <ele>254.5</ele>
        <time>2021-07-03T08:21:04Z</time>
      </trkpt>
      <trkpt lat="47.65049" lon="6.18323">
        <ele>254.7</ele>
        <time>2021-07-03T08:21:04Z</time>
      </trkpt>
      <trkpt lat="47.65053" lon="6.18326">
        <ele>254.9</ele>
        <time>2021-07-03T08:21:06Z</time>
      </trkpt>
      <trkpt lat="47.65057" lon="6.18328">
        <ele>255.2</ele>
        <time>2021-07-03T08:21:10Z</time>
      </trkpt>
      <trkpt lat="47.65061" lon="6.18332">
        <ele>255.4</ele>
        <time>2021-07-03T08:21:13Z</time>
      </trkpt>
      <trkpt lat="47.65067" lon="6.18337">
        <ele>255.7</ele>
        <time>2021-07-03T08:21:16Z</time>
      </trkpt>
      <trkpt lat="47.65072" lon="6.18342">
        <ele>255.8</ele>
        <time>2021-07-03T08:21:19Z</time>
      </trkpt>
      <trkpt lat="47.65076" lon="6.18347">
        <ele>256</ele>
        <time>2021-07-03T08:21:21Z</time>
      </trkpt>
      <trkpt lat="47.6508" lon="6.18352">
        <ele>256.2</ele>
        <time>2021-07-03T08:21:24Z</time>
      </trkpt>
      <trkpt lat="47.65085" lon="6.18356">
        <ele>256.3</ele>
        <time>2021-07-03T08:21:26Z</time>
      </trkpt>
      <trkpt lat="47.6509" lon="6.1836">
        <ele>256.5</ele>
        <time>2021-07-03T08:21:28Z</time>
      </trkpt>
      <trkpt lat="47.65094" lon="6.18364">
        <ele>256.6</ele>
        <time>2021-07-03T08:21:31Z</time>
      </trkpt>
      <trkpt lat="47.65101" lon="6.18369">
        <ele>256.8</ele>
        <time>2021-07-03T08:21:34Z</time>
      </trkpt>
      <trkpt lat="47.65105" lon="6.18373">
        <ele>257</ele>
        <time>2021-07-03T08:21:37Z</time>
      </trkpt>
      <trkpt lat="47.65109" lon="6.18376">
        <ele>257.1</ele>
        <time>2021-07-03T08:21:39Z</time>
      </trkpt>
      <trkpt lat="47.65113" lon="6.18381">
        <ele>257.3</ele>
        <time>2021-07-03T08:21:42Z</time>
      </trkpt>
      <trkpt lat="47.65117" lon="6.18387">
        <ele>257.5</ele>
        <time>2021-07-03T08:21:45Z</time>
      </trkpt>
      <trkpt lat="47.65122" lon="6.18392">
        <ele>257.6</ele>
        <time>2021-07-03T08:21:48Z</time>
      </trkpt>
      <trkpt lat="47.65126" lon="6.18395">
        <ele>257.8</ele>
        <time>2021-07-03T08:21:49Z</time>
      </trkpt>
      <trkpt lat="47.65131" lon="6.18397">
        <ele>257.9</ele>
        <time>2021-07-03T08:21:55Z</time>
      </trkpt>
      <trkpt lat="47.65135" lon="6.184">
        <ele>258</ele>
        <time>2021-07-03T08:21:58Z</time>
      </trkpt>
      <trkpt lat="47.65139" lon="6.18403">
        <ele>258.2</ele>
        <time>2021-07-03T08:22:01Z</time>
      </trkpt>
      <trkpt lat="47.65144" lon="6.18406">
        <ele>258.3</ele>
        <time>2021-07-03T08:22:04Z</time>
      </trkpt>
      <trkpt lat="47.65148" lon="6.18409">
        <ele>258.5</ele>
        <time>2021-07-03T08:22:04Z</time>
      </trkpt>
      <trkpt lat="47.65153" lon="6.18413">
        <ele>258.6</ele>
        <time>2021-07-03T08:22:09Z</time>
      </trkpt>
      <trkpt lat="47.65158" lon="6.18417">
        <ele>258.8</ele>
        <time>2021-07-03T08:22:12Z</time>
      </trkpt>
      <trkpt lat="47.65163" lon="6.18421">
        <ele>259</ele>
        <time>2021-07-03T08:22:15Z</time>
      </trkpt>
      <trkpt lat="47.65168" lon="6.18426">
        <ele>259.1</ele>
        <time>2021-07-03T08:22:17Z</time>
      </trkpt>
      <trkpt lat="47.65172" lon="6.18431">
        <ele>259.4</ele>
        <time>2021-07-03T08:22:21Z</time>
      </trkpt>
      <trkpt lat="47.65176" lon="6.18436">
        <ele>259.6</ele>
        <time>2021-07-03T08:22:21Z</time>
      </trkpt>
      <trkpt lat="47.6518" lon="6.18441">
        <ele>259.8</ele>
        <time>2021-07-03T08:22:26Z</time>
      </trkpt>
      <trkpt lat="47.65184" lon="6.18448">
        <ele>260</ele>
        <time>2021-07-03T08:22:29Z</time>
      </trkpt>
      <trkpt lat="47.65188" lon="6.18454">
        <ele>260.2</ele>
        <time>2021-07-03T08:22:32Z</time>
      </trkpt>
      <trkpt lat="47.65191" lon="6.18458">
        <ele>260.4</ele>
        <time>2021-07-03T08:22:34Z</time>
      </trkpt>
      <trkpt lat="47.65195" lon="6.18465">
        <ele>260.6</ele>
        <time>2021-07-03T08:22:37Z</time>
      </trkpt>
      <trkpt lat="47.65199" lon="6.18472">
        <ele>260.8</ele>
        <time>2021-07-03T08:22:40Z</time>
      </trkpt>
      <trkpt lat="47.65203" lon="6.18478">
        <ele>261</ele>
        <time>2021-07-03T08:22:43Z</time>
      </trkpt>
      <trkpt lat="47.65206" lon="6.18484">
        <ele>261.2</ele>
        <time>2021-07-03T08:22:45Z</time>
      </trkpt>
      <trkpt lat="47.6521" lon="6.18492">
        <ele>261.5</ele>
        <time>2021-07-03T08:22:47Z</time>
      </trkpt>
      <trkpt lat="47.65214" lon="6.18497">
        <ele>261.7</ele>
        <time>2021-07-03T08:22:52Z</time>
      </trkpt>
      <trkpt lat="47.65218" lon="6.18503">
        <ele>261.9</ele>
        <time>2021-07-03T08:22:55Z</time>
      </trkpt>
      <trkpt lat="47.65221" lon="6.18511">
        <ele>262.2</ele>
        <time>2021-07-03T08:22:58Z</time>
      </trkpt>
      <trkpt lat="47.65224" lon="6.18517">
        <ele>262.5</ele>
        <time>2021-07-03T08:23:01Z</time>
      </trkpt>
      <trkpt lat="47.65227" lon="6.18523">
        <ele>262.7</ele>
        <time>2021-07-03T08:23:04Z</time>
      </trkpt>
      <trkpt lat="47.65229" lon="6.18529">
        <ele>262.9</ele>
        <time>2021-07-03T08:23:06Z</time>
      </trkpt>
      <trkpt lat="47.65232" lon="6.18536">
        <ele>263.2</ele>
        <time>2021-07-03T08:23:09Z</time>
      </trkpt>
      <trkpt lat="47.65235" lon="6.18543">
        <ele>263.5</ele>
        <time>2021-07-03T08:23:12Z</time>
      </trkpt>
      <trkpt lat="47.65239" lon="6.18551">
        <ele>263.8</ele>
        <time>2021-07-03T08:23:15Z</time>
      </trkpt>
      <trkpt lat="47.65242" lon="6.18558">
        <ele>264.1</ele>
        <time>2021-07-03T08:23:18Z</time>
      </trkpt>
      <trkpt lat="47.65246" lon="6.18566">
        <ele>264.4</ele>
        <time>2021-07-03T08:23:21Z</time>
      </trkpt>
      <trkpt lat="47.65249" lon="6.18571">
        <ele>264.7</ele>
        <time>2021-07-03T08:23:23Z</time>
      </trkpt>
      <trkpt lat="47.65253" lon="6.18579">
        <ele>265</ele>
        <time>2021-07-03T08:23:24Z</time>
      </trkpt>
      <trkpt lat="47.65256" lon="6.18585">
        <ele>265.2</ele>
        <time>2021-07-03T08:23:29Z</time>
      </trkpt>
      <trkpt lat="47.65258" lon="6.18591">
        <ele>265.3</ele>
        <time>2021-07-03T08:23:29Z</time>
      </trkpt>
      <trkpt lat="47.65261" lon="6.18596">
        <ele>265.4</ele>
        <time>2021-07-03T08:23:33Z</time>
      </trkpt>
      <trkpt lat="47.65265" lon="6.18605">
        <ele>265.6</ele>
        <time>2021-07-03T08:23:35Z</time>
      </trkpt>
      <trkpt lat="47.65269" lon="6.1861">
        <ele>265.8</ele>
        <time>2021-07-03T08:23:40Z</time>
      </trkpt>
      <trkpt lat="47.65273" lon="6.18617">
        <ele>266</ele>
        <time>2021-07-03T08:23:43Z</time>
      </trkpt>
      <trkpt lat="47.65276" lon="6.18623">
        <ele>266.2</ele>
        <time>2021-07-03T08:23:46Z</time>
      </trkpt>
      <trkpt lat="47.6528" lon="6.18629">
        <ele>266.5</ele>
        <time>2021-07-03T08:23:49Z</time>
      </trkpt>
      <trkpt lat="47.65284" lon="6.18633">
        <ele>266.7</ele>
        <time>2021-07-03T08:23:49Z</time>
      </trkpt>
      <trkpt lat="47.65289" lon="6.18639">
        <ele>267</ele>
        <time>2021-07-03T08:23:54Z</time>
      </trkpt>
      <trkpt lat="47.65293" lon="6.18645">
        <ele>267.3</ele>
        <time>2021-07-03T08:23:57Z</time>
      </trkpt>
      <trkpt lat="47.65297" lon="6.18649">
        <ele>267.6</ele>
        <time>2021-07-03T08:23:57Z</time>
      </trkpt>
      <trkpt lat="47.65301" lon="6.18654">
        <ele>267.9</ele>
        <time>2021-07-03T08:24:02Z</time>
      </trkpt>
      <trkpt lat="47.65307" lon="6.1866">
        <ele>268.3</ele>
        <time>2021-07-03T08:24:03Z</time>
      </trkpt>
      <trkpt lat="47.6531" lon="6.18665">
        <ele>268.6</ele>
        <time>2021-07-03T08:24:08Z</time>
      </trkpt>
      <trkpt lat="47.65315" lon="6.18672">
        <ele>268.9</ele>
        <time>2021-07-03T08:24:12Z</time>
      </trkpt>
      <trkpt lat="47.65317" lon="6.18678">
        <ele>269.2</ele>
        <time>2021-07-03T08:24:15Z</time>
      </trkpt>
      <trkpt lat="47.65315" lon="6.18686">
        <ele>269.2</ele>
        <time>2021-07-03T08:24:18Z</time>
      </trkpt>
      <trkpt lat="47.65312" lon="6.18692">
        <ele>269.1</ele>
        <time>2021-07-03T08:24:22Z</time>
      </trkpt>
      <trkpt lat="47.65308" lon="6.18697">
        <ele>268.9</ele>
        <time>2021-07-03T08:24:25Z</time>
      </trkpt>
      <trkpt lat="47.65304" lon="6.18701">
        <ele>268.8</ele>
        <time>2021-07-03T08:24:27Z</time>
      </trkpt>
      <trkpt lat="47.65299" lon="6.18707">
        <ele>268.6</ele>
        <time>2021-07-03T08:24:30Z</time>
      </trkpt>
      <trkpt lat="47.65295" lon="6.18711">
        <ele>268.5</ele>
        <time>2021-07-03T08:24:32Z</time>
      </trkpt>
      <trkpt lat="47.65291" lon="6.18715">
        <ele>268.3</ele>
        <time>2021-07-03T08:24:34Z</time>
      </trkpt>
      <trkpt lat="47.65286" lon="6.1872">
        <ele>268.2</ele>
        <time>2021-07-03T08:24:36Z</time>
      </trkpt>
      <trkpt lat="47.65281" lon="6.18726">
        <ele>268</ele>
        <time>2021-07-03T08:24:38Z</time>
      </trkpt>
      <trkpt lat="47.65277" lon="6.18731">
        <ele>267.9</ele>
        <time>2021-07-03T08:24:39Z</time>
      </trkpt>
      <trkpt lat="47.6527" lon="6.18739">
        <ele>267.7</ele>
        <time>2021-07-03T08:24:39Z</time>
      </trkpt>
      <trkpt lat="47.65266" lon="6.18744">
        <ele>267.6</ele>
        <time>2021-07-03T08:24:40Z</time>
      </trkpt>
      <trkpt lat="47.6526" lon="6.1875">
        <ele>267.5</ele>
        <time>2021-07-03T08:24:43Z</time>
      </trkpt>
      <trkpt lat="47.65255" lon="6.18755">
        <ele>267.4</ele>
        <time>2021-07-03T08:24:45Z</time>
      </trkpt>
      <trkpt lat="47.65243" lon="6.18769">
        <ele>267.4</ele>
        <time>2021-07-03T08:24:48Z</time>
      </trkpt>
      <trkpt lat="47.65237" lon="6.18777">
        <ele>267.5</ele>
        <time>2021-07-03T08:24:50Z</time>
      </trkpt>
      <trkpt lat="47.65233" lon="6.18782">
        <ele>267.6</ele>
        <time>2021-07-03T08:24:51Z</time>
      </trkpt>
      <trkpt lat="47.65228" lon="6.18787">
        <ele>267.6</ele>
        <time>2021-07-03T08:24:52Z</time>
      </trkpt>
      <trkpt lat="47.65224" lon="6.18791">
        <ele>267.7</ele>
        <time>2021-07-03T08:24:53Z</time>
      </trkpt>
      <trkpt lat="47.65218" lon="6.18798">
        <ele>267.8</ele>
        <time>2021-07-03T08:24:55Z</time>
      </trkpt>
      <trkpt lat="47.65214" lon="6.18802">
        <ele>267.8</ele>
        <time>2021-07-03T08:24:56Z</time>
      </trkpt>
      <trkpt lat="47.6521" lon="6.18807">
        <ele>267.9</ele>
        <time>2021-07-03T08:24:57Z</time>
      </trkpt>
      <trkpt lat="47.65207" lon="6.18811">
        <ele>267.9</ele>
        <time>2021-07-03T08:24:59Z</time>
      </trkpt>
      <trkpt lat="47.65203" lon="6.18815">
        <ele>268</ele>
        <time>2021-07-03T08:25:00Z</time>
      </trkpt>
      <trkpt lat="47.65199" lon="6.1882">
        <ele>268.1</ele>
        <time>2021-07-03T08:25:02Z</time>
      </trkpt>
      <trkpt lat="47.65193" lon="6.18825">
        <ele>268.1</ele>
        <time>2021-07-03T08:25:04Z</time>
      </trkpt>
      <trkpt lat="47.65188" lon="6.18831">
        <ele>268.2</ele>
        <time>2021-07-03T08:25:06Z</time>
      </trkpt>
      <trkpt lat="47.65183" lon="6.18835">
        <ele>268.3</ele>
        <time>2021-07-03T08:25:08Z</time>
      </trkpt>
      <trkpt lat="47.65179" lon="6.18839">
        <ele>268.3</ele>
        <time>2021-07-03T08:25:10Z</time>
      </trkpt>
      <trkpt lat="47.65174" lon="6.18844">
        <ele>268.4</ele>
        <time>2021-07-03T08:25:10Z</time>
      </trkpt>
      <trkpt lat="47.6517" lon="6.18848">
        <ele>268.4</ele>
        <time>2021-07-03T08:25:14Z</time>
      </trkpt>
      <trkpt lat="47.65165" lon="6.18853">
        <ele>268.5</ele>
        <time>2021-07-03T08:25:16Z</time>
      </trkpt>
      <trkpt lat="47.65161" lon="6.18857">
        <ele>268.6</ele>
        <time>2021-07-03T08:25:16Z</time>
      </trkpt>
      <trkpt lat="47.65156" lon="6.18863">
        <ele>268.7</ele>
        <time>2021-07-03T08:25:18Z</time>
      </trkpt>
      <trkpt lat="47.65153" lon="6.18868">
        <ele>268.9</ele>
        <time>2021-07-03T08:25:22Z</time>
      </trkpt>
      <trkpt lat="47.65148" lon="6.18873">
        <ele>269</ele>
        <time>2021-07-03T08:25:24Z</time>
      </trkpt>
      <trkpt lat="47.65144" lon="6.18878">
        <ele>269</ele>
        <time>2021-07-03T08:25:25Z</time>
      </trkpt>
      <trkpt lat="47.65139" lon="6.18883">
        <ele>269.1</ele>
        <time>2021-07-03T08:25:27Z</time>
      </trkpt>
      <trkpt lat="47.65134" lon="6.18888">
        <ele>269.2</ele>
        <time>2021-07-03T08:25:29Z</time>
      </trkpt>
      <trkpt lat="47.65126" lon="6.18897">
        <ele>269.3</ele>
        <time>2021-07-03T08:25:31Z</time>
      </trkpt>
      <trkpt lat="47.65119" lon="6.18904">
        <ele>269.3</ele>
        <time>2021-07-03T08:25:33Z</time>
      </trkpt>
      <trkpt lat="47.65108" lon="6.18915">
        <ele>269.3</ele>
        <time>2021-07-03T08:25:36Z</time>
      </trkpt>
      <trkpt lat="47.65102" lon="6.1892">
        <ele>269.2</ele>
        <time>2021-07-03T08:25:38Z</time>
      </trkpt>
      <trkpt lat="47.65097" lon="6.18925">
        <ele>269.2</ele>
        <time>2021-07-03T08:25:39Z</time>
      </trkpt>
      <trkpt lat="47.65091" lon="6.18931">
        <ele>269.1</ele>
        <time>2021-07-03T08:25:42Z</time>
      </trkpt>
      <trkpt lat="47.65087" lon="6.18936">
        <ele>269.1</ele>
        <time>2021-07-03T08:25:44Z</time>
      </trkpt>
      <trkpt lat="47.65082" lon="6.18942">
        <ele>268.9</ele>
        <time>2021-07-03T08:25:47Z</time>
      </trkpt>
      <trkpt lat="47.65078" lon="6.18948">
        <ele>268.8</ele>
        <time>2021-07-03T08:25:48Z</time>
      </trkpt>
      <trkpt lat="47.65074" lon="6.18952">
        <ele>268.6</ele>
        <time>2021-07-03T08:25:53Z</time>
      </trkpt>
      <trkpt lat="47.65069" lon="6.18956">
        <ele>268.4</ele>
        <time>2021-07-03T08:25:56Z</time>
      </trkpt>
      <trkpt lat="47.65063" lon="6.18962">
        <ele>268.1</ele>
        <time>2021-07-03T08:25:59Z</time>
      </trkpt>
      <trkpt lat="47.65059" lon="6.18967">
        <ele>267.9</ele>
        <time>2021-07-03T08:26:01Z</time>
      </trkpt>
      <trkpt lat="47.65054" lon="6.18972">
        <ele>267.7</ele>
        <time>2021-07-03T08:26:03Z</time>
      </trkpt>
      <trkpt lat="47.65049" lon="6.18977">
        <ele>267.5</ele>
        <time>2021-07-03T08:26:05Z</time>
      </trkpt>
      <trkpt lat="47.65044" lon="6.18983">
        <ele>267.2</ele>
        <time>2021-07-03T08:26:07Z</time>
      </trkpt>
      <trkpt lat="47.65038" lon="6.18989">
        <ele>266.9</ele>
        <time>2021-07-03T08:26:09Z</time>
      </trkpt>
      <trkpt lat="47.65032" lon="6.18995">
        <ele>266.6</ele>
        <time>2021-07-03T08:26:09Z</time>
      </trkpt>
      <trkpt lat="47.65026" lon="6.19002">
        <ele>266.2</ele>
        <time>2021-07-03T08:26:13Z</time>
      </trkpt>
      <trkpt lat="47.65019" lon="6.19008">
        <ele>265.8</ele>
        <time>2021-07-03T08:26:15Z</time>
      </trkpt>
      <trkpt lat="47.65015" lon="6.19012">
        <ele>265.6</ele>
        <time>2021-07-03T08:26:16Z</time>
      </trkpt>
      <trkpt lat="47.65009" lon="6.19019">
        <ele>265.2</ele>
        <time>2021-07-03T08:26:18Z</time>
      </trkpt>
      <trkpt lat="47.65005" lon="6.19023">
        <ele>264.9</ele>
        <time>2021-07-03T08:26:19Z</time>
      </trkpt>
      <trkpt lat="47.64999" lon="6.19029">
        <ele>264.6</ele>
        <time>2021-07-03T08:26:21Z</time>
      </trkpt>
      <trkpt lat="47.64992" lon="6.19036">
        <ele>264.1</ele>
        <time>2021-07-03T08:26:22Z</time>
      </trkpt>
      <trkpt lat="47.64989" lon="6.19041">
        <ele>263.8</ele>
        <time>2021-07-03T08:26:24Z</time>
      </trkpt>
      <trkpt lat="47.64985" lon="6.19049">
        <ele>263.5</ele>
        <time>2021-07-03T08:26:25Z</time>
      </trkpt>
      <trkpt lat="47.64984" lon="6.19062">
        <ele>263.3</ele>
        <time>2021-07-03T08:26:26Z</time>
      </trkpt>
      <trkpt lat="47.64987" lon="6.19068">
        <ele>263.4</ele>
        <time>2021-07-03T08:26:30Z</time>
      </trkpt>
      <trkpt lat="47.64991" lon="6.19076">
        <ele>263.6</ele>
        <time>2021-07-03T08:26:30Z</time>
      </trkpt>
      <trkpt lat="47.64995" lon="6.19083">
        <ele>263.7</ele>
        <time>2021-07-03T08:26:34Z</time>
      </trkpt>
      <trkpt lat="47.64998" lon="6.19089">
        <ele>263.8</ele>
        <time>2021-07-03T08:26:34Z</time>
      </trkpt>
      <trkpt lat="47.65004" lon="6.19097">
        <ele>264</ele>
        <time>2021-07-03T08:26:39Z</time>
      </trkpt>
      <trkpt lat="47.65007" lon="6.19102">
        <ele>264.1</ele>
        <time>2021-07-03T08:26:41Z</time>
      </trkpt>
      <trkpt lat="47.6501" lon="6.19107">
        <ele>264.2</ele>
        <time>2021-07-03T08:26:43Z</time>
      </trkpt>
      <trkpt lat="47.65013" lon="6.19113">
        <ele>264.3</ele>
        <time>2021-07-03T08:26:45Z</time>
      </trkpt>
      <trkpt lat="47.65017" lon="6.1912">
        <ele>264.4</ele>
        <time>2021-07-03T08:26:45Z</time>
      </trkpt>
      <trkpt lat="47.65022" lon="6.19126">
        <ele>264.5</ele>
        <time>2021-07-03T08:26:50Z</time>
      </trkpt>
      <trkpt lat="47.65026" lon="6.19133">
        <ele>264.6</ele>
        <time>2021-07-03T08:26:52Z</time>
      </trkpt>
      <trkpt lat="47.6503" lon="6.19139">
        <ele>264.8</ele>
        <time>2021-07-03T08:26:54Z</time>
      </trkpt>
      <trkpt lat="47.65033" lon="6.19145">
        <ele>264.8</ele>
        <time>2021-07-03T08:26:57Z</time>
      </trkpt>
      <trkpt lat="47.65036" lon="6.19152">
        <ele>264.9</ele>
        <time>2021-07-03T08:26:59Z</time>
      </trkpt>
      <trkpt lat="47.65039" lon="6.19157">
        <ele>265</ele>
        <time>2021-07-03T08:27:01Z</time>
      </trkpt>
      <trkpt lat="47.65043" lon="6.19163">
        <ele>265.1</ele>
        <time>2021-07-03T08:27:03Z</time>
      </trkpt>
      <trkpt lat="47.65047" lon="6.19169">
        <ele>265.2</ele>
        <time>2021-07-03T08:27:05Z</time>
      </trkpt>
      <trkpt lat="47.65052" lon="6.19177">
        <ele>265.4</ele>
        <time>2021-07-03T08:27:08Z</time>
      </trkpt>
      <trkpt lat="47.65055" lon="6.19182">
        <ele>265.6</ele>
        <time>2021-07-03T08:27:10Z</time>
      </trkpt>
      <trkpt lat="47.65059" lon="6.19189">
        <ele>265.8</ele>
        <time>2021-07-03T08:27:12Z</time>
      </trkpt>
      <trkpt lat="47.65063" lon="6.19195">
        <ele>265.9</ele>
        <time>2021-07-03T08:27:14Z</time>
      </trkpt>
      <trkpt lat="47.65067" lon="6.192">
        <ele>266.1</ele>
        <time>2021-07-03T08:27:16Z</time>
      </trkpt>
      <trkpt lat="47.6507" lon="6.19205">
        <ele>266.3</ele>
        <time>2021-07-03T08:27:18Z</time>
      </trkpt>
      <trkpt lat="47.65074" lon="6.1921">
        <ele>266.5</ele>
        <time>2021-07-03T08:27:20Z</time>
      </trkpt>
      <trkpt lat="47.65077" lon="6.19215">
        <ele>266.7</ele>
        <time>2021-07-03T08:27:22Z</time>
      </trkpt>
      <trkpt lat="47.65081" lon="6.19221">
        <ele>266.9</ele>
        <time>2021-07-03T08:27:24Z</time>
      </trkpt>
      <trkpt lat="47.65085" lon="6.19227">
        <ele>267.1</ele>
        <time>2021-07-03T08:27:24Z</time>
      </trkpt>
      <trkpt lat="47.65089" lon="6.19233">
        <ele>267.2</ele>
        <time>2021-07-03T08:27:26Z</time>
      </trkpt>
      <trkpt lat="47.65092" lon="6.19238">
        <ele>267.3</ele>
        <time>2021-07-03T08:27:28Z</time>
      </trkpt>
      <trkpt lat="47.65095" lon="6.19244">
        <ele>267.4</ele>
        <time>2021-07-03T08:27:30Z</time>
      </trkpt>
      <trkpt lat="47.651" lon="6.1925">
        <ele>267.6</ele>
        <time>2021-07-03T08:27:35Z</time>
      </trkpt>
      <trkpt lat="47.65104" lon="6.19255">
        <ele>267.6</ele>
        <time>2021-07-03T08:27:37Z</time>
      </trkpt>
      <trkpt lat="47.65108" lon="6.1926">
        <ele>267.6</ele>
        <time>2021-07-03T08:27:39Z</time>
      </trkpt>
      <trkpt lat="47.65112" lon="6.19265">
        <ele>267.7</ele>
        <time>2021-07-03T08:27:41Z</time>
      </trkpt>
      <trkpt lat="47.65116" lon="6.19272">
        <ele>267.7</ele>
        <time>2021-07-03T08:27:43Z</time>
      </trkpt>
      <trkpt lat="47.6512" lon="6.19276">
        <ele>267.7</ele>
        <time>2021-07-03T08:27:43Z</time>
      </trkpt>
      <trkpt lat="47.65125" lon="6.19282">
        <ele>267.7</ele>
        <time>2021-07-03T08:27:48Z</time>
      </trkpt>
      <trkpt lat="47.65129" lon="6.19287">
        <ele>267.7</ele>
        <time>2021-07-03T08:27:50Z</time>
      </trkpt>
      <trkpt lat="47.65133" lon="6.19292">
        <ele>267.8</ele>
        <time>2021-07-03T08:27:51Z</time>
      </trkpt>
      <trkpt lat="47.65137" lon="6.19297">
        <ele>267.8</ele>
        <time>2021-07-03T08:27:53Z</time>
      </trkpt>
      <trkpt lat="47.65141" lon="6.19301">
        <ele>267.9</ele>
        <time>2021-07-03T08:27:56Z</time>
      </trkpt>
      <trkpt lat="47.65147" lon="6.19305">
        <ele>268</ele>
        <time>2021-07-03T08:27:58Z</time>
      </trkpt>
      <trkpt lat="47.65151" lon="6.19309">
        <ele>268</ele>
        <time>2021-07-03T08:28:00Z</time>
      </trkpt>
      <trkpt lat="47.65155" lon="6.19314">
        <ele>268.1</ele>
        <time>2021-07-03T08:28:02Z</time>
      </trkpt>
      <trkpt lat="47.6516" lon="6.19318">
        <ele>268.1</ele>
        <time>2021-07-03T08:28:04Z</time>
      </trkpt>
      <trkpt lat="47.65165" lon="6.19324">
        <ele>268.2</ele>
        <time>2021-07-03T08:28:06Z</time>
      </trkpt>
      <trkpt lat="47.65169" lon="6.19329">
        <ele>268.2</ele>
        <time>2021-07-03T08:28:07Z</time>
      </trkpt>
      <trkpt lat="47.65175" lon="6.19335">
        <ele>268.2</ele>
        <time>2021-07-03T08:28:10Z</time>
      </trkpt>
      <trkpt lat="47.65179" lon="6.19341">
        <ele>268.2</ele>
        <time>2021-07-03T08:28:12Z</time>
      </trkpt>
      <trkpt lat="47.65184" lon="6.19347">
        <ele>268.2</ele>
        <time>2021-07-03T08:28:14Z</time>
      </trkpt>
      <trkpt lat="47.65189" lon="6.19356">
        <ele>268.2</ele>
        <time>2021-07-03T08:28:16Z</time>
      </trkpt>
      <trkpt lat="47.65193" lon="6.19362">
        <ele>268.2</ele>
        <time>2021-07-03T08:28:18Z</time>
      </trkpt>
      <trkpt lat="47.65196" lon="6.19368">
        <ele>268.1</ele>
        <time>2021-07-03T08:28:19Z</time>
      </trkpt>
      <trkpt lat="47.652" lon="6.19373">
        <ele>268</ele>
        <time>2021-07-03T08:28:20Z</time>
      </trkpt>
      <trkpt lat="47.65204" lon="6.19381">
        <ele>267.9</ele>
        <time>2021-07-03T08:28:22Z</time>
      </trkpt>
      <trkpt lat="47.65209" lon="6.1939">
        <ele>267.8</ele>
        <time>2021-07-03T08:28:22Z</time>
      </trkpt>
      <trkpt lat="47.65213" lon="6.19397">
        <ele>267.7</ele>
        <time>2021-07-03T08:28:26Z</time>
      </trkpt>
      <trkpt lat="47.65216" lon="6.19403">
        <ele>267.6</ele>
        <time>2021-07-03T08:28:27Z</time>
      </trkpt>
      <trkpt lat="47.6522" lon="6.1941">
        <ele>267.5</ele>
        <time>2021-07-03T08:28:29Z</time>
      </trkpt>
      <trkpt lat="47.65227" lon="6.19423">
        <ele>267.5</ele>
        <time>2021-07-03T08:28:32Z</time>
      </trkpt>
      <trkpt lat="47.6523" lon="6.19428">
        <ele>267.6</ele>
        <time>2021-07-03T08:28:33Z</time>
      </trkpt>
      <trkpt lat="47.65234" lon="6.19435">
        <ele>267.7</ele>
        <time>2021-07-03T08:28:35Z</time>
      </trkpt>
      <trkpt lat="47.6524" lon="6.19441">
        <ele>267.9</ele>
        <time>2021-07-03T08:28:37Z</time>
      </trkpt>
      <trkpt lat="47.65245" lon="6.19445">
        <ele>268.2</ele>
        <time>2021-07-03T08:28:39Z</time>
      </trkpt>
      <trkpt lat="47.65249" lon="6.19451">
        <ele>268.4</ele>
        <time>2021-07-03T08:28:41Z</time>
      </trkpt>
      <trkpt lat="47.65254" lon="6.19457">
        <ele>268.7</ele>
        <time>2021-07-03T08:28:44Z</time>
      </trkpt>
      <trkpt lat="47.65258" lon="6.19463">
        <ele>269</ele>
        <time>2021-07-03T08:28:46Z</time>
      </trkpt>
      <trkpt lat="47.65262" lon="6.19469">
        <ele>269.3</ele>
        <time>2021-07-03T08:28:46Z</time>
      </trkpt>
      <trkpt lat="47.65265" lon="6.19476">
        <ele>269.6</ele>
        <time>2021-07-03T08:28:48Z</time>
      </trkpt>
      <trkpt lat="47.65269" lon="6.19483">
        <ele>269.8</ele>
        <time>2021-07-03T08:28:52Z</time>
      </trkpt>
      <trkpt lat="47.65272" lon="6.19489">
        <ele>270</ele>
        <time>2021-07-03T08:28:54Z</time>
      </trkpt>
      <trkpt lat="47.65276" lon="6.19496">
        <ele>270.2</ele>
        <time>2021-07-03T08:28:55Z</time>
      </trkpt>
      <trkpt lat="47.65278" lon="6.19502">
        <ele>270.3</ele>
        <time>2021-07-03T08:28:55Z</time>
      </trkpt>
      <trkpt lat="47.65281" lon="6.1951">
        <ele>270.4</ele>
        <time>2021-07-03T08:28:57Z</time>
      </trkpt>
      <trkpt lat="47.65283" lon="6.19518">
        <ele>270.4</ele>
        <time>2021-07-03T08:29:01Z</time>
      </trkpt>
      <trkpt lat="47.65284" lon="6.19526">
        <ele>270.4</ele>
        <time>2021-07-03T08:29:03Z</time>
      </trkpt>
      <trkpt lat="47.65286" lon="6.19534">
        <ele>270.5</ele>
        <time>2021-07-03T08:29:04Z</time>
      </trkpt>
      <trkpt lat="47.65288" lon="6.19544">
        <ele>270.6</ele>
        <time>2021-07-03T08:29:07Z</time>
      </trkpt>
      <trkpt lat="47.65291" lon="6.19553">
        <ele>270.7</ele>
        <time>2021-07-03T08:29:09Z</time>
      </trkpt>
      <trkpt lat="47.65294" lon="6.19563">
        <ele>270.8</ele>
        <time>2021-07-03T08:29:11Z</time>
      </trkpt>
      <trkpt lat="47.653" lon="6.19574">
        <ele>271</ele>
        <time>2021-07-03T08:29:13Z</time>
      </trkpt>
      <trkpt lat="47.65305" lon="6.19585">
        <ele>271.2</ele>
        <time>2021-07-03T08:29:15Z</time>
      </trkpt>
      <trkpt lat="47.65308" lon="6.19596">
        <ele>271.1</ele>
        <time>2021-07-03T08:29:17Z</time>
      </trkpt>
      <trkpt lat="47.65311" lon="6.19603">
        <ele>271.1</ele>
        <time>2021-07-03T08:29:19Z</time>
      </trkpt>
      <trkpt lat="47.65314" lon="6.19612">
        <ele>271</ele>
        <time>2021-07-03T08:29:20Z</time>
      </trkpt>
      <trkpt lat="47.65317" lon="6.19624">
        <ele>270.7</ele>
        <time>2021-07-03T08:29:22Z</time>
      </trkpt>
      <trkpt lat="47.65318" lon="6.19631">
        <ele>270.6</ele>
        <time>2021-07-03T08:29:23Z</time>
      </trkpt>
      <trkpt lat="47.65321" lon="6.19641">
        <ele>270.4</ele>
        <time>2021-07-03T08:29:24Z</time>
      </trkpt>
      <trkpt lat="47.65322" lon="6.19647">
        <ele>270.2</ele>
        <time>2021-07-03T08:29:26Z</time>
      </trkpt>
      <trkpt lat="47.65324" lon="6.19654">
        <ele>270.1</ele>
        <time>2021-07-03T08:29:27Z</time>
      </trkpt>
      <trkpt lat="47.65326" lon="6.19663">
        <ele>269.9</ele>
        <time>2021-07-03T08:29:29Z</time>
      </trkpt>
      <trkpt lat="47.6533" lon="6.19671">
        <ele>269.7</ele>
        <time>2021-07-03T08:29:31Z</time>
      </trkpt>
      <trkpt lat="47.65334" lon="6.19677">
        <ele>269.5</ele>
        <time>2021-07-03T08:29:32Z</time>
      </trkpt>
      <trkpt lat="47.65337" lon="6.19682">
        <ele>269.6</ele>
        <time>2021-07-03T08:29:33Z</time>
      </trkpt>
      <trkpt lat="47.65339" lon="6.19688">
        <ele>269.6</ele>
        <time>2021-07-03T08:29:36Z</time>
      </trkpt>
      <trkpt lat="47.65342" lon="6.19694">
        <ele>269.6</ele>
        <time>2021-07-03T08:29:37Z</time>
      </trkpt>
      <trkpt lat="47.65345" lon="6.197">
        <ele>269.6</ele>
        <time>2021-07-03T08:29:39Z</time>
      </trkpt>
      <trkpt lat="47.65348" lon="6.19708">
        <ele>269.6</ele>
        <time>2021-07-03T08:29:41Z</time>
      </trkpt>
      <trkpt lat="47.65352" lon="6.19718">
        <ele>269.6</ele>
        <time>2021-07-03T08:29:44Z</time>
      </trkpt>
      <trkpt lat="47.65355" lon="6.19725">
        <ele>269.6</ele>
        <time>2021-07-03T08:29:46Z</time>
      </trkpt>
      <trkpt lat="47.65358" lon="6.19733">
        <ele>269.5</ele>
        <time>2021-07-03T08:29:48Z</time>
      </trkpt>
      <trkpt lat="47.65361" lon="6.19739">
        <ele>269.5</ele>
        <time>2021-07-03T08:29:49Z</time>
      </trkpt>
      <trkpt lat="47.65363" lon="6.19745">
        <ele>269.5</ele>
        <time>2021-07-03T08:29:50Z</time>
      </trkpt>
      <trkpt lat="47.65366" lon="6.19751">
        <ele>269.5</ele>
        <time>2021-07-03T08:29:52Z</time>
      </trkpt>
      <trkpt lat="47.65368" lon="6.19758">
        <ele>269.4</ele>
        <time>2021-07-03T08:29:54Z</time>
      </trkpt>
      <trkpt lat="47.65372" lon="6.19765">
        <ele>269.3</ele>
        <time>2021-07-03T08:29:56Z</time>
      </trkpt>
      <trkpt lat="47.65374" lon="6.19773">
        <ele>269.2</ele>
        <time>2021-07-03T08:29:57Z</time>
      </trkpt>
      <trkpt lat="47.65379" lon="6.19782">
        <ele>269.2</ele>
        <time>2021-07-03T08:30:01Z</time>
      </trkpt>
      <trkpt lat="47.65382" lon="6.19787">
        <ele>269.4</ele>
        <time>2021-07-03T08:30:03Z</time>
      </trkpt>
      <trkpt lat="47.65385" lon="6.19792">
        <ele>269.5</ele>
        <time>2021-07-03T08:30:04Z</time>
      </trkpt>
      <trkpt lat="47.65389" lon="6.19799">
        <ele>269.6</ele>
        <time>2021-07-03T08:30:07Z</time>
      </trkpt>
      <trkpt lat="47.65392" lon="6.19805">
        <ele>269.8</ele>
        <time>2021-07-03T08:30:09Z</time>
      </trkpt>
      <trkpt lat="47.65396" lon="6.19813">
        <ele>269.9</ele>
        <time>2021-07-03T08:30:11Z</time>
      </trkpt>
      <trkpt lat="47.654" lon="6.19819">
        <ele>270.2</ele>
        <time>2021-07-03T08:30:12Z</time>
      </trkpt>
      <trkpt lat="47.65403" lon="6.19825">
        <ele>270.5</ele>
        <time>2021-07-03T08:30:15Z</time>
      </trkpt>
      <trkpt lat="47.65407" lon="6.19829">
        <ele>270.8</ele>
        <time>2021-07-03T08:30:17Z</time>
      </trkpt>
      <trkpt lat="47.65411" lon="6.19834">
        <ele>271.1</ele>
        <time>2021-07-03T08:30:19Z</time>
      </trkpt>
      <trkpt lat="47.65415" lon="6.1984">
        <ele>271.1</ele>
        <time>2021-07-03T08:30:20Z</time>
      </trkpt>
      <trkpt lat="47.65419" lon="6.19845">
        <ele>271</ele>
        <time>2021-07-03T08:30:23Z</time>
      </trkpt>
      <trkpt lat="47.65423" lon="6.19851">
        <ele>270.8</ele>
        <time>2021-07-03T08:30:25Z</time>
      </trkpt>
      <trkpt lat="47.65426" lon="6.19857">
        <ele>270.4</ele>
        <time>2021-07-03T08:30:27Z</time>
      </trkpt>
      <trkpt lat="47.65431" lon="6.19865">
        <ele>270.1</ele>
        <time>2021-07-03T08:30:29Z</time>
      </trkpt>
      <trkpt lat="47.65435" lon="6.19873">
        <ele>269.6</ele>
        <time>2021-07-03T08:30:32Z</time>
      </trkpt>
      <trkpt lat="47.65438" lon="6.19881">
        <ele>269.1</ele>
        <time>2021-07-03T08:30:33Z</time>
      </trkpt>
      <trkpt lat="47.65441" lon="6.19889">
        <ele>268.6</ele>
        <time>2021-07-03T08:30:36Z</time>
      </trkpt>
      <trkpt lat="47.65444" lon="6.19896">
        <ele>268.2</ele>
        <time>2021-07-03T08:30:38Z</time>
      </trkpt>
      <trkpt lat="47.65446" lon="6.19903">
        <ele>267.7</ele>
        <time>2021-07-03T08:30:39Z</time>
      </trkpt>
      <trkpt lat="47.65449" lon="6.1991">
        <ele>267.3</ele>
        <time>2021-07-03T08:30:41Z</time>
      </trkpt>
      <trkpt lat="47.65451" lon="6.19917">
        <ele>266.9</ele>
        <time>2021-07-03T08:30:43Z</time>
      </trkpt>
      <trkpt lat="47.65454" lon="6.19926">
        <ele>266.5</ele>
        <time>2021-07-03T08:30:45Z</time>
      </trkpt>
      <trkpt lat="47.65457" lon="6.19936">
        <ele>266.1</ele>
        <time>2021-07-03T08:30:47Z</time>
      </trkpt>
      <trkpt lat="47.65461" lon="6.19946">
        <ele>265.9</ele>
        <time>2021-07-03T08:30:49Z</time>
      </trkpt>
      <trkpt lat="47.65465" lon="6.19954">
        <ele>265.9</ele>
        <time>2021-07-03T08:30:51Z</time>
      </trkpt>
      <trkpt lat="47.65473" lon="6.19967">
        <ele>266.1</ele>
        <time>2021-07-03T08:30:54Z</time>
      </trkpt>
      <trkpt lat="47.65476" lon="6.19973">
        <ele>266.3</ele>
        <time>2021-07-03T08:30:55Z</time>
      </trkpt>
      <trkpt lat="47.65479" lon="6.19978">
        <ele>266.5</ele>
        <time>2021-07-03T08:30:57Z</time>
      </trkpt>
      <trkpt lat="47.65483" lon="6.19984">
        <ele>266.8</ele>
        <time>2021-07-03T08:30:58Z</time>
      </trkpt>
      <trkpt lat="47.65487" lon="6.1999">
        <ele>267.2</ele>
        <time>2021-07-03T08:30:59Z</time>
      </trkpt>
      <trkpt lat="47.6549" lon="6.19996">
        <ele>267.5</ele>
        <time>2021-07-03T08:31:02Z</time>
      </trkpt>
      <trkpt lat="47.65495" lon="6.20003">
        <ele>268.1</ele>
        <time>2021-07-03T08:31:03Z</time>
      </trkpt>
      <trkpt lat="47.655" lon="6.20009">
        <ele>268.6</ele>
        <time>2021-07-03T08:31:07Z</time>
      </trkpt>
      <trkpt lat="47.65504" lon="6.20014">
        <ele>268.7</ele>
        <time>2021-07-03T08:31:09Z</time>
      </trkpt>
      <trkpt lat="47.65509" lon="6.2002">
        <ele>268.8</ele>
        <time>2021-07-03T08:31:11Z</time>
      </trkpt>
      <trkpt lat="47.65515" lon="6.20025">
        <ele>269</ele>
        <time>2021-07-03T08:31:13Z</time>
      </trkpt>
      <trkpt lat="47.6552" lon="6.20031">
        <ele>269.1</ele>
        <time>2021-07-03T08:31:15Z</time>
      </trkpt>
      <trkpt lat="47.65525" lon="6.20037">
        <ele>269.3</ele>
        <time>2021-07-03T08:31:17Z</time>
      </trkpt>
      <trkpt lat="47.6553" lon="6.20042">
        <ele>269.5</ele>
        <time>2021-07-03T08:31:19Z</time>
      </trkpt>
      <trkpt lat="47.65534" lon="6.20047">
        <ele>269.6</ele>
        <time>2021-07-03T08:31:21Z</time>
      </trkpt>
      <trkpt lat="47.65539" lon="6.20053">
        <ele>269.7</ele>
        <time>2021-07-03T08:31:23Z</time>
      </trkpt>
      <trkpt lat="47.65544" lon="6.20059">
        <ele>269.9</ele>
        <time>2021-07-03T08:31:25Z</time>
      </trkpt>
      <trkpt lat="47.65548" lon="6.20065">
        <ele>270</ele>
        <time>2021-07-03T08:31:27Z</time>
      </trkpt>
      <trkpt lat="47.65552" lon="6.20072">
        <ele>270.1</ele>
        <time>2021-07-03T08:31:29Z</time>
      </trkpt>
      <trkpt lat="47.65557" lon="6.20077">
        <ele>270.3</ele>
        <time>2021-07-03T08:31:31Z</time>
      </trkpt>
      <trkpt lat="47.65561" lon="6.20083">
        <ele>270.4</ele>
        <time>2021-07-03T08:31:33Z</time>
      </trkpt>
      <trkpt lat="47.65565" lon="6.20087">
        <ele>270.5</ele>
        <time>2021-07-03T08:31:35Z</time>
      </trkpt>
      <trkpt lat="47.65569" lon="6.20093">
        <ele>270.5</ele>
        <time>2021-07-03T08:31:37Z</time>
      </trkpt>
      <trkpt lat="47.65573" lon="6.20097">
        <ele>270.6</ele>
        <time>2021-07-03T08:31:39Z</time>
      </trkpt>
      <trkpt lat="47.65578" lon="6.20102">
        <ele>270.9</ele>
        <time>2021-07-03T08:31:41Z</time>
      </trkpt>
      <trkpt lat="47.65583" lon="6.20106">
        <ele>271.1</ele>
        <time>2021-07-03T08:31:43Z</time>
      </trkpt>
      <trkpt lat="47.65588" lon="6.20111">
        <ele>271.4</ele>
        <time>2021-07-03T08:31:44Z</time>
      </trkpt>
      <trkpt lat="47.65593" lon="6.20116">
        <ele>271.5</ele>
        <time>2021-07-03T08:31:46Z</time>
      </trkpt>
      <trkpt lat="47.65597" lon="6.2012">
        <ele>271.7</ele>
        <time>2021-07-03T08:31:49Z</time>
      </trkpt>
      <trkpt lat="47.65602" lon="6.20126">
        <ele>271.8</ele>
        <time>2021-07-03T08:31:52Z</time>
      </trkpt>
      <trkpt lat="47.65606" lon="6.2013">
        <ele>271.9</ele>
        <time>2021-07-03T08:31:54Z</time>
      </trkpt>
      <trkpt lat="47.65612" lon="6.20136">
        <ele>272.1</ele>
        <time>2021-07-03T08:31:56Z</time>
      </trkpt>
      <trkpt lat="47.65617" lon="6.20141">
        <ele>272.2</ele>
        <time>2021-07-03T08:31:58Z</time>
      </trkpt>
      <trkpt lat="47.65623" lon="6.20148">
        <ele>272.3</ele>
        <time>2021-07-03T08:32:00Z</time>
      </trkpt>
      <trkpt lat="47.65628" lon="6.20152">
        <ele>272.4</ele>
        <time>2021-07-03T08:32:03Z</time>
      </trkpt>
      <trkpt lat="47.65632" lon="6.20158">
        <ele>272.4</ele>
        <time>2021-07-03T08:32:05Z</time>
      </trkpt>
      <trkpt lat="47.65637" lon="6.20161">
        <ele>272.5</ele>
        <time>2021-07-03T08:32:08Z</time>
      </trkpt>
      <trkpt lat="47.6564" lon="6.20166">
        <ele>272.5</ele>
        <time>2021-07-03T08:32:10Z</time>
      </trkpt>
      <trkpt lat="47.65644" lon="6.20171">
        <ele>272.4</ele>
        <time>2021-07-03T08:32:12Z</time>
      </trkpt>
      <trkpt lat="47.65649" lon="6.20176">
        <ele>272.4</ele>
        <time>2021-07-03T08:32:15Z</time>
      </trkpt>
      <trkpt lat="47.65652" lon="6.20181">
        <ele>272.5</ele>
        <time>2021-07-03T08:32:16Z</time>
      </trkpt>
      <trkpt lat="47.65658" lon="6.20187">
        <ele>272.6</ele>
        <time>2021-07-03T08:32:18Z</time>
      </trkpt>
      <trkpt lat="47.65663" lon="6.20193">
        <ele>272.8</ele>
        <time>2021-07-03T08:32:21Z</time>
      </trkpt>
      <trkpt lat="47.65669" lon="6.202">
        <ele>273</ele>
        <time>2021-07-03T08:32:23Z</time>
      </trkpt>
      <trkpt lat="47.65675" lon="6.20209">
        <ele>273.4</ele>
        <time>2021-07-03T08:32:24Z</time>
      </trkpt>
      <trkpt lat="47.65681" lon="6.20217">
        <ele>273.6</ele>
        <time>2021-07-03T08:32:27Z</time>
      </trkpt>
      <trkpt lat="47.65688" lon="6.20225">
        <ele>273.9</ele>
        <time>2021-07-03T08:32:29Z</time>
      </trkpt>
      <trkpt lat="47.65693" lon="6.20231">
        <ele>274.1</ele>
        <time>2021-07-03T08:32:30Z</time>
      </trkpt>
      <trkpt lat="47.65696" lon="6.20236">
        <ele>274.2</ele>
        <time>2021-07-03T08:32:32Z</time>
      </trkpt>
      <trkpt lat="47.65702" lon="6.20242">
        <ele>274.4</ele>
        <time>2021-07-03T08:32:33Z</time>
      </trkpt>
      <trkpt lat="47.65706" lon="6.20249">
        <ele>274.3</ele>
        <time>2021-07-03T08:32:35Z</time>
      </trkpt>
      <trkpt lat="47.65711" lon="6.20254">
        <ele>274.1</ele>
        <time>2021-07-03T08:32:37Z</time>
      </trkpt>
      <trkpt lat="47.65717" lon="6.2026">
        <ele>273.5</ele>
        <time>2021-07-03T08:32:39Z</time>
      </trkpt>
      <trkpt lat="47.65721" lon="6.20266">
        <ele>272.9</ele>
        <time>2021-07-03T08:32:40Z</time>
      </trkpt>
      <trkpt lat="47.65725" lon="6.20271">
        <ele>272.2</ele>
        <time>2021-07-03T08:32:42Z</time>
      </trkpt>
      <trkpt lat="47.6573" lon="6.20277">
        <ele>271.6</ele>
        <time>2021-07-03T08:32:44Z</time>
      </trkpt>
      <trkpt lat="47.65739" lon="6.20288">
        <ele>270.4</ele>
        <time>2021-07-03T08:32:46Z</time>
      </trkpt>
      <trkpt lat="47.65744" lon="6.20293">
        <ele>269.9</ele>
        <time>2021-07-03T08:32:48Z</time>
      </trkpt>
      <trkpt lat="47.65757" lon="6.20307">
        <ele>268.4</ele>
        <time>2021-07-03T08:32:51Z</time>
      </trkpt>
      <trkpt lat="47.65772" lon="6.20321">
        <ele>267.3</ele>
        <time>2021-07-03T08:32:52Z</time>
      </trkpt>
      <trkpt lat="47.65777" lon="6.20325">
        <ele>267</ele>
        <time>2021-07-03T08:32:53Z</time>
      </trkpt>
      <trkpt lat="47.65781" lon="6.20329">
        <ele>266.7</ele>
        <time>2021-07-03T08:32:54Z</time>
      </trkpt>
      <trkpt lat="47.65786" lon="6.20333">
        <ele>266.4</ele>
        <time>2021-07-03T08:32:55Z</time>
      </trkpt>
      <trkpt lat="47.6579" lon="6.20337">
        <ele>266.3</ele>
        <time>2021-07-03T08:32:56Z</time>
      </trkpt>
      <trkpt lat="47.65794" lon="6.20341">
        <ele>266.2</ele>
        <time>2021-07-03T08:32:57Z</time>
      </trkpt>
      <trkpt lat="47.65799" lon="6.20346">
        <ele>266.1</ele>
        <time>2021-07-03T08:32:58Z</time>
      </trkpt>
      <trkpt lat="47.65803" lon="6.2035">
        <ele>266</ele>
        <time>2021-07-03T08:32:59Z</time>
      </trkpt>
      <trkpt lat="47.65807" lon="6.20355">
        <ele>265.8</ele>
        <time>2021-07-03T08:33:00Z</time>
      </trkpt>
      <trkpt lat="47.65812" lon="6.20359">
        <ele>265.7</ele>
        <time>2021-07-03T08:33:01Z</time>
      </trkpt>
      <trkpt lat="47.65816" lon="6.20364">
        <ele>265.6</ele>
        <time>2021-07-03T08:33:02Z</time>
      </trkpt>
      <trkpt lat="47.6582" lon="6.20368">
        <ele>265.5</ele>
        <time>2021-07-03T08:33:03Z</time>
      </trkpt>
      <trkpt lat="47.65825" lon="6.20373">
        <ele>265.4</ele>
        <time>2021-07-03T08:33:04Z</time>
      </trkpt>
      <trkpt lat="47.65829" lon="6.20378">
        <ele>265.2</ele>
        <time>2021-07-03T08:33:05Z</time>
      </trkpt>
      <trkpt lat="47.65833" lon="6.20382">
        <ele>265.1</ele>
        <time>2021-07-03T08:33:06Z</time>
      </trkpt>
      <trkpt lat="47.65837" lon="6.20386">
        <ele>265.2</ele>
        <time>2021-07-03T08:33:07Z</time>
      </trkpt>
      <trkpt lat="47.65841" lon="6.2039">
        <ele>265.2</ele>
        <time>2021-07-03T08:33:08Z</time>
      </trkpt>
      <trkpt lat="47.65845" lon="6.20394">
        <ele>265.2</ele>
        <time>2021-07-03T08:33:09Z</time>
      </trkpt>
      <trkpt lat="47.65852" lon="6.20401">
        <ele>265.2</ele>
        <time>2021-07-03T08:33:11Z</time>
      </trkpt>
      <trkpt lat="47.65858" lon="6.20407">
        <ele>265.3</ele>
        <time>2021-07-03T08:33:13Z</time>
      </trkpt>
      <trkpt lat="47.65862" lon="6.20411">
        <ele>265.5</ele>
        <time>2021-07-03T08:33:15Z</time>
      </trkpt>
      <trkpt lat="47.65868" lon="6.20416">
        <ele>265.6</ele>
        <time>2021-07-03T08:33:17Z</time>
      </trkpt>
      <trkpt lat="47.65872" lon="6.2042">
        <ele>265.7</ele>
        <time>2021-07-03T08:33:19Z</time>
      </trkpt>
      <trkpt lat="47.65881" lon="6.20426">
        <ele>266</ele>
        <time>2021-07-03T08:33:21Z</time>
      </trkpt>
      <trkpt lat="47.65886" lon="6.20428">
        <ele>266.5</ele>
        <time>2021-07-03T08:33:26Z</time>
      </trkpt>
      <trkpt lat="47.6589" lon="6.20433">
        <ele>266.3</ele>
        <time>2021-07-03T08:33:28Z</time>
      </trkpt>
      <trkpt lat="47.65894" lon="6.20439">
        <ele>266</ele>
        <time>2021-07-03T08:33:30Z</time>
      </trkpt>
      <trkpt lat="47.65898" lon="6.20445">
        <ele>265.6</ele>
        <time>2021-07-03T08:33:32Z</time>
      </trkpt>
      <trkpt lat="47.65902" lon="6.2045">
        <ele>265.4</ele>
        <time>2021-07-03T08:33:34Z</time>
      </trkpt>
      <trkpt lat="47.65909" lon="6.20458">
        <ele>265</ele>
        <time>2021-07-03T08:33:37Z</time>
      </trkpt>
      <trkpt lat="47.65913" lon="6.20462">
        <ele>265</ele>
        <time>2021-07-03T08:33:38Z</time>
      </trkpt>
      <trkpt lat="47.65918" lon="6.20465">
        <ele>265.1</ele>
        <time>2021-07-03T08:33:40Z</time>
      </trkpt>
      <trkpt lat="47.65922" lon="6.2047">
        <ele>264.9</ele>
        <time>2021-07-03T08:33:41Z</time>
      </trkpt>
      <trkpt lat="47.65927" lon="6.20474">
        <ele>264.7</ele>
        <time>2021-07-03T08:33:42Z</time>
      </trkpt>
      <trkpt lat="47.65932" lon="6.20478">
        <ele>264.6</ele>
        <time>2021-07-03T08:33:45Z</time>
      </trkpt>
      <trkpt lat="47.65937" lon="6.20481">
        <ele>264.5</ele>
        <time>2021-07-03T08:33:47Z</time>
      </trkpt>
      <trkpt lat="47.65942" lon="6.20484">
        <ele>264.6</ele>
        <time>2021-07-03T08:33:49Z</time>
      </trkpt>
      <trkpt lat="47.65948" lon="6.20487">
        <ele>264.6</ele>
        <time>2021-07-03T08:33:50Z</time>
      </trkpt>
      <trkpt lat="47.65953" lon="6.20491">
        <ele>264.4</ele>
        <time>2021-07-03T08:33:52Z</time>
      </trkpt>
      <trkpt lat="47.65958" lon="6.20494">
        <ele>264.3</ele>
        <time>2021-07-03T08:33:54Z</time>
      </trkpt>
      <trkpt lat="47.65963" lon="6.20498">
        <ele>264.2</ele>
        <time>2021-07-03T08:33:56Z</time>
      </trkpt>
      <trkpt lat="47.65968" lon="6.20501">
        <ele>264.1</ele>
        <time>2021-07-03T08:33:57Z</time>
      </trkpt>
      <trkpt lat="47.65974" lon="6.20506">
        <ele>263.9</ele>
        <time>2021-07-03T08:33:59Z</time>
      </trkpt>
      <trkpt lat="47.6598" lon="6.2051">
        <ele>263.9</ele>
        <time>2021-07-03T08:34:00Z</time>
      </trkpt>
      <trkpt lat="47.65986" lon="6.20513">
        <ele>263.8</ele>
        <time>2021-07-03T08:34:02Z</time>
      </trkpt>
      <trkpt lat="47.65993" lon="6.20517">
        <ele>263.7</ele>
        <time>2021-07-03T08:34:03Z</time>
      </trkpt>
      <trkpt lat="47.65998" lon="6.2052">
        <ele>263.8</ele>
        <time>2021-07-03T08:34:06Z</time>
      </trkpt>
      <trkpt lat="47.66006" lon="6.20523">
        <ele>264.2</ele>
        <time>2021-07-03T08:34:07Z</time>
      </trkpt>
      <trkpt lat="47.66011" lon="6.20526">
        <ele>264.5</ele>
        <time>2021-07-03T08:34:10Z</time>
      </trkpt>
      <trkpt lat="47.6602" lon="6.20529">
        <ele>265.2</ele>
        <time>2021-07-03T08:34:12Z</time>
      </trkpt>
      <trkpt lat="47.66027" lon="6.20532">
        <ele>265.6</ele>
        <time>2021-07-03T08:34:14Z</time>
      </trkpt>
      <trkpt lat="47.66039" lon="6.20538">
        <ele>266</ele>
        <time>2021-07-03T08:34:17Z</time>
      </trkpt>
      <trkpt lat="47.66045" lon="6.20542">
        <ele>266.2</ele>
        <time>2021-07-03T08:34:19Z</time>
      </trkpt>
      <trkpt lat="47.6605" lon="6.20544">
        <ele>266.4</ele>
        <time>2021-07-03T08:34:20Z</time>
      </trkpt>
      <trkpt lat="47.66056" lon="6.20548">
        <ele>266.4</ele>
        <time>2021-07-03T08:34:22Z</time>
      </trkpt>
      <trkpt lat="47.6606" lon="6.20552">
        <ele>266.2</ele>
        <time>2021-07-03T08:34:24Z</time>
      </trkpt>
      <trkpt lat="47.66066" lon="6.20555">
        <ele>266.3</ele>
        <time>2021-07-03T08:34:26Z</time>
      </trkpt>
      <trkpt lat="47.66071" lon="6.20558">
        <ele>266.4</ele>
        <time>2021-07-03T08:34:28Z</time>
      </trkpt>
      <trkpt lat="47.66077" lon="6.20561">
        <ele>266.6</ele>
        <time>2021-07-03T08:34:29Z</time>
      </trkpt>
      <trkpt lat="47.66081" lon="6.20563">
        <ele>266.7</ele>
        <time>2021-07-03T08:34:31Z</time>
      </trkpt>
      <trkpt lat="47.66087" lon="6.20566">
        <ele>266.6</ele>
        <time>2021-07-03T08:34:33Z</time>
      </trkpt>
      <trkpt lat="47.66092" lon="6.20569">
        <ele>266.7</ele>
        <time>2021-07-03T08:34:34Z</time>
      </trkpt>
      <trkpt lat="47.66099" lon="6.20573">
        <ele>266.5</ele>
        <time>2021-07-03T08:34:36Z</time>
      </trkpt>
      <trkpt lat="47.66104" lon="6.20576">
        <ele>266.5</ele>
        <time>2021-07-03T08:34:39Z</time>
      </trkpt>
      <trkpt lat="47.66109" lon="6.20579">
        <ele>266.4</ele>
        <time>2021-07-03T08:34:40Z</time>
      </trkpt>
      <trkpt lat="47.66117" lon="6.20583">
        <ele>266.2</ele>
        <time>2021-07-03T08:34:43Z</time>
      </trkpt>
      <trkpt lat="47.66122" lon="6.20586">
        <ele>266.3</ele>
        <time>2021-07-03T08:34:45Z</time>
      </trkpt>
      <trkpt lat="47.66127" lon="6.20589">
        <ele>266.2</ele>
        <time>2021-07-03T08:34:47Z</time>
      </trkpt>
      <trkpt lat="47.66132" lon="6.20592">
        <ele>266.2</ele>
        <time>2021-07-03T08:34:49Z</time>
      </trkpt>
      <trkpt lat="47.66137" lon="6.20594">
        <ele>266.3</ele>
        <time>2021-07-03T08:34:50Z</time>
      </trkpt>
      <trkpt lat="47.66142" lon="6.20597">
        <ele>266.2</ele>
        <time>2021-07-03T08:34:52Z</time>
      </trkpt>
      <trkpt lat="47.66147" lon="6.206">
        <ele>266.3</ele>
        <time>2021-07-03T08:34:55Z</time>
      </trkpt>
      <trkpt lat="47.66152" lon="6.20602">
        <ele>266.3</ele>
        <time>2021-07-03T08:34:58Z</time>
      </trkpt>
      <trkpt lat="47.66157" lon="6.20605">
        <ele>266.3</ele>
        <time>2021-07-03T08:34:59Z</time>
      </trkpt>
      <trkpt lat="47.66163" lon="6.20608">
        <ele>266.3</ele>
        <time>2021-07-03T08:35:02Z</time>
      </trkpt>
      <trkpt lat="47.66168" lon="6.2061">
        <ele>266.2</ele>
        <time>2021-07-03T08:35:05Z</time>
      </trkpt>
      <trkpt lat="47.66175" lon="6.20614">
        <ele>265.4</ele>
        <time>2021-07-03T08:35:07Z</time>
      </trkpt>
      <trkpt lat="47.66181" lon="6.20618">
        <ele>264.7</ele>
        <time>2021-07-03T08:35:09Z</time>
      </trkpt>
      <trkpt lat="47.66187" lon="6.20623">
        <ele>263.5</ele>
        <time>2021-07-03T08:35:11Z</time>
      </trkpt>
      <trkpt lat="47.6619" lon="6.2063">
        <ele>262.3</ele>
        <time>2021-07-03T08:35:13Z</time>
      </trkpt>
      <trkpt lat="47.66191" lon="6.20638">
        <ele>260.9</ele>
        <time>2021-07-03T08:35:14Z</time>
      </trkpt>
      <trkpt lat="47.66187" lon="6.20646">
        <ele>259.4</ele>
        <time>2021-07-03T08:35:17Z</time>
      </trkpt>
      <trkpt lat="47.66183" lon="6.20652">
        <ele>258.4</ele>
        <time>2021-07-03T08:35:19Z</time>
      </trkpt>
      <trkpt lat="47.66177" lon="6.20658">
        <ele>257.4</ele>
        <time>2021-07-03T08:35:21Z</time>
      </trkpt>
      <trkpt lat="47.66167" lon="6.2067">
        <ele>255.5</ele>
        <time>2021-07-03T08:35:23Z</time>
      </trkpt>
      <trkpt lat="47.66164" lon="6.20678">
        <ele>254</ele>
        <time>2021-07-03T08:35:25Z</time>
      </trkpt>
      <trkpt lat="47.66163" lon="6.20686">
        <ele>252.8</ele>
        <time>2021-07-03T08:35:28Z</time>
      </trkpt>
      <trkpt lat="47.66164" lon="6.20697">
        <ele>251.2</ele>
        <time>2021-07-03T08:35:30Z</time>
      </trkpt>
      <trkpt lat="47.66166" lon="6.20707">
        <ele>249.6</ele>
        <time>2021-07-03T08:35:31Z</time>
      </trkpt>
      <trkpt lat="47.66168" lon="6.20714">
        <ele>248.6</ele>
        <time>2021-07-03T08:35:33Z</time>
      </trkpt>
      <trkpt lat="47.66169" lon="6.20723">
        <ele>247.2</ele>
        <time>2021-07-03T08:35:34Z</time>
      </trkpt>
      <trkpt lat="47.66168" lon="6.20734">
        <ele>245.6</ele>
        <time>2021-07-03T08:35:37Z</time>
      </trkpt>
      <trkpt lat="47.66166" lon="6.20742">
        <ele>244.2</ele>
        <time>2021-07-03T08:35:39Z</time>
      </trkpt>
      <trkpt lat="47.66164" lon="6.20749">
        <ele>243.1</ele>
        <time>2021-07-03T08:35:40Z</time>
      </trkpt>
      <trkpt lat="47.66161" lon="6.20756">
        <ele>242.1</ele>
        <time>2021-07-03T08:35:41Z</time>
      </trkpt>
      <trkpt lat="47.66155" lon="6.20765">
        <ele>240.9</ele>
        <time>2021-07-03T08:35:43Z</time>
      </trkpt>
      <trkpt lat="47.6615" lon="6.20772">
        <ele>240</ele>
        <time>2021-07-03T08:35:44Z</time>
      </trkpt>
      <trkpt lat="47.66146" lon="6.20777">
        <ele>239.4</ele>
        <time>2021-07-03T08:35:45Z</time>
      </trkpt>
      <trkpt lat="47.66141" lon="6.20783">
        <ele>238.6</ele>
        <time>2021-07-03T08:35:47Z</time>
      </trkpt>
      <trkpt lat="47.66136" lon="6.20788">
        <ele>238</ele>
        <time>2021-07-03T08:35:48Z</time>
      </trkpt>
      <trkpt lat="47.6613" lon="6.20794">
        <ele>237.3</ele>
        <time>2021-07-03T08:35:49Z</time>
      </trkpt>
      <trkpt lat="47.66124" lon="6.20797">
        <ele>237</ele>
        <time>2021-07-03T08:35:52Z</time>
      </trkpt>
      <trkpt lat="47.66119" lon="6.20801">
        <ele>236.5</ele>
        <time>2021-07-03T08:35:53Z</time>
      </trkpt>
      <trkpt lat="47.66113" lon="6.20803">
        <ele>236.4</ele>
        <time>2021-07-03T08:35:56Z</time>
      </trkpt>
      <trkpt lat="47.66107" lon="6.20806">
        <ele>236.1</ele>
        <time>2021-07-03T08:35:57Z</time>
      </trkpt>
      <trkpt lat="47.66102" lon="6.20809">
        <ele>235.8</ele>
        <time>2021-07-03T08:35:59Z</time>
      </trkpt>
      <trkpt lat="47.66096" lon="6.20811">
        <ele>235.6</ele>
        <time>2021-07-03T08:36:02Z</time>
      </trkpt>
      <trkpt lat="47.66089" lon="6.20813">
        <ele>235.5</ele>
        <time>2021-07-03T08:36:05Z</time>
      </trkpt>
      <trkpt lat="47.66084" lon="6.20814">
        <ele>235.4</ele>
        <time>2021-07-03T08:36:07Z</time>
      </trkpt>
      <trkpt lat="47.66079" lon="6.20814">
        <ele>235.1</ele>
        <time>2021-07-03T08:36:09Z</time>
      </trkpt>
      <trkpt lat="47.66073" lon="6.20814">
        <ele>234.7</ele>
        <time>2021-07-03T08:36:11Z</time>
      </trkpt>
      <trkpt lat="47.66068" lon="6.20814">
        <ele>234.4</ele>
        <time>2021-07-03T08:36:13Z</time>
      </trkpt>
      <trkpt lat="47.66063" lon="6.20813">
        <ele>234.1</ele>
        <time>2021-07-03T08:36:15Z</time>
      </trkpt>
      <trkpt lat="47.66057" lon="6.20811">
        <ele>233.9</ele>
        <time>2021-07-03T08:36:17Z</time>
      </trkpt>
      <trkpt lat="47.66053" lon="6.20813">
        <ele>233.5</ele>
        <time>2021-07-03T08:36:19Z</time>
      </trkpt>
      <trkpt lat="47.66047" lon="6.20817">
        <ele>232.8</ele>
        <time>2021-07-03T08:36:22Z</time>
      </trkpt>
      <trkpt lat="47.66044" lon="6.20822">
        <ele>232.3</ele>
        <time>2021-07-03T08:36:24Z</time>
      </trkpt>
      <trkpt lat="47.6604" lon="6.20828">
        <ele>231.7</ele>
        <time>2021-07-03T08:36:26Z</time>
      </trkpt>
      <trkpt lat="47.66037" lon="6.20838">
        <ele>231</ele>
        <time>2021-07-03T08:36:28Z</time>
      </trkpt>
      <trkpt lat="47.66035" lon="6.20848">
        <ele>230.3</ele>
        <time>2021-07-03T08:36:30Z</time>
      </trkpt>
      <trkpt lat="47.66032" lon="6.20859">
        <ele>229.7</ele>
        <time>2021-07-03T08:36:32Z</time>
      </trkpt>
      <trkpt lat="47.66029" lon="6.2087">
        <ele>229</ele>
        <time>2021-07-03T08:36:34Z</time>
      </trkpt>
      <trkpt lat="47.66027" lon="6.20877">
        <ele>228.6</ele>
        <time>2021-07-03T08:36:35Z</time>
      </trkpt>
      <trkpt lat="47.66025" lon="6.20887">
        <ele>228</ele>
        <time>2021-07-03T08:36:37Z</time>
      </trkpt>
      <trkpt lat="47.66024" lon="6.20894">
        <ele>227.6</ele>
        <time>2021-07-03T08:36:39Z</time>
      </trkpt>
      <trkpt lat="47.66023" lon="6.20903">
        <ele>227.2</ele>
        <time>2021-07-03T08:36:42Z</time>
      </trkpt>
      <trkpt lat="47.66026" lon="6.20911">
        <ele>226.9</ele>
        <time>2021-07-03T08:36:45Z</time>
      </trkpt>
      <trkpt lat="47.6603" lon="6.20914">
        <ele>226.9</ele>
        <time>2021-07-03T08:36:47Z</time>
      </trkpt>
      <trkpt lat="47.66036" lon="6.20915">
        <ele>226.9</ele>
        <time>2021-07-03T08:36:49Z</time>
      </trkpt>
      <trkpt lat="47.6604" lon="6.20915">
        <ele>227.1</ele>
        <time>2021-07-03T08:36:51Z</time>
      </trkpt>
      <trkpt lat="47.66047" lon="6.20914">
        <ele>227.3</ele>
        <time>2021-07-03T08:36:54Z</time>
      </trkpt>
      <trkpt lat="47.66051" lon="6.20914">
        <ele>227.4</ele>
        <time>2021-07-03T08:36:56Z</time>
      </trkpt>
      <trkpt lat="47.66056" lon="6.20913">
        <ele>227.5</ele>
        <time>2021-07-03T08:36:58Z</time>
      </trkpt>
      <trkpt lat="47.66061" lon="6.20912">
        <ele>227.7</ele>
        <time>2021-07-03T08:37:00Z</time>
      </trkpt>
      <trkpt lat="47.66066" lon="6.20911">
        <ele>227.9</ele>
        <time>2021-07-03T08:37:02Z</time>
      </trkpt>
      <trkpt lat="47.66072" lon="6.20911">
        <ele>228.1</ele>
        <time>2021-07-03T08:37:04Z</time>
      </trkpt>
      <trkpt lat="47.66077" lon="6.2091">
        <ele>228.3</ele>
        <time>2021-07-03T08:37:06Z</time>
      </trkpt>
      <trkpt lat="47.66081" lon="6.20909">
        <ele>228.5</ele>
        <time>2021-07-03T08:37:08Z</time>
      </trkpt>
      <trkpt lat="47.66086" lon="6.20908">
        <ele>228.6</ele>
        <time>2021-07-03T08:37:10Z</time>
      </trkpt>
      <trkpt lat="47.66091" lon="6.20907">
        <ele>228.7</ele>
        <time>2021-07-03T08:37:12Z</time>
      </trkpt>
      <trkpt lat="47.66097" lon="6.20905">
        <ele>228.8</ele>
        <time>2021-07-03T08:37:15Z</time>
      </trkpt>
      <trkpt lat="47.66102" lon="6.20904">
        <ele>228.9</ele>
        <time>2021-07-03T08:37:17Z</time>
      </trkpt>
      <trkpt lat="47.66109" lon="6.20902">
        <ele>229</ele>
        <time>2021-07-03T08:37:20Z</time>
      </trkpt>
      <trkpt lat="47.66114" lon="6.20901">
        <ele>229.1</ele>
        <time>2021-07-03T08:37:22Z</time>
      </trkpt>
      <trkpt lat="47.66119" lon="6.209">
        <ele>229.1</ele>
        <time>2021-07-03T08:37:24Z</time>
      </trkpt>
      <trkpt lat="47.66123" lon="6.20899">
        <ele>229.2</ele>
        <time>2021-07-03T08:37:26Z</time>
      </trkpt>
      <trkpt lat="47.66129" lon="6.20897">
        <ele>229.3</ele>
        <time>2021-07-03T08:37:29Z</time>
      </trkpt>
      <trkpt lat="47.66135" lon="6.20897">
        <ele>229.3</ele>
        <time>2021-07-03T08:37:32Z</time>
      </trkpt>
      <trkpt lat="47.66142" lon="6.20896">
        <ele>229.3</ele>
        <time>2021-07-03T08:37:35Z</time>
      </trkpt>
      <trkpt lat="47.66147" lon="6.20896">
        <ele>229.3</ele>
        <time>2021-07-03T08:37:37Z</time>
      </trkpt>
      <trkpt lat="47.66153" lon="6.20895">
        <ele>229.3</ele>
        <time>2021-07-03T08:37:39Z</time>
      </trkpt>
      <trkpt lat="47.6616" lon="6.20894">
        <ele>229.4</ele>
        <time>2021-07-03T08:37:41Z</time>
      </trkpt>
      <trkpt lat="47.66166" lon="6.20891">
        <ele>229.6</ele>
        <time>2021-07-03T08:37:43Z</time>
      </trkpt>
      <trkpt lat="47.66172" lon="6.20887">
        <ele>229.8</ele>
        <time>2021-07-03T08:37:45Z</time>
      </trkpt>
      <trkpt lat="47.66178" lon="6.20883">
        <ele>230.2</ele>
        <time>2021-07-03T08:37:47Z</time>
      </trkpt>
      <trkpt lat="47.66184" lon="6.20879">
        <ele>230.5</ele>
        <time>2021-07-03T08:37:49Z</time>
      </trkpt>
      <trkpt lat="47.66192" lon="6.20874">
        <ele>230.8</ele>
        <time>2021-07-03T08:37:51Z</time>
      </trkpt>
      <trkpt lat="47.66199" lon="6.20869">
        <ele>231.3</ele>
        <time>2021-07-03T08:37:53Z</time>
      </trkpt>
      <trkpt lat="47.66205" lon="6.20864">
        <ele>231.6</ele>
        <time>2021-07-03T08:37:55Z</time>
      </trkpt>
      <trkpt lat="47.6621" lon="6.2086">
        <ele>231.9</ele>
        <time>2021-07-03T08:37:57Z</time>
      </trkpt>
      <trkpt lat="47.66216" lon="6.20857">
        <ele>232.2</ele>
        <time>2021-07-03T08:37:59Z</time>
      </trkpt>
      <trkpt lat="47.6622" lon="6.20854">
        <ele>232.4</ele>
        <time>2021-07-03T08:38:01Z</time>
      </trkpt>
      <trkpt lat="47.66225" lon="6.20851">
        <ele>232.6</ele>
        <time>2021-07-03T08:38:03Z</time>
      </trkpt>
      <trkpt lat="47.66231" lon="6.20849">
        <ele>232.8</ele>
        <time>2021-07-03T08:38:06Z</time>
      </trkpt>
      <trkpt lat="47.66236" lon="6.20849">
        <ele>232.9</ele>
        <time>2021-07-03T08:38:08Z</time>
      </trkpt>
      <trkpt lat="47.66241" lon="6.20848">
        <ele>233</ele>
        <time>2021-07-03T08:38:10Z</time>
      </trkpt>
      <trkpt lat="47.66246" lon="6.20849">
        <ele>233</ele>
        <time>2021-07-03T08:38:12Z</time>
      </trkpt>
      <trkpt lat="47.66253" lon="6.20851">
        <ele>233.1</ele>
        <time>2021-07-03T08:38:15Z</time>
      </trkpt>
      <trkpt lat="47.66258" lon="6.20854">
        <ele>233.2</ele>
        <time>2021-07-03T08:38:17Z</time>
      </trkpt>
      <trkpt lat="47.66264" lon="6.20857">
        <ele>233.4</ele>
        <time>2021-07-03T08:38:19Z</time>
      </trkpt>
      <trkpt lat="47.66271" lon="6.20861">
        <ele>233.7</ele>
        <time>2021-07-03T08:38:21Z</time>
      </trkpt>
      <trkpt lat="47.66278" lon="6.20865">
        <ele>233.9</ele>
        <time>2021-07-03T08:38:23Z</time>
      </trkpt>
      <trkpt lat="47.66284" lon="6.20872">
        <ele>234.1</ele>
        <time>2021-07-03T08:38:25Z</time>
      </trkpt>
      <trkpt lat="47.66287" lon="6.20878">
        <ele>234.1</ele>
        <time>2021-07-03T08:38:26Z</time>
      </trkpt>
      <trkpt lat="47.6629" lon="6.20883">
        <ele>234.1</ele>
        <time>2021-07-03T08:38:27Z</time>
      </trkpt>
      <trkpt lat="47.66293" lon="6.2089">
        <ele>234</ele>
        <time>2021-07-03T08:38:28Z</time>
      </trkpt>
      <trkpt lat="47.66297" lon="6.209">
        <ele>234.1</ele>
        <time>2021-07-03T08:38:29Z</time>
      </trkpt>
      <trkpt lat="47.66301" lon="6.20905">
        <ele>234.2</ele>
        <time>2021-07-03T08:38:30Z</time>
      </trkpt>
      <trkpt lat="47.66307" lon="6.20911">
        <ele>234.6</ele>
        <time>2021-07-03T08:38:32Z</time>
      </trkpt>
      <trkpt lat="47.66314" lon="6.20911">
        <ele>235.3</ele>
        <time>2021-07-03T08:38:34Z</time>
      </trkpt>
      <trkpt lat="47.66319" lon="6.2091">
        <ele>235.8</ele>
        <time>2021-07-03T08:38:38Z</time>
      </trkpt>
      <trkpt lat="47.66325" lon="6.20913">
        <ele>236.3</ele>
        <time>2021-07-03T08:38:40Z</time>
      </trkpt>
      <trkpt lat="47.66329" lon="6.20921">
        <ele>236.5</ele>
        <time>2021-07-03T08:38:42Z</time>
      </trkpt>
      <trkpt lat="47.66334" lon="6.20925">
        <ele>236.8</ele>
        <time>2021-07-03T08:38:44Z</time>
      </trkpt>
      <trkpt lat="47.66339" lon="6.20923">
        <ele>237.4</ele>
        <time>2021-07-03T08:38:46Z</time>
      </trkpt>
      <trkpt lat="47.66345" lon="6.20925">
        <ele>237.8</ele>
        <time>2021-07-03T08:38:50Z</time>
      </trkpt>
      <trkpt lat="47.6635" lon="6.20928">
        <ele>238.2</ele>
        <time>2021-07-03T08:38:50Z</time>
      </trkpt>
      <trkpt lat="47.66355" lon="6.20933">
        <ele>238.4</ele>
        <time>2021-07-03T08:38:55Z</time>
      </trkpt>
      <trkpt lat="47.66359" lon="6.20937">
        <ele>238.7</ele>
        <time>2021-07-03T08:38:57Z</time>
      </trkpt>
      <trkpt lat="47.66363" lon="6.20942">
        <ele>239</ele>
        <time>2021-07-03T08:38:59Z</time>
      </trkpt>
      <trkpt lat="47.66368" lon="6.20947">
        <ele>239.2</ele>
        <time>2021-07-03T08:39:01Z</time>
      </trkpt>
      <trkpt lat="47.66374" lon="6.20953">
        <ele>239.6</ele>
        <time>2021-07-03T08:39:01Z</time>
      </trkpt>
      <trkpt lat="47.66378" lon="6.20958">
        <ele>239.9</ele>
        <time>2021-07-03T08:39:03Z</time>
      </trkpt>
      <trkpt lat="47.66383" lon="6.20962">
        <ele>240.1</ele>
        <time>2021-07-03T08:39:05Z</time>
      </trkpt>
      <trkpt lat="47.66387" lon="6.20966">
        <ele>240.3</ele>
        <time>2021-07-03T08:39:07Z</time>
      </trkpt>
      <trkpt lat="47.66391" lon="6.20972">
        <ele>240.6</ele>
        <time>2021-07-03T08:39:10Z</time>
      </trkpt>
      <trkpt lat="47.66395" lon="6.2098">
        <ele>240.6</ele>
        <time>2021-07-03T08:39:13Z</time>
      </trkpt>
      <trkpt lat="47.66397" lon="6.20987">
        <ele>240.6</ele>
        <time>2021-07-03T08:39:16Z</time>
      </trkpt>
      <trkpt lat="47.66398" lon="6.20997">
        <ele>240.3</ele>
        <time>2021-07-03T08:39:21Z</time>
      </trkpt>
      <trkpt lat="47.66398" lon="6.21007">
        <ele>239.7</ele>
        <time>2021-07-03T08:39:23Z</time>
      </trkpt>
      <trkpt lat="47.66399" lon="6.21017">
        <ele>239</ele>
        <time>2021-07-03T08:39:25Z</time>
      </trkpt>
      <trkpt lat="47.66399" lon="6.21031">
        <ele>238</ele>
        <time>2021-07-03T08:39:27Z</time>
      </trkpt>
      <trkpt lat="47.664" lon="6.21048">
        <ele>236.8</ele>
        <time>2021-07-03T08:39:29Z</time>
      </trkpt>
      <trkpt lat="47.66401" lon="6.21075">
        <ele>234.8</ele>
        <time>2021-07-03T08:39:32Z</time>
      </trkpt>
      <trkpt lat="47.66403" lon="6.2111">
        <ele>232.8</ele>
        <time>2021-07-03T08:39:32Z</time>
      </trkpt>
      <trkpt lat="47.66403" lon="6.21122">
        <ele>232.2</ele>
        <time>2021-07-03T08:39:33Z</time>
      </trkpt>
      <trkpt lat="47.66403" lon="6.21134">
        <ele>231.5</ele>
        <time>2021-07-03T08:39:34Z</time>
      </trkpt>
      <trkpt lat="47.66402" lon="6.21146">
        <ele>230.8</ele>
        <time>2021-07-03T08:39:35Z</time>
      </trkpt>
      <trkpt lat="47.664" lon="6.21158">
        <ele>230.1</ele>
        <time>2021-07-03T08:39:36Z</time>
      </trkpt>
      <trkpt lat="47.66396" lon="6.21169">
        <ele>229.5</ele>
        <time>2021-07-03T08:39:37Z</time>
      </trkpt>
      <trkpt lat="47.6639" lon="6.2118">
        <ele>229.2</ele>
        <time>2021-07-03T08:39:38Z</time>
      </trkpt>
      <trkpt lat="47.66384" lon="6.2119">
        <ele>228.9</ele>
        <time>2021-07-03T08:39:39Z</time>
      </trkpt>
      <trkpt lat="47.66378" lon="6.212">
        <ele>228.7</ele>
        <time>2021-07-03T08:39:40Z</time>
      </trkpt>
      <trkpt lat="47.66373" lon="6.21209">
        <ele>228.4</ele>
        <time>2021-07-03T08:39:41Z</time>
      </trkpt>
      <trkpt lat="47.66367" lon="6.21219">
        <ele>228.2</ele>
        <time>2021-07-03T08:39:42Z</time>
      </trkpt>
      <trkpt lat="47.66362" lon="6.21228">
        <ele>228</ele>
        <time>2021-07-03T08:39:43Z</time>
      </trkpt>
      <trkpt lat="47.66358" lon="6.21238">
        <ele>227.7</ele>
        <time>2021-07-03T08:39:44Z</time>
      </trkpt>
      <trkpt lat="47.66354" lon="6.21248">
        <ele>227.5</ele>
        <time>2021-07-03T08:39:45Z</time>
      </trkpt>
      <trkpt lat="47.6635" lon="6.21257">
        <ele>227.2</ele>
        <time>2021-07-03T08:39:46Z</time>
      </trkpt>
      <trkpt lat="47.66346" lon="6.21265">
        <ele>226.9</ele>
        <time>2021-07-03T08:39:47Z</time>
      </trkpt>
      <trkpt lat="47.66342" lon="6.21274">
        <ele>226.6</ele>
        <time>2021-07-03T08:39:48Z</time>
      </trkpt>
      <trkpt lat="47.66339" lon="6.21283">
        <ele>226.3</ele>
        <time>2021-07-03T08:39:49Z</time>
      </trkpt>
      <trkpt lat="47.66336" lon="6.21292">
        <ele>226.1</ele>
        <time>2021-07-03T08:39:50Z</time>
      </trkpt>
      <trkpt lat="47.66334" lon="6.213">
        <ele>225.8</ele>
        <time>2021-07-03T08:39:51Z</time>
      </trkpt>
      <trkpt lat="47.66332" lon="6.21308">
        <ele>225.6</ele>
        <time>2021-07-03T08:39:52Z</time>
      </trkpt>
      <trkpt lat="47.6633" lon="6.21316">
        <ele>225.5</ele>
        <time>2021-07-03T08:39:53Z</time>
      </trkpt>
      <trkpt lat="47.66329" lon="6.21324">
        <ele>225.4</ele>
        <time>2021-07-03T08:39:54Z</time>
      </trkpt>
      <trkpt lat="47.66327" lon="6.21331">
        <ele>225.3</ele>
        <time>2021-07-03T08:39:55Z</time>
      </trkpt>
      <trkpt lat="47.66326" lon="6.21337">
        <ele>225.4</ele>
        <time>2021-07-03T08:39:56Z</time>
      </trkpt>
      <trkpt lat="47.66325" lon="6.21344">
        <ele>225.6</ele>
        <time>2021-07-03T08:39:57Z</time>
      </trkpt>
      <trkpt lat="47.66324" lon="6.21353">
        <ele>225.8</ele>
        <time>2021-07-03T08:39:59Z</time>
      </trkpt>
      <trkpt lat="47.66322" lon="6.21361">
        <ele>226.1</ele>
        <time>2021-07-03T08:40:01Z</time>
      </trkpt>
      <trkpt lat="47.6632" lon="6.21369">
        <ele>226.3</ele>
        <time>2021-07-03T08:40:03Z</time>
      </trkpt>
      <trkpt lat="47.66315" lon="6.21375">
        <ele>226.7</ele>
        <time>2021-07-03T08:40:08Z</time>
      </trkpt>
      <trkpt lat="47.66312" lon="6.21383">
        <ele>227</ele>
        <time>2021-07-03T08:40:10Z</time>
      </trkpt>
      <trkpt lat="47.66308" lon="6.21391">
        <ele>227.3</ele>
        <time>2021-07-03T08:40:12Z</time>
      </trkpt>
      <trkpt lat="47.66305" lon="6.21399">
        <ele>227.6</ele>
        <time>2021-07-03T08:40:14Z</time>
      </trkpt>
      <trkpt lat="47.66303" lon="6.21423">
        <ele>228.2</ele>
        <time>2021-07-03T08:40:14Z</time>
      </trkpt>
      <trkpt lat="47.66303" lon="6.21432">
        <ele>228.5</ele>
        <time>2021-07-03T08:40:15Z</time>
      </trkpt>
      <trkpt lat="47.66303" lon="6.2144">
        <ele>228.7</ele>
        <time>2021-07-03T08:40:16Z</time>
      </trkpt>
      <trkpt lat="47.66302" lon="6.21448">
        <ele>228.9</ele>
        <time>2021-07-03T08:40:17Z</time>
      </trkpt>
      <trkpt lat="47.66302" lon="6.21456">
        <ele>229.1</ele>
        <time>2021-07-03T08:40:18Z</time>
      </trkpt>
      <trkpt lat="47.66302" lon="6.21462">
        <ele>229.3</ele>
        <time>2021-07-03T08:40:19Z</time>
      </trkpt>
      <trkpt lat="47.66301" lon="6.21469">
        <ele>229.5</ele>
        <time>2021-07-03T08:40:20Z</time>
      </trkpt>
      <trkpt lat="47.663" lon="6.21482">
        <ele>230</ele>
        <time>2021-07-03T08:40:22Z</time>
      </trkpt>
      <trkpt lat="47.66299" lon="6.21495">
        <ele>230.3</ele>
        <time>2021-07-03T08:40:24Z</time>
      </trkpt>
      <trkpt lat="47.66299" lon="6.21505">
        <ele>230.7</ele>
        <time>2021-07-03T08:40:26Z</time>
      </trkpt>
      <trkpt lat="47.66299" lon="6.21516">
        <ele>231.1</ele>
        <time>2021-07-03T08:40:28Z</time>
      </trkpt>
      <trkpt lat="47.66299" lon="6.21524">
        <ele>231.3</ele>
        <time>2021-07-03T08:40:33Z</time>
      </trkpt>
      <trkpt lat="47.663" lon="6.21533">
        <ele>231.6</ele>
        <time>2021-07-03T08:40:34Z</time>
      </trkpt>
      <trkpt lat="47.66302" lon="6.21546">
        <ele>231.9</ele>
        <time>2021-07-03T08:40:37Z</time>
      </trkpt>
      <trkpt lat="47.66303" lon="6.21555">
        <ele>232</ele>
        <time>2021-07-03T08:40:37Z</time>
      </trkpt>
      <trkpt lat="47.66304" lon="6.21562">
        <ele>232.2</ele>
        <time>2021-07-03T08:40:39Z</time>
      </trkpt>
      <trkpt lat="47.66305" lon="6.21569">
        <ele>232.3</ele>
        <time>2021-07-03T08:40:43Z</time>
      </trkpt>
      <trkpt lat="47.66306" lon="6.21577">
        <ele>232.4</ele>
        <time>2021-07-03T08:40:45Z</time>
      </trkpt>
      <trkpt lat="47.66308" lon="6.21585">
        <ele>232.4</ele>
        <time>2021-07-03T08:40:45Z</time>
      </trkpt>
      <trkpt lat="47.66309" lon="6.21592">
        <ele>232.3</ele>
        <time>2021-07-03T08:40:49Z</time>
      </trkpt>
      <trkpt lat="47.6631" lon="6.21599">
        <ele>232.2</ele>
        <time>2021-07-03T08:40:49Z</time>
      </trkpt>
      <trkpt lat="47.66312" lon="6.21606">
        <ele>232.1</ele>
        <time>2021-07-03T08:40:51Z</time>
      </trkpt>
      <trkpt lat="47.66313" lon="6.21617">
        <ele>232</ele>
        <time>2021-07-03T08:40:54Z</time>
      </trkpt>
      <trkpt lat="47.66314" lon="6.21624">
        <ele>232</ele>
        <time>2021-07-03T08:40:58Z</time>
      </trkpt>
      <trkpt lat="47.66315" lon="6.21632">
        <ele>231.9</ele>
        <time>2021-07-03T08:40:58Z</time>
      </trkpt>
      <trkpt lat="47.66316" lon="6.21642">
        <ele>231.8</ele>
        <time>2021-07-03T08:41:01Z</time>
      </trkpt>
      <trkpt lat="47.66317" lon="6.21651">
        <ele>231.8</ele>
        <time>2021-07-03T08:41:04Z</time>
      </trkpt>
      <trkpt lat="47.66318" lon="6.2166">
        <ele>231.8</ele>
        <time>2021-07-03T08:41:07Z</time>
      </trkpt>
      <trkpt lat="47.66319" lon="6.21668">
        <ele>231.8</ele>
        <time>2021-07-03T08:41:12Z</time>
      </trkpt>
      <trkpt lat="47.66319" lon="6.21675">
        <ele>231.6</ele>
        <time>2021-07-03T08:41:12Z</time>
      </trkpt>
      <trkpt lat="47.66319" lon="6.21684">
        <ele>231.4</ele>
        <time>2021-07-03T08:41:17Z</time>
      </trkpt>
      <trkpt lat="47.66318" lon="6.21695">
        <ele>231.2</ele>
        <time>2021-07-03T08:41:20Z</time>
      </trkpt>
      <trkpt lat="47.66318" lon="6.21704">
        <ele>231.1</ele>
        <time>2021-07-03T08:41:23Z</time>
      </trkpt>
      <trkpt lat="47.66318" lon="6.21711">
        <ele>231</ele>
        <time>2021-07-03T08:41:23Z</time>
      </trkpt>
      <trkpt lat="47.66316" lon="6.2172">
        <ele>231.1</ele>
        <time>2021-07-03T08:41:28Z</time>
      </trkpt>
      <trkpt lat="47.66315" lon="6.21728">
        <ele>231</ele>
        <time>2021-07-03T08:41:28Z</time>
      </trkpt>
      <trkpt lat="47.66314" lon="6.21738">
        <ele>231.1</ele>
        <time>2021-07-03T08:41:33Z</time>
      </trkpt>
      <trkpt lat="47.66313" lon="6.21745">
        <ele>231.1</ele>
        <time>2021-07-03T08:41:35Z</time>
      </trkpt>
      <trkpt lat="47.66311" lon="6.21755">
        <ele>231.2</ele>
        <time>2021-07-03T08:41:38Z</time>
      </trkpt>
      <trkpt lat="47.66309" lon="6.21763">
        <ele>231.4</ele>
        <time>2021-07-03T08:41:39Z</time>
      </trkpt>
      <trkpt lat="47.66307" lon="6.2177">
        <ele>231.6</ele>
        <time>2021-07-03T08:41:42Z</time>
      </trkpt>
      <trkpt lat="47.66306" lon="6.21776">
        <ele>231.9</ele>
        <time>2021-07-03T08:41:45Z</time>
      </trkpt>
      <trkpt lat="47.66304" lon="6.21783">
        <ele>232.1</ele>
        <time>2021-07-03T08:41:48Z</time>
      </trkpt>
      <trkpt lat="47.66301" lon="6.2179">
        <ele>232.6</ele>
        <time>2021-07-03T08:41:54Z</time>
      </trkpt>
      <trkpt lat="47.66298" lon="6.21797">
        <ele>233</ele>
        <time>2021-07-03T08:41:57Z</time>
      </trkpt>
      <trkpt lat="47.66296" lon="6.21803">
        <ele>233.3</ele>
        <time>2021-07-03T08:42:00Z</time>
      </trkpt>
      <trkpt lat="47.66293" lon="6.21809">
        <ele>233.8</ele>
        <time>2021-07-03T08:42:03Z</time>
      </trkpt>
      <trkpt lat="47.66289" lon="6.21815">
        <ele>234.4</ele>
        <time>2021-07-03T08:42:04Z</time>
      </trkpt>
      <trkpt lat="47.66285" lon="6.21819">
        <ele>235.1</ele>
        <time>2021-07-03T08:42:07Z</time>
      </trkpt>
      <trkpt lat="47.6628" lon="6.21822">
        <ele>235.9</ele>
        <time>2021-07-03T08:42:24Z</time>
      </trkpt>
      <trkpt lat="47.66277" lon="6.21828">
        <ele>236.5</ele>
        <time>2021-07-03T08:42:28Z</time>
      </trkpt>
      <trkpt lat="47.66273" lon="6.21835">
        <ele>237.1</ele>
        <time>2021-07-03T08:42:30Z</time>
      </trkpt>
      <trkpt lat="47.66271" lon="6.21842">
        <ele>237.6</ele>
        <time>2021-07-03T08:42:30Z</time>
      </trkpt>
      <trkpt lat="47.66269" lon="6.21849">
        <ele>238.1</ele>
        <time>2021-07-03T08:42:34Z</time>
      </trkpt>
      <trkpt lat="47.66268" lon="6.21858">
        <ele>238.4</ele>
        <time>2021-07-03T08:42:35Z</time>
      </trkpt>
      <trkpt lat="47.66267" lon="6.21866">
        <ele>238.7</ele>
        <time>2021-07-03T08:42:40Z</time>
      </trkpt>
      <trkpt lat="47.66266" lon="6.21873">
        <ele>239</ele>
        <time>2021-07-03T08:42:43Z</time>
      </trkpt>
      <trkpt lat="47.66265" lon="6.21881">
        <ele>239.2</ele>
        <time>2021-07-03T08:42:44Z</time>
      </trkpt>
      <trkpt lat="47.66264" lon="6.21888">
        <ele>239.5</ele>
        <time>2021-07-03T08:42:50Z</time>
      </trkpt>
      <trkpt lat="47.6626" lon="6.21893">
        <ele>240.2</ele>
        <time>2021-07-03T08:42:52Z</time>
      </trkpt>
      <trkpt lat="47.66256" lon="6.21898">
        <ele>240.8</ele>
        <time>2021-07-03T08:42:58Z</time>
      </trkpt>
      <trkpt lat="47.66252" lon="6.21901">
        <ele>241.6</ele>
        <time>2021-07-03T08:42:59Z</time>
      </trkpt>
      <trkpt lat="47.66248" lon="6.21906">
        <ele>242.1</ele>
        <time>2021-07-03T08:43:02Z</time>
      </trkpt>
      <trkpt lat="47.66243" lon="6.21911">
        <ele>242.6</ele>
        <time>2021-07-03T08:43:05Z</time>
      </trkpt>
      <trkpt lat="47.66238" lon="6.21915">
        <ele>243.1</ele>
        <time>2021-07-03T08:43:08Z</time>
      </trkpt>
      <trkpt lat="47.66234" lon="6.2192">
        <ele>243.3</ele>
        <time>2021-07-03T08:43:11Z</time>
      </trkpt>
      <trkpt lat="47.66229" lon="6.21923">
        <ele>243.5</ele>
        <time>2021-07-03T08:43:14Z</time>
      </trkpt>
      <trkpt lat="47.66225" lon="6.21927">
        <ele>243.6</ele>
        <time>2021-07-03T08:43:17Z</time>
      </trkpt>
      <trkpt lat="47.66221" lon="6.21933">
        <ele>243.5</ele>
        <time>2021-07-03T08:43:23Z</time>
      </trkpt>
      <trkpt lat="47.66217" lon="6.21938">
        <ele>243.4</ele>
        <time>2021-07-03T08:43:25Z</time>
      </trkpt>
      <trkpt lat="47.66213" lon="6.21943">
        <ele>243.4</ele>
        <time>2021-07-03T08:43:29Z</time>
      </trkpt>
      <trkpt lat="47.66209" lon="6.21945">
        <ele>243.6</ele>
        <time>2021-07-03T08:43:35Z</time>
      </trkpt>
      <trkpt lat="47.66204" lon="6.21949">
        <ele>243.6</ele>
        <time>2021-07-03T08:43:36Z</time>
      </trkpt>
      <trkpt lat="47.662" lon="6.21953">
        <ele>243.7</ele>
        <time>2021-07-03T08:43:40Z</time>
      </trkpt>
      <trkpt lat="47.66195" lon="6.21955">
        <ele>243.9</ele>
        <time>2021-07-03T08:43:45Z</time>
      </trkpt>
      <trkpt lat="47.6619" lon="6.21958">
        <ele>244.1</ele>
        <time>2021-07-03T08:43:52Z</time>
      </trkpt>
      <trkpt lat="47.66186" lon="6.21962">
        <ele>244.1</ele>
        <time>2021-07-03T08:43:54Z</time>
      </trkpt>
      <trkpt lat="47.6618" lon="6.21961">
        <ele>244.6</ele>
        <time>2021-07-03T08:43:58Z</time>
      </trkpt>
      <trkpt lat="47.66175" lon="6.2196">
        <ele>245.1</ele>
        <time>2021-07-03T08:44:02Z</time>
      </trkpt>
      <trkpt lat="47.6617" lon="6.21956">
        <ele>245.9</ele>
        <time>2021-07-03T08:44:06Z</time>
      </trkpt>
      <trkpt lat="47.66165" lon="6.21953">
        <ele>246.5</ele>
        <time>2021-07-03T08:44:12Z</time>
      </trkpt>
      <trkpt lat="47.66161" lon="6.21947">
        <ele>247.2</ele>
        <time>2021-07-03T08:44:16Z</time>
      </trkpt>
      <trkpt lat="47.66158" lon="6.21943">
        <ele>247.7</ele>
        <time>2021-07-03T08:44:21Z</time>
      </trkpt>
      <trkpt lat="47.66152" lon="6.21938">
        <ele>248.3</ele>
        <time>2021-07-03T08:44:26Z</time>
      </trkpt>
      <trkpt lat="47.66147" lon="6.21931">
        <ele>249.1</ele>
        <time>2021-07-03T08:44:31Z</time>
      </trkpt>
      <trkpt lat="47.66144" lon="6.21926">
        <ele>249.6</ele>
        <time>2021-07-03T08:44:36Z</time>
      </trkpt>
      <trkpt lat="47.66139" lon="6.21919">
        <ele>250.4</ele>
        <time>2021-07-03T08:44:41Z</time>
      </trkpt>
      <trkpt lat="47.66136" lon="6.21914">
        <ele>250.9</ele>
        <time>2021-07-03T08:44:46Z</time>
      </trkpt>
      <trkpt lat="47.66132" lon="6.2191">
        <ele>251.3</ele>
        <time>2021-07-03T08:44:50Z</time>
      </trkpt>
      <trkpt lat="47.66128" lon="6.21904">
        <ele>251.9</ele>
        <time>2021-07-03T08:44:55Z</time>
      </trkpt>
      <trkpt lat="47.66125" lon="6.21899">
        <ele>252.4</ele>
        <time>2021-07-03T08:45:00Z</time>
      </trkpt>
      <trkpt lat="47.66121" lon="6.21894">
        <ele>252.9</ele>
        <time>2021-07-03T08:45:05Z</time>
      </trkpt>
      <trkpt lat="47.66117" lon="6.21889">
        <ele>253.4</ele>
        <time>2021-07-03T08:45:10Z</time>
      </trkpt>
      <trkpt lat="47.66113" lon="6.21884">
        <ele>254</ele>
        <time>2021-07-03T08:45:15Z</time>
      </trkpt>
      <trkpt lat="47.6611" lon="6.21879">
        <ele>254.5</ele>
        <time>2021-07-03T08:45:20Z</time>
      </trkpt>
      <trkpt lat="47.66106" lon="6.21873">
        <ele>255.2</ele>
        <time>2021-07-03T08:45:27Z</time>
      </trkpt>
      <trkpt lat="47.66103" lon="6.21868">
        <ele>255.8</ele>
        <time>2021-07-03T08:45:29Z</time>
      </trkpt>
      <trkpt lat="47.661" lon="6.21862">
        <ele>256.4</ele>
        <time>2021-07-03T08:45:34Z</time>
      </trkpt>
      <trkpt lat="47.66096" lon="6.21857">
        <ele>257.1</ele>
        <time>2021-07-03T08:45:40Z</time>
      </trkpt>
      <trkpt lat="47.66092" lon="6.21851">
        <ele>257.9</ele>
        <time>2021-07-03T08:45:45Z</time>
      </trkpt>
      <trkpt lat="47.66089" lon="6.21845">
        <ele>258.5</ele>
        <time>2021-07-03T08:45:49Z</time>
      </trkpt>
      <trkpt lat="47.66086" lon="6.2184">
        <ele>259.2</ele>
        <time>2021-07-03T08:45:52Z</time>
      </trkpt>
      <trkpt lat="47.66082" lon="6.21836">
        <ele>259.9</ele>
        <time>2021-07-03T08:45:58Z</time>
      </trkpt>
      <trkpt lat="47.66078" lon="6.2183">
        <ele>260.7</ele>
        <time>2021-07-03T08:46:02Z</time>
      </trkpt>
      <trkpt lat="47.66075" lon="6.21825">
        <ele>261.4</ele>
        <time>2021-07-03T08:46:07Z</time>
      </trkpt>
      <trkpt lat="47.66071" lon="6.21818">
        <ele>262.3</ele>
        <time>2021-07-03T08:46:12Z</time>
      </trkpt>
      <trkpt lat="47.66067" lon="6.21814">
        <ele>262.9</ele>
        <time>2021-07-03T08:46:18Z</time>
      </trkpt>
      <trkpt lat="47.66061" lon="6.21814">
        <ele>263.4</ele>
        <time>2021-07-03T08:46:23Z</time>
      </trkpt>
      <trkpt lat="47.66058" lon="6.21808">
        <ele>264.1</ele>
        <time>2021-07-03T08:46:28Z</time>
      </trkpt>
      <trkpt lat="47.66054" lon="6.21801">
        <ele>264.9</ele>
        <time>2021-07-03T08:46:33Z</time>
      </trkpt>
      <trkpt lat="47.6605" lon="6.21796">
        <ele>265.6</ele>
        <time>2021-07-03T08:46:39Z</time>
      </trkpt>
      <trkpt lat="47.66046" lon="6.21791">
        <ele>266.3</ele>
        <time>2021-07-03T08:46:46Z</time>
      </trkpt>
      <trkpt lat="47.66043" lon="6.21784">
        <ele>267.1</ele>
        <time>2021-07-03T08:46:47Z</time>
      </trkpt>
      <trkpt lat="47.66038" lon="6.2178">
        <ele>267.7</ele>
        <time>2021-07-03T08:46:51Z</time>
      </trkpt>
      <trkpt lat="47.66034" lon="6.21775">
        <ele>268.3</ele>
        <time>2021-07-03T08:46:57Z</time>
      </trkpt>
      <trkpt lat="47.66032" lon="6.21769">
        <ele>268.9</ele>
        <time>2021-07-03T08:46:58Z</time>
      </trkpt>
      <trkpt lat="47.66028" lon="6.21765">
        <ele>269.4</ele>
        <time>2021-07-03T08:47:03Z</time>
      </trkpt>
      <trkpt lat="47.66024" lon="6.21761">
        <ele>270</ele>
        <time>2021-07-03T08:47:07Z</time>
      </trkpt>
      <trkpt lat="47.6602" lon="6.21758">
        <ele>270.5</ele>
        <time>2021-07-03T08:47:13Z</time>
      </trkpt>
      <trkpt lat="47.66015" lon="6.21755">
        <ele>270.9</ele>
        <time>2021-07-03T08:47:14Z</time>
      </trkpt>
      <trkpt lat="47.66009" lon="6.21748">
        <ele>271.6</ele>
        <time>2021-07-03T08:47:20Z</time>
      </trkpt>
      <trkpt lat="47.66005" lon="6.21745">
        <ele>271.9</ele>
        <time>2021-07-03T08:47:23Z</time>
      </trkpt>
      <trkpt lat="47.65999" lon="6.21743">
        <ele>272.1</ele>
        <time>2021-07-03T08:47:27Z</time>
      </trkpt>
      <trkpt lat="47.65993" lon="6.21744">
        <ele>272.4</ele>
        <time>2021-07-03T08:47:29Z</time>
      </trkpt>
      <trkpt lat="47.65988" lon="6.21741">
        <ele>272.6</ele>
        <time>2021-07-03T08:47:33Z</time>
      </trkpt>
      <trkpt lat="47.65983" lon="6.21738">
        <ele>272.9</ele>
        <time>2021-07-03T08:47:39Z</time>
      </trkpt>
      <trkpt lat="47.65977" lon="6.21739">
        <ele>273.1</ele>
        <time>2021-07-03T08:47:41Z</time>
      </trkpt>
      <trkpt lat="47.65973" lon="6.21741">
        <ele>273.3</ele>
        <time>2021-07-03T08:47:45Z</time>
      </trkpt>
      <trkpt lat="47.65965" lon="6.21742">
        <ele>273.6</ele>
        <time>2021-07-03T08:47:51Z</time>
      </trkpt>
      <trkpt lat="47.65961" lon="6.21744">
        <ele>273.8</ele>
        <time>2021-07-03T08:47:54Z</time>
      </trkpt>
      <trkpt lat="47.65956" lon="6.21747">
        <ele>274.1</ele>
        <time>2021-07-03T08:47:58Z</time>
      </trkpt>
      <trkpt lat="47.65951" lon="6.21751">
        <ele>274.3</ele>
        <time>2021-07-03T08:48:02Z</time>
      </trkpt>
      <trkpt lat="47.65947" lon="6.21755">
        <ele>274.5</ele>
        <time>2021-07-03T08:48:06Z</time>
      </trkpt>
      <trkpt lat="47.65943" lon="6.21761">
        <ele>274.6</ele>
        <time>2021-07-03T08:48:11Z</time>
      </trkpt>
      <trkpt lat="47.6594" lon="6.21769">
        <ele>274.7</ele>
        <time>2021-07-03T08:48:16Z</time>
      </trkpt>
      <trkpt lat="47.65935" lon="6.21773">
        <ele>275</ele>
        <time>2021-07-03T08:48:21Z</time>
      </trkpt>
      <trkpt lat="47.65931" lon="6.21775">
        <ele>275.3</ele>
        <time>2021-07-03T08:48:23Z</time>
      </trkpt>
      <trkpt lat="47.65927" lon="6.2178">
        <ele>275.5</ele>
        <time>2021-07-03T08:48:27Z</time>
      </trkpt>
      <trkpt lat="47.65924" lon="6.21785">
        <ele>275.8</ele>
        <time>2021-07-03T08:48:32Z</time>
      </trkpt>
      <trkpt lat="47.6592" lon="6.21788">
        <ele>276.2</ele>
        <time>2021-07-03T08:48:35Z</time>
      </trkpt>
      <trkpt lat="47.65915" lon="6.21791">
        <ele>276.7</ele>
        <time>2021-07-03T08:48:39Z</time>
      </trkpt>
      <trkpt lat="47.6591" lon="6.21796">
        <ele>277.4</ele>
        <time>2021-07-03T08:48:42Z</time>
      </trkpt>
      <trkpt lat="47.65906" lon="6.218">
        <ele>278</ele>
        <time>2021-07-03T08:48:47Z</time>
      </trkpt>
      <trkpt lat="47.65902" lon="6.21803">
        <ele>278.6</ele>
        <time>2021-07-03T08:48:50Z</time>
      </trkpt>
      <trkpt lat="47.65898" lon="6.21806">
        <ele>279.3</ele>
        <time>2021-07-03T08:48:55Z</time>
      </trkpt>
      <trkpt lat="47.65894" lon="6.21811">
        <ele>279.9</ele>
        <time>2021-07-03T08:48:58Z</time>
      </trkpt>
      <trkpt lat="47.65891" lon="6.21818">
        <ele>280.5</ele>
        <time>2021-07-03T08:49:02Z</time>
      </trkpt>
      <trkpt lat="47.65888" lon="6.21825">
        <ele>281.2</ele>
        <time>2021-07-03T08:49:07Z</time>
      </trkpt>
      <trkpt lat="47.65885" lon="6.21831">
        <ele>281.9</ele>
        <time>2021-07-03T08:49:13Z</time>
      </trkpt>
      <trkpt lat="47.65883" lon="6.21838">
        <ele>282.4</ele>
        <time>2021-07-03T08:49:17Z</time>
      </trkpt>
      <trkpt lat="47.6588" lon="6.21843">
        <ele>283</ele>
        <time>2021-07-03T08:49:20Z</time>
      </trkpt>
      <trkpt lat="47.65879" lon="6.21851">
        <ele>283.6</ele>
        <time>2021-07-03T08:49:25Z</time>
      </trkpt>
      <trkpt lat="47.65879" lon="6.21859">
        <ele>283.7</ele>
        <time>2021-07-03T08:49:29Z</time>
      </trkpt>
      <trkpt lat="47.65881" lon="6.21866">
        <ele>283.6</ele>
        <time>2021-07-03T08:49:33Z</time>
      </trkpt>
      <trkpt lat="47.6588" lon="6.21873">
        <ele>284</ele>
        <time>2021-07-03T08:49:37Z</time>
      </trkpt>
      <trkpt lat="47.65878" lon="6.2188">
        <ele>284.6</ele>
        <time>2021-07-03T08:49:43Z</time>
      </trkpt>
      <trkpt lat="47.65876" lon="6.21887">
        <ele>285.2</ele>
        <time>2021-07-03T08:49:46Z</time>
      </trkpt>
      <trkpt lat="47.65874" lon="6.21892">
        <ele>285.9</ele>
        <time>2021-07-03T08:49:49Z</time>
      </trkpt>
      <trkpt lat="47.65871" lon="6.219">
        <ele>286.7</ele>
        <time>2021-07-03T08:49:53Z</time>
      </trkpt>
      <trkpt lat="47.65869" lon="6.21907">
        <ele>287.3</ele>
        <time>2021-07-03T08:49:57Z</time>
      </trkpt>
      <trkpt lat="47.65868" lon="6.21915">
        <ele>287.9</ele>
        <time>2021-07-03T08:50:00Z</time>
      </trkpt>
      <trkpt lat="47.65867" lon="6.21922">
        <ele>288.2</ele>
        <time>2021-07-03T08:50:03Z</time>
      </trkpt>
      <trkpt lat="47.65865" lon="6.21928">
        <ele>288.5</ele>
        <time>2021-07-03T08:50:05Z</time>
      </trkpt>
      <trkpt lat="47.65865" lon="6.21937">
        <ele>288.6</ele>
        <time>2021-07-03T08:50:09Z</time>
      </trkpt>
      <trkpt lat="47.65865" lon="6.21945">
        <ele>288.6</ele>
        <time>2021-07-03T08:50:12Z</time>
      </trkpt>
      <trkpt lat="47.65864" lon="6.21953">
        <ele>288.8</ele>
        <time>2021-07-03T08:50:14Z</time>
      </trkpt>
      <trkpt lat="47.65863" lon="6.2196">
        <ele>289</ele>
        <time>2021-07-03T08:50:18Z</time>
      </trkpt>
      <trkpt lat="47.65863" lon="6.21969">
        <ele>289.1</ele>
        <time>2021-07-03T08:50:21Z</time>
      </trkpt>
      <trkpt lat="47.65861" lon="6.21976">
        <ele>289.6</ele>
        <time>2021-07-03T08:50:24Z</time>
      </trkpt>
      <trkpt lat="47.65859" lon="6.21984">
        <ele>290.2</ele>
        <time>2021-07-03T08:50:26Z</time>
      </trkpt>
      <trkpt lat="47.65857" lon="6.2199">
        <ele>290.8</ele>
        <time>2021-07-03T08:50:29Z</time>
      </trkpt>
      <trkpt lat="47.65855" lon="6.21997">
        <ele>291.5</ele>
        <time>2021-07-03T08:50:31Z</time>
      </trkpt>
      <trkpt lat="47.65853" lon="6.22004">
        <ele>291.9</ele>
        <time>2021-07-03T08:50:33Z</time>
      </trkpt>
      <trkpt lat="47.65851" lon="6.2201">
        <ele>292.5</ele>
        <time>2021-07-03T08:50:36Z</time>
      </trkpt>
      <trkpt lat="47.65849" lon="6.22019">
        <ele>292.7</ele>
        <time>2021-07-03T08:50:40Z</time>
      </trkpt>
      <trkpt lat="47.65849" lon="6.22026">
        <ele>292.5</ele>
        <time>2021-07-03T08:50:43Z</time>
      </trkpt>
      <trkpt lat="47.65847" lon="6.22034">
        <ele>292.8</ele>
        <time>2021-07-03T08:50:45Z</time>
      </trkpt>
      <trkpt lat="47.65846" lon="6.22042">
        <ele>293</ele>
        <time>2021-07-03T08:50:48Z</time>
      </trkpt>
      <trkpt lat="47.65843" lon="6.22049">
        <ele>293.6</ele>
        <time>2021-07-03T08:50:50Z</time>
      </trkpt>
      <trkpt lat="47.65843" lon="6.22056">
        <ele>293.6</ele>
        <time>2021-07-03T08:50:52Z</time>
      </trkpt>
      <trkpt lat="47.65845" lon="6.22062">
        <ele>292.6</ele>
        <time>2021-07-03T08:50:56Z</time>
      </trkpt>
      <trkpt lat="47.65848" lon="6.22067">
        <ele>291.4</ele>
        <time>2021-07-03T08:50:58Z</time>
      </trkpt>
      <trkpt lat="47.65849" lon="6.22075">
        <ele>291.1</ele>
        <time>2021-07-03T08:51:03Z</time>
      </trkpt>
      <trkpt lat="47.65847" lon="6.22082">
        <ele>291.6</ele>
        <time>2021-07-03T08:51:06Z</time>
      </trkpt>
      <trkpt lat="47.65845" lon="6.2209">
        <ele>291.6</ele>
        <time>2021-07-03T08:51:09Z</time>
      </trkpt>
      <trkpt lat="47.65844" lon="6.22097">
        <ele>291.7</ele>
        <time>2021-07-03T08:51:12Z</time>
      </trkpt>
      <trkpt lat="47.65841" lon="6.22105">
        <ele>292.4</ele>
        <time>2021-07-03T08:51:16Z</time>
      </trkpt>
      <trkpt lat="47.65837" lon="6.22113">
        <ele>293</ele>
        <time>2021-07-03T08:51:20Z</time>
      </trkpt>
      <trkpt lat="47.65834" lon="6.2212">
        <ele>293.5</ele>
        <time>2021-07-03T08:51:21Z</time>
      </trkpt>
      <trkpt lat="47.65831" lon="6.22127">
        <ele>294</ele>
        <time>2021-07-03T08:51:25Z</time>
      </trkpt>
      <trkpt lat="47.65828" lon="6.22133">
        <ele>294.6</ele>
        <time>2021-07-03T08:51:27Z</time>
      </trkpt>
      <trkpt lat="47.65826" lon="6.22139">
        <ele>295.1</ele>
        <time>2021-07-03T08:51:29Z</time>
      </trkpt>
      <trkpt lat="47.65823" lon="6.22146">
        <ele>295.6</ele>
        <time>2021-07-03T08:51:32Z</time>
      </trkpt>
      <trkpt lat="47.65821" lon="6.22153">
        <ele>296.1</ele>
        <time>2021-07-03T08:51:35Z</time>
      </trkpt>
      <trkpt lat="47.65818" lon="6.2216">
        <ele>296.7</ele>
        <time>2021-07-03T08:51:36Z</time>
      </trkpt>
      <trkpt lat="47.65815" lon="6.22168">
        <ele>297.3</ele>
        <time>2021-07-03T08:51:39Z</time>
      </trkpt>
      <trkpt lat="47.65814" lon="6.22174">
        <ele>297.7</ele>
        <time>2021-07-03T08:51:41Z</time>
      </trkpt>
      <trkpt lat="47.65815" lon="6.22183">
        <ele>297.4</ele>
        <time>2021-07-03T08:51:46Z</time>
      </trkpt>
      <trkpt lat="47.65815" lon="6.2219">
        <ele>297.5</ele>
        <time>2021-07-03T08:51:48Z</time>
      </trkpt>
      <trkpt lat="47.65813" lon="6.22197">
        <ele>298.4</ele>
        <time>2021-07-03T08:51:51Z</time>
      </trkpt>
      <trkpt lat="47.65811" lon="6.22204">
        <ele>299.3</ele>
        <time>2021-07-03T08:51:53Z</time>
      </trkpt>
      <trkpt lat="47.65809" lon="6.22211">
        <ele>300</ele>
        <time>2021-07-03T08:51:55Z</time>
      </trkpt>
      <trkpt lat="47.65808" lon="6.22218">
        <ele>300.6</ele>
        <time>2021-07-03T08:51:57Z</time>
      </trkpt>
      <trkpt lat="47.65807" lon="6.22227">
        <ele>301.2</ele>
        <time>2021-07-03T08:52:00Z</time>
      </trkpt>
      <trkpt lat="47.65806" lon="6.22236">
        <ele>301.7</ele>
        <time>2021-07-03T08:52:03Z</time>
      </trkpt>
      <trkpt lat="47.65806" lon="6.22243">
        <ele>302.2</ele>
        <time>2021-07-03T08:52:05Z</time>
      </trkpt>
      <trkpt lat="47.65804" lon="6.22251">
        <ele>303.1</ele>
        <time>2021-07-03T08:52:07Z</time>
      </trkpt>
      <trkpt lat="47.65804" lon="6.22258">
        <ele>303.2</ele>
        <time>2021-07-03T08:52:11Z</time>
      </trkpt>
      <trkpt lat="47.65803" lon="6.22269">
        <ele>304</ele>
        <time>2021-07-03T08:52:13Z</time>
      </trkpt>
      <trkpt lat="47.65802" lon="6.22277">
        <ele>304.4</ele>
        <time>2021-07-03T08:52:17Z</time>
      </trkpt>
      <trkpt lat="47.65802" lon="6.22284">
        <ele>304.7</ele>
        <time>2021-07-03T08:52:19Z</time>
      </trkpt>
      <trkpt lat="47.65801" lon="6.22291">
        <ele>305</ele>
        <time>2021-07-03T08:52:20Z</time>
      </trkpt>
      <trkpt lat="47.658" lon="6.22298">
        <ele>305.6</ele>
        <time>2021-07-03T08:52:24Z</time>
      </trkpt>
      <trkpt lat="47.65801" lon="6.22306">
        <ele>305.6</ele>
        <time>2021-07-03T08:52:27Z</time>
      </trkpt>
      <trkpt lat="47.65801" lon="6.22315">
        <ele>305.8</ele>
        <time>2021-07-03T08:52:30Z</time>
      </trkpt>
      <trkpt lat="47.65801" lon="6.22321">
        <ele>305.7</ele>
        <time>2021-07-03T08:52:32Z</time>
      </trkpt>
      <trkpt lat="47.65801" lon="6.2233">
        <ele>305.8</ele>
        <time>2021-07-03T08:52:35Z</time>
      </trkpt>
      <trkpt lat="47.65802" lon="6.22336">
        <ele>305.8</ele>
        <time>2021-07-03T08:52:37Z</time>
      </trkpt>
      <trkpt lat="47.65802" lon="6.22345">
        <ele>305.4</ele>
        <time>2021-07-03T08:52:40Z</time>
      </trkpt>
      <trkpt lat="47.65804" lon="6.22353">
        <ele>304.7</ele>
        <time>2021-07-03T08:52:42Z</time>
      </trkpt>
      <trkpt lat="47.65804" lon="6.22362">
        <ele>304.7</ele>
        <time>2021-07-03T08:52:43Z</time>
      </trkpt>
      <trkpt lat="47.65804" lon="6.2237">
        <ele>304.9</ele>
        <time>2021-07-03T08:52:46Z</time>
      </trkpt>
      <trkpt lat="47.65804" lon="6.22378">
        <ele>305</ele>
        <time>2021-07-03T08:52:48Z</time>
      </trkpt>
      <trkpt lat="47.65803" lon="6.22386">
        <ele>305.5</ele>
        <time>2021-07-03T08:52:50Z</time>
      </trkpt>
      <trkpt lat="47.65802" lon="6.22395">
        <ele>305.8</ele>
        <time>2021-07-03T08:52:54Z</time>
      </trkpt>
      <trkpt lat="47.65801" lon="6.22403">
        <ele>306.3</ele>
        <time>2021-07-03T08:52:56Z</time>
      </trkpt>
      <trkpt lat="47.658" lon="6.2241">
        <ele>306.5</ele>
        <time>2021-07-03T08:52:59Z</time>
      </trkpt>
      <trkpt lat="47.658" lon="6.22417">
        <ele>306.6</ele>
        <time>2021-07-03T08:53:02Z</time>
      </trkpt>
      <trkpt lat="47.65799" lon="6.22424">
        <ele>307.1</ele>
        <time>2021-07-03T08:53:05Z</time>
      </trkpt>
      <trkpt lat="47.65797" lon="6.22431">
        <ele>307.7</ele>
        <time>2021-07-03T08:53:07Z</time>
      </trkpt>
      <trkpt lat="47.65797" lon="6.22438">
        <ele>307.7</ele>
        <time>2021-07-03T08:53:11Z</time>
      </trkpt>
      <trkpt lat="47.65796" lon="6.22445">
        <ele>308.1</ele>
        <time>2021-07-03T08:53:15Z</time>
      </trkpt>
      <trkpt lat="47.65794" lon="6.22452">
        <ele>308.6</ele>
        <time>2021-07-03T08:53:17Z</time>
      </trkpt>
      <trkpt lat="47.65793" lon="6.22458">
        <ele>309</ele>
        <time>2021-07-03T08:53:19Z</time>
      </trkpt>
      <trkpt lat="47.65792" lon="6.22466">
        <ele>309.3</ele>
        <time>2021-07-03T08:53:23Z</time>
      </trkpt>
      <trkpt lat="47.65792" lon="6.22474">
        <ele>309.1</ele>
        <time>2021-07-03T08:53:25Z</time>
      </trkpt>
      <trkpt lat="47.65792" lon="6.22482">
        <ele>309.1</ele>
        <time>2021-07-03T08:53:28Z</time>
      </trkpt>
      <trkpt lat="47.65791" lon="6.22491">
        <ele>309.4</ele>
        <time>2021-07-03T08:53:32Z</time>
      </trkpt>
      <trkpt lat="47.6579" lon="6.22498">
        <ele>309.5</ele>
        <time>2021-07-03T08:53:35Z</time>
      </trkpt>
      <trkpt lat="47.6579" lon="6.22507">
        <ele>309.2</ele>
        <time>2021-07-03T08:53:38Z</time>
      </trkpt>
      <trkpt lat="47.6579" lon="6.22514">
        <ele>308.6</ele>
        <time>2021-07-03T08:53:41Z</time>
      </trkpt>
      <trkpt lat="47.65789" lon="6.22522">
        <ele>308.3</ele>
        <time>2021-07-03T08:53:43Z</time>
      </trkpt>
      <trkpt lat="47.65788" lon="6.2253">
        <ele>308.1</ele>
        <time>2021-07-03T08:53:47Z</time>
      </trkpt>
      <trkpt lat="47.65787" lon="6.22538">
        <ele>307.9</ele>
        <time>2021-07-03T08:53:51Z</time>
      </trkpt>
      <trkpt lat="47.65786" lon="6.22546">
        <ele>307.5</ele>
        <time>2021-07-03T08:53:53Z</time>
      </trkpt>
      <trkpt lat="47.65785" lon="6.22553">
        <ele>307.3</ele>
        <time>2021-07-03T08:53:56Z</time>
      </trkpt>
      <trkpt lat="47.65783" lon="6.2256">
        <ele>307.3</ele>
        <time>2021-07-03T08:54:01Z</time>
      </trkpt>
      <trkpt lat="47.65782" lon="6.22567">
        <ele>307.1</ele>
        <time>2021-07-03T08:54:04Z</time>
      </trkpt>
      <trkpt lat="47.6578" lon="6.22574">
        <ele>307.2</ele>
        <time>2021-07-03T08:54:06Z</time>
      </trkpt>
      <trkpt lat="47.65779" lon="6.22583">
        <ele>306.8</ele>
        <time>2021-07-03T08:54:11Z</time>
      </trkpt>
      <trkpt lat="47.65777" lon="6.2259">
        <ele>306.6</ele>
        <time>2021-07-03T08:54:13Z</time>
      </trkpt>
      <trkpt lat="47.65775" lon="6.22596">
        <ele>306.3</ele>
        <time>2021-07-03T08:54:17Z</time>
      </trkpt>
      <trkpt lat="47.65774" lon="6.22603">
        <ele>305.6</ele>
        <time>2021-07-03T08:54:20Z</time>
      </trkpt>
      <trkpt lat="47.65772" lon="6.2261">
        <ele>305.2</ele>
        <time>2021-07-03T08:54:23Z</time>
      </trkpt>
      <trkpt lat="47.6577" lon="6.22616">
        <ele>304.9</ele>
        <time>2021-07-03T08:54:25Z</time>
      </trkpt>
      <trkpt lat="47.65768" lon="6.22622">
        <ele>304.7</ele>
        <time>2021-07-03T08:54:29Z</time>
      </trkpt>
      <trkpt lat="47.65766" lon="6.22628">
        <ele>304.5</ele>
        <time>2021-07-03T08:54:32Z</time>
      </trkpt>
      <trkpt lat="47.65762" lon="6.22634">
        <ele>304.6</ele>
        <time>2021-07-03T08:54:35Z</time>
      </trkpt>
      <trkpt lat="47.65759" lon="6.2264">
        <ele>304.6</ele>
        <time>2021-07-03T08:54:37Z</time>
      </trkpt>
      <trkpt lat="47.65756" lon="6.22646">
        <ele>304.7</ele>
        <time>2021-07-03T08:54:41Z</time>
      </trkpt>
      <trkpt lat="47.65752" lon="6.22652">
        <ele>305</ele>
        <time>2021-07-03T08:54:44Z</time>
      </trkpt>
      <trkpt lat="47.65747" lon="6.22655">
        <ele>305.3</ele>
        <time>2021-07-03T08:54:46Z</time>
      </trkpt>
      <trkpt lat="47.65742" lon="6.22659">
        <ele>305.3</ele>
        <time>2021-07-03T08:54:50Z</time>
      </trkpt>
      <trkpt lat="47.65737" lon="6.22663">
        <ele>305.4</ele>
        <time>2021-07-03T08:54:55Z</time>
      </trkpt>
      <trkpt lat="47.65731" lon="6.22665">
        <ele>305.8</ele>
        <time>2021-07-03T08:54:58Z</time>
      </trkpt>
      <trkpt lat="47.65727" lon="6.22667">
        <ele>306.1</ele>
        <time>2021-07-03T08:55:02Z</time>
      </trkpt>
      <trkpt lat="47.65722" lon="6.22669">
        <ele>306.5</ele>
        <time>2021-07-03T08:55:06Z</time>
      </trkpt>
      <trkpt lat="47.65717" lon="6.22668">
        <ele>307.2</ele>
        <time>2021-07-03T08:55:09Z</time>
      </trkpt>
      <trkpt lat="47.65712" lon="6.22669">
        <ele>307.9</ele>
        <time>2021-07-03T08:55:14Z</time>
      </trkpt>
      <trkpt lat="47.65706" lon="6.22673">
        <ele>308.3</ele>
        <time>2021-07-03T08:55:18Z</time>
      </trkpt>
      <trkpt lat="47.65702" lon="6.22676">
        <ele>308.7</ele>
        <time>2021-07-03T08:55:21Z</time>
      </trkpt>
      <trkpt lat="47.65697" lon="6.22679">
        <ele>309.1</ele>
        <time>2021-07-03T08:55:24Z</time>
      </trkpt>
      <trkpt lat="47.65693" lon="6.22684">
        <ele>309.3</ele>
        <time>2021-07-03T08:55:26Z</time>
      </trkpt>
      <trkpt lat="47.65688" lon="6.22689">
        <ele>309.5</ele>
        <time>2021-07-03T08:55:30Z</time>
      </trkpt>
      <trkpt lat="47.65684" lon="6.22695">
        <ele>309.6</ele>
        <time>2021-07-03T08:55:33Z</time>
      </trkpt>
      <trkpt lat="47.65681" lon="6.227">
        <ele>309.7</ele>
        <time>2021-07-03T08:55:36Z</time>
      </trkpt>
      <trkpt lat="47.65678" lon="6.22705">
        <ele>309.7</ele>
        <time>2021-07-03T08:55:37Z</time>
      </trkpt>
      <trkpt lat="47.65675" lon="6.22711">
        <ele>309.7</ele>
        <time>2021-07-03T08:55:42Z</time>
      </trkpt>
      <trkpt lat="47.65673" lon="6.22718">
        <ele>309.4</ele>
        <time>2021-07-03T08:55:45Z</time>
      </trkpt>
      <trkpt lat="47.65672" lon="6.22726">
        <ele>309</ele>
        <time>2021-07-03T08:55:47Z</time>
      </trkpt>
      <trkpt lat="47.65671" lon="6.22733">
        <ele>308.7</ele>
        <time>2021-07-03T08:55:50Z</time>
      </trkpt>
      <trkpt lat="47.6567" lon="6.2274">
        <ele>308.3</ele>
        <time>2021-07-03T08:55:53Z</time>
      </trkpt>
      <trkpt lat="47.65669" lon="6.22749">
        <ele>307.7</ele>
        <time>2021-07-03T08:55:57Z</time>
      </trkpt>
      <trkpt lat="47.6567" lon="6.22756">
        <ele>308.1</ele>
        <time>2021-07-03T08:56:00Z</time>
      </trkpt>
      <trkpt lat="47.6567" lon="6.22765">
        <ele>309</ele>
        <time>2021-07-03T08:56:02Z</time>
      </trkpt>
      <trkpt lat="47.65671" lon="6.22772">
        <ele>309.5</ele>
        <time>2021-07-03T08:56:06Z</time>
      </trkpt>
      <trkpt lat="47.65671" lon="6.22779">
        <ele>310.1</ele>
        <time>2021-07-03T08:56:09Z</time>
      </trkpt>
      <trkpt lat="47.65673" lon="6.22787">
        <ele>310.6</ele>
        <time>2021-07-03T08:56:13Z</time>
      </trkpt>
      <trkpt lat="47.65674" lon="6.22794">
        <ele>311.1</ele>
        <time>2021-07-03T08:56:16Z</time>
      </trkpt>
      <trkpt lat="47.65675" lon="6.22802">
        <ele>311.7</ele>
        <time>2021-07-03T08:56:21Z</time>
      </trkpt>
      <trkpt lat="47.65676" lon="6.22809">
        <ele>312</ele>
        <time>2021-07-03T08:56:25Z</time>
      </trkpt>
      <trkpt lat="47.65679" lon="6.22817">
        <ele>312.4</ele>
        <time>2021-07-03T08:56:29Z</time>
      </trkpt>
      <trkpt lat="47.65681" lon="6.22824">
        <ele>312.5</ele>
        <time>2021-07-03T08:56:32Z</time>
      </trkpt>
      <trkpt lat="47.65683" lon="6.22831">
        <ele>312.8</ele>
        <time>2021-07-03T08:56:36Z</time>
      </trkpt>
      <trkpt lat="47.65685" lon="6.22838">
        <ele>313.1</ele>
        <time>2021-07-03T08:56:38Z</time>
      </trkpt>
      <trkpt lat="47.65687" lon="6.22845">
        <ele>313.2</ele>
        <time>2021-07-03T08:56:42Z</time>
      </trkpt>
      <trkpt lat="47.65689" lon="6.22852">
        <ele>313.4</ele>
        <time>2021-07-03T08:56:45Z</time>
      </trkpt>
      <trkpt lat="47.65692" lon="6.22859">
        <ele>313.5</ele>
        <time>2021-07-03T08:56:49Z</time>
      </trkpt>
      <trkpt lat="47.65694" lon="6.22866">
        <ele>313.8</ele>
        <time>2021-07-03T08:56:52Z</time>
      </trkpt>
      <trkpt lat="47.65696" lon="6.22874">
        <ele>314.2</ele>
        <time>2021-07-03T08:56:56Z</time>
      </trkpt>
      <trkpt lat="47.65698" lon="6.22881">
        <ele>314.6</ele>
        <time>2021-07-03T08:56:59Z</time>
      </trkpt>
      <trkpt lat="47.657" lon="6.22888">
        <ele>315</ele>
        <time>2021-07-03T08:57:02Z</time>
      </trkpt>
      <trkpt lat="47.65701" lon="6.22895">
        <ele>315.6</ele>
        <time>2021-07-03T08:57:05Z</time>
      </trkpt>
      <trkpt lat="47.65702" lon="6.22903">
        <ele>316.2</ele>
        <time>2021-07-03T08:57:08Z</time>
      </trkpt>
      <trkpt lat="47.65703" lon="6.22911">
        <ele>316.8</ele>
        <time>2021-07-03T08:57:11Z</time>
      </trkpt>
      <trkpt lat="47.65704" lon="6.22919">
        <ele>317.3</ele>
        <time>2021-07-03T08:57:14Z</time>
      </trkpt>
      <trkpt lat="47.65705" lon="6.22926">
        <ele>317.3</ele>
        <time>2021-07-03T08:57:16Z</time>
      </trkpt>
      <trkpt lat="47.65705" lon="6.22934">
        <ele>317.3</ele>
        <time>2021-07-03T08:57:19Z</time>
      </trkpt>
      <trkpt lat="47.65706" lon="6.22942">
        <ele>317.3</ele>
        <time>2021-07-03T08:57:22Z</time>
      </trkpt>
      <trkpt lat="47.65706" lon="6.22951">
        <ele>317.3</ele>
        <time>2021-07-03T08:57:25Z</time>
      </trkpt>
      <trkpt lat="47.65707" lon="6.2296">
        <ele>317.3</ele>
        <time>2021-07-03T08:57:28Z</time>
      </trkpt>
      <trkpt lat="47.65707" lon="6.22969">
        <ele>317.3</ele>
        <time>2021-07-03T08:57:31Z</time>
      </trkpt>
      <trkpt lat="47.65706" lon="6.22978">
        <ele>317.3</ele>
        <time>2021-07-03T08:57:34Z</time>
      </trkpt>
      <trkpt lat="47.65706" lon="6.22986">
        <ele>317.4</ele>
        <time>2021-07-03T08:57:37Z</time>
      </trkpt>
      <trkpt lat="47.65706" lon="6.22994">
        <ele>317.4</ele>
        <time>2021-07-03T08:57:40Z</time>
      </trkpt>
      <trkpt lat="47.65705" lon="6.23003">
        <ele>317.3</ele>
        <time>2021-07-03T08:57:43Z</time>
      </trkpt>
      <trkpt lat="47.65704" lon="6.23013">
        <ele>317.2</ele>
        <time>2021-07-03T08:57:46Z</time>
      </trkpt>
      <trkpt lat="47.65703" lon="6.23022">
        <ele>317</ele>
        <time>2021-07-03T08:57:49Z</time>
      </trkpt>
      <trkpt lat="47.65702" lon="6.23031">
        <ele>316.8</ele>
        <time>2021-07-03T08:57:52Z</time>
      </trkpt>
      <trkpt lat="47.65701" lon="6.23039">
        <ele>316.7</ele>
        <time>2021-07-03T08:57:54Z</time>
      </trkpt>
      <trkpt lat="47.65701" lon="6.23045">
        <ele>316.6</ele>
        <time>2021-07-03T08:57:56Z</time>
      </trkpt>
      <trkpt lat="47.65701" lon="6.23053">
        <ele>316.5</ele>
        <time>2021-07-03T08:57:58Z</time>
      </trkpt>
      <trkpt lat="47.65701" lon="6.2306">
        <ele>316.4</ele>
        <time>2021-07-03T08:58:00Z</time>
      </trkpt>
      <trkpt lat="47.657" lon="6.23067">
        <ele>316.2</ele>
        <time>2021-07-03T08:58:02Z</time>
      </trkpt>
      <trkpt lat="47.657" lon="6.23074">
        <ele>316.1</ele>
        <time>2021-07-03T08:58:04Z</time>
      </trkpt>
      <trkpt lat="47.65698" lon="6.23081">
        <ele>315.9</ele>
        <time>2021-07-03T08:58:06Z</time>
      </trkpt>
      <trkpt lat="47.65697" lon="6.23088">
        <ele>315.8</ele>
        <time>2021-07-03T08:58:08Z</time>
      </trkpt>
      <trkpt lat="47.65696" lon="6.23096">
        <ele>315.6</ele>
        <time>2021-07-03T08:58:10Z</time>
      </trkpt>
      <trkpt lat="47.65695" lon="6.23103">
        <ele>315.4</ele>
        <time>2021-07-03T08:58:12Z</time>
      </trkpt>
      <trkpt lat="47.65695" lon="6.2311">
        <ele>315.3</ele>
        <time>2021-07-03T08:58:14Z</time>
      </trkpt>
      <trkpt lat="47.65695" lon="6.2312">
        <ele>315.1</ele>
        <time>2021-07-03T08:58:17Z</time>
      </trkpt>
      <trkpt lat="47.65695" lon="6.23128">
        <ele>315</ele>
        <time>2021-07-03T08:58:19Z</time>
      </trkpt>
      <trkpt lat="47.65696" lon="6.23136">
        <ele>314.9</ele>
        <time>2021-07-03T08:58:21Z</time>
      </trkpt>
      <trkpt lat="47.65696" lon="6.23144">
        <ele>314.8</ele>
        <time>2021-07-03T08:58:23Z</time>
      </trkpt>
      <trkpt lat="47.65696" lon="6.23153">
        <ele>314.7</ele>
        <time>2021-07-03T08:58:25Z</time>
      </trkpt>
      <trkpt lat="47.65696" lon="6.23161">
        <ele>314.5</ele>
        <time>2021-07-03T08:58:27Z</time>
      </trkpt>
      <trkpt lat="47.65695" lon="6.23168">
        <ele>314.5</ele>
        <time>2021-07-03T08:58:29Z</time>
      </trkpt>
      <trkpt lat="47.65694" lon="6.23177">
        <ele>314.7</ele>
        <time>2021-07-03T08:58:31Z</time>
      </trkpt>
      <trkpt lat="47.65694" lon="6.23184">
        <ele>314.8</ele>
        <time>2021-07-03T08:58:33Z</time>
      </trkpt>
      <trkpt lat="47.65693" lon="6.23192">
        <ele>315</ele>
        <time>2021-07-03T08:58:35Z</time>
      </trkpt>
      <trkpt lat="47.65692" lon="6.232">
        <ele>315.2</ele>
        <time>2021-07-03T08:58:39Z</time>
      </trkpt>
      <trkpt lat="47.65691" lon="6.23208">
        <ele>315.4</ele>
        <time>2021-07-03T08:58:39Z</time>
      </trkpt>
      <trkpt lat="47.6569" lon="6.23215">
        <ele>315.5</ele>
        <time>2021-07-03T08:58:43Z</time>
      </trkpt>
      <trkpt lat="47.65689" lon="6.23222">
        <ele>315.7</ele>
        <time>2021-07-03T08:58:45Z</time>
      </trkpt>
      <trkpt lat="47.65687" lon="6.2323">
        <ele>315.8</ele>
        <time>2021-07-03T08:58:47Z</time>
      </trkpt>
      <trkpt lat="47.65686" lon="6.23237">
        <ele>316</ele>
        <time>2021-07-03T08:58:49Z</time>
      </trkpt>
      <trkpt lat="47.65685" lon="6.23243">
        <ele>316.1</ele>
        <time>2021-07-03T08:58:50Z</time>
      </trkpt>
      <trkpt lat="47.65683" lon="6.23251">
        <ele>316.2</ele>
        <time>2021-07-03T08:58:52Z</time>
      </trkpt>
      <trkpt lat="47.65682" lon="6.2326">
        <ele>316.3</ele>
        <time>2021-07-03T08:58:55Z</time>
      </trkpt>
      <trkpt lat="47.6568" lon="6.23267">
        <ele>316.4</ele>
        <time>2021-07-03T08:58:55Z</time>
      </trkpt>
      <trkpt lat="47.6568" lon="6.23274">
        <ele>316.5</ele>
        <time>2021-07-03T08:58:59Z</time>
      </trkpt>
      <trkpt lat="47.65679" lon="6.23283">
        <ele>316.6</ele>
        <time>2021-07-03T08:59:02Z</time>
      </trkpt>
      <trkpt lat="47.65678" lon="6.2329">
        <ele>316.7</ele>
        <time>2021-07-03T08:59:02Z</time>
      </trkpt>
      <trkpt lat="47.65678" lon="6.23298">
        <ele>316.9</ele>
        <time>2021-07-03T08:59:06Z</time>
      </trkpt>
      <trkpt lat="47.65676" lon="6.23307">
        <ele>317</ele>
        <time>2021-07-03T08:59:09Z</time>
      </trkpt>
      <trkpt lat="47.65676" lon="6.23314">
        <ele>317.1</ele>
        <time>2021-07-03T08:59:11Z</time>
      </trkpt>
      <trkpt lat="47.65675" lon="6.23321">
        <ele>317.2</ele>
        <time>2021-07-03T08:59:11Z</time>
      </trkpt>
      <trkpt lat="47.65674" lon="6.23329">
        <ele>317.4</ele>
        <time>2021-07-03T08:59:15Z</time>
      </trkpt>
      <trkpt lat="47.65673" lon="6.23337">
        <ele>317.4</ele>
        <time>2021-07-03T08:59:16Z</time>
      </trkpt>
      <trkpt lat="47.65671" lon="6.23347">
        <ele>317.4</ele>
        <time>2021-07-03T08:59:21Z</time>
      </trkpt>
      <trkpt lat="47.6567" lon="6.23354">
        <ele>317.4</ele>
        <time>2021-07-03T08:59:23Z</time>
      </trkpt>
      <trkpt lat="47.65669" lon="6.23362">
        <ele>317.4</ele>
        <time>2021-07-03T08:59:25Z</time>
      </trkpt>
      <trkpt lat="47.65668" lon="6.23369">
        <ele>317.5</ele>
        <time>2021-07-03T08:59:27Z</time>
      </trkpt>
      <trkpt lat="47.65666" lon="6.2338">
        <ele>317.6</ele>
        <time>2021-07-03T08:59:30Z</time>
      </trkpt>
      <trkpt lat="47.65663" lon="6.23387">
        <ele>317.7</ele>
        <time>2021-07-03T08:59:30Z</time>
      </trkpt>
      <trkpt lat="47.6566" lon="6.23392">
        <ele>317.9</ele>
        <time>2021-07-03T08:59:32Z</time>
      </trkpt>
      <trkpt lat="47.65657" lon="6.23399">
        <ele>318</ele>
        <time>2021-07-03T08:59:37Z</time>
      </trkpt>
      <trkpt lat="47.65651" lon="6.23405">
        <ele>318.2</ele>
        <time>2021-07-03T08:59:40Z</time>
      </trkpt>
      <trkpt lat="47.65647" lon="6.23411">
        <ele>318.4</ele>
        <time>2021-07-03T08:59:42Z</time>
      </trkpt>
      <trkpt lat="47.65643" lon="6.23419">
        <ele>318.6</ele>
        <time>2021-07-03T08:59:43Z</time>
      </trkpt>
      <trkpt lat="47.65638" lon="6.23418">
        <ele>318.7</ele>
        <time>2021-07-03T08:59:49Z</time>
      </trkpt>
      <trkpt lat="47.65635" lon="6.23411">
        <ele>318.7</ele>
        <time>2021-07-03T08:59:52Z</time>
      </trkpt>
      <trkpt lat="47.65632" lon="6.23404">
        <ele>318.7</ele>
        <time>2021-07-03T08:59:54Z</time>
      </trkpt>
      <trkpt lat="47.65628" lon="6.23397">
        <ele>318.7</ele>
        <time>2021-07-03T08:59:55Z</time>
      </trkpt>
      <trkpt lat="47.65624" lon="6.2339">
        <ele>318.7</ele>
        <time>2021-07-03T09:00:00Z</time>
      </trkpt>
      <trkpt lat="47.65621" lon="6.23384">
        <ele>318.7</ele>
        <time>2021-07-03T09:00:02Z</time>
      </trkpt>
      <trkpt lat="47.65616" lon="6.23377">
        <ele>318.7</ele>
        <time>2021-07-03T09:00:02Z</time>
      </trkpt>
      <trkpt lat="47.65613" lon="6.2337">
        <ele>318.7</ele>
        <time>2021-07-03T09:00:04Z</time>
      </trkpt>
      <trkpt lat="47.65609" lon="6.23365">
        <ele>318.8</ele>
        <time>2021-07-03T09:00:08Z</time>
      </trkpt>
      <trkpt lat="47.65606" lon="6.2336">
        <ele>318.8</ele>
        <time>2021-07-03T09:00:09Z</time>
      </trkpt>
      <trkpt lat="47.65602" lon="6.23354">
        <ele>318.8</ele>
        <time>2021-07-03T09:00:11Z</time>
      </trkpt>
      <trkpt lat="47.65599" lon="6.2335">
        <ele>318.8</ele>
        <time>2021-07-03T09:00:11Z</time>
      </trkpt>
      <trkpt lat="47.65595" lon="6.23344">
        <ele>318.8</ele>
        <time>2021-07-03T09:00:13Z</time>
      </trkpt>
      <trkpt lat="47.65591" lon="6.23339">
        <ele>318.9</ele>
        <time>2021-07-03T09:00:17Z</time>
      </trkpt>
      <trkpt lat="47.65587" lon="6.23334">
        <ele>318.9</ele>
        <time>2021-07-03T09:00:17Z</time>
      </trkpt>
      <trkpt lat="47.65583" lon="6.23329">
        <ele>318.8</ele>
        <time>2021-07-03T09:00:21Z</time>
      </trkpt>
      <trkpt lat="47.65578" lon="6.23324">
        <ele>319</ele>
        <time>2021-07-03T09:00:24Z</time>
      </trkpt>
      <trkpt lat="47.65573" lon="6.23316">
        <ele>319.1</ele>
        <time>2021-07-03T09:00:25Z</time>
      </trkpt>
      <trkpt lat="47.65569" lon="6.23312">
        <ele>319.2</ele>
        <time>2021-07-03T09:00:29Z</time>
      </trkpt>
      <trkpt lat="47.65564" lon="6.23306">
        <ele>319.3</ele>
        <time>2021-07-03T09:00:31Z</time>
      </trkpt>
      <trkpt lat="47.65559" lon="6.23299">
        <ele>319.5</ele>
        <time>2021-07-03T09:00:34Z</time>
      </trkpt>
      <trkpt lat="47.65555" lon="6.23293">
        <ele>319.6</ele>
        <time>2021-07-03T09:00:36Z</time>
      </trkpt>
      <trkpt lat="47.65551" lon="6.23288">
        <ele>319.8</ele>
        <time>2021-07-03T09:00:36Z</time>
      </trkpt>
      <trkpt lat="47.65548" lon="6.23284">
        <ele>319.9</ele>
        <time>2021-07-03T09:00:40Z</time>
      </trkpt>
      <trkpt lat="47.65544" lon="6.2328">
        <ele>320.1</ele>
        <time>2021-07-03T09:00:42Z</time>
      </trkpt>
      <trkpt lat="47.6554" lon="6.23275">
        <ele>320.2</ele>
        <time>2021-07-03T09:00:42Z</time>
      </trkpt>
      <trkpt lat="47.65535" lon="6.23269">
        <ele>320.4</ele>
        <time>2021-07-03T09:00:45Z</time>
      </trkpt>
      <trkpt lat="47.6553" lon="6.23261">
        <ele>320.6</ele>
        <time>2021-07-03T09:00:51Z</time>
      </trkpt>
      <trkpt lat="47.65527" lon="6.23255">
        <ele>320.6</ele>
        <time>2021-07-03T09:00:54Z</time>
      </trkpt>
      <trkpt lat="47.65523" lon="6.23249">
        <ele>320.8</ele>
        <time>2021-07-03T09:00:57Z</time>
      </trkpt>
      <trkpt lat="47.65521" lon="6.23242">
        <ele>321.1</ele>
        <time>2021-07-03T09:00:59Z</time>
      </trkpt>
      <trkpt lat="47.65519" lon="6.23234">
        <ele>321.4</ele>
        <time>2021-07-03T09:01:04Z</time>
      </trkpt>
      <trkpt lat="47.65517" lon="6.23226">
        <ele>321.7</ele>
        <time>2021-07-03T09:01:08Z</time>
      </trkpt>
      <trkpt lat="47.65516" lon="6.23219">
        <ele>322</ele>
        <time>2021-07-03T09:01:11Z</time>
      </trkpt>
      <trkpt lat="47.65514" lon="6.23212">
        <ele>322.3</ele>
        <time>2021-07-03T09:01:12Z</time>
      </trkpt>
      <trkpt lat="47.65513" lon="6.23205">
        <ele>322.5</ele>
        <time>2021-07-03T09:01:17Z</time>
      </trkpt>
      <trkpt lat="47.65513" lon="6.23198">
        <ele>322.7</ele>
        <time>2021-07-03T09:01:19Z</time>
      </trkpt>
      <trkpt lat="47.65513" lon="6.23191">
        <ele>322.8</ele>
        <time>2021-07-03T09:01:23Z</time>
      </trkpt>
      <trkpt lat="47.65513" lon="6.23183">
        <ele>323</ele>
        <time>2021-07-03T09:01:24Z</time>
      </trkpt>
      <trkpt lat="47.65513" lon="6.23175">
        <ele>323.2</ele>
        <time>2021-07-03T09:01:27Z</time>
      </trkpt>
      <trkpt lat="47.65512" lon="6.23167">
        <ele>323.5</ele>
        <time>2021-07-03T09:01:33Z</time>
      </trkpt>
      <trkpt lat="47.65511" lon="6.2316">
        <ele>323.8</ele>
        <time>2021-07-03T09:01:34Z</time>
      </trkpt>
      <trkpt lat="47.65508" lon="6.23152">
        <ele>324.6</ele>
        <time>2021-07-03T09:01:40Z</time>
      </trkpt>
      <trkpt lat="47.65504" lon="6.23147">
        <ele>325.4</ele>
        <time>2021-07-03T09:01:42Z</time>
      </trkpt>
      <trkpt lat="47.65503" lon="6.2314">
        <ele>325.8</ele>
        <time>2021-07-03T09:02:23Z</time>
      </trkpt>
      <trkpt lat="47.65506" lon="6.23134">
        <ele>325.8</ele>
        <time>2021-07-03T09:02:25Z</time>
      </trkpt>
      <trkpt lat="47.65507" lon="6.23126">
        <ele>326</ele>
        <time>2021-07-03T09:02:31Z</time>
      </trkpt>
      <trkpt lat="47.65508" lon="6.23115">
        <ele>326.3</ele>
        <time>2021-07-03T09:02:32Z</time>
      </trkpt>
      <trkpt lat="47.6551" lon="6.23109">
        <ele>326.3</ele>
        <time>2021-07-03T09:02:37Z</time>
      </trkpt>
      <trkpt lat="47.65512" lon="6.23102">
        <ele>326.4</ele>
        <time>2021-07-03T09:02:40Z</time>
      </trkpt>
      <trkpt lat="47.65513" lon="6.23095">
        <ele>326.6</ele>
        <time>2021-07-03T09:02:42Z</time>
      </trkpt>
      <trkpt lat="47.65515" lon="6.23088">
        <ele>326.7</ele>
        <time>2021-07-03T09:02:46Z</time>
      </trkpt>
      <trkpt lat="47.65515" lon="6.23081">
        <ele>326.9</ele>
        <time>2021-07-03T09:02:52Z</time>
      </trkpt>
      <trkpt lat="47.65515" lon="6.23074">
        <ele>327</ele>
        <time>2021-07-03T09:02:55Z</time>
      </trkpt>
      <trkpt lat="47.65515" lon="6.23066">
        <ele>327.3</ele>
        <time>2021-07-03T09:02:56Z</time>
      </trkpt>
      <trkpt lat="47.65515" lon="6.23059">
        <ele>327.5</ele>
        <time>2021-07-03T09:03:01Z</time>
      </trkpt>
      <trkpt lat="47.65515" lon="6.23051">
        <ele>327.7</ele>
        <time>2021-07-03T09:03:03Z</time>
      </trkpt>
      <trkpt lat="47.65515" lon="6.23043">
        <ele>327.9</ele>
        <time>2021-07-03T09:03:06Z</time>
      </trkpt>
      <trkpt lat="47.65515" lon="6.23033">
        <ele>328.2</ele>
        <time>2021-07-03T09:03:07Z</time>
      </trkpt>
      <trkpt lat="47.65515" lon="6.23025">
        <ele>328.4</ele>
        <time>2021-07-03T09:03:12Z</time>
      </trkpt>
      <trkpt lat="47.65514" lon="6.23016">
        <ele>328.7</ele>
        <time>2021-07-03T09:03:15Z</time>
      </trkpt>
      <trkpt lat="47.65514" lon="6.23007">
        <ele>329</ele>
        <time>2021-07-03T09:03:18Z</time>
      </trkpt>
      <trkpt lat="47.65513" lon="6.22999">
        <ele>329.2</ele>
        <time>2021-07-03T09:03:21Z</time>
      </trkpt>
      <trkpt lat="47.65512" lon="6.22993">
        <ele>329.2</ele>
        <time>2021-07-03T09:03:23Z</time>
      </trkpt>
      <trkpt lat="47.65511" lon="6.22985">
        <ele>329.3</ele>
        <time>2021-07-03T09:03:26Z</time>
      </trkpt>
      <trkpt lat="47.6551" lon="6.22979">
        <ele>329.3</ele>
        <time>2021-07-03T09:03:28Z</time>
      </trkpt>
      <trkpt lat="47.65508" lon="6.22972">
        <ele>329.3</ele>
        <time>2021-07-03T09:03:30Z</time>
      </trkpt>
      <trkpt lat="47.65506" lon="6.22961">
        <ele>329.3</ele>
        <time>2021-07-03T09:03:33Z</time>
      </trkpt>
      <trkpt lat="47.65504" lon="6.22953">
        <ele>329.3</ele>
        <time>2021-07-03T09:03:36Z</time>
      </trkpt>
      <trkpt lat="47.65502" lon="6.22944">
        <ele>329.3</ele>
        <time>2021-07-03T09:03:38Z</time>
      </trkpt>
      <trkpt lat="47.65499" lon="6.22936">
        <ele>329.2</ele>
        <time>2021-07-03T09:03:41Z</time>
      </trkpt>
      <trkpt lat="47.65498" lon="6.22929">
        <ele>329.2</ele>
        <time>2021-07-03T09:03:43Z</time>
      </trkpt>
      <trkpt lat="47.65497" lon="6.22921">
        <ele>329.1</ele>
        <time>2021-07-03T09:03:45Z</time>
      </trkpt>
      <trkpt lat="47.65496" lon="6.22913">
        <ele>329.2</ele>
        <time>2021-07-03T09:03:47Z</time>
      </trkpt>
      <trkpt lat="47.65495" lon="6.22904">
        <ele>329.4</ele>
        <time>2021-07-03T09:03:50Z</time>
      </trkpt>
      <trkpt lat="47.65495" lon="6.22896">
        <ele>329.6</ele>
        <time>2021-07-03T09:03:50Z</time>
      </trkpt>
      <trkpt lat="47.65495" lon="6.22886">
        <ele>329.8</ele>
        <time>2021-07-03T09:03:55Z</time>
      </trkpt>
      <trkpt lat="47.65494" lon="6.22878">
        <ele>330</ele>
        <time>2021-07-03T09:03:55Z</time>
      </trkpt>
      <trkpt lat="47.65494" lon="6.22868">
        <ele>330.2</ele>
        <time>2021-07-03T09:03:58Z</time>
      </trkpt>
      <trkpt lat="47.65493" lon="6.22861">
        <ele>330.4</ele>
        <time>2021-07-03T09:04:00Z</time>
      </trkpt>
      <trkpt lat="47.65492" lon="6.22853">
        <ele>330.6</ele>
        <time>2021-07-03T09:04:05Z</time>
      </trkpt>
      <trkpt lat="47.65491" lon="6.22845">
        <ele>330.7</ele>
        <time>2021-07-03T09:04:05Z</time>
      </trkpt>
      <trkpt lat="47.65489" lon="6.22837">
        <ele>330.9</ele>
        <time>2021-07-03T09:04:09Z</time>
      </trkpt>
      <trkpt lat="47.65487" lon="6.22829">
        <ele>331.1</ele>
        <time>2021-07-03T09:04:12Z</time>
      </trkpt>
      <trkpt lat="47.65484" lon="6.22823">
        <ele>331.1</ele>
        <time>2021-07-03T09:04:13Z</time>
      </trkpt>
      <trkpt lat="47.65482" lon="6.22815">
        <ele>331.3</ele>
        <time>2021-07-03T09:04:16Z</time>
      </trkpt>
      <trkpt lat="47.65479" lon="6.22808">
        <ele>331.4</ele>
        <time>2021-07-03T09:04:18Z</time>
      </trkpt>
      <trkpt lat="47.65477" lon="6.22802">
        <ele>331.5</ele>
        <time>2021-07-03T09:04:20Z</time>
      </trkpt>
      <trkpt lat="47.65475" lon="6.22796">
        <ele>331.6</ele>
        <time>2021-07-03T09:04:22Z</time>
      </trkpt>
      <trkpt lat="47.65472" lon="6.2279">
        <ele>331.7</ele>
        <time>2021-07-03T09:04:24Z</time>
      </trkpt>
      <trkpt lat="47.65469" lon="6.22783">
        <ele>331.8</ele>
        <time>2021-07-03T09:04:26Z</time>
      </trkpt>
      <trkpt lat="47.65467" lon="6.22777">
        <ele>331.9</ele>
        <time>2021-07-03T09:04:28Z</time>
      </trkpt>
      <trkpt lat="47.65463" lon="6.22771">
        <ele>332.1</ele>
        <time>2021-07-03T09:04:30Z</time>
      </trkpt>
      <trkpt lat="47.65459" lon="6.22764">
        <ele>332.2</ele>
        <time>2021-07-03T09:04:33Z</time>
      </trkpt>
      <trkpt lat="47.65456" lon="6.22758">
        <ele>332.4</ele>
        <time>2021-07-03T09:04:36Z</time>
      </trkpt>
      <trkpt lat="47.65452" lon="6.22753">
        <ele>332.5</ele>
        <time>2021-07-03T09:04:38Z</time>
      </trkpt>
      <trkpt lat="47.65448" lon="6.22748">
        <ele>332.6</ele>
        <time>2021-07-03T09:04:38Z</time>
      </trkpt>
      <trkpt lat="47.65445" lon="6.22742">
        <ele>332.6</ele>
        <time>2021-07-03T09:04:42Z</time>
      </trkpt>
      <trkpt lat="47.65442" lon="6.22737">
        <ele>332.6</ele>
        <time>2021-07-03T09:04:44Z</time>
      </trkpt>
      <trkpt lat="47.65438" lon="6.22731">
        <ele>332.6</ele>
        <time>2021-07-03T09:04:45Z</time>
      </trkpt>
      <trkpt lat="47.65435" lon="6.22725">
        <ele>332.5</ele>
        <time>2021-07-03T09:04:50Z</time>
      </trkpt>
      <trkpt lat="47.65432" lon="6.22719">
        <ele>332.5</ele>
        <time>2021-07-03T09:04:52Z</time>
      </trkpt>
      <trkpt lat="47.65429" lon="6.22713">
        <ele>332.5</ele>
        <time>2021-07-03T09:04:54Z</time>
      </trkpt>
      <trkpt lat="47.65425" lon="6.22706">
        <ele>332.4</ele>
        <time>2021-07-03T09:04:56Z</time>
      </trkpt>
      <trkpt lat="47.65422" lon="6.227">
        <ele>332.4</ele>
        <time>2021-07-03T09:04:59Z</time>
      </trkpt>
      <trkpt lat="47.6542" lon="6.22692">
        <ele>332.3</ele>
        <time>2021-07-03T09:05:01Z</time>
      </trkpt>
      <trkpt lat="47.65417" lon="6.22683">
        <ele>332.2</ele>
        <time>2021-07-03T09:05:04Z</time>
      </trkpt>
      <trkpt lat="47.65414" lon="6.22676">
        <ele>332.1</ele>
        <time>2021-07-03T09:05:06Z</time>
      </trkpt>
      <trkpt lat="47.6541" lon="6.22669">
        <ele>332</ele>
        <time>2021-07-03T09:05:08Z</time>
      </trkpt>
      <trkpt lat="47.65408" lon="6.22662">
        <ele>332</ele>
        <time>2021-07-03T09:05:11Z</time>
      </trkpt>
      <trkpt lat="47.65406" lon="6.22654">
        <ele>331.9</ele>
        <time>2021-07-03T09:05:13Z</time>
      </trkpt>
      <trkpt lat="47.65403" lon="6.22647">
        <ele>331.9</ele>
        <time>2021-07-03T09:05:16Z</time>
      </trkpt>
      <trkpt lat="47.65401" lon="6.2264">
        <ele>331.9</ele>
        <time>2021-07-03T09:05:16Z</time>
      </trkpt>
      <trkpt lat="47.65397" lon="6.22632">
        <ele>331.9</ele>
        <time>2021-07-03T09:05:21Z</time>
      </trkpt>
      <trkpt lat="47.65394" lon="6.22625">
        <ele>331.9</ele>
        <time>2021-07-03T09:05:21Z</time>
      </trkpt>
      <trkpt lat="47.65392" lon="6.22619">
        <ele>331.9</ele>
        <time>2021-07-03T09:05:25Z</time>
      </trkpt>
      <trkpt lat="47.65389" lon="6.22612">
        <ele>332</ele>
        <time>2021-07-03T09:05:25Z</time>
      </trkpt>
      <trkpt lat="47.65387" lon="6.22607">
        <ele>332</ele>
        <time>2021-07-03T09:05:27Z</time>
      </trkpt>
      <trkpt lat="47.65384" lon="6.226">
        <ele>332.1</ele>
        <time>2021-07-03T09:05:31Z</time>
      </trkpt>
      <trkpt lat="47.6538" lon="6.22592">
        <ele>332.3</ele>
        <time>2021-07-03T09:05:34Z</time>
      </trkpt>
      <trkpt lat="47.65377" lon="6.22587">
        <ele>332.4</ele>
        <time>2021-07-03T09:05:36Z</time>
      </trkpt>
      <trkpt lat="47.65374" lon="6.22581">
        <ele>332.5</ele>
        <time>2021-07-03T09:05:38Z</time>
      </trkpt>
      <trkpt lat="47.65371" lon="6.22576">
        <ele>332.6</ele>
        <time>2021-07-03T09:05:40Z</time>
      </trkpt>
      <trkpt lat="47.65367" lon="6.22569">
        <ele>332.6</ele>
        <time>2021-07-03T09:05:40Z</time>
      </trkpt>
      <trkpt lat="47.65364" lon="6.22563">
        <ele>332.7</ele>
        <time>2021-07-03T09:05:44Z</time>
      </trkpt>
      <trkpt lat="47.6536" lon="6.22556">
        <ele>332.7</ele>
        <time>2021-07-03T09:05:47Z</time>
      </trkpt>
      <trkpt lat="47.65356" lon="6.2255">
        <ele>332.8</ele>
        <time>2021-07-03T09:05:47Z</time>
      </trkpt>
      <trkpt lat="47.65353" lon="6.22545">
        <ele>332.8</ele>
        <time>2021-07-03T09:05:49Z</time>
      </trkpt>
      <trkpt lat="47.6535" lon="6.22538">
        <ele>332.9</ele>
        <time>2021-07-03T09:05:53Z</time>
      </trkpt>
      <trkpt lat="47.65347" lon="6.22532">
        <ele>332.9</ele>
        <time>2021-07-03T09:05:55Z</time>
      </trkpt>
      <trkpt lat="47.65343" lon="6.22525">
        <ele>332.9</ele>
        <time>2021-07-03T09:05:58Z</time>
      </trkpt>
      <trkpt lat="47.65341" lon="6.2252">
        <ele>333</ele>
        <time>2021-07-03T09:05:58Z</time>
      </trkpt>
      <trkpt lat="47.65338" lon="6.22514">
        <ele>333</ele>
        <time>2021-07-03T09:06:02Z</time>
      </trkpt>
      <trkpt lat="47.65335" lon="6.22507">
        <ele>333</ele>
        <time>2021-07-03T09:06:04Z</time>
      </trkpt>
      <trkpt lat="47.65331" lon="6.225">
        <ele>333.2</ele>
        <time>2021-07-03T09:06:05Z</time>
      </trkpt>
      <trkpt lat="47.65328" lon="6.22493">
        <ele>333.3</ele>
        <time>2021-07-03T09:06:09Z</time>
      </trkpt>
      <trkpt lat="47.65325" lon="6.22486">
        <ele>333.3</ele>
        <time>2021-07-03T09:06:12Z</time>
      </trkpt>
      <trkpt lat="47.65321" lon="6.22477">
        <ele>333.5</ele>
        <time>2021-07-03T09:06:15Z</time>
      </trkpt>
      <trkpt lat="47.65318" lon="6.22471">
        <ele>333.6</ele>
        <time>2021-07-03T09:06:17Z</time>
      </trkpt>
      <trkpt lat="47.65315" lon="6.22466">
        <ele>333.7</ele>
        <time>2021-07-03T09:06:19Z</time>
      </trkpt>
      <trkpt lat="47.65312" lon="6.22459">
        <ele>333.8</ele>
        <time>2021-07-03T09:06:21Z</time>
      </trkpt>
      <trkpt lat="47.65309" lon="6.22453">
        <ele>333.9</ele>
        <time>2021-07-03T09:06:21Z</time>
      </trkpt>
      <trkpt lat="47.65306" lon="6.22445">
        <ele>334.1</ele>
        <time>2021-07-03T09:06:25Z</time>
      </trkpt>
      <trkpt lat="47.65302" lon="6.22436">
        <ele>334.3</ele>
        <time>2021-07-03T09:06:28Z</time>
      </trkpt>
      <trkpt lat="47.65299" lon="6.2243">
        <ele>334.5</ele>
        <time>2021-07-03T09:06:31Z</time>
      </trkpt>
      <trkpt lat="47.65296" lon="6.22423">
        <ele>334.7</ele>
        <time>2021-07-03T09:06:33Z</time>
      </trkpt>
      <trkpt lat="47.65293" lon="6.22418">
        <ele>334.9</ele>
        <time>2021-07-03T09:06:35Z</time>
      </trkpt>
      <trkpt lat="47.65289" lon="6.22411">
        <ele>334.9</ele>
        <time>2021-07-03T09:06:35Z</time>
      </trkpt>
      <trkpt lat="47.65285" lon="6.22403">
        <ele>334.9</ele>
        <time>2021-07-03T09:06:40Z</time>
      </trkpt>
      <trkpt lat="47.65282" lon="6.22398">
        <ele>334.9</ele>
        <time>2021-07-03T09:06:41Z</time>
      </trkpt>
      <trkpt lat="47.65279" lon="6.22391">
        <ele>334.8</ele>
        <time>2021-07-03T09:06:44Z</time>
      </trkpt>
      <trkpt lat="47.65275" lon="6.22384">
        <ele>334.7</ele>
        <time>2021-07-03T09:06:45Z</time>
      </trkpt>
      <trkpt lat="47.6527" lon="6.22375">
        <ele>334.7</ele>
        <time>2021-07-03T09:06:49Z</time>
      </trkpt>
      <trkpt lat="47.65267" lon="6.22369">
        <ele>334.7</ele>
        <time>2021-07-03T09:06:50Z</time>
      </trkpt>
      <trkpt lat="47.65262" lon="6.22361">
        <ele>334.7</ele>
        <time>2021-07-03T09:06:53Z</time>
      </trkpt>
      <trkpt lat="47.65254" lon="6.22349">
        <ele>334.7</ele>
        <time>2021-07-03T09:06:56Z</time>
      </trkpt>
      <trkpt lat="47.65249" lon="6.2234">
        <ele>334.5</ele>
        <time>2021-07-03T09:06:58Z</time>
      </trkpt>
      <trkpt lat="47.65244" lon="6.22332">
        <ele>334.1</ele>
        <time>2021-07-03T09:07:00Z</time>
      </trkpt>
      <trkpt lat="47.65241" lon="6.22327">
        <ele>333.8</ele>
        <time>2021-07-03T09:07:01Z</time>
      </trkpt>
      <trkpt lat="47.65237" lon="6.22321">
        <ele>333.6</ele>
        <time>2021-07-03T09:07:02Z</time>
      </trkpt>
      <trkpt lat="47.65233" lon="6.22315">
        <ele>333.3</ele>
        <time>2021-07-03T09:07:03Z</time>
      </trkpt>
      <trkpt lat="47.6523" lon="6.2231">
        <ele>333.1</ele>
        <time>2021-07-03T09:07:06Z</time>
      </trkpt>
      <trkpt lat="47.65226" lon="6.22304">
        <ele>332.8</ele>
        <time>2021-07-03T09:07:07Z</time>
      </trkpt>
      <trkpt lat="47.65221" lon="6.22298">
        <ele>332.6</ele>
        <time>2021-07-03T09:07:11Z</time>
      </trkpt>
      <trkpt lat="47.65218" lon="6.22292">
        <ele>332.3</ele>
        <time>2021-07-03T09:07:13Z</time>
      </trkpt>
      <trkpt lat="47.65213" lon="6.22286">
        <ele>332</ele>
        <time>2021-07-03T09:07:15Z</time>
      </trkpt>
      <trkpt lat="47.65207" lon="6.22278">
        <ele>331.7</ele>
        <time>2021-07-03T09:07:17Z</time>
      </trkpt>
      <trkpt lat="47.65203" lon="6.22272">
        <ele>331.4</ele>
        <time>2021-07-03T09:07:18Z</time>
      </trkpt>
      <trkpt lat="47.652" lon="6.22266">
        <ele>331.2</ele>
        <time>2021-07-03T09:07:20Z</time>
      </trkpt>
      <trkpt lat="47.65195" lon="6.22258">
        <ele>330.8</ele>
        <time>2021-07-03T09:07:22Z</time>
      </trkpt>
      <trkpt lat="47.6519" lon="6.22249">
        <ele>330.4</ele>
        <time>2021-07-03T09:07:23Z</time>
      </trkpt>
      <trkpt lat="47.65186" lon="6.22242">
        <ele>330.3</ele>
        <time>2021-07-03T09:07:25Z</time>
      </trkpt>
      <trkpt lat="47.65183" lon="6.22237">
        <ele>330.3</ele>
        <time>2021-07-03T09:07:27Z</time>
      </trkpt>
      <trkpt lat="47.65178" lon="6.22227">
        <ele>330.1</ele>
        <time>2021-07-03T09:07:29Z</time>
      </trkpt>
      <trkpt lat="47.65173" lon="6.22218">
        <ele>329.8</ele>
        <time>2021-07-03T09:07:30Z</time>
      </trkpt>
      <trkpt lat="47.65169" lon="6.22211">
        <ele>329.6</ele>
        <time>2021-07-03T09:07:32Z</time>
      </trkpt>
      <trkpt lat="47.65165" lon="6.22205">
        <ele>329.3</ele>
        <time>2021-07-03T09:07:34Z</time>
      </trkpt>
      <trkpt lat="47.65158" lon="6.22194">
        <ele>328.3</ele>
        <time>2021-07-03T09:07:37Z</time>
      </trkpt>
      <trkpt lat="47.65154" lon="6.22188">
        <ele>327.8</ele>
        <time>2021-07-03T09:07:38Z</time>
      </trkpt>
      <trkpt lat="47.65149" lon="6.2218">
        <ele>327</ele>
        <time>2021-07-03T09:07:40Z</time>
      </trkpt>
      <trkpt lat="47.65145" lon="6.22175">
        <ele>326.6</ele>
        <time>2021-07-03T09:07:41Z</time>
      </trkpt>
      <trkpt lat="47.65142" lon="6.22171">
        <ele>326.1</ele>
        <time>2021-07-03T09:07:42Z</time>
      </trkpt>
      <trkpt lat="47.65136" lon="6.22162">
        <ele>325.5</ele>
        <time>2021-07-03T09:07:44Z</time>
      </trkpt>
      <trkpt lat="47.65126" lon="6.22146">
        <ele>325</ele>
        <time>2021-07-03T09:07:47Z</time>
      </trkpt>
      <trkpt lat="47.6512" lon="6.22136">
        <ele>324.6</ele>
        <time>2021-07-03T09:07:49Z</time>
      </trkpt>
      <trkpt lat="47.65116" lon="6.2213">
        <ele>324.4</ele>
        <time>2021-07-03T09:07:50Z</time>
      </trkpt>
      <trkpt lat="47.65108" lon="6.22115">
        <ele>323.8</ele>
        <time>2021-07-03T09:07:53Z</time>
      </trkpt>
      <trkpt lat="47.65104" lon="6.22108">
        <ele>323.6</ele>
        <time>2021-07-03T09:07:54Z</time>
      </trkpt>
      <trkpt lat="47.65099" lon="6.22098">
        <ele>323.3</ele>
        <time>2021-07-03T09:07:56Z</time>
      </trkpt>
      <trkpt lat="47.65094" lon="6.22089">
        <ele>323</ele>
        <time>2021-07-03T09:07:57Z</time>
      </trkpt>
      <trkpt lat="47.6509" lon="6.22082">
        <ele>322.8</ele>
        <time>2021-07-03T09:07:59Z</time>
      </trkpt>
      <trkpt lat="47.65085" lon="6.22072">
        <ele>323.1</ele>
        <time>2021-07-03T09:08:01Z</time>
      </trkpt>
      <trkpt lat="47.65082" lon="6.22064">
        <ele>323.5</ele>
        <time>2021-07-03T09:08:02Z</time>
      </trkpt>
      <trkpt lat="47.6508" lon="6.22058">
        <ele>323.6</ele>
        <time>2021-07-03T09:08:04Z</time>
      </trkpt>
      <trkpt lat="47.65077" lon="6.22051">
        <ele>323.9</ele>
        <time>2021-07-03T09:08:05Z</time>
      </trkpt>
      <trkpt lat="47.65075" lon="6.22041">
        <ele>324.3</ele>
        <time>2021-07-03T09:08:06Z</time>
      </trkpt>
      <trkpt lat="47.65072" lon="6.22035">
        <ele>324.5</ele>
        <time>2021-07-03T09:08:08Z</time>
      </trkpt>
      <trkpt lat="47.6507" lon="6.22028">
        <ele>324.8</ele>
        <time>2021-07-03T09:08:09Z</time>
      </trkpt>
      <trkpt lat="47.65068" lon="6.2202">
        <ele>325</ele>
        <time>2021-07-03T09:08:11Z</time>
      </trkpt>
      <trkpt lat="47.65063" lon="6.2201">
        <ele>325.1</ele>
        <time>2021-07-03T09:08:15Z</time>
      </trkpt>
      <trkpt lat="47.65061" lon="6.22003">
        <ele>325.3</ele>
        <time>2021-07-03T09:08:17Z</time>
      </trkpt>
      <trkpt lat="47.65059" lon="6.21997">
        <ele>325.4</ele>
        <time>2021-07-03T09:08:18Z</time>
      </trkpt>
      <trkpt lat="47.65056" lon="6.21991">
        <ele>325.4</ele>
        <time>2021-07-03T09:08:20Z</time>
      </trkpt>
      <trkpt lat="47.65054" lon="6.21985">
        <ele>325.5</ele>
        <time>2021-07-03T09:08:23Z</time>
      </trkpt>
      <trkpt lat="47.65052" lon="6.21979">
        <ele>325.5</ele>
        <time>2021-07-03T09:08:25Z</time>
      </trkpt>
      <trkpt lat="47.65049" lon="6.21972">
        <ele>325.4</ele>
        <time>2021-07-03T09:08:26Z</time>
      </trkpt>
      <trkpt lat="47.65044" lon="6.21964">
        <ele>325.3</ele>
        <time>2021-07-03T09:08:29Z</time>
      </trkpt>
      <trkpt lat="47.6504" lon="6.21956">
        <ele>325.1</ele>
        <time>2021-07-03T09:08:31Z</time>
      </trkpt>
      <trkpt lat="47.65036" lon="6.21948">
        <ele>325</ele>
        <time>2021-07-03T09:08:33Z</time>
      </trkpt>
      <trkpt lat="47.65033" lon="6.21943">
        <ele>325</ele>
        <time>2021-07-03T09:08:34Z</time>
      </trkpt>
      <trkpt lat="47.65028" lon="6.21935">
        <ele>324.8</ele>
        <time>2021-07-03T09:08:36Z</time>
      </trkpt>
      <trkpt lat="47.65024" lon="6.21925">
        <ele>324.8</ele>
        <time>2021-07-03T09:08:37Z</time>
      </trkpt>
      <trkpt lat="47.6502" lon="6.21918">
        <ele>324.8</ele>
        <time>2021-07-03T09:08:39Z</time>
      </trkpt>
      <trkpt lat="47.65017" lon="6.21912">
        <ele>324.9</ele>
        <time>2021-07-03T09:08:40Z</time>
      </trkpt>
      <trkpt lat="47.65014" lon="6.21906">
        <ele>324.9</ele>
        <time>2021-07-03T09:08:42Z</time>
      </trkpt>
      <trkpt lat="47.65011" lon="6.219">
        <ele>325.1</ele>
        <time>2021-07-03T09:08:44Z</time>
      </trkpt>
      <trkpt lat="47.65006" lon="6.21894">
        <ele>325</ele>
        <time>2021-07-03T09:08:46Z</time>
      </trkpt>
      <trkpt lat="47.65002" lon="6.21887">
        <ele>325.1</ele>
        <time>2021-07-03T09:08:48Z</time>
      </trkpt>
      <trkpt lat="47.64996" lon="6.21874">
        <ele>325.7</ele>
        <time>2021-07-03T09:08:50Z</time>
      </trkpt>
      <trkpt lat="47.64992" lon="6.21868">
        <ele>326</ele>
        <time>2021-07-03T09:08:53Z</time>
      </trkpt>
      <trkpt lat="47.64988" lon="6.21861">
        <ele>326.3</ele>
        <time>2021-07-03T09:08:54Z</time>
      </trkpt>
      <trkpt lat="47.64984" lon="6.21856">
        <ele>326.6</ele>
        <time>2021-07-03T09:08:57Z</time>
      </trkpt>
      <trkpt lat="47.6498" lon="6.21847">
        <ele>327</ele>
        <time>2021-07-03T09:08:58Z</time>
      </trkpt>
      <trkpt lat="47.64977" lon="6.21843">
        <ele>327.2</ele>
        <time>2021-07-03T09:09:00Z</time>
      </trkpt>
      <trkpt lat="47.64973" lon="6.21835">
        <ele>327.6</ele>
        <time>2021-07-03T09:09:03Z</time>
      </trkpt>
      <trkpt lat="47.64969" lon="6.21827">
        <ele>327.8</ele>
        <time>2021-07-03T09:09:04Z</time>
      </trkpt>
      <trkpt lat="47.64967" lon="6.21819">
        <ele>328</ele>
        <time>2021-07-03T09:09:07Z</time>
      </trkpt>
      <trkpt lat="47.64965" lon="6.21813">
        <ele>328.3</ele>
        <time>2021-07-03T09:09:09Z</time>
      </trkpt>
      <trkpt lat="47.64963" lon="6.21804">
        <ele>328.6</ele>
        <time>2021-07-03T09:09:10Z</time>
      </trkpt>
      <trkpt lat="47.64962" lon="6.21795">
        <ele>329.1</ele>
        <time>2021-07-03T09:09:14Z</time>
      </trkpt>
      <trkpt lat="47.64962" lon="6.21786">
        <ele>329.7</ele>
        <time>2021-07-03T09:09:17Z</time>
      </trkpt>
      <trkpt lat="47.64963" lon="6.21777">
        <ele>330.2</ele>
        <time>2021-07-03T09:09:20Z</time>
      </trkpt>
      <trkpt lat="47.64962" lon="6.21769">
        <ele>330.7</ele>
        <time>2021-07-03T09:09:23Z</time>
      </trkpt>
      <trkpt lat="47.64962" lon="6.21762">
        <ele>331.1</ele>
        <time>2021-07-03T09:09:26Z</time>
      </trkpt>
      <trkpt lat="47.6496" lon="6.21754">
        <ele>331.4</ele>
        <time>2021-07-03T09:09:28Z</time>
      </trkpt>
      <trkpt lat="47.64959" lon="6.21747">
        <ele>331.7</ele>
        <time>2021-07-03T09:09:31Z</time>
      </trkpt>
      <trkpt lat="47.64957" lon="6.21739">
        <ele>331.9</ele>
        <time>2021-07-03T09:09:34Z</time>
      </trkpt>
      <trkpt lat="47.64956" lon="6.2173">
        <ele>332.1</ele>
        <time>2021-07-03T09:09:37Z</time>
      </trkpt>
      <trkpt lat="47.64953" lon="6.21721">
        <ele>332.2</ele>
        <time>2021-07-03T09:09:39Z</time>
      </trkpt>
      <trkpt lat="47.64951" lon="6.21712">
        <ele>332.5</ele>
        <time>2021-07-03T09:09:42Z</time>
      </trkpt>
      <trkpt lat="47.64949" lon="6.21705">
        <ele>332.7</ele>
        <time>2021-07-03T09:09:44Z</time>
      </trkpt>
      <trkpt lat="47.64948" lon="6.21698">
        <ele>332.9</ele>
        <time>2021-07-03T09:09:46Z</time>
      </trkpt>
      <trkpt lat="47.64946" lon="6.21689">
        <ele>333.2</ele>
        <time>2021-07-03T09:09:47Z</time>
      </trkpt>
      <trkpt lat="47.64945" lon="6.21682">
        <ele>333.4</ele>
        <time>2021-07-03T09:09:50Z</time>
      </trkpt>
      <trkpt lat="47.64945" lon="6.21672">
        <ele>333.8</ele>
        <time>2021-07-03T09:09:51Z</time>
      </trkpt>
      <trkpt lat="47.64944" lon="6.21665">
        <ele>334</ele>
        <time>2021-07-03T09:09:54Z</time>
      </trkpt>
      <trkpt lat="47.64942" lon="6.21657">
        <ele>333.9</ele>
        <time>2021-07-03T09:09:55Z</time>
      </trkpt>
      <trkpt lat="47.64941" lon="6.21649">
        <ele>333.8</ele>
        <time>2021-07-03T09:09:57Z</time>
      </trkpt>
      <trkpt lat="47.6494" lon="6.21641">
        <ele>333.8</ele>
        <time>2021-07-03T09:09:58Z</time>
      </trkpt>
      <trkpt lat="47.6494" lon="6.21633">
        <ele>333.8</ele>
        <time>2021-07-03T09:10:01Z</time>
      </trkpt>
      <trkpt lat="47.64938" lon="6.21624">
        <ele>333.8</ele>
        <time>2021-07-03T09:10:02Z</time>
      </trkpt>
      <trkpt lat="47.64936" lon="6.21615">
        <ele>333.7</ele>
        <time>2021-07-03T09:10:03Z</time>
      </trkpt>
      <trkpt lat="47.64933" lon="6.21607">
        <ele>333.6</ele>
        <time>2021-07-03T09:10:06Z</time>
      </trkpt>
      <trkpt lat="47.64931" lon="6.21596">
        <ele>333.6</ele>
        <time>2021-07-03T09:10:08Z</time>
      </trkpt>
      <trkpt lat="47.6493" lon="6.21589">
        <ele>333.6</ele>
        <time>2021-07-03T09:10:09Z</time>
      </trkpt>
      <trkpt lat="47.64927" lon="6.21581">
        <ele>333.5</ele>
        <time>2021-07-03T09:10:10Z</time>
      </trkpt>
      <trkpt lat="47.64924" lon="6.21573">
        <ele>333.1</ele>
        <time>2021-07-03T09:10:12Z</time>
      </trkpt>
      <trkpt lat="47.64922" lon="6.21564">
        <ele>332.8</ele>
        <time>2021-07-03T09:10:15Z</time>
      </trkpt>
      <trkpt lat="47.6492" lon="6.21557">
        <ele>332.5</ele>
        <time>2021-07-03T09:10:16Z</time>
      </trkpt>
      <trkpt lat="47.64917" lon="6.21551">
        <ele>332.2</ele>
        <time>2021-07-03T09:10:18Z</time>
      </trkpt>
      <trkpt lat="47.64914" lon="6.21542">
        <ele>331.9</ele>
        <time>2021-07-03T09:10:19Z</time>
      </trkpt>
      <trkpt lat="47.64911" lon="6.21534">
        <ele>331.6</ele>
        <time>2021-07-03T09:10:21Z</time>
      </trkpt>
      <trkpt lat="47.64909" lon="6.21525">
        <ele>331.2</ele>
        <time>2021-07-03T09:10:22Z</time>
      </trkpt>
      <trkpt lat="47.64906" lon="6.21516">
        <ele>330.9</ele>
        <time>2021-07-03T09:10:25Z</time>
      </trkpt>
      <trkpt lat="47.64904" lon="6.21509">
        <ele>330.6</ele>
        <time>2021-07-03T09:10:27Z</time>
      </trkpt>
      <trkpt lat="47.64902" lon="6.21503">
        <ele>330.4</ele>
        <time>2021-07-03T09:10:28Z</time>
      </trkpt>
      <trkpt lat="47.64901" lon="6.21495">
        <ele>330.2</ele>
        <time>2021-07-03T09:10:30Z</time>
      </trkpt>
      <trkpt lat="47.64899" lon="6.21485">
        <ele>330</ele>
        <time>2021-07-03T09:10:32Z</time>
      </trkpt>
      <trkpt lat="47.64896" lon="6.21476">
        <ele>329.9</ele>
        <time>2021-07-03T09:10:34Z</time>
      </trkpt>
      <trkpt lat="47.64895" lon="6.21469">
        <ele>329.8</ele>
        <time>2021-07-03T09:10:35Z</time>
      </trkpt>
      <trkpt lat="47.64891" lon="6.21458">
        <ele>329.6</ele>
        <time>2021-07-03T09:10:37Z</time>
      </trkpt>
      <trkpt lat="47.64889" lon="6.21449">
        <ele>329.5</ele>
        <time>2021-07-03T09:10:38Z</time>
      </trkpt>
      <trkpt lat="47.64884" lon="6.2144">
        <ele>329.3</ele>
        <time>2021-07-03T09:10:39Z</time>
      </trkpt>
      <trkpt lat="47.6488" lon="6.21431">
        <ele>329.1</ele>
        <time>2021-07-03T09:10:42Z</time>
      </trkpt>
      <trkpt lat="47.64877" lon="6.21424">
        <ele>329.1</ele>
        <time>2021-07-03T09:10:43Z</time>
      </trkpt>
      <trkpt lat="47.64874" lon="6.21417">
        <ele>329</ele>
        <time>2021-07-03T09:10:44Z</time>
      </trkpt>
      <trkpt lat="47.64872" lon="6.21408">
        <ele>328.8</ele>
        <time>2021-07-03T09:10:45Z</time>
      </trkpt>
      <trkpt lat="47.64867" lon="6.21394">
        <ele>328.5</ele>
        <time>2021-07-03T09:10:47Z</time>
      </trkpt>
      <trkpt lat="47.64864" lon="6.21384">
        <ele>328.4</ele>
        <time>2021-07-03T09:10:48Z</time>
      </trkpt>
      <trkpt lat="47.64861" lon="6.21376">
        <ele>328.2</ele>
        <time>2021-07-03T09:10:50Z</time>
      </trkpt>
      <trkpt lat="47.6486" lon="6.21369">
        <ele>328.1</ele>
        <time>2021-07-03T09:10:51Z</time>
      </trkpt>
      <trkpt lat="47.64857" lon="6.21361">
        <ele>327.9</ele>
        <time>2021-07-03T09:10:52Z</time>
      </trkpt>
      <trkpt lat="47.64855" lon="6.21351">
        <ele>327.7</ele>
        <time>2021-07-03T09:10:54Z</time>
      </trkpt>
      <trkpt lat="47.64855" lon="6.21342">
        <ele>327.6</ele>
        <time>2021-07-03T09:10:55Z</time>
      </trkpt>
      <trkpt lat="47.64853" lon="6.21332">
        <ele>327.4</ele>
        <time>2021-07-03T09:10:57Z</time>
      </trkpt>
      <trkpt lat="47.64851" lon="6.21314">
        <ele>326.7</ele>
        <time>2021-07-03T09:11:00Z</time>
      </trkpt>
      <trkpt lat="47.64849" lon="6.21305">
        <ele>326.3</ele>
        <time>2021-07-03T09:11:02Z</time>
      </trkpt>
      <trkpt lat="47.64848" lon="6.21297">
        <ele>326</ele>
        <time>2021-07-03T09:11:04Z</time>
      </trkpt>
      <trkpt lat="47.64846" lon="6.21286">
        <ele>325.6</ele>
        <time>2021-07-03T09:11:07Z</time>
      </trkpt>
      <trkpt lat="47.64846" lon="6.21278">
        <ele>325.3</ele>
        <time>2021-07-03T09:11:09Z</time>
      </trkpt>
      <trkpt lat="47.64844" lon="6.21271">
        <ele>325</ele>
        <time>2021-07-03T09:11:12Z</time>
      </trkpt>
      <trkpt lat="47.64843" lon="6.21263">
        <ele>324.7</ele>
        <time>2021-07-03T09:11:13Z</time>
      </trkpt>
      <trkpt lat="47.64842" lon="6.21256">
        <ele>324.4</ele>
        <time>2021-07-03T09:11:16Z</time>
      </trkpt>
      <trkpt lat="47.64841" lon="6.2125">
        <ele>324.2</ele>
        <time>2021-07-03T09:11:18Z</time>
      </trkpt>
      <trkpt lat="47.64839" lon="6.21242">
        <ele>324.1</ele>
        <time>2021-07-03T09:11:20Z</time>
      </trkpt>
      <trkpt lat="47.64836" lon="6.21234">
        <ele>324.1</ele>
        <time>2021-07-03T09:11:22Z</time>
      </trkpt>
      <trkpt lat="47.64834" lon="6.21225">
        <ele>324</ele>
        <time>2021-07-03T09:11:24Z</time>
      </trkpt>
      <trkpt lat="47.64831" lon="6.21219">
        <ele>324.2</ele>
        <time>2021-07-03T09:11:26Z</time>
      </trkpt>
      <trkpt lat="47.64827" lon="6.21212">
        <ele>324.4</ele>
        <time>2021-07-03T09:11:30Z</time>
      </trkpt>
      <trkpt lat="47.64824" lon="6.21203">
        <ele>324.6</ele>
        <time>2021-07-03T09:11:33Z</time>
      </trkpt>
      <trkpt lat="47.64822" lon="6.21197">
        <ele>324.8</ele>
        <time>2021-07-03T09:11:35Z</time>
      </trkpt>
      <trkpt lat="47.64818" lon="6.21189">
        <ele>324.9</ele>
        <time>2021-07-03T09:11:37Z</time>
      </trkpt>
      <trkpt lat="47.64814" lon="6.21182">
        <ele>325.2</ele>
        <time>2021-07-03T09:11:39Z</time>
      </trkpt>
      <trkpt lat="47.64811" lon="6.21173">
        <ele>325.3</ele>
        <time>2021-07-03T09:11:40Z</time>
      </trkpt>
      <trkpt lat="47.64809" lon="6.21166">
        <ele>325.4</ele>
        <time>2021-07-03T09:11:42Z</time>
      </trkpt>
      <trkpt lat="47.64807" lon="6.21159">
        <ele>325.4</ele>
        <time>2021-07-03T09:11:44Z</time>
      </trkpt>
      <trkpt lat="47.64805" lon="6.21152">
        <ele>325.3</ele>
        <time>2021-07-03T09:11:47Z</time>
      </trkpt>
      <trkpt lat="47.64803" lon="6.21142">
        <ele>325.1</ele>
        <time>2021-07-03T09:11:50Z</time>
      </trkpt>
      <trkpt lat="47.64801" lon="6.21134">
        <ele>325</ele>
        <time>2021-07-03T09:11:52Z</time>
      </trkpt>
      <trkpt lat="47.64797" lon="6.21125">
        <ele>325</ele>
        <time>2021-07-03T09:11:54Z</time>
      </trkpt>
      <trkpt lat="47.64794" lon="6.21119">
        <ele>324.9</ele>
        <time>2021-07-03T09:11:56Z</time>
      </trkpt>
      <trkpt lat="47.64789" lon="6.21109">
        <ele>324.9</ele>
        <time>2021-07-03T09:11:59Z</time>
      </trkpt>
      <trkpt lat="47.64786" lon="6.21101">
        <ele>324.8</ele>
        <time>2021-07-03T09:12:00Z</time>
      </trkpt>
      <trkpt lat="47.64783" lon="6.21094">
        <ele>324.7</ele>
        <time>2021-07-03T09:12:01Z</time>
      </trkpt>
      <trkpt lat="47.6478" lon="6.21085">
        <ele>324.6</ele>
        <time>2021-07-03T09:12:02Z</time>
      </trkpt>
      <trkpt lat="47.64777" lon="6.21078">
        <ele>324.6</ele>
        <time>2021-07-03T09:12:04Z</time>
      </trkpt>
      <trkpt lat="47.64771" lon="6.21059">
        <ele>324.4</ele>
        <time>2021-07-03T09:12:07Z</time>
      </trkpt>
      <trkpt lat="47.64768" lon="6.21049">
        <ele>324.3</ele>
        <time>2021-07-03T09:12:09Z</time>
      </trkpt>
      <trkpt lat="47.64766" lon="6.21041">
        <ele>324.2</ele>
        <time>2021-07-03T09:12:11Z</time>
      </trkpt>
      <trkpt lat="47.64762" lon="6.21033">
        <ele>324.2</ele>
        <time>2021-07-03T09:12:13Z</time>
      </trkpt>
      <trkpt lat="47.64757" lon="6.21033">
        <ele>324.4</ele>
        <time>2021-07-03T09:12:15Z</time>
      </trkpt>
      <trkpt lat="47.64753" lon="6.21038">
        <ele>324.7</ele>
        <time>2021-07-03T09:12:17Z</time>
      </trkpt>
      <trkpt lat="47.64753" lon="6.21045">
        <ele>324.9</ele>
        <time>2021-07-03T09:13:14Z</time>
      </trkpt>
      <trkpt lat="47.6475" lon="6.21052">
        <ele>325.3</ele>
        <time>2021-07-03T09:13:17Z</time>
      </trkpt>
      <trkpt lat="47.64746" lon="6.21059">
        <ele>325.7</ele>
        <time>2021-07-03T09:13:20Z</time>
      </trkpt>
      <trkpt lat="47.64743" lon="6.21065">
        <ele>326</ele>
        <time>2021-07-03T09:13:22Z</time>
      </trkpt>
      <trkpt lat="47.6474" lon="6.21071">
        <ele>326.3</ele>
        <time>2021-07-03T09:13:24Z</time>
      </trkpt>
      <trkpt lat="47.64736" lon="6.21078">
        <ele>326.6</ele>
        <time>2021-07-03T09:13:28Z</time>
      </trkpt>
      <trkpt lat="47.64733" lon="6.21084">
        <ele>326.8</ele>
        <time>2021-07-03T09:13:31Z</time>
      </trkpt>
      <trkpt lat="47.6473" lon="6.21091">
        <ele>327.2</ele>
        <time>2021-07-03T09:13:34Z</time>
      </trkpt>
      <trkpt lat="47.64727" lon="6.21097">
        <ele>327.6</ele>
        <time>2021-07-03T09:13:36Z</time>
      </trkpt>
      <trkpt lat="47.64724" lon="6.21104">
        <ele>328</ele>
        <time>2021-07-03T09:13:40Z</time>
      </trkpt>
      <trkpt lat="47.6472" lon="6.2111">
        <ele>328.4</ele>
        <time>2021-07-03T09:13:44Z</time>
      </trkpt>
      <trkpt lat="47.64717" lon="6.21115">
        <ele>328.7</ele>
        <time>2021-07-03T09:13:47Z</time>
      </trkpt>
      <trkpt lat="47.64714" lon="6.21121">
        <ele>329.1</ele>
        <time>2021-07-03T09:13:49Z</time>
      </trkpt>
      <trkpt lat="47.64711" lon="6.21128">
        <ele>329.5</ele>
        <time>2021-07-03T09:13:53Z</time>
      </trkpt>
      <trkpt lat="47.64708" lon="6.21136">
        <ele>329.9</ele>
        <time>2021-07-03T09:13:57Z</time>
      </trkpt>
      <trkpt lat="47.64705" lon="6.21143">
        <ele>330.3</ele>
        <time>2021-07-03T09:14:01Z</time>
      </trkpt>
      <trkpt lat="47.64701" lon="6.2115">
        <ele>330.7</ele>
        <time>2021-07-03T09:14:05Z</time>
      </trkpt>
      <trkpt lat="47.64699" lon="6.21156">
        <ele>331.1</ele>
        <time>2021-07-03T09:14:08Z</time>
      </trkpt>
      <trkpt lat="47.64698" lon="6.21165">
        <ele>331.5</ele>
        <time>2021-07-03T09:14:13Z</time>
      </trkpt>
      <trkpt lat="47.64697" lon="6.21172">
        <ele>331.6</ele>
        <time>2021-07-03T09:14:18Z</time>
      </trkpt>
      <trkpt lat="47.64695" lon="6.21178">
        <ele>331.8</ele>
        <time>2021-07-03T09:14:21Z</time>
      </trkpt>
      <trkpt lat="47.64692" lon="6.21183">
        <ele>332.1</ele>
        <time>2021-07-03T09:14:25Z</time>
      </trkpt>
      <trkpt lat="47.64688" lon="6.21189">
        <ele>332.4</ele>
        <time>2021-07-03T09:14:28Z</time>
      </trkpt>
      <trkpt lat="47.64684" lon="6.21193">
        <ele>332.7</ele>
        <time>2021-07-03T09:14:30Z</time>
      </trkpt>
      <trkpt lat="47.64679" lon="6.21198">
        <ele>333.1</ele>
        <time>2021-07-03T09:14:31Z</time>
      </trkpt>
      <trkpt lat="47.64674" lon="6.21202">
        <ele>333.5</ele>
        <time>2021-07-03T09:14:34Z</time>
      </trkpt>
      <trkpt lat="47.6467" lon="6.21207">
        <ele>333.8</ele>
        <time>2021-07-03T09:14:37Z</time>
      </trkpt>
      <trkpt lat="47.64667" lon="6.21212">
        <ele>334.1</ele>
        <time>2021-07-03T09:14:40Z</time>
      </trkpt>
      <trkpt lat="47.64663" lon="6.21217">
        <ele>334.3</ele>
        <time>2021-07-03T09:14:45Z</time>
      </trkpt>
      <trkpt lat="47.6466" lon="6.21222">
        <ele>334.5</ele>
        <time>2021-07-03T09:14:49Z</time>
      </trkpt>
      <trkpt lat="47.64657" lon="6.21229">
        <ele>334.7</ele>
        <time>2021-07-03T09:14:51Z</time>
      </trkpt>
      <trkpt lat="47.64654" lon="6.21235">
        <ele>334.9</ele>
        <time>2021-07-03T09:14:53Z</time>
      </trkpt>
      <trkpt lat="47.6465" lon="6.2124">
        <ele>335.1</ele>
        <time>2021-07-03T09:14:56Z</time>
      </trkpt>
      <trkpt lat="47.64647" lon="6.21246">
        <ele>335.4</ele>
        <time>2021-07-03T09:14:59Z</time>
      </trkpt>
      <trkpt lat="47.64643" lon="6.21251">
        <ele>335.6</ele>
        <time>2021-07-03T09:15:04Z</time>
      </trkpt>
      <trkpt lat="47.6464" lon="6.21258">
        <ele>335.8</ele>
        <time>2021-07-03T09:15:06Z</time>
      </trkpt>
      <trkpt lat="47.64637" lon="6.21264">
        <ele>335.9</ele>
        <time>2021-07-03T09:15:10Z</time>
      </trkpt>
      <trkpt lat="47.64635" lon="6.21271">
        <ele>336.1</ele>
        <time>2021-07-03T09:15:12Z</time>
      </trkpt>
      <trkpt lat="47.64633" lon="6.21278">
        <ele>336.3</ele>
        <time>2021-07-03T09:15:17Z</time>
      </trkpt>
      <trkpt lat="47.64631" lon="6.21285">
        <ele>336.5</ele>
        <time>2021-07-03T09:15:22Z</time>
      </trkpt>
      <trkpt lat="47.64628" lon="6.21294">
        <ele>336.7</ele>
        <time>2021-07-03T09:15:27Z</time>
      </trkpt>
      <trkpt lat="47.64626" lon="6.21301">
        <ele>336.9</ele>
        <time>2021-07-03T09:15:31Z</time>
      </trkpt>
      <trkpt lat="47.64624" lon="6.21308">
        <ele>337.1</ele>
        <time>2021-07-03T09:15:34Z</time>
      </trkpt>
      <trkpt lat="47.64621" lon="6.21317">
        <ele>337.3</ele>
        <time>2021-07-03T09:15:36Z</time>
      </trkpt>
      <trkpt lat="47.64618" lon="6.21324">
        <ele>337.6</ele>
        <time>2021-07-03T09:15:40Z</time>
      </trkpt>
      <trkpt lat="47.64616" lon="6.21332">
        <ele>337.8</ele>
        <time>2021-07-03T09:15:44Z</time>
      </trkpt>
      <trkpt lat="47.64614" lon="6.21338">
        <ele>337.9</ele>
        <time>2021-07-03T09:15:46Z</time>
      </trkpt>
      <trkpt lat="47.64611" lon="6.21344">
        <ele>338</ele>
        <time>2021-07-03T09:15:48Z</time>
      </trkpt>
      <trkpt lat="47.64609" lon="6.2135">
        <ele>338</ele>
        <time>2021-07-03T09:15:52Z</time>
      </trkpt>
      <trkpt lat="47.64605" lon="6.21356">
        <ele>338.1</ele>
        <time>2021-07-03T09:15:54Z</time>
      </trkpt>
      <trkpt lat="47.64601" lon="6.21363">
        <ele>338.3</ele>
        <time>2021-07-03T09:15:58Z</time>
      </trkpt>
      <trkpt lat="47.64597" lon="6.21368">
        <ele>338.4</ele>
        <time>2021-07-03T09:16:01Z</time>
      </trkpt>
      <trkpt lat="47.64593" lon="6.21372">
        <ele>338.6</ele>
        <time>2021-07-03T09:16:04Z</time>
      </trkpt>
      <trkpt lat="47.64589" lon="6.21377">
        <ele>338.8</ele>
        <time>2021-07-03T09:16:05Z</time>
      </trkpt>
      <trkpt lat="47.64585" lon="6.21381">
        <ele>338.9</ele>
        <time>2021-07-03T09:16:11Z</time>
      </trkpt>
      <trkpt lat="47.6458" lon="6.21385">
        <ele>339.4</ele>
        <time>2021-07-03T09:16:14Z</time>
      </trkpt>
      <trkpt lat="47.64576" lon="6.21388">
        <ele>340.1</ele>
        <time>2021-07-03T09:16:17Z</time>
      </trkpt>
      <trkpt lat="47.64571" lon="6.21391">
        <ele>340.9</ele>
        <time>2021-07-03T09:16:20Z</time>
      </trkpt>
      <trkpt lat="47.64567" lon="6.21394">
        <ele>341.7</ele>
        <time>2021-07-03T09:16:24Z</time>
      </trkpt>
      <trkpt lat="47.64562" lon="6.21398">
        <ele>342.3</ele>
        <time>2021-07-03T09:16:28Z</time>
      </trkpt>
      <trkpt lat="47.64559" lon="6.21404">
        <ele>343</ele>
        <time>2021-07-03T09:16:31Z</time>
      </trkpt>
      <trkpt lat="47.64553" lon="6.21408">
        <ele>344</ele>
        <time>2021-07-03T09:16:38Z</time>
      </trkpt>
      <trkpt lat="47.64549" lon="6.21412">
        <ele>344.7</ele>
        <time>2021-07-03T09:16:43Z</time>
      </trkpt>
      <trkpt lat="47.64543" lon="6.21415">
        <ele>345.8</ele>
        <time>2021-07-03T09:16:59Z</time>
      </trkpt>
      <trkpt lat="47.64537" lon="6.21418">
        <ele>346.8</ele>
        <time>2021-07-03T09:17:04Z</time>
      </trkpt>
      <trkpt lat="47.64532" lon="6.2142">
        <ele>347.7</ele>
        <time>2021-07-03T09:17:07Z</time>
      </trkpt>
      <trkpt lat="47.64527" lon="6.21421">
        <ele>348.6</ele>
        <time>2021-07-03T09:17:09Z</time>
      </trkpt>
      <trkpt lat="47.64521" lon="6.21422">
        <ele>349.6</ele>
        <time>2021-07-03T09:17:12Z</time>
      </trkpt>
      <trkpt lat="47.64517" lon="6.21425">
        <ele>350.4</ele>
        <time>2021-07-03T09:17:15Z</time>
      </trkpt>
      <trkpt lat="47.64512" lon="6.2143">
        <ele>351.4</ele>
        <time>2021-07-03T09:17:20Z</time>
      </trkpt>
      <trkpt lat="47.64508" lon="6.21435">
        <ele>352.3</ele>
        <time>2021-07-03T09:17:24Z</time>
      </trkpt>
      <trkpt lat="47.64502" lon="6.21439">
        <ele>353.5</ele>
        <time>2021-07-03T09:17:28Z</time>
      </trkpt>
      <trkpt lat="47.64497" lon="6.21441">
        <ele>354.1</ele>
        <time>2021-07-03T09:17:33Z</time>
      </trkpt>
      <trkpt lat="47.64492" lon="6.21442">
        <ele>354.6</ele>
        <time>2021-07-03T09:17:44Z</time>
      </trkpt>
      <trkpt lat="47.64486" lon="6.21443">
        <ele>355.2</ele>
        <time>2021-07-03T09:17:49Z</time>
      </trkpt>
      <trkpt lat="47.64481" lon="6.21445">
        <ele>355.7</ele>
        <time>2021-07-03T09:17:51Z</time>
      </trkpt>
      <trkpt lat="47.64477" lon="6.21449">
        <ele>356.1</ele>
        <time>2021-07-03T09:17:55Z</time>
      </trkpt>
      <trkpt lat="47.64475" lon="6.21455">
        <ele>356.5</ele>
        <time>2021-07-03T09:18:01Z</time>
      </trkpt>
      <trkpt lat="47.64472" lon="6.21462">
        <ele>357</ele>
        <time>2021-07-03T09:18:05Z</time>
      </trkpt>
      <trkpt lat="47.64469" lon="6.21467">
        <ele>357.4</ele>
        <time>2021-07-03T09:18:06Z</time>
      </trkpt>
      <trkpt lat="47.64466" lon="6.21474">
        <ele>357.8</ele>
        <time>2021-07-03T09:18:08Z</time>
      </trkpt>
      <trkpt lat="47.64464" lon="6.2148">
        <ele>358.1</ele>
        <time>2021-07-03T09:18:14Z</time>
      </trkpt>
      <trkpt lat="47.6446" lon="6.21485">
        <ele>358.5</ele>
        <time>2021-07-03T09:18:20Z</time>
      </trkpt>
      <trkpt lat="47.64455" lon="6.21492">
        <ele>359.1</ele>
        <time>2021-07-03T09:18:24Z</time>
      </trkpt>
      <trkpt lat="47.64451" lon="6.21497">
        <ele>359.5</ele>
        <time>2021-07-03T09:18:25Z</time>
      </trkpt>
      <trkpt lat="47.64448" lon="6.21502">
        <ele>359.7</ele>
        <time>2021-07-03T09:18:30Z</time>
      </trkpt>
      <trkpt lat="47.64445" lon="6.21507">
        <ele>360</ele>
        <time>2021-07-03T09:18:31Z</time>
      </trkpt>
      <trkpt lat="47.6444" lon="6.21511">
        <ele>360.3</ele>
        <time>2021-07-03T09:18:37Z</time>
      </trkpt>
      <trkpt lat="47.64437" lon="6.21516">
        <ele>360.5</ele>
        <time>2021-07-03T09:18:41Z</time>
      </trkpt>
      <trkpt lat="47.64433" lon="6.2152">
        <ele>360.8</ele>
        <time>2021-07-03T09:18:46Z</time>
      </trkpt>
      <trkpt lat="47.64429" lon="6.21525">
        <ele>361</ele>
        <time>2021-07-03T09:18:52Z</time>
      </trkpt>
      <trkpt lat="47.64424" lon="6.2153">
        <ele>361.4</ele>
        <time>2021-07-03T09:18:58Z</time>
      </trkpt>
      <trkpt lat="47.6442" lon="6.21536">
        <ele>361.7</ele>
        <time>2021-07-03T09:19:00Z</time>
      </trkpt>
      <trkpt lat="47.64417" lon="6.21541">
        <ele>362</ele>
        <time>2021-07-03T09:19:04Z</time>
      </trkpt>
      <trkpt lat="47.64413" lon="6.21544">
        <ele>362.3</ele>
        <time>2021-07-03T09:19:08Z</time>
      </trkpt>
      <trkpt lat="47.64408" lon="6.21545">
        <ele>362.7</ele>
        <time>2021-07-03T09:19:12Z</time>
      </trkpt>
      <trkpt lat="47.64403" lon="6.21547">
        <ele>363.2</ele>
        <time>2021-07-03T09:19:15Z</time>
      </trkpt>
      <trkpt lat="47.64397" lon="6.2155">
        <ele>363.7</ele>
        <time>2021-07-03T09:19:15Z</time>
      </trkpt>
      <trkpt lat="47.6439" lon="6.2155">
        <ele>364.4</ele>
        <time>2021-07-03T09:19:20Z</time>
      </trkpt>
      <trkpt lat="47.64385" lon="6.21551">
        <ele>364.9</ele>
        <time>2021-07-03T09:19:23Z</time>
      </trkpt>
      <trkpt lat="47.6438" lon="6.21551">
        <ele>365.3</ele>
        <time>2021-07-03T09:19:26Z</time>
      </trkpt>
      <trkpt lat="47.64375" lon="6.21552">
        <ele>365.7</ele>
        <time>2021-07-03T09:19:27Z</time>
      </trkpt>
      <trkpt lat="47.6437" lon="6.21552">
        <ele>366.2</ele>
        <time>2021-07-03T09:19:32Z</time>
      </trkpt>
      <trkpt lat="47.64365" lon="6.2155">
        <ele>366.6</ele>
        <time>2021-07-03T09:19:39Z</time>
      </trkpt>
      <trkpt lat="47.64361" lon="6.21548">
        <ele>366.9</ele>
        <time>2021-07-03T09:19:44Z</time>
      </trkpt>
      <trkpt lat="47.64356" lon="6.21548">
        <ele>367.3</ele>
        <time>2021-07-03T09:19:48Z</time>
      </trkpt>
      <trkpt lat="47.64351" lon="6.21548">
        <ele>367.8</ele>
        <time>2021-07-03T09:19:51Z</time>
      </trkpt>
      <trkpt lat="47.64346" lon="6.21547">
        <ele>368.2</ele>
        <time>2021-07-03T09:19:54Z</time>
      </trkpt>
      <trkpt lat="47.64341" lon="6.21547">
        <ele>368.6</ele>
        <time>2021-07-03T09:19:57Z</time>
      </trkpt>
      <trkpt lat="47.64335" lon="6.21548">
        <ele>369.2</ele>
        <time>2021-07-03T09:20:01Z</time>
      </trkpt>
      <trkpt lat="47.6433" lon="6.21549">
        <ele>369.3</ele>
        <time>2021-07-03T09:20:05Z</time>
      </trkpt>
      <trkpt lat="47.64325" lon="6.2155">
        <ele>369.3</ele>
        <time>2021-07-03T09:20:08Z</time>
      </trkpt>
      <trkpt lat="47.6432" lon="6.21551">
        <ele>369.2</ele>
        <time>2021-07-03T09:20:12Z</time>
      </trkpt>
      <trkpt lat="47.64315" lon="6.21551">
        <ele>369.1</ele>
        <time>2021-07-03T09:20:15Z</time>
      </trkpt>
      <trkpt lat="47.6431" lon="6.21551">
        <ele>369</ele>
        <time>2021-07-03T09:20:21Z</time>
      </trkpt>
      <trkpt lat="47.64305" lon="6.2155">
        <ele>368.9</ele>
        <time>2021-07-03T09:20:26Z</time>
      </trkpt>
      <trkpt lat="47.643" lon="6.21551">
        <ele>368.9</ele>
        <time>2021-07-03T09:20:29Z</time>
      </trkpt>
      <trkpt lat="47.64296" lon="6.21552">
        <ele>368.8</ele>
        <time>2021-07-03T09:20:32Z</time>
      </trkpt>
      <trkpt lat="47.6429" lon="6.21552">
        <ele>368.7</ele>
        <time>2021-07-03T09:20:37Z</time>
      </trkpt>
      <trkpt lat="47.64286" lon="6.21554">
        <ele>368.7</ele>
        <time>2021-07-03T09:20:38Z</time>
      </trkpt>
      <trkpt lat="47.6428" lon="6.21555">
        <ele>368.6</ele>
        <time>2021-07-03T09:20:43Z</time>
      </trkpt>
      <trkpt lat="47.64275" lon="6.21557">
        <ele>368.5</ele>
        <time>2021-07-03T09:20:46Z</time>
      </trkpt>
      <trkpt lat="47.64269" lon="6.21557">
        <ele>368.4</ele>
        <time>2021-07-03T09:20:49Z</time>
      </trkpt>
      <trkpt lat="47.64263" lon="6.21558">
        <ele>368.3</ele>
        <time>2021-07-03T09:20:53Z</time>
      </trkpt>
      <trkpt lat="47.64258" lon="6.21559">
        <ele>368.2</ele>
        <time>2021-07-03T09:20:56Z</time>
      </trkpt>
      <trkpt lat="47.64253" lon="6.21559">
        <ele>368.1</ele>
        <time>2021-07-03T09:20:57Z</time>
      </trkpt>
      <trkpt lat="47.64248" lon="6.21559">
        <ele>368</ele>
        <time>2021-07-03T09:21:01Z</time>
      </trkpt>
      <trkpt lat="47.64242" lon="6.21559">
        <ele>367.9</ele>
        <time>2021-07-03T09:21:06Z</time>
      </trkpt>
      <trkpt lat="47.64237" lon="6.21558">
        <ele>367.8</ele>
        <time>2021-07-03T09:21:10Z</time>
      </trkpt>
      <trkpt lat="47.64232" lon="6.21558">
        <ele>367.8</ele>
        <time>2021-07-03T09:21:12Z</time>
      </trkpt>
      <trkpt lat="47.64227" lon="6.21555">
        <ele>367.7</ele>
        <time>2021-07-03T09:21:16Z</time>
      </trkpt>
      <trkpt lat="47.64223" lon="6.21553">
        <ele>367.7</ele>
        <time>2021-07-03T09:21:20Z</time>
      </trkpt>
      <trkpt lat="47.64219" lon="6.21548">
        <ele>367.7</ele>
        <time>2021-07-03T09:21:26Z</time>
      </trkpt>
      <trkpt lat="47.64218" lon="6.21542">
        <ele>367.8</ele>
        <time>2021-07-03T09:21:29Z</time>
      </trkpt>
      <trkpt lat="47.64217" lon="6.21535">
        <ele>367.9</ele>
        <time>2021-07-03T09:21:32Z</time>
      </trkpt>
      <trkpt lat="47.64216" lon="6.21528">
        <ele>368</ele>
        <time>2021-07-03T09:21:34Z</time>
      </trkpt>
      <trkpt lat="47.64214" lon="6.21522">
        <ele>368.1</ele>
        <time>2021-07-03T09:21:38Z</time>
      </trkpt>
      <trkpt lat="47.64213" lon="6.21515">
        <ele>368.2</ele>
        <time>2021-07-03T09:21:39Z</time>
      </trkpt>
      <trkpt lat="47.64212" lon="6.21507">
        <ele>368.3</ele>
        <time>2021-07-03T09:21:44Z</time>
      </trkpt>
      <trkpt lat="47.64212" lon="6.215">
        <ele>368.4</ele>
        <time>2021-07-03T09:21:47Z</time>
      </trkpt>
      <trkpt lat="47.64212" lon="6.21492">
        <ele>368.3</ele>
        <time>2021-07-03T09:21:49Z</time>
      </trkpt>
      <trkpt lat="47.64212" lon="6.21485">
        <ele>368.2</ele>
        <time>2021-07-03T09:21:55Z</time>
      </trkpt>
      <trkpt lat="47.64211" lon="6.21478">
        <ele>368.1</ele>
        <time>2021-07-03T09:21:58Z</time>
      </trkpt>
      <trkpt lat="47.64211" lon="6.21468">
        <ele>367.9</ele>
        <time>2021-07-03T09:22:03Z</time>
      </trkpt>
      <trkpt lat="47.64211" lon="6.21458">
        <ele>367.7</ele>
        <time>2021-07-03T09:22:05Z</time>
      </trkpt>
      <trkpt lat="47.64212" lon="6.2145">
        <ele>367.6</ele>
        <time>2021-07-03T09:22:10Z</time>
      </trkpt>
      <trkpt lat="47.64212" lon="6.21443">
        <ele>367.5</ele>
        <time>2021-07-03T09:22:13Z</time>
      </trkpt>
      <trkpt lat="47.64213" lon="6.21436">
        <ele>367.3</ele>
        <time>2021-07-03T09:22:16Z</time>
      </trkpt>
      <trkpt lat="47.64212" lon="6.21427">
        <ele>367.2</ele>
        <time>2021-07-03T09:22:20Z</time>
      </trkpt>
      <trkpt lat="47.64212" lon="6.21416">
        <ele>367</ele>
        <time>2021-07-03T09:22:23Z</time>
      </trkpt>
      <trkpt lat="47.64211" lon="6.21408">
        <ele>366.7</ele>
        <time>2021-07-03T09:22:26Z</time>
      </trkpt>
      <trkpt lat="47.64209" lon="6.21399">
        <ele>366.3</ele>
        <time>2021-07-03T09:22:29Z</time>
      </trkpt>
      <trkpt lat="47.64207" lon="6.21393">
        <ele>366</ele>
        <time>2021-07-03T09:22:32Z</time>
      </trkpt>
      <trkpt lat="47.64203" lon="6.21395">
        <ele>366.1</ele>
        <time>2021-07-03T09:22:36Z</time>
      </trkpt>
      <trkpt lat="47.64198" lon="6.21394">
        <ele>366</ele>
        <time>2021-07-03T09:22:37Z</time>
      </trkpt>
      <trkpt lat="47.64192" lon="6.21393">
        <ele>366</ele>
        <time>2021-07-03T09:22:44Z</time>
      </trkpt>
      <trkpt lat="47.64188" lon="6.21392">
        <ele>365.9</ele>
        <time>2021-07-03T09:22:45Z</time>
      </trkpt>
      <trkpt lat="47.64182" lon="6.2139">
        <ele>365.8</ele>
        <time>2021-07-03T09:22:49Z</time>
      </trkpt>
      <trkpt lat="47.64177" lon="6.21387">
        <ele>365.6</ele>
        <time>2021-07-03T09:22:53Z</time>
      </trkpt>
      <trkpt lat="47.64172" lon="6.21384">
        <ele>365.5</ele>
        <time>2021-07-03T09:23:01Z</time>
      </trkpt>
      <trkpt lat="47.64168" lon="6.21383">
        <ele>365.4</ele>
        <time>2021-07-03T09:23:05Z</time>
      </trkpt>
      <trkpt lat="47.64162" lon="6.21387">
        <ele>365.7</ele>
        <time>2021-07-03T09:23:09Z</time>
      </trkpt>
      <trkpt lat="47.64158" lon="6.2139">
        <ele>366.1</ele>
        <time>2021-07-03T09:23:11Z</time>
      </trkpt>
      <trkpt lat="47.64151" lon="6.21393">
        <ele>366.5</ele>
        <time>2021-07-03T09:23:15Z</time>
      </trkpt>
      <trkpt lat="47.64147" lon="6.21397">
        <ele>366.8</ele>
        <time>2021-07-03T09:23:16Z</time>
      </trkpt>
      <trkpt lat="47.64143" lon="6.214">
        <ele>367</ele>
        <time>2021-07-03T09:23:20Z</time>
      </trkpt>
      <trkpt lat="47.64139" lon="6.21404">
        <ele>367.3</ele>
        <time>2021-07-03T09:23:23Z</time>
      </trkpt>
      <trkpt lat="47.64134" lon="6.21409">
        <ele>367.6</ele>
        <time>2021-07-03T09:23:23Z</time>
      </trkpt>
      <trkpt lat="47.64129" lon="6.21413">
        <ele>367.8</ele>
        <time>2021-07-03T09:23:26Z</time>
      </trkpt>
      <trkpt lat="47.64124" lon="6.21418">
        <ele>368</ele>
        <time>2021-07-03T09:23:29Z</time>
      </trkpt>
      <trkpt lat="47.64119" lon="6.21421">
        <ele>368.2</ele>
        <time>2021-07-03T09:23:34Z</time>
      </trkpt>
      <trkpt lat="47.64114" lon="6.21424">
        <ele>368.3</ele>
        <time>2021-07-03T09:23:38Z</time>
      </trkpt>
      <trkpt lat="47.64109" lon="6.21426">
        <ele>368.4</ele>
        <time>2021-07-03T09:23:41Z</time>
      </trkpt>
      <trkpt lat="47.64104" lon="6.21429">
        <ele>368.5</ele>
        <time>2021-07-03T09:23:45Z</time>
      </trkpt>
      <trkpt lat="47.64098" lon="6.21431">
        <ele>368.6</ele>
        <time>2021-07-03T09:23:50Z</time>
      </trkpt>
      <trkpt lat="47.64093" lon="6.21432">
        <ele>368.6</ele>
        <time>2021-07-03T09:23:51Z</time>
      </trkpt>
      <trkpt lat="47.64089" lon="6.21434">
        <ele>368.7</ele>
        <time>2021-07-03T09:23:56Z</time>
      </trkpt>
      <trkpt lat="47.64084" lon="6.21437">
        <ele>368.7</ele>
        <time>2021-07-03T09:23:58Z</time>
      </trkpt>
      <trkpt lat="47.6408" lon="6.2144">
        <ele>368.8</ele>
        <time>2021-07-03T09:24:05Z</time>
      </trkpt>
      <trkpt lat="47.64075" lon="6.21442">
        <ele>368.9</ele>
        <time>2021-07-03T09:24:09Z</time>
      </trkpt>
      <trkpt lat="47.6407" lon="6.21444">
        <ele>369</ele>
        <time>2021-07-03T09:24:12Z</time>
      </trkpt>
      <trkpt lat="47.64064" lon="6.21446">
        <ele>369.2</ele>
        <time>2021-07-03T09:24:16Z</time>
      </trkpt>
      <trkpt lat="47.64059" lon="6.21447">
        <ele>369.3</ele>
        <time>2021-07-03T09:24:20Z</time>
      </trkpt>
      <trkpt lat="47.64055" lon="6.2145">
        <ele>369.3</ele>
        <time>2021-07-03T09:24:24Z</time>
      </trkpt>
      <trkpt lat="47.64051" lon="6.21454">
        <ele>369.2</ele>
        <time>2021-07-03T09:24:28Z</time>
      </trkpt>
      <trkpt lat="47.64045" lon="6.21458">
        <ele>369.2</ele>
        <time>2021-07-03T09:24:33Z</time>
      </trkpt>
      <trkpt lat="47.64041" lon="6.21461">
        <ele>369.2</ele>
        <time>2021-07-03T09:24:34Z</time>
      </trkpt>
      <trkpt lat="47.64036" lon="6.21461">
        <ele>369.3</ele>
        <time>2021-07-03T09:24:40Z</time>
      </trkpt>
      <trkpt lat="47.6403" lon="6.21461">
        <ele>369.3</ele>
        <time>2021-07-03T09:24:42Z</time>
      </trkpt>
      <trkpt lat="47.64025" lon="6.21461">
        <ele>369.4</ele>
        <time>2021-07-03T09:24:46Z</time>
      </trkpt>
      <trkpt lat="47.6402" lon="6.21463">
        <ele>369.4</ele>
        <time>2021-07-03T09:24:50Z</time>
      </trkpt>
      <trkpt lat="47.64015" lon="6.21467">
        <ele>369.2</ele>
        <time>2021-07-03T09:24:56Z</time>
      </trkpt>
      <trkpt lat="47.6401" lon="6.2147">
        <ele>369.1</ele>
        <time>2021-07-03T09:25:01Z</time>
      </trkpt>
      <trkpt lat="47.64006" lon="6.21473">
        <ele>368.9</ele>
        <time>2021-07-03T09:25:05Z</time>
      </trkpt>
      <trkpt lat="47.64001" lon="6.21477">
        <ele>368.7</ele>
        <time>2021-07-03T09:25:09Z</time>
      </trkpt>
      <trkpt lat="47.63996" lon="6.2148">
        <ele>368.6</ele>
        <time>2021-07-03T09:25:13Z</time>
      </trkpt>
      <trkpt lat="47.63992" lon="6.21483">
        <ele>368.5</ele>
        <time>2021-07-03T09:25:16Z</time>
      </trkpt>
      <trkpt lat="47.63987" lon="6.21487">
        <ele>368.4</ele>
        <time>2021-07-03T09:25:19Z</time>
      </trkpt>
      <trkpt lat="47.63983" lon="6.21492">
        <ele>368.2</ele>
        <time>2021-07-03T09:25:20Z</time>
      </trkpt>
      <trkpt lat="47.63978" lon="6.21495">
        <ele>368.1</ele>
        <time>2021-07-03T09:25:25Z</time>
      </trkpt>
      <trkpt lat="47.63973" lon="6.21497">
        <ele>368.2</ele>
        <time>2021-07-03T09:25:29Z</time>
      </trkpt>
      <trkpt lat="47.63968" lon="6.21499">
        <ele>368.2</ele>
        <time>2021-07-03T09:25:31Z</time>
      </trkpt>
      <trkpt lat="47.63962" lon="6.21502">
        <ele>368.2</ele>
        <time>2021-07-03T09:25:34Z</time>
      </trkpt>
      <trkpt lat="47.63957" lon="6.21504">
        <ele>368.2</ele>
        <time>2021-07-03T09:25:36Z</time>
      </trkpt>
      <trkpt lat="47.63952" lon="6.21508">
        <ele>368.2</ele>
        <time>2021-07-03T09:25:38Z</time>
      </trkpt>
      <trkpt lat="47.63948" lon="6.21511">
        <ele>368.1</ele>
        <time>2021-07-03T09:25:40Z</time>
      </trkpt>
      <trkpt lat="47.63943" lon="6.21513">
        <ele>368.2</ele>
        <time>2021-07-03T09:25:41Z</time>
      </trkpt>
      <trkpt lat="47.63937" lon="6.21516">
        <ele>368.2</ele>
        <time>2021-07-03T09:25:44Z</time>
      </trkpt>
      <trkpt lat="47.63932" lon="6.21518">
        <ele>368.3</ele>
        <time>2021-07-03T09:25:47Z</time>
      </trkpt>
      <trkpt lat="47.63927" lon="6.21518">
        <ele>368.5</ele>
        <time>2021-07-03T09:25:49Z</time>
      </trkpt>
      <trkpt lat="47.63921" lon="6.21518">
        <ele>368.7</ele>
        <time>2021-07-03T09:25:53Z</time>
      </trkpt>
      <trkpt lat="47.63916" lon="6.21517">
        <ele>369</ele>
        <time>2021-07-03T09:25:55Z</time>
      </trkpt>
      <trkpt lat="47.63911" lon="6.21517">
        <ele>369.5</ele>
        <time>2021-07-03T09:25:57Z</time>
      </trkpt>
      <trkpt lat="47.63907" lon="6.21516">
        <ele>370.1</ele>
        <time>2021-07-03T09:26:00Z</time>
      </trkpt>
      <trkpt lat="47.63902" lon="6.21515">
        <ele>370.6</ele>
        <time>2021-07-03T09:26:01Z</time>
      </trkpt>
      <trkpt lat="47.63896" lon="6.21515">
        <ele>371.3</ele>
        <time>2021-07-03T09:26:05Z</time>
      </trkpt>
      <trkpt lat="47.63889" lon="6.21515">
        <ele>372</ele>
        <time>2021-07-03T09:26:08Z</time>
      </trkpt>
      <trkpt lat="47.63884" lon="6.21516">
        <ele>372.5</ele>
        <time>2021-07-03T09:26:11Z</time>
      </trkpt>
      <trkpt lat="47.63877" lon="6.21516">
        <ele>373.2</ele>
        <time>2021-07-03T09:26:14Z</time>
      </trkpt>
      <trkpt lat="47.63873" lon="6.21517">
        <ele>373.6</ele>
        <time>2021-07-03T09:26:16Z</time>
      </trkpt>
      <trkpt lat="47.63868" lon="6.21521">
        <ele>374</ele>
        <time>2021-07-03T09:26:18Z</time>
      </trkpt>
      <trkpt lat="47.63863" lon="6.21525">
        <ele>374.4</ele>
        <time>2021-07-03T09:26:21Z</time>
      </trkpt>
      <trkpt lat="47.63858" lon="6.21527">
        <ele>374.9</ele>
        <time>2021-07-03T09:26:25Z</time>
      </trkpt>
      <trkpt lat="47.63852" lon="6.21528">
        <ele>375.5</ele>
        <time>2021-07-03T09:26:28Z</time>
      </trkpt>
      <trkpt lat="47.63846" lon="6.21527">
        <ele>376.2</ele>
        <time>2021-07-03T09:26:30Z</time>
      </trkpt>
      <trkpt lat="47.63842" lon="6.21526">
        <ele>376.7</ele>
        <time>2021-07-03T09:27:03Z</time>
      </trkpt>
      <trkpt lat="47.63837" lon="6.21524">
        <ele>377.3</ele>
        <time>2021-07-03T09:27:37Z</time>
      </trkpt>
      <trkpt lat="47.63832" lon="6.21522">
        <ele>377.7</ele>
        <time>2021-07-03T09:27:43Z</time>
      </trkpt>
      <trkpt lat="47.63827" lon="6.21525">
        <ele>377.7</ele>
        <time>2021-07-03T09:27:46Z</time>
      </trkpt>
      <trkpt lat="47.63821" lon="6.21525">
        <ele>377.6</ele>
        <time>2021-07-03T09:27:48Z</time>
      </trkpt>
      <trkpt lat="47.63816" lon="6.21525">
        <ele>377.6</ele>
        <time>2021-07-03T09:27:51Z</time>
      </trkpt>
      <trkpt lat="47.63811" lon="6.21524">
        <ele>377.6</ele>
        <time>2021-07-03T09:27:53Z</time>
      </trkpt>
      <trkpt lat="47.63805" lon="6.21523">
        <ele>377.5</ele>
        <time>2021-07-03T09:27:56Z</time>
      </trkpt>
      <trkpt lat="47.638" lon="6.21522">
        <ele>377.5</ele>
        <time>2021-07-03T09:27:58Z</time>
      </trkpt>
      <trkpt lat="47.63793" lon="6.21522">
        <ele>377.5</ele>
        <time>2021-07-03T09:28:01Z</time>
      </trkpt>
      <trkpt lat="47.63787" lon="6.2152">
        <ele>377.5</ele>
        <time>2021-07-03T09:28:05Z</time>
      </trkpt>
      <trkpt lat="47.63782" lon="6.21519">
        <ele>377.5</ele>
        <time>2021-07-03T09:28:06Z</time>
      </trkpt>
      <trkpt lat="47.63775" lon="6.21518">
        <ele>377.5</ele>
        <time>2021-07-03T09:28:09Z</time>
      </trkpt>
      <trkpt lat="47.6377" lon="6.21516">
        <ele>377.5</ele>
        <time>2021-07-03T09:28:10Z</time>
      </trkpt>
      <trkpt lat="47.63765" lon="6.21514">
        <ele>377.6</ele>
        <time>2021-07-03T09:28:13Z</time>
      </trkpt>
      <trkpt lat="47.6376" lon="6.21512">
        <ele>377.6</ele>
        <time>2021-07-03T09:28:15Z</time>
      </trkpt>
      <trkpt lat="47.63755" lon="6.21508">
        <ele>377.7</ele>
        <time>2021-07-03T09:28:18Z</time>
      </trkpt>
      <trkpt lat="47.63751" lon="6.21505">
        <ele>377.8</ele>
        <time>2021-07-03T09:28:19Z</time>
      </trkpt>
      <trkpt lat="47.63747" lon="6.21503">
        <ele>377.9</ele>
        <time>2021-07-03T09:28:23Z</time>
      </trkpt>
      <trkpt lat="47.63742" lon="6.21499">
        <ele>377.9</ele>
        <time>2021-07-03T09:28:26Z</time>
      </trkpt>
      <trkpt lat="47.63738" lon="6.21493">
        <ele>377.9</ele>
        <time>2021-07-03T09:28:27Z</time>
      </trkpt>
      <trkpt lat="47.63734" lon="6.21488">
        <ele>377.9</ele>
        <time>2021-07-03T09:28:29Z</time>
      </trkpt>
      <trkpt lat="47.63731" lon="6.21483">
        <ele>377.9</ele>
        <time>2021-07-03T09:28:32Z</time>
      </trkpt>
      <trkpt lat="47.63728" lon="6.21477">
        <ele>377.9</ele>
        <time>2021-07-03T09:28:35Z</time>
      </trkpt>
      <trkpt lat="47.63725" lon="6.21471">
        <ele>377.9</ele>
        <time>2021-07-03T09:28:37Z</time>
      </trkpt>
      <trkpt lat="47.63722" lon="6.21464">
        <ele>378</ele>
        <time>2021-07-03T09:28:41Z</time>
      </trkpt>
      <trkpt lat="47.63719" lon="6.21456">
        <ele>378</ele>
        <time>2021-07-03T09:28:43Z</time>
      </trkpt>
      <trkpt lat="47.63716" lon="6.21447">
        <ele>378.1</ele>
        <time>2021-07-03T09:28:46Z</time>
      </trkpt>
      <trkpt lat="47.63713" lon="6.21438">
        <ele>378.2</ele>
        <time>2021-07-03T09:28:51Z</time>
      </trkpt>
      <trkpt lat="47.6371" lon="6.21432">
        <ele>378.3</ele>
        <time>2021-07-03T09:28:52Z</time>
      </trkpt>
      <trkpt lat="47.63707" lon="6.21426">
        <ele>378.4</ele>
        <time>2021-07-03T09:28:55Z</time>
      </trkpt>
      <trkpt lat="47.63705" lon="6.2142">
        <ele>378.5</ele>
        <time>2021-07-03T09:28:57Z</time>
      </trkpt>
      <trkpt lat="47.63701" lon="6.21413">
        <ele>378.5</ele>
        <time>2021-07-03T09:28:59Z</time>
      </trkpt>
      <trkpt lat="47.63698" lon="6.21408">
        <ele>378.4</ele>
        <time>2021-07-03T09:29:02Z</time>
      </trkpt>
      <trkpt lat="47.63695" lon="6.21401">
        <ele>378.4</ele>
        <time>2021-07-03T09:29:05Z</time>
      </trkpt>
      <trkpt lat="47.63691" lon="6.21395">
        <ele>378.3</ele>
        <time>2021-07-03T09:29:08Z</time>
      </trkpt>
      <trkpt lat="47.63688" lon="6.2139">
        <ele>378.3</ele>
        <time>2021-07-03T09:29:10Z</time>
      </trkpt>
      <trkpt lat="47.63685" lon="6.21382">
        <ele>378.2</ele>
        <time>2021-07-03T09:29:11Z</time>
      </trkpt>
      <trkpt lat="47.63682" lon="6.21375">
        <ele>378.1</ele>
        <time>2021-07-03T09:29:14Z</time>
      </trkpt>
      <trkpt lat="47.63677" lon="6.2137">
        <ele>378.2</ele>
        <time>2021-07-03T09:29:16Z</time>
      </trkpt>
      <trkpt lat="47.63673" lon="6.21365">
        <ele>378.2</ele>
        <time>2021-07-03T09:29:18Z</time>
      </trkpt>
      <trkpt lat="47.63668" lon="6.21358">
        <ele>378.3</ele>
        <time>2021-07-03T09:29:20Z</time>
      </trkpt>
      <trkpt lat="47.63665" lon="6.21351">
        <ele>378.2</ele>
        <time>2021-07-03T09:29:22Z</time>
      </trkpt>
      <trkpt lat="47.63663" lon="6.21345">
        <ele>378</ele>
        <time>2021-07-03T09:29:23Z</time>
      </trkpt>
      <trkpt lat="47.63658" lon="6.21337">
        <ele>377.7</ele>
        <time>2021-07-03T09:29:26Z</time>
      </trkpt>
      <trkpt lat="47.63655" lon="6.2133">
        <ele>377.5</ele>
        <time>2021-07-03T09:29:28Z</time>
      </trkpt>
      <trkpt lat="47.63652" lon="6.21322">
        <ele>377.1</ele>
        <time>2021-07-03T09:29:29Z</time>
      </trkpt>
      <trkpt lat="47.63649" lon="6.21314">
        <ele>376.8</ele>
        <time>2021-07-03T09:29:31Z</time>
      </trkpt>
      <trkpt lat="47.63644" lon="6.21306">
        <ele>376.5</ele>
        <time>2021-07-03T09:29:33Z</time>
      </trkpt>
      <trkpt lat="47.63642" lon="6.213">
        <ele>376.3</ele>
        <time>2021-07-03T09:29:36Z</time>
      </trkpt>
      <trkpt lat="47.63638" lon="6.21295">
        <ele>376.1</ele>
        <time>2021-07-03T09:29:37Z</time>
      </trkpt>
      <trkpt lat="47.63633" lon="6.21289">
        <ele>375.8</ele>
        <time>2021-07-03T09:29:40Z</time>
      </trkpt>
      <trkpt lat="47.6363" lon="6.21281">
        <ele>375.6</ele>
        <time>2021-07-03T09:29:42Z</time>
      </trkpt>
      <trkpt lat="47.63628" lon="6.21274">
        <ele>375.4</ele>
        <time>2021-07-03T09:29:44Z</time>
      </trkpt>
      <trkpt lat="47.63623" lon="6.21268">
        <ele>375.3</ele>
        <time>2021-07-03T09:29:45Z</time>
      </trkpt>
      <trkpt lat="47.63619" lon="6.21263">
        <ele>375.2</ele>
        <time>2021-07-03T09:29:48Z</time>
      </trkpt>
      <trkpt lat="47.63614" lon="6.21259">
        <ele>375.1</ele>
        <time>2021-07-03T09:29:49Z</time>
      </trkpt>
      <trkpt lat="47.6361" lon="6.21259">
        <ele>375.1</ele>
        <time>2021-07-03T09:29:51Z</time>
      </trkpt>
      <trkpt lat="47.63603" lon="6.21261">
        <ele>375.1</ele>
        <time>2021-07-03T09:29:53Z</time>
      </trkpt>
      <trkpt lat="47.63596" lon="6.2126">
        <ele>375.1</ele>
        <time>2021-07-03T09:29:54Z</time>
      </trkpt>
      <trkpt lat="47.63591" lon="6.21257">
        <ele>375</ele>
        <time>2021-07-03T09:29:56Z</time>
      </trkpt>
      <trkpt lat="47.63586" lon="6.21252">
        <ele>375</ele>
        <time>2021-07-03T09:29:57Z</time>
      </trkpt>
      <trkpt lat="47.63582" lon="6.21248">
        <ele>374.9</ele>
        <time>2021-07-03T09:29:59Z</time>
      </trkpt>
      <trkpt lat="47.63576" lon="6.21242">
        <ele>374.5</ele>
        <time>2021-07-03T09:30:01Z</time>
      </trkpt>
      <trkpt lat="47.63572" lon="6.21236">
        <ele>374.2</ele>
        <time>2021-07-03T09:30:03Z</time>
      </trkpt>
      <trkpt lat="47.6357" lon="6.2123">
        <ele>373.9</ele>
        <time>2021-07-03T09:30:05Z</time>
      </trkpt>
      <trkpt lat="47.63568" lon="6.21223">
        <ele>373.8</ele>
        <time>2021-07-03T09:30:06Z</time>
      </trkpt>
      <trkpt lat="47.63563" lon="6.21218">
        <ele>373.4</ele>
        <time>2021-07-03T09:30:09Z</time>
      </trkpt>
      <trkpt lat="47.63558" lon="6.21215">
        <ele>373.2</ele>
        <time>2021-07-03T09:30:10Z</time>
      </trkpt>
      <trkpt lat="47.63553" lon="6.21213">
        <ele>373</ele>
        <time>2021-07-03T09:30:12Z</time>
      </trkpt>
      <trkpt lat="47.63544" lon="6.2121">
        <ele>372.6</ele>
        <time>2021-07-03T09:30:15Z</time>
      </trkpt>
      <trkpt lat="47.63535" lon="6.21203">
        <ele>372.2</ele>
        <time>2021-07-03T09:30:18Z</time>
      </trkpt>
      <trkpt lat="47.6353" lon="6.21198">
        <ele>372</ele>
        <time>2021-07-03T09:30:20Z</time>
      </trkpt>
      <trkpt lat="47.63524" lon="6.21197">
        <ele>371.8</ele>
        <time>2021-07-03T09:30:22Z</time>
      </trkpt>
      <trkpt lat="47.63518" lon="6.21196">
        <ele>371.6</ele>
        <time>2021-07-03T09:30:24Z</time>
      </trkpt>
      <trkpt lat="47.63513" lon="6.21195">
        <ele>371.4</ele>
        <time>2021-07-03T09:30:25Z</time>
      </trkpt>
      <trkpt lat="47.63507" lon="6.21193">
        <ele>371.2</ele>
        <time>2021-07-03T09:30:26Z</time>
      </trkpt>
      <trkpt lat="47.63502" lon="6.21191">
        <ele>371</ele>
        <time>2021-07-03T09:30:29Z</time>
      </trkpt>
      <trkpt lat="47.63496" lon="6.21186">
        <ele>370.7</ele>
        <time>2021-07-03T09:30:30Z</time>
      </trkpt>
      <trkpt lat="47.63493" lon="6.21182">
        <ele>370.5</ele>
        <time>2021-07-03T09:30:33Z</time>
      </trkpt>
      <trkpt lat="47.63489" lon="6.21174">
        <ele>370.2</ele>
        <time>2021-07-03T09:30:35Z</time>
      </trkpt>
      <trkpt lat="47.63485" lon="6.21168">
        <ele>369.9</ele>
        <time>2021-07-03T09:30:36Z</time>
      </trkpt>
      <trkpt lat="47.63481" lon="6.21163">
        <ele>369.7</ele>
        <time>2021-07-03T09:30:38Z</time>
      </trkpt>
      <trkpt lat="47.63477" lon="6.21157">
        <ele>369.3</ele>
        <time>2021-07-03T09:30:40Z</time>
      </trkpt>
      <trkpt lat="47.63474" lon="6.2115">
        <ele>369.1</ele>
        <time>2021-07-03T09:30:41Z</time>
      </trkpt>
      <trkpt lat="47.63469" lon="6.21142">
        <ele>368.8</ele>
        <time>2021-07-03T09:30:43Z</time>
      </trkpt>
      <trkpt lat="47.63462" lon="6.21128">
        <ele>368.2</ele>
        <time>2021-07-03T09:30:46Z</time>
      </trkpt>
      <trkpt lat="47.63459" lon="6.21121">
        <ele>368</ele>
        <time>2021-07-03T09:30:48Z</time>
      </trkpt>
      <trkpt lat="47.63454" lon="6.21114">
        <ele>367.7</ele>
        <time>2021-07-03T09:30:49Z</time>
      </trkpt>
      <trkpt lat="47.63451" lon="6.21106">
        <ele>367.4</ele>
        <time>2021-07-03T09:30:50Z</time>
      </trkpt>
      <trkpt lat="47.63447" lon="6.21097">
        <ele>367.2</ele>
        <time>2021-07-03T09:30:53Z</time>
      </trkpt>
      <trkpt lat="47.63443" lon="6.21088">
        <ele>366.9</ele>
        <time>2021-07-03T09:30:54Z</time>
      </trkpt>
      <trkpt lat="47.63439" lon="6.2108">
        <ele>366.6</ele>
        <time>2021-07-03T09:30:57Z</time>
      </trkpt>
      <trkpt lat="47.63436" lon="6.21073">
        <ele>366.3</ele>
        <time>2021-07-03T09:30:59Z</time>
      </trkpt>
      <trkpt lat="47.63433" lon="6.21068">
        <ele>366</ele>
        <time>2021-07-03T09:31:00Z</time>
      </trkpt>
      <trkpt lat="47.63429" lon="6.21061">
        <ele>365.7</ele>
        <time>2021-07-03T09:31:03Z</time>
      </trkpt>
      <trkpt lat="47.63426" lon="6.21056">
        <ele>365.4</ele>
        <time>2021-07-03T09:31:05Z</time>
      </trkpt>
      <trkpt lat="47.63422" lon="6.2105">
        <ele>365</ele>
        <time>2021-07-03T09:31:09Z</time>
      </trkpt>
      <trkpt lat="47.63419" lon="6.21043">
        <ele>364.7</ele>
        <time>2021-07-03T09:31:11Z</time>
      </trkpt>
      <trkpt lat="47.63416" lon="6.21038">
        <ele>364.4</ele>
        <time>2021-07-03T09:31:13Z</time>
      </trkpt>
      <trkpt lat="47.63412" lon="6.21029">
        <ele>364</ele>
        <time>2021-07-03T09:31:14Z</time>
      </trkpt>
      <trkpt lat="47.63409" lon="6.21023">
        <ele>363.6</ele>
        <time>2021-07-03T09:31:17Z</time>
      </trkpt>
      <trkpt lat="47.63405" lon="6.21017">
        <ele>363.2</ele>
        <time>2021-07-03T09:31:18Z</time>
      </trkpt>
      <trkpt lat="47.63401" lon="6.2101">
        <ele>362.8</ele>
        <time>2021-07-03T09:31:21Z</time>
      </trkpt>
      <trkpt lat="47.63395" lon="6.21">
        <ele>362.1</ele>
        <time>2021-07-03T09:31:24Z</time>
      </trkpt>
      <trkpt lat="47.63391" lon="6.20994">
        <ele>361.7</ele>
        <time>2021-07-03T09:31:26Z</time>
      </trkpt>
      <trkpt lat="47.63387" lon="6.20989">
        <ele>361.3</ele>
        <time>2021-07-03T09:31:28Z</time>
      </trkpt>
      <trkpt lat="47.63384" lon="6.20983">
        <ele>360.9</ele>
        <time>2021-07-03T09:31:30Z</time>
      </trkpt>
      <trkpt lat="47.6338" lon="6.20978">
        <ele>360.5</ele>
        <time>2021-07-03T09:31:31Z</time>
      </trkpt>
      <trkpt lat="47.63377" lon="6.20973">
        <ele>360.1</ele>
        <time>2021-07-03T09:31:34Z</time>
      </trkpt>
      <trkpt lat="47.63372" lon="6.20966">
        <ele>359.7</ele>
        <time>2021-07-03T09:31:36Z</time>
      </trkpt>
      <trkpt lat="47.63368" lon="6.2096">
        <ele>359.3</ele>
        <time>2021-07-03T09:31:39Z</time>
      </trkpt>
      <trkpt lat="47.63364" lon="6.20953">
        <ele>358.8</ele>
        <time>2021-07-03T09:31:42Z</time>
      </trkpt>
      <trkpt lat="47.6336" lon="6.20947">
        <ele>358.4</ele>
        <time>2021-07-03T09:31:44Z</time>
      </trkpt>
      <trkpt lat="47.63356" lon="6.20941">
        <ele>358</ele>
        <time>2021-07-03T09:31:46Z</time>
      </trkpt>
      <trkpt lat="47.63351" lon="6.20935">
        <ele>357.6</ele>
        <time>2021-07-03T09:31:48Z</time>
      </trkpt>
      <trkpt lat="47.63344" lon="6.20927">
        <ele>356.9</ele>
        <time>2021-07-03T09:31:49Z</time>
      </trkpt>
      <trkpt lat="47.63341" lon="6.20922">
        <ele>356.6</ele>
        <time>2021-07-03T09:31:51Z</time>
      </trkpt>
      <trkpt lat="47.63338" lon="6.20917">
        <ele>356.3</ele>
        <time>2021-07-03T09:31:52Z</time>
      </trkpt>
      <trkpt lat="47.63334" lon="6.2091">
        <ele>355.8</ele>
        <time>2021-07-03T09:31:53Z</time>
      </trkpt>
      <trkpt lat="47.63329" lon="6.20904">
        <ele>355.3</ele>
        <time>2021-07-03T09:31:55Z</time>
      </trkpt>
      <trkpt lat="47.63327" lon="6.20898">
        <ele>355</ele>
        <time>2021-07-03T09:31:57Z</time>
      </trkpt>
      <trkpt lat="47.63322" lon="6.20891">
        <ele>354.4</ele>
        <time>2021-07-03T09:31:59Z</time>
      </trkpt>
      <trkpt lat="47.63318" lon="6.20886">
        <ele>354</ele>
        <time>2021-07-03T09:32:01Z</time>
      </trkpt>
      <trkpt lat="47.63313" lon="6.2088">
        <ele>353.6</ele>
        <time>2021-07-03T09:32:03Z</time>
      </trkpt>
      <trkpt lat="47.63309" lon="6.20875">
        <ele>353.2</ele>
        <time>2021-07-03T09:32:05Z</time>
      </trkpt>
      <trkpt lat="47.63303" lon="6.20868">
        <ele>352.7</ele>
        <time>2021-07-03T09:32:07Z</time>
      </trkpt>
      <trkpt lat="47.63299" lon="6.20862">
        <ele>352.2</ele>
        <time>2021-07-03T09:32:09Z</time>
      </trkpt>
      <trkpt lat="47.63295" lon="6.20858">
        <ele>351.9</ele>
        <time>2021-07-03T09:32:10Z</time>
      </trkpt>
      <trkpt lat="47.6329" lon="6.20851">
        <ele>351.5</ele>
        <time>2021-07-03T09:32:12Z</time>
      </trkpt>
      <trkpt lat="47.63285" lon="6.20844">
        <ele>351</ele>
        <time>2021-07-03T09:32:13Z</time>
      </trkpt>
      <trkpt lat="47.63281" lon="6.20838">
        <ele>350.6</ele>
        <time>2021-07-03T09:32:15Z</time>
      </trkpt>
      <trkpt lat="47.63277" lon="6.20831">
        <ele>350.2</ele>
        <time>2021-07-03T09:32:17Z</time>
      </trkpt>
      <trkpt lat="47.63274" lon="6.20826">
        <ele>349.9</ele>
        <time>2021-07-03T09:32:18Z</time>
      </trkpt>
      <trkpt lat="47.6327" lon="6.2082">
        <ele>349.5</ele>
        <time>2021-07-03T09:32:19Z</time>
      </trkpt>
      <trkpt lat="47.63264" lon="6.20812">
        <ele>348.9</ele>
        <time>2021-07-03T09:32:22Z</time>
      </trkpt>
      <trkpt lat="47.63258" lon="6.20802">
        <ele>348.3</ele>
        <time>2021-07-03T09:32:23Z</time>
      </trkpt>
      <trkpt lat="47.63254" lon="6.20796">
        <ele>347.9</ele>
        <time>2021-07-03T09:32:26Z</time>
      </trkpt>
      <trkpt lat="47.6325" lon="6.20789">
        <ele>347.4</ele>
        <time>2021-07-03T09:32:28Z</time>
      </trkpt>
      <trkpt lat="47.63247" lon="6.20783">
        <ele>347</ele>
        <time>2021-07-03T09:32:29Z</time>
      </trkpt>
      <trkpt lat="47.63243" lon="6.20777">
        <ele>346.5</ele>
        <time>2021-07-03T09:32:32Z</time>
      </trkpt>
      <trkpt lat="47.63239" lon="6.20772">
        <ele>346.1</ele>
        <time>2021-07-03T09:32:34Z</time>
      </trkpt>
      <trkpt lat="47.63234" lon="6.20766">
        <ele>345.6</ele>
        <time>2021-07-03T09:32:36Z</time>
      </trkpt>
      <trkpt lat="47.63227" lon="6.20756">
        <ele>344.8</ele>
        <time>2021-07-03T09:32:39Z</time>
      </trkpt>
      <trkpt lat="47.63222" lon="6.20749">
        <ele>344.3</ele>
        <time>2021-07-03T09:32:41Z</time>
      </trkpt>
      <trkpt lat="47.63218" lon="6.20741">
        <ele>343.9</ele>
        <time>2021-07-03T09:32:43Z</time>
      </trkpt>
      <trkpt lat="47.63213" lon="6.20734">
        <ele>343.4</ele>
        <time>2021-07-03T09:32:45Z</time>
      </trkpt>
      <trkpt lat="47.63208" lon="6.20728">
        <ele>342.9</ele>
        <time>2021-07-03T09:32:47Z</time>
      </trkpt>
      <trkpt lat="47.63205" lon="6.20723">
        <ele>342.6</ele>
        <time>2021-07-03T09:32:48Z</time>
      </trkpt>
      <trkpt lat="47.63201" lon="6.20718">
        <ele>342.2</ele>
        <time>2021-07-03T09:32:49Z</time>
      </trkpt>
      <trkpt lat="47.63196" lon="6.2071">
        <ele>341.6</ele>
        <time>2021-07-03T09:32:51Z</time>
      </trkpt>
      <trkpt lat="47.63192" lon="6.20705">
        <ele>341.2</ele>
        <time>2021-07-03T09:32:53Z</time>
      </trkpt>
      <trkpt lat="47.63189" lon="6.20699">
        <ele>340.9</ele>
        <time>2021-07-03T09:32:55Z</time>
      </trkpt>
      <trkpt lat="47.63186" lon="6.20694">
        <ele>340.5</ele>
        <time>2021-07-03T09:32:57Z</time>
      </trkpt>
      <trkpt lat="47.63181" lon="6.2069">
        <ele>340</ele>
        <time>2021-07-03T09:32:58Z</time>
      </trkpt>
      <trkpt lat="47.63176" lon="6.20682">
        <ele>339.3</ele>
        <time>2021-07-03T09:33:00Z</time>
      </trkpt>
      <trkpt lat="47.63172" lon="6.20677">
        <ele>338.8</ele>
        <time>2021-07-03T09:33:03Z</time>
      </trkpt>
      <trkpt lat="47.63168" lon="6.20669">
        <ele>338.2</ele>
        <time>2021-07-03T09:33:06Z</time>
      </trkpt>
      <trkpt lat="47.63164" lon="6.20663">
        <ele>337.6</ele>
        <time>2021-07-03T09:33:08Z</time>
      </trkpt>
      <trkpt lat="47.63161" lon="6.20657">
        <ele>336.9</ele>
        <time>2021-07-03T09:33:10Z</time>
      </trkpt>
      <trkpt lat="47.63157" lon="6.2065">
        <ele>336.2</ele>
        <time>2021-07-03T09:33:12Z</time>
      </trkpt>
      <trkpt lat="47.63153" lon="6.20643">
        <ele>335.5</ele>
        <time>2021-07-03T09:33:14Z</time>
      </trkpt>
      <trkpt lat="47.63148" lon="6.20634">
        <ele>334.7</ele>
        <time>2021-07-03T09:33:15Z</time>
      </trkpt>
      <trkpt lat="47.63144" lon="6.20627">
        <ele>334</ele>
        <time>2021-07-03T09:33:18Z</time>
      </trkpt>
      <trkpt lat="47.6314" lon="6.20619">
        <ele>333.2</ele>
        <time>2021-07-03T09:33:19Z</time>
      </trkpt>
      <trkpt lat="47.63134" lon="6.20611">
        <ele>332.5</ele>
        <time>2021-07-03T09:33:22Z</time>
      </trkpt>
      <trkpt lat="47.63131" lon="6.20606">
        <ele>332</ele>
        <time>2021-07-03T09:33:23Z</time>
      </trkpt>
      <trkpt lat="47.63126" lon="6.20598">
        <ele>331.2</ele>
        <time>2021-07-03T09:33:24Z</time>
      </trkpt>
      <trkpt lat="47.63121" lon="6.20592">
        <ele>330.6</ele>
        <time>2021-07-03T09:33:26Z</time>
      </trkpt>
      <trkpt lat="47.63117" lon="6.20587">
        <ele>330.2</ele>
        <time>2021-07-03T09:33:29Z</time>
      </trkpt>
      <trkpt lat="47.63114" lon="6.20581">
        <ele>329.7</ele>
        <time>2021-07-03T09:33:31Z</time>
      </trkpt>
      <trkpt lat="47.63109" lon="6.20574">
        <ele>329.1</ele>
        <time>2021-07-03T09:33:32Z</time>
      </trkpt>
      <trkpt lat="47.63104" lon="6.20569">
        <ele>328.5</ele>
        <time>2021-07-03T09:33:34Z</time>
      </trkpt>
      <trkpt lat="47.631" lon="6.20565">
        <ele>328.1</ele>
        <time>2021-07-03T09:33:37Z</time>
      </trkpt>
      <trkpt lat="47.63096" lon="6.20559">
        <ele>327.6</ele>
        <time>2021-07-03T09:33:38Z</time>
      </trkpt>
      <trkpt lat="47.63089" lon="6.20553">
        <ele>326.9</ele>
        <time>2021-07-03T09:33:41Z</time>
      </trkpt>
      <trkpt lat="47.63085" lon="6.20548">
        <ele>326.4</ele>
        <time>2021-07-03T09:33:44Z</time>
      </trkpt>
      <trkpt lat="47.6308" lon="6.2054">
        <ele>325.5</ele>
        <time>2021-07-03T09:33:45Z</time>
      </trkpt>
      <trkpt lat="47.63075" lon="6.20534">
        <ele>324.7</ele>
        <time>2021-07-03T09:33:48Z</time>
      </trkpt>
      <trkpt lat="47.63071" lon="6.20528">
        <ele>323.8</ele>
        <time>2021-07-03T09:33:50Z</time>
      </trkpt>
      <trkpt lat="47.63068" lon="6.20523">
        <ele>323.1</ele>
        <time>2021-07-03T09:33:51Z</time>
      </trkpt>
      <trkpt lat="47.63063" lon="6.20516">
        <ele>322.2</ele>
        <time>2021-07-03T09:33:54Z</time>
      </trkpt>
      <trkpt lat="47.6306" lon="6.20509">
        <ele>321.4</ele>
        <time>2021-07-03T09:33:56Z</time>
      </trkpt>
      <trkpt lat="47.63055" lon="6.20501">
        <ele>320.4</ele>
        <time>2021-07-03T09:33:58Z</time>
      </trkpt>
      <trkpt lat="47.63052" lon="6.20495">
        <ele>319.8</ele>
        <time>2021-07-03T09:33:59Z</time>
      </trkpt>
      <trkpt lat="47.6305" lon="6.20489">
        <ele>319.3</ele>
        <time>2021-07-03T09:34:01Z</time>
      </trkpt>
      <trkpt lat="47.63046" lon="6.2048">
        <ele>318.5</ele>
        <time>2021-07-03T09:34:03Z</time>
      </trkpt>
      <trkpt lat="47.63041" lon="6.20464">
        <ele>317.3</ele>
        <time>2021-07-03T09:34:06Z</time>
      </trkpt>
      <trkpt lat="47.6304" lon="6.20452">
        <ele>316.8</ele>
        <time>2021-07-03T09:34:07Z</time>
      </trkpt>
      <trkpt lat="47.63039" lon="6.20443">
        <ele>316.4</ele>
        <time>2021-07-03T09:34:09Z</time>
      </trkpt>
      <trkpt lat="47.63037" lon="6.20424">
        <ele>315.6</ele>
        <time>2021-07-03T09:34:12Z</time>
      </trkpt>
      <trkpt lat="47.63035" lon="6.20414">
        <ele>314.9</ele>
        <time>2021-07-03T09:34:14Z</time>
      </trkpt>
      <trkpt lat="47.63033" lon="6.20402">
        <ele>314.2</ele>
        <time>2021-07-03T09:34:15Z</time>
      </trkpt>
      <trkpt lat="47.63032" lon="6.20392">
        <ele>313.8</ele>
        <time>2021-07-03T09:34:18Z</time>
      </trkpt>
      <trkpt lat="47.63032" lon="6.20385">
        <ele>313.5</ele>
        <time>2021-07-03T09:34:19Z</time>
      </trkpt>
      <trkpt lat="47.63031" lon="6.20377">
        <ele>313.2</ele>
        <time>2021-07-03T09:34:20Z</time>
      </trkpt>
      <trkpt lat="47.63031" lon="6.20369">
        <ele>312.9</ele>
        <time>2021-07-03T09:34:21Z</time>
      </trkpt>
      <trkpt lat="47.6303" lon="6.2036">
        <ele>312.4</ele>
        <time>2021-07-03T09:34:22Z</time>
      </trkpt>
      <trkpt lat="47.63028" lon="6.20349">
        <ele>311.8</ele>
        <time>2021-07-03T09:34:25Z</time>
      </trkpt>
      <trkpt lat="47.63027" lon="6.20336">
        <ele>311.3</ele>
        <time>2021-07-03T09:34:27Z</time>
      </trkpt>
      <trkpt lat="47.63025" lon="6.20318">
        <ele>310.4</ele>
        <time>2021-07-03T09:34:30Z</time>
      </trkpt>
      <trkpt lat="47.63023" lon="6.20308">
        <ele>309.7</ele>
        <time>2021-07-03T09:34:32Z</time>
      </trkpt>
      <trkpt lat="47.63023" lon="6.20289">
        <ele>308.8</ele>
        <time>2021-07-03T09:34:35Z</time>
      </trkpt>
      <trkpt lat="47.63028" lon="6.20271">
        <ele>308.6</ele>
        <time>2021-07-03T09:34:37Z</time>
      </trkpt>
      <trkpt lat="47.63033" lon="6.2026">
        <ele>308.7</ele>
        <time>2021-07-03T09:34:39Z</time>
      </trkpt>
      <trkpt lat="47.63038" lon="6.20251">
        <ele>308.7</ele>
        <time>2021-07-03T09:34:42Z</time>
      </trkpt>
      <trkpt lat="47.63047" lon="6.20242">
        <ele>308.9</ele>
        <time>2021-07-03T09:34:45Z</time>
      </trkpt>
      <trkpt lat="47.63053" lon="6.20237">
        <ele>309</ele>
        <time>2021-07-03T09:34:46Z</time>
      </trkpt>
      <trkpt lat="47.63057" lon="6.20232">
        <ele>309.1</ele>
        <time>2021-07-03T09:34:49Z</time>
      </trkpt>
      <trkpt lat="47.63062" lon="6.20227">
        <ele>309.2</ele>
        <time>2021-07-03T09:34:51Z</time>
      </trkpt>
      <trkpt lat="47.63066" lon="6.20224">
        <ele>309.4</ele>
        <time>2021-07-03T09:34:53Z</time>
      </trkpt>
      <trkpt lat="47.63076" lon="6.20217">
        <ele>309.9</ele>
        <time>2021-07-03T09:34:56Z</time>
      </trkpt>
      <trkpt lat="47.6308" lon="6.20214">
        <ele>310.1</ele>
        <time>2021-07-03T09:34:59Z</time>
      </trkpt>
      <trkpt lat="47.63084" lon="6.20209">
        <ele>310.1</ele>
        <time>2021-07-03T09:35:01Z</time>
      </trkpt>
      <trkpt lat="47.63088" lon="6.20202">
        <ele>310</ele>
        <time>2021-07-03T09:35:05Z</time>
      </trkpt>
      <trkpt lat="47.63087" lon="6.20194">
        <ele>309.3</ele>
        <time>2021-07-03T09:35:09Z</time>
      </trkpt>
      <trkpt lat="47.63085" lon="6.20187">
        <ele>308.7</ele>
        <time>2021-07-03T09:35:12Z</time>
      </trkpt>
      <trkpt lat="47.63083" lon="6.20182">
        <ele>308</ele>
        <time>2021-07-03T09:35:12Z</time>
      </trkpt>
      <trkpt lat="47.6308" lon="6.20175">
        <ele>307.2</ele>
        <time>2021-07-03T09:35:14Z</time>
      </trkpt>
      <trkpt lat="47.63076" lon="6.20168">
        <ele>306.4</ele>
        <time>2021-07-03T09:35:16Z</time>
      </trkpt>
      <trkpt lat="47.63073" lon="6.20162">
        <ele>305.7</ele>
        <time>2021-07-03T09:35:20Z</time>
      </trkpt>
      <trkpt lat="47.63069" lon="6.20155">
        <ele>305</ele>
        <time>2021-07-03T09:35:21Z</time>
      </trkpt>
      <trkpt lat="47.63066" lon="6.20149">
        <ele>304.3</ele>
        <time>2021-07-03T09:35:21Z</time>
      </trkpt>
      <trkpt lat="47.63062" lon="6.20142">
        <ele>303.6</ele>
        <time>2021-07-03T09:35:25Z</time>
      </trkpt>
      <trkpt lat="47.63056" lon="6.20133">
        <ele>302.7</ele>
        <time>2021-07-03T09:35:27Z</time>
      </trkpt>
      <trkpt lat="47.63047" lon="6.20116">
        <ele>301.2</ele>
        <time>2021-07-03T09:35:28Z</time>
      </trkpt>
      <trkpt lat="47.63043" lon="6.2011">
        <ele>300.6</ele>
        <time>2021-07-03T09:35:31Z</time>
      </trkpt>
      <trkpt lat="47.63039" lon="6.20103">
        <ele>300</ele>
        <time>2021-07-03T09:35:34Z</time>
      </trkpt>
      <trkpt lat="47.63036" lon="6.20095">
        <ele>299.4</ele>
        <time>2021-07-03T09:35:35Z</time>
      </trkpt>
      <trkpt lat="47.63033" lon="6.20089">
        <ele>298.9</ele>
        <time>2021-07-03T09:35:37Z</time>
      </trkpt>
      <trkpt lat="47.63028" lon="6.20081">
        <ele>298.4</ele>
        <time>2021-07-03T09:35:39Z</time>
      </trkpt>
      <trkpt lat="47.63025" lon="6.20075">
        <ele>298.1</ele>
        <time>2021-07-03T09:35:40Z</time>
      </trkpt>
      <trkpt lat="47.63022" lon="6.20068">
        <ele>297.9</ele>
        <time>2021-07-03T09:35:42Z</time>
      </trkpt>
      <trkpt lat="47.63016" lon="6.20054">
        <ele>297.5</ele>
        <time>2021-07-03T09:35:45Z</time>
      </trkpt>
      <trkpt lat="47.63013" lon="6.20048">
        <ele>297.3</ele>
        <time>2021-07-03T09:35:46Z</time>
      </trkpt>
      <trkpt lat="47.6301" lon="6.20041">
        <ele>297.2</ele>
        <time>2021-07-03T09:35:46Z</time>
      </trkpt>
      <trkpt lat="47.63006" lon="6.20034">
        <ele>297</ele>
        <time>2021-07-03T09:35:50Z</time>
      </trkpt>
      <trkpt lat="47.63003" lon="6.20028">
        <ele>296.8</ele>
        <time>2021-07-03T09:35:51Z</time>
      </trkpt>
      <trkpt lat="47.62998" lon="6.20019">
        <ele>296.6</ele>
        <time>2021-07-03T09:35:51Z</time>
      </trkpt>
      <trkpt lat="47.62994" lon="6.20012">
        <ele>296.5</ele>
        <time>2021-07-03T09:35:55Z</time>
      </trkpt>
      <trkpt lat="47.6299" lon="6.20004">
        <ele>296.3</ele>
        <time>2021-07-03T09:35:57Z</time>
      </trkpt>
      <trkpt lat="47.62986" lon="6.19996">
        <ele>296.1</ele>
        <time>2021-07-03T09:35:59Z</time>
      </trkpt>
      <trkpt lat="47.62983" lon="6.19991">
        <ele>295.9</ele>
        <time>2021-07-03T09:36:00Z</time>
      </trkpt>
      <trkpt lat="47.62979" lon="6.19985">
        <ele>295.7</ele>
        <time>2021-07-03T09:36:02Z</time>
      </trkpt>
      <trkpt lat="47.62977" lon="6.1998">
        <ele>295.6</ele>
        <time>2021-07-03T09:36:03Z</time>
      </trkpt>
      <trkpt lat="47.62972" lon="6.1997">
        <ele>295.3</ele>
        <time>2021-07-03T09:36:05Z</time>
      </trkpt>
      <trkpt lat="47.62967" lon="6.19961">
        <ele>295.1</ele>
        <time>2021-07-03T09:36:07Z</time>
      </trkpt>
      <trkpt lat="47.62963" lon="6.19951">
        <ele>295</ele>
        <time>2021-07-03T09:36:09Z</time>
      </trkpt>
      <trkpt lat="47.62959" lon="6.19943">
        <ele>294.9</ele>
        <time>2021-07-03T09:36:11Z</time>
      </trkpt>
      <trkpt lat="47.62953" lon="6.19932">
        <ele>294.7</ele>
        <time>2021-07-03T09:36:13Z</time>
      </trkpt>
      <trkpt lat="47.62946" lon="6.19918">
        <ele>294.7</ele>
        <time>2021-07-03T09:36:16Z</time>
      </trkpt>
      <trkpt lat="47.62938" lon="6.19902">
        <ele>294.2</ele>
        <time>2021-07-03T09:36:17Z</time>
      </trkpt>
      <trkpt lat="47.62933" lon="6.19893">
        <ele>294</ele>
        <time>2021-07-03T09:36:19Z</time>
      </trkpt>
      <trkpt lat="47.62928" lon="6.19883">
        <ele>293.8</ele>
        <time>2021-07-03T09:36:21Z</time>
      </trkpt>
      <trkpt lat="47.62925" lon="6.19876">
        <ele>293.6</ele>
        <time>2021-07-03T09:36:24Z</time>
      </trkpt>
      <trkpt lat="47.6292" lon="6.19866">
        <ele>293.4</ele>
        <time>2021-07-03T09:36:27Z</time>
      </trkpt>
      <trkpt lat="47.62917" lon="6.19861">
        <ele>293.3</ele>
        <time>2021-07-03T09:36:28Z</time>
      </trkpt>
      <trkpt lat="47.62911" lon="6.19849">
        <ele>292.8</ele>
        <time>2021-07-03T09:36:30Z</time>
      </trkpt>
      <trkpt lat="47.62907" lon="6.19841">
        <ele>292.4</ele>
        <time>2021-07-03T09:36:32Z</time>
      </trkpt>
      <trkpt lat="47.62903" lon="6.19831">
        <ele>291.9</ele>
        <time>2021-07-03T09:36:34Z</time>
      </trkpt>
      <trkpt lat="47.62899" lon="6.19824">
        <ele>291.3</ele>
        <time>2021-07-03T09:36:35Z</time>
      </trkpt>
      <trkpt lat="47.62895" lon="6.19816">
        <ele>290.8</ele>
        <time>2021-07-03T09:36:37Z</time>
      </trkpt>
      <trkpt lat="47.62888" lon="6.19802">
        <ele>289.8</ele>
        <time>2021-07-03T09:36:37Z</time>
      </trkpt>
      <trkpt lat="47.62885" lon="6.19797">
        <ele>289.5</ele>
        <time>2021-07-03T09:36:38Z</time>
      </trkpt>
      <trkpt lat="47.62883" lon="6.19791">
        <ele>289.2</ele>
        <time>2021-07-03T09:36:39Z</time>
      </trkpt>
      <trkpt lat="47.6288" lon="6.19785">
        <ele>288.8</ele>
        <time>2021-07-03T09:36:40Z</time>
      </trkpt>
      <trkpt lat="47.62877" lon="6.1978">
        <ele>288.5</ele>
        <time>2021-07-03T09:36:41Z</time>
      </trkpt>
      <trkpt lat="47.62875" lon="6.19774">
        <ele>288.2</ele>
        <time>2021-07-03T09:36:42Z</time>
      </trkpt>
      <trkpt lat="47.6287" lon="6.19767">
        <ele>287.8</ele>
        <time>2021-07-03T09:36:46Z</time>
      </trkpt>
      <trkpt lat="47.62862" lon="6.19751">
        <ele>287.1</ele>
        <time>2021-07-03T09:36:47Z</time>
      </trkpt>
      <trkpt lat="47.62857" lon="6.1974">
        <ele>286.4</ele>
        <time>2021-07-03T09:36:49Z</time>
      </trkpt>
      <trkpt lat="47.62852" lon="6.1973">
        <ele>285.8</ele>
        <time>2021-07-03T09:36:51Z</time>
      </trkpt>
      <trkpt lat="47.62847" lon="6.19719">
        <ele>285.2</ele>
        <time>2021-07-03T09:36:53Z</time>
      </trkpt>
      <trkpt lat="47.62842" lon="6.19709">
        <ele>284.7</ele>
        <time>2021-07-03T09:36:55Z</time>
      </trkpt>
      <trkpt lat="47.62837" lon="6.19699">
        <ele>284.2</ele>
        <time>2021-07-03T09:36:57Z</time>
      </trkpt>
      <trkpt lat="47.62833" lon="6.19691">
        <ele>283.8</ele>
        <time>2021-07-03T09:36:59Z</time>
      </trkpt>
      <trkpt lat="47.62828" lon="6.19682">
        <ele>283.3</ele>
        <time>2021-07-03T09:37:01Z</time>
      </trkpt>
      <trkpt lat="47.62824" lon="6.19673">
        <ele>282.9</ele>
        <time>2021-07-03T09:37:03Z</time>
      </trkpt>
      <trkpt lat="47.62819" lon="6.19664">
        <ele>282.4</ele>
        <time>2021-07-03T09:37:05Z</time>
      </trkpt>
      <trkpt lat="47.62815" lon="6.19656">
        <ele>282</ele>
        <time>2021-07-03T09:37:07Z</time>
      </trkpt>
      <trkpt lat="47.62811" lon="6.19649">
        <ele>281.7</ele>
        <time>2021-07-03T09:37:11Z</time>
      </trkpt>
      <trkpt lat="47.62806" lon="6.19639">
        <ele>281.3</ele>
        <time>2021-07-03T09:37:13Z</time>
      </trkpt>
      <trkpt lat="47.628" lon="6.19627">
        <ele>280.8</ele>
        <time>2021-07-03T09:37:16Z</time>
      </trkpt>
      <trkpt lat="47.62797" lon="6.19617">
        <ele>280.4</ele>
        <time>2021-07-03T09:37:18Z</time>
      </trkpt>
      <trkpt lat="47.6279" lon="6.19602">
        <ele>279.9</ele>
        <time>2021-07-03T09:37:21Z</time>
      </trkpt>
      <trkpt lat="47.62785" lon="6.19591">
        <ele>279.6</ele>
        <time>2021-07-03T09:37:21Z</time>
      </trkpt>
      <trkpt lat="47.62782" lon="6.19584">
        <ele>279.4</ele>
        <time>2021-07-03T09:37:25Z</time>
      </trkpt>
      <trkpt lat="47.62777" lon="6.1957">
        <ele>279</ele>
        <time>2021-07-03T09:37:28Z</time>
      </trkpt>
      <trkpt lat="47.62773" lon="6.19561">
        <ele>278.8</ele>
        <time>2021-07-03T09:37:30Z</time>
      </trkpt>
      <trkpt lat="47.62769" lon="6.19552">
        <ele>278.5</ele>
        <time>2021-07-03T09:37:32Z</time>
      </trkpt>
      <trkpt lat="47.62766" lon="6.19545">
        <ele>278.3</ele>
        <time>2021-07-03T09:37:34Z</time>
      </trkpt>
      <trkpt lat="47.62762" lon="6.19533">
        <ele>277.9</ele>
        <time>2021-07-03T09:37:36Z</time>
      </trkpt>
      <trkpt lat="47.62759" lon="6.19525">
        <ele>277.7</ele>
        <time>2021-07-03T09:37:38Z</time>
      </trkpt>
      <trkpt lat="47.62756" lon="6.19516">
        <ele>277.5</ele>
        <time>2021-07-03T09:37:39Z</time>
      </trkpt>
      <trkpt lat="47.62751" lon="6.19502">
        <ele>277.1</ele>
        <time>2021-07-03T09:37:40Z</time>
      </trkpt>
      <trkpt lat="47.62747" lon="6.19493">
        <ele>276.5</ele>
        <time>2021-07-03T09:37:42Z</time>
      </trkpt>
      <trkpt lat="47.62743" lon="6.19482">
        <ele>275.9</ele>
        <time>2021-07-03T09:37:44Z</time>
      </trkpt>
      <trkpt lat="47.62739" lon="6.19471">
        <ele>275.2</ele>
        <time>2021-07-03T09:37:46Z</time>
      </trkpt>
      <trkpt lat="47.62735" lon="6.19462">
        <ele>274.6</ele>
        <time>2021-07-03T09:37:48Z</time>
      </trkpt>
      <trkpt lat="47.62731" lon="6.19452">
        <ele>274</ele>
        <time>2021-07-03T09:37:50Z</time>
      </trkpt>
      <trkpt lat="47.62726" lon="6.19441">
        <ele>273.4</ele>
        <time>2021-07-03T09:37:52Z</time>
      </trkpt>
      <trkpt lat="47.62723" lon="6.19435">
        <ele>273.1</ele>
        <time>2021-07-03T09:37:53Z</time>
      </trkpt>
      <trkpt lat="47.62719" lon="6.19424">
        <ele>272.5</ele>
        <time>2021-07-03T09:37:55Z</time>
      </trkpt>
      <trkpt lat="47.62714" lon="6.19413">
        <ele>272</ele>
        <time>2021-07-03T09:37:57Z</time>
      </trkpt>
      <trkpt lat="47.6271" lon="6.19402">
        <ele>271.4</ele>
        <time>2021-07-03T09:37:59Z</time>
      </trkpt>
      <trkpt lat="47.62707" lon="6.19395">
        <ele>271.1</ele>
        <time>2021-07-03T09:38:00Z</time>
      </trkpt>
      <trkpt lat="47.62705" lon="6.19389">
        <ele>270.8</ele>
        <time>2021-07-03T09:38:01Z</time>
      </trkpt>
      <trkpt lat="47.62703" lon="6.19383">
        <ele>270.5</ele>
        <time>2021-07-03T09:38:02Z</time>
      </trkpt>
      <trkpt lat="47.62698" lon="6.19371">
        <ele>269.9</ele>
        <time>2021-07-03T09:38:04Z</time>
      </trkpt>
      <trkpt lat="47.62695" lon="6.19365">
        <ele>269.6</ele>
        <time>2021-07-03T09:38:05Z</time>
      </trkpt>
      <trkpt lat="47.62691" lon="6.19357">
        <ele>269.2</ele>
        <time>2021-07-03T09:38:07Z</time>
      </trkpt>
      <trkpt lat="47.62686" lon="6.19345">
        <ele>268.7</ele>
        <time>2021-07-03T09:38:09Z</time>
      </trkpt>
      <trkpt lat="47.62683" lon="6.19339">
        <ele>268.4</ele>
        <time>2021-07-03T09:38:10Z</time>
      </trkpt>
      <trkpt lat="47.6268" lon="6.19334">
        <ele>268.2</ele>
        <time>2021-07-03T09:38:11Z</time>
      </trkpt>
      <trkpt lat="47.62676" lon="6.19328">
        <ele>267.9</ele>
        <time>2021-07-03T09:38:12Z</time>
      </trkpt>
      <trkpt lat="47.62672" lon="6.19324">
        <ele>267.7</ele>
        <time>2021-07-03T09:38:13Z</time>
      </trkpt>
      <trkpt lat="47.62668" lon="6.19319">
        <ele>267.5</ele>
        <time>2021-07-03T09:38:14Z</time>
      </trkpt>
      <trkpt lat="47.62665" lon="6.19314">
        <ele>267.2</ele>
        <time>2021-07-03T09:38:15Z</time>
      </trkpt>
      <trkpt lat="47.62661" lon="6.1931">
        <ele>266.9</ele>
        <time>2021-07-03T09:38:16Z</time>
      </trkpt>
      <trkpt lat="47.62657" lon="6.19306">
        <ele>266.6</ele>
        <time>2021-07-03T09:38:17Z</time>
      </trkpt>
      <trkpt lat="47.62654" lon="6.19302">
        <ele>266.3</ele>
        <time>2021-07-03T09:38:18Z</time>
      </trkpt>
      <trkpt lat="47.6265" lon="6.19298">
        <ele>266</ele>
        <time>2021-07-03T09:38:19Z</time>
      </trkpt>
      <trkpt lat="47.62646" lon="6.19293">
        <ele>265.7</ele>
        <time>2021-07-03T09:38:20Z</time>
      </trkpt>
      <trkpt lat="47.62642" lon="6.19289">
        <ele>265.4</ele>
        <time>2021-07-03T09:38:21Z</time>
      </trkpt>
      <trkpt lat="47.62638" lon="6.19284">
        <ele>265.1</ele>
        <time>2021-07-03T09:38:22Z</time>
      </trkpt>
      <trkpt lat="47.62634" lon="6.1928">
        <ele>264.8</ele>
        <time>2021-07-03T09:38:23Z</time>
      </trkpt>
      <trkpt lat="47.62631" lon="6.19275">
        <ele>264.5</ele>
        <time>2021-07-03T09:38:24Z</time>
      </trkpt>
      <trkpt lat="47.62627" lon="6.19271">
        <ele>264.2</ele>
        <time>2021-07-03T09:38:25Z</time>
      </trkpt>
      <trkpt lat="47.62624" lon="6.19266">
        <ele>263.9</ele>
        <time>2021-07-03T09:38:26Z</time>
      </trkpt>
      <trkpt lat="47.6262" lon="6.1926">
        <ele>263.6</ele>
        <time>2021-07-03T09:38:27Z</time>
      </trkpt>
      <trkpt lat="47.62616" lon="6.19255">
        <ele>263.3</ele>
        <time>2021-07-03T09:38:28Z</time>
      </trkpt>
      <trkpt lat="47.62613" lon="6.19251">
        <ele>263.1</ele>
        <time>2021-07-03T09:38:29Z</time>
      </trkpt>
      <trkpt lat="47.62609" lon="6.19246">
        <ele>262.8</ele>
        <time>2021-07-03T09:38:30Z</time>
      </trkpt>
      <trkpt lat="47.62605" lon="6.19241">
        <ele>262.6</ele>
        <time>2021-07-03T09:38:31Z</time>
      </trkpt>
      <trkpt lat="47.62602" lon="6.19236">
        <ele>262.3</ele>
        <time>2021-07-03T09:38:32Z</time>
      </trkpt>
      <trkpt lat="47.62598" lon="6.1923">
        <ele>262.1</ele>
        <time>2021-07-03T09:38:33Z</time>
      </trkpt>
      <trkpt lat="47.62595" lon="6.19226">
        <ele>261.8</ele>
        <time>2021-07-03T09:38:34Z</time>
      </trkpt>
      <trkpt lat="47.62592" lon="6.19221">
        <ele>261.6</ele>
        <time>2021-07-03T09:38:35Z</time>
      </trkpt>
      <trkpt lat="47.62586" lon="6.19213">
        <ele>261.2</ele>
        <time>2021-07-03T09:38:37Z</time>
      </trkpt>
      <trkpt lat="47.62583" lon="6.19209">
        <ele>261</ele>
        <time>2021-07-03T09:38:38Z</time>
      </trkpt>
      <trkpt lat="47.62577" lon="6.19201">
        <ele>260.7</ele>
        <time>2021-07-03T09:38:40Z</time>
      </trkpt>
      <trkpt lat="47.62573" lon="6.19196">
        <ele>260.5</ele>
        <time>2021-07-03T09:38:41Z</time>
      </trkpt>
      <trkpt lat="47.62567" lon="6.19188">
        <ele>260.1</ele>
        <time>2021-07-03T09:38:43Z</time>
      </trkpt>
      <trkpt lat="47.62565" lon="6.19177">
        <ele>259.8</ele>
        <time>2021-07-03T09:38:46Z</time>
      </trkpt>
      <trkpt lat="47.62562" lon="6.1917">
        <ele>259.6</ele>
        <time>2021-07-03T09:38:48Z</time>
      </trkpt>
      <trkpt lat="47.62558" lon="6.19167">
        <ele>259.4</ele>
        <time>2021-07-03T09:38:49Z</time>
      </trkpt>
      <trkpt lat="47.62551" lon="6.1916">
        <ele>259.2</ele>
        <time>2021-07-03T09:38:51Z</time>
      </trkpt>
      <trkpt lat="47.62546" lon="6.19154">
        <ele>259</ele>
        <time>2021-07-03T09:38:53Z</time>
      </trkpt>
      <trkpt lat="47.6254" lon="6.19147">
        <ele>258.8</ele>
        <time>2021-07-03T09:38:55Z</time>
      </trkpt>
      <trkpt lat="47.62535" lon="6.1914">
        <ele>258.7</ele>
        <time>2021-07-03T09:38:57Z</time>
      </trkpt>
      <trkpt lat="47.6253" lon="6.19132">
        <ele>258.5</ele>
        <time>2021-07-03T09:38:58Z</time>
      </trkpt>
      <trkpt lat="47.62526" lon="6.19126">
        <ele>258.3</ele>
        <time>2021-07-03T09:38:58Z</time>
      </trkpt>
      <trkpt lat="47.62522" lon="6.1912">
        <ele>258.1</ele>
        <time>2021-07-03T09:39:01Z</time>
      </trkpt>
      <trkpt lat="47.62518" lon="6.19115">
        <ele>258</ele>
        <time>2021-07-03T09:39:03Z</time>
      </trkpt>
      <trkpt lat="47.62515" lon="6.1911">
        <ele>257.8</ele>
        <time>2021-07-03T09:39:04Z</time>
      </trkpt>
      <trkpt lat="47.62507" lon="6.19099">
        <ele>257.4</ele>
        <time>2021-07-03T09:39:07Z</time>
      </trkpt>
      <trkpt lat="47.62502" lon="6.19094">
        <ele>257.2</ele>
        <time>2021-07-03T09:39:08Z</time>
      </trkpt>
      <trkpt lat="47.62499" lon="6.19089">
        <ele>257.1</ele>
        <time>2021-07-03T09:39:09Z</time>
      </trkpt>
      <trkpt lat="47.62495" lon="6.19082">
        <ele>257</ele>
        <time>2021-07-03T09:39:11Z</time>
      </trkpt>
      <trkpt lat="47.62489" lon="6.19075">
        <ele>256.8</ele>
        <time>2021-07-03T09:39:11Z</time>
      </trkpt>
      <trkpt lat="47.62483" lon="6.19067">
        <ele>256.6</ele>
        <time>2021-07-03T09:39:14Z</time>
      </trkpt>
      <trkpt lat="47.62479" lon="6.19059">
        <ele>256.4</ele>
        <time>2021-07-03T09:39:16Z</time>
      </trkpt>
      <trkpt lat="47.62475" lon="6.19052">
        <ele>256.3</ele>
        <time>2021-07-03T09:39:18Z</time>
      </trkpt>
      <trkpt lat="47.6247" lon="6.19045">
        <ele>256.1</ele>
        <time>2021-07-03T09:39:20Z</time>
      </trkpt>
      <trkpt lat="47.62465" lon="6.19036">
        <ele>255.9</ele>
        <time>2021-07-03T09:39:22Z</time>
      </trkpt>
      <trkpt lat="47.62461" lon="6.19028">
        <ele>255.7</ele>
        <time>2021-07-03T09:39:24Z</time>
      </trkpt>
      <trkpt lat="47.62458" lon="6.19022">
        <ele>255.5</ele>
        <time>2021-07-03T09:39:26Z</time>
      </trkpt>
      <trkpt lat="47.62455" lon="6.19016">
        <ele>255.4</ele>
        <time>2021-07-03T09:39:28Z</time>
      </trkpt>
      <trkpt lat="47.62451" lon="6.19008">
        <ele>255.2</ele>
        <time>2021-07-03T09:39:30Z</time>
      </trkpt>
      <trkpt lat="47.62448" lon="6.19001">
        <ele>255</ele>
        <time>2021-07-03T09:39:32Z</time>
      </trkpt>
      <trkpt lat="47.62445" lon="6.18992">
        <ele>255.1</ele>
        <time>2021-07-03T09:39:34Z</time>
      </trkpt>
      <trkpt lat="47.62442" lon="6.18982">
        <ele>255.2</ele>
        <time>2021-07-03T09:39:36Z</time>
      </trkpt>
      <trkpt lat="47.62439" lon="6.18973">
        <ele>255.3</ele>
        <time>2021-07-03T09:39:38Z</time>
      </trkpt>
      <trkpt lat="47.62436" lon="6.18965">
        <ele>255.3</ele>
        <time>2021-07-03T09:39:41Z</time>
      </trkpt>
      <trkpt lat="47.62431" lon="6.18959">
        <ele>255.3</ele>
        <time>2021-07-03T09:39:44Z</time>
      </trkpt>
      <trkpt lat="47.62427" lon="6.18954">
        <ele>255.2</ele>
        <time>2021-07-03T09:39:46Z</time>
      </trkpt>
      <trkpt lat="47.62423" lon="6.18948">
        <ele>255.1</ele>
        <time>2021-07-03T09:39:49Z</time>
      </trkpt>
      <trkpt lat="47.62419" lon="6.18943">
        <ele>255.1</ele>
        <time>2021-07-03T09:39:51Z</time>
      </trkpt>
      <trkpt lat="47.62415" lon="6.18937">
        <ele>255</ele>
        <time>2021-07-03T09:39:53Z</time>
      </trkpt>
      <trkpt lat="47.62411" lon="6.18932">
        <ele>255</ele>
        <time>2021-07-03T09:39:55Z</time>
      </trkpt>
      <trkpt lat="47.62405" lon="6.18926">
        <ele>254.9</ele>
        <time>2021-07-03T09:39:57Z</time>
      </trkpt>
      <trkpt lat="47.62399" lon="6.18921">
        <ele>254.8</ele>
        <time>2021-07-03T09:39:59Z</time>
      </trkpt>
      <trkpt lat="47.62394" lon="6.18914">
        <ele>254.7</ele>
        <time>2021-07-03T09:40:01Z</time>
      </trkpt>
      <trkpt lat="47.62389" lon="6.18905">
        <ele>254.5</ele>
        <time>2021-07-03T09:40:03Z</time>
      </trkpt>
      <trkpt lat="47.62385" lon="6.18894">
        <ele>254.2</ele>
        <time>2021-07-03T09:40:05Z</time>
      </trkpt>
      <trkpt lat="47.62381" lon="6.18884">
        <ele>253.9</ele>
        <time>2021-07-03T09:40:07Z</time>
      </trkpt>
      <trkpt lat="47.62377" lon="6.18877">
        <ele>253.6</ele>
        <time>2021-07-03T09:40:09Z</time>
      </trkpt>
      <trkpt lat="47.62374" lon="6.18867">
        <ele>253.2</ele>
        <time>2021-07-03T09:40:11Z</time>
      </trkpt>
      <trkpt lat="47.62369" lon="6.18858">
        <ele>252.8</ele>
        <time>2021-07-03T09:40:13Z</time>
      </trkpt>
      <trkpt lat="47.62366" lon="6.1885">
        <ele>252.4</ele>
        <time>2021-07-03T09:40:15Z</time>
      </trkpt>
      <trkpt lat="47.62363" lon="6.18841">
        <ele>252</ele>
        <time>2021-07-03T09:40:17Z</time>
      </trkpt>
      <trkpt lat="47.6236" lon="6.18832">
        <ele>251.6</ele>
        <time>2021-07-03T09:40:20Z</time>
      </trkpt>
      <trkpt lat="47.62357" lon="6.18825">
        <ele>251.3</ele>
        <time>2021-07-03T09:40:22Z</time>
      </trkpt>
      <trkpt lat="47.62355" lon="6.18817">
        <ele>250.9</ele>
        <time>2021-07-03T09:40:24Z</time>
      </trkpt>
      <trkpt lat="47.62353" lon="6.18809">
        <ele>250.6</ele>
        <time>2021-07-03T09:40:26Z</time>
      </trkpt>
      <trkpt lat="47.6235" lon="6.18802">
        <ele>250.2</ele>
        <time>2021-07-03T09:40:28Z</time>
      </trkpt>
      <trkpt lat="47.62347" lon="6.18796">
        <ele>249.8</ele>
        <time>2021-07-03T09:40:30Z</time>
      </trkpt>
      <trkpt lat="47.62343" lon="6.18788">
        <ele>249.3</ele>
        <time>2021-07-03T09:40:32Z</time>
      </trkpt>
      <trkpt lat="47.62341" lon="6.18782">
        <ele>248.8</ele>
        <time>2021-07-03T09:40:34Z</time>
      </trkpt>
      <trkpt lat="47.62338" lon="6.18774">
        <ele>248.3</ele>
        <time>2021-07-03T09:40:36Z</time>
      </trkpt>
      <trkpt lat="47.62335" lon="6.18768">
        <ele>247.9</ele>
        <time>2021-07-03T09:40:38Z</time>
      </trkpt>
      <trkpt lat="47.62331" lon="6.1876">
        <ele>247.3</ele>
        <time>2021-07-03T09:40:41Z</time>
      </trkpt>
      <trkpt lat="47.62327" lon="6.18753">
        <ele>247</ele>
        <time>2021-07-03T09:40:43Z</time>
      </trkpt>
      <trkpt lat="47.62323" lon="6.18747">
        <ele>246.7</ele>
        <time>2021-07-03T09:40:45Z</time>
      </trkpt>
      <trkpt lat="47.62319" lon="6.18741">
        <ele>246.6</ele>
        <time>2021-07-03T09:40:47Z</time>
      </trkpt>
      <trkpt lat="47.62315" lon="6.18736">
        <ele>246.4</ele>
        <time>2021-07-03T09:40:49Z</time>
      </trkpt>
      <trkpt lat="47.62309" lon="6.18733">
        <ele>246.2</ele>
        <time>2021-07-03T09:40:52Z</time>
      </trkpt>
      <trkpt lat="47.62305" lon="6.18728">
        <ele>246</ele>
        <time>2021-07-03T09:40:56Z</time>
      </trkpt>
      <trkpt lat="47.62303" lon="6.18723">
        <ele>245.8</ele>
        <time>2021-07-03T09:40:58Z</time>
      </trkpt>
      <trkpt lat="47.623" lon="6.18715">
        <ele>245.5</ele>
        <time>2021-07-03T09:41:00Z</time>
      </trkpt>
      <trkpt lat="47.62297" lon="6.18707">
        <ele>245.2</ele>
        <time>2021-07-03T09:41:02Z</time>
      </trkpt>
      <trkpt lat="47.62294" lon="6.18699">
        <ele>244.9</ele>
        <time>2021-07-03T09:41:04Z</time>
      </trkpt>
      <trkpt lat="47.62292" lon="6.18691">
        <ele>244.6</ele>
        <time>2021-07-03T09:41:06Z</time>
      </trkpt>
      <trkpt lat="47.62289" lon="6.18682">
        <ele>244.2</ele>
        <time>2021-07-03T09:41:08Z</time>
      </trkpt>
      <trkpt lat="47.62285" lon="6.18672">
        <ele>243.7</ele>
        <time>2021-07-03T09:41:10Z</time>
      </trkpt>
      <trkpt lat="47.62282" lon="6.18663">
        <ele>243.3</ele>
        <time>2021-07-03T09:41:12Z</time>
      </trkpt>
      <trkpt lat="47.62277" lon="6.18655">
        <ele>243.1</ele>
        <time>2021-07-03T09:41:14Z</time>
      </trkpt>
      <trkpt lat="47.6227" lon="6.18651">
        <ele>242.7</ele>
        <time>2021-07-03T09:41:16Z</time>
      </trkpt>
      <trkpt lat="47.62264" lon="6.18646">
        <ele>242.1</ele>
        <time>2021-07-03T09:41:18Z</time>
      </trkpt>
      <trkpt lat="47.62256" lon="6.18641">
        <ele>241.5</ele>
        <time>2021-07-03T09:41:20Z</time>
      </trkpt>
      <trkpt lat="47.62252" lon="6.18637">
        <ele>241.2</ele>
        <time>2021-07-03T09:41:21Z</time>
      </trkpt>
      <trkpt lat="47.62245" lon="6.18631">
        <ele>241</ele>
        <time>2021-07-03T09:41:23Z</time>
      </trkpt>
      <trkpt lat="47.6224" lon="6.18627">
        <ele>240.9</ele>
        <time>2021-07-03T09:41:24Z</time>
      </trkpt>
      <trkpt lat="47.62236" lon="6.18622">
        <ele>240.8</ele>
        <time>2021-07-03T09:41:25Z</time>
      </trkpt>
      <trkpt lat="47.62229" lon="6.18616">
        <ele>240.4</ele>
        <time>2021-07-03T09:41:27Z</time>
      </trkpt>
      <trkpt lat="47.62225" lon="6.18612">
        <ele>240.1</ele>
        <time>2021-07-03T09:41:28Z</time>
      </trkpt>
      <trkpt lat="47.62218" lon="6.18607">
        <ele>239.6</ele>
        <time>2021-07-03T09:41:30Z</time>
      </trkpt>
      <trkpt lat="47.62212" lon="6.18602">
        <ele>239.1</ele>
        <time>2021-07-03T09:41:32Z</time>
      </trkpt>
      <trkpt lat="47.62205" lon="6.18596">
        <ele>238.2</ele>
        <time>2021-07-03T09:41:34Z</time>
      </trkpt>
      <trkpt lat="47.62198" lon="6.18591">
        <ele>237.3</ele>
        <time>2021-07-03T09:41:36Z</time>
      </trkpt>
      <trkpt lat="47.6219" lon="6.18586">
        <ele>236.3</ele>
        <time>2021-07-03T09:41:38Z</time>
      </trkpt>
      <trkpt lat="47.62184" lon="6.18581">
        <ele>235.4</ele>
        <time>2021-07-03T09:41:40Z</time>
      </trkpt>
      <trkpt lat="47.62177" lon="6.18574">
        <ele>234.3</ele>
        <time>2021-07-03T09:41:42Z</time>
      </trkpt>
      <trkpt lat="47.62168" lon="6.18567">
        <ele>233.2</ele>
        <time>2021-07-03T09:41:44Z</time>
      </trkpt>
      <trkpt lat="47.62164" lon="6.18563">
        <ele>232.8</ele>
        <time>2021-07-03T09:41:45Z</time>
      </trkpt>
      <trkpt lat="47.6216" lon="6.18558">
        <ele>232.5</ele>
        <time>2021-07-03T09:41:46Z</time>
      </trkpt>
      <trkpt lat="47.62155" lon="6.18552">
        <ele>232.2</ele>
        <time>2021-07-03T09:41:47Z</time>
      </trkpt>
      <trkpt lat="47.62151" lon="6.18545">
        <ele>231.7</ele>
        <time>2021-07-03T09:41:48Z</time>
      </trkpt>
      <trkpt lat="47.62146" lon="6.18536">
        <ele>231.1</ele>
        <time>2021-07-03T09:41:49Z</time>
      </trkpt>
      <trkpt lat="47.62143" lon="6.18527">
        <ele>230.4</ele>
        <time>2021-07-03T09:41:50Z</time>
      </trkpt>
      <trkpt lat="47.62141" lon="6.18516">
        <ele>229.6</ele>
        <time>2021-07-03T09:41:51Z</time>
      </trkpt>
      <trkpt lat="47.6214" lon="6.18505">
        <ele>228.7</ele>
        <time>2021-07-03T09:41:52Z</time>
      </trkpt>
      <trkpt lat="47.62141" lon="6.18492">
        <ele>228</ele>
        <time>2021-07-03T09:41:53Z</time>
      </trkpt>
      <trkpt lat="47.62142" lon="6.18481">
        <ele>227.4</ele>
        <time>2021-07-03T09:41:54Z</time>
      </trkpt>
      <trkpt lat="47.62144" lon="6.18471">
        <ele>226.9</ele>
        <time>2021-07-03T09:41:55Z</time>
      </trkpt>
      <trkpt lat="47.62145" lon="6.18461">
        <ele>226.4</ele>
        <time>2021-07-03T09:41:56Z</time>
      </trkpt>
      <trkpt lat="47.62146" lon="6.18451">
        <ele>225.9</ele>
        <time>2021-07-03T09:41:57Z</time>
      </trkpt>
      <trkpt lat="47.62148" lon="6.18441">
        <ele>225.4</ele>
        <time>2021-07-03T09:41:59Z</time>
      </trkpt>
      <trkpt lat="47.62149" lon="6.18435">
        <ele>225</ele>
        <time>2021-07-03T09:42:01Z</time>
      </trkpt>
      <trkpt lat="47.62146" lon="6.18429">
        <ele>224.6</ele>
        <time>2021-07-03T09:42:26Z</time>
      </trkpt>
      <trkpt lat="47.6214" lon="6.18423">
        <ele>224.4</ele>
        <time>2021-07-03T09:42:29Z</time>
      </trkpt>
      <trkpt lat="47.62133" lon="6.18423">
        <ele>224.3</ele>
        <time>2021-07-03T09:42:31Z</time>
      </trkpt>
      <trkpt lat="47.62125" lon="6.18422">
        <ele>224.3</ele>
        <time>2021-07-03T09:42:35Z</time>
      </trkpt>
      <trkpt lat="47.62114" lon="6.1842">
        <ele>224.2</ele>
        <time>2021-07-03T09:42:35Z</time>
      </trkpt>
      <trkpt lat="47.62107" lon="6.18414">
        <ele>224</ele>
        <time>2021-07-03T09:42:39Z</time>
      </trkpt>
      <trkpt lat="47.62103" lon="6.18403">
        <ele>223.8</ele>
        <time>2021-07-03T09:42:39Z</time>
      </trkpt>
      <trkpt lat="47.621" lon="6.18385">
        <ele>223.5</ele>
        <time>2021-07-03T09:42:41Z</time>
      </trkpt>
      <trkpt lat="47.62098" lon="6.18377">
        <ele>223.4</ele>
        <time>2021-07-03T09:42:42Z</time>
      </trkpt>
      <trkpt lat="47.62097" lon="6.18368">
        <ele>223.3</ele>
        <time>2021-07-03T09:42:43Z</time>
      </trkpt>
      <trkpt lat="47.62095" lon="6.18358">
        <ele>223.2</ele>
        <time>2021-07-03T09:42:44Z</time>
      </trkpt>
      <trkpt lat="47.62094" lon="6.1835">
        <ele>223.1</ele>
        <time>2021-07-03T09:42:45Z</time>
      </trkpt>
      <trkpt lat="47.62093" lon="6.18341">
        <ele>223</ele>
        <time>2021-07-03T09:42:46Z</time>
      </trkpt>
      <trkpt lat="47.62092" lon="6.18332">
        <ele>222.9</ele>
        <time>2021-07-03T09:42:47Z</time>
      </trkpt>
      <trkpt lat="47.62091" lon="6.18324">
        <ele>222.8</ele>
        <time>2021-07-03T09:42:48Z</time>
      </trkpt>
      <trkpt lat="47.62089" lon="6.18314">
        <ele>222.7</ele>
        <time>2021-07-03T09:42:49Z</time>
      </trkpt>
      <trkpt lat="47.62086" lon="6.18305">
        <ele>222.6</ele>
        <time>2021-07-03T09:42:50Z</time>
      </trkpt>
      <trkpt lat="47.62084" lon="6.18296">
        <ele>222.5</ele>
        <time>2021-07-03T09:42:51Z</time>
      </trkpt>
      <trkpt lat="47.62083" lon="6.18288">
        <ele>222.5</ele>
        <time>2021-07-03T09:42:52Z</time>
      </trkpt>
      <trkpt lat="47.62081" lon="6.18279">
        <ele>222.4</ele>
        <time>2021-07-03T09:42:53Z</time>
      </trkpt>
      <trkpt lat="47.6208" lon="6.18271">
        <ele>222.3</ele>
        <time>2021-07-03T09:42:54Z</time>
      </trkpt>
      <trkpt lat="47.62078" lon="6.18263">
        <ele>222.2</ele>
        <time>2021-07-03T09:42:55Z</time>
      </trkpt>
      <trkpt lat="47.62077" lon="6.18255">
        <ele>222.1</ele>
        <time>2021-07-03T09:42:56Z</time>
      </trkpt>
      <trkpt lat="47.62075" lon="6.18248">
        <ele>222</ele>
        <time>2021-07-03T09:42:57Z</time>
      </trkpt>
      <trkpt lat="47.62074" lon="6.18241">
        <ele>221.9</ele>
        <time>2021-07-03T09:42:58Z</time>
      </trkpt>
      <trkpt lat="47.62072" lon="6.18232">
        <ele>221.7</ele>
        <time>2021-07-03T09:42:59Z</time>
      </trkpt>
      <trkpt lat="47.6207" lon="6.18225">
        <ele>221.6</ele>
        <time>2021-07-03T09:43:00Z</time>
      </trkpt>
      <trkpt lat="47.62068" lon="6.18217">
        <ele>221.5</ele>
        <time>2021-07-03T09:43:01Z</time>
      </trkpt>
      <trkpt lat="47.62066" lon="6.18209">
        <ele>221.3</ele>
        <time>2021-07-03T09:43:02Z</time>
      </trkpt>
      <trkpt lat="47.62065" lon="6.18201">
        <ele>221.2</ele>
        <time>2021-07-03T09:43:03Z</time>
      </trkpt>
      <trkpt lat="47.62064" lon="6.18193">
        <ele>221</ele>
        <time>2021-07-03T09:43:04Z</time>
      </trkpt>
      <trkpt lat="47.62062" lon="6.18186">
        <ele>220.9</ele>
        <time>2021-07-03T09:43:05Z</time>
      </trkpt>
      <trkpt lat="47.62061" lon="6.18178">
        <ele>220.8</ele>
        <time>2021-07-03T09:43:06Z</time>
      </trkpt>
      <trkpt lat="47.6206" lon="6.18171">
        <ele>220.7</ele>
        <time>2021-07-03T09:43:07Z</time>
      </trkpt>
      <trkpt lat="47.62058" lon="6.18163">
        <ele>220.5</ele>
        <time>2021-07-03T09:43:08Z</time>
      </trkpt>
      <trkpt lat="47.62057" lon="6.18155">
        <ele>220.2</ele>
        <time>2021-07-03T09:43:09Z</time>
      </trkpt>
      <trkpt lat="47.62055" lon="6.18147">
        <ele>220</ele>
        <time>2021-07-03T09:43:10Z</time>
      </trkpt>
      <trkpt lat="47.62054" lon="6.1814">
        <ele>219.7</ele>
        <time>2021-07-03T09:43:11Z</time>
      </trkpt>
      <trkpt lat="47.62052" lon="6.18132">
        <ele>219.5</ele>
        <time>2021-07-03T09:43:12Z</time>
      </trkpt>
      <trkpt lat="47.62051" lon="6.18123">
        <ele>219.2</ele>
        <time>2021-07-03T09:43:13Z</time>
      </trkpt>
      <trkpt lat="47.62049" lon="6.18116">
        <ele>219</ele>
        <time>2021-07-03T09:43:14Z</time>
      </trkpt>
      <trkpt lat="47.62048" lon="6.18109">
        <ele>218.8</ele>
        <time>2021-07-03T09:43:15Z</time>
      </trkpt>
      <trkpt lat="47.62047" lon="6.18102">
        <ele>218.5</ele>
        <time>2021-07-03T09:43:16Z</time>
      </trkpt>
      <trkpt lat="47.62047" lon="6.18095">
        <ele>218.3</ele>
        <time>2021-07-03T09:43:17Z</time>
      </trkpt>
      <trkpt lat="47.62047" lon="6.18088">
        <ele>218</ele>
        <time>2021-07-03T09:43:18Z</time>
      </trkpt>
      <trkpt lat="47.62047" lon="6.18081">
        <ele>217.9</ele>
        <time>2021-07-03T09:43:19Z</time>
      </trkpt>
      <trkpt lat="47.62048" lon="6.18074">
        <ele>217.8</ele>
        <time>2021-07-03T09:43:20Z</time>
      </trkpt>
      <trkpt lat="47.62049" lon="6.18067">
        <ele>217.8</ele>
        <time>2021-07-03T09:43:21Z</time>
      </trkpt>
      <trkpt lat="47.6205" lon="6.1806">
        <ele>217.8</ele>
        <time>2021-07-03T09:43:22Z</time>
      </trkpt>
      <trkpt lat="47.6205" lon="6.18053">
        <ele>217.7</ele>
        <time>2021-07-03T09:43:23Z</time>
      </trkpt>
      <trkpt lat="47.62051" lon="6.18046">
        <ele>217.7</ele>
        <time>2021-07-03T09:43:24Z</time>
      </trkpt>
      <trkpt lat="47.62052" lon="6.18039">
        <ele>217.6</ele>
        <time>2021-07-03T09:43:25Z</time>
      </trkpt>
      <trkpt lat="47.62053" lon="6.18032">
        <ele>217.6</ele>
        <time>2021-07-03T09:43:26Z</time>
      </trkpt>
      <trkpt lat="47.62054" lon="6.18024">
        <ele>217.5</ele>
        <time>2021-07-03T09:43:27Z</time>
      </trkpt>
      <trkpt lat="47.62055" lon="6.18018">
        <ele>217.4</ele>
        <time>2021-07-03T09:43:28Z</time>
      </trkpt>
      <trkpt lat="47.62056" lon="6.1801">
        <ele>217.4</ele>
        <time>2021-07-03T09:43:29Z</time>
      </trkpt>
      <trkpt lat="47.62056" lon="6.18004">
        <ele>217.3</ele>
        <time>2021-07-03T09:43:30Z</time>
      </trkpt>
      <trkpt lat="47.62057" lon="6.17991">
        <ele>217.2</ele>
        <time>2021-07-03T09:43:32Z</time>
      </trkpt>
      <trkpt lat="47.62059" lon="6.17978">
        <ele>217</ele>
        <time>2021-07-03T09:43:34Z</time>
      </trkpt>
      <trkpt lat="47.6206" lon="6.17965">
        <ele>216.9</ele>
        <time>2021-07-03T09:43:36Z</time>
      </trkpt>
      <trkpt lat="47.6206" lon="6.17958">
        <ele>216.8</ele>
        <time>2021-07-03T09:43:37Z</time>
      </trkpt>
      <trkpt lat="47.62061" lon="6.17945">
        <ele>216.7</ele>
        <time>2021-07-03T09:43:39Z</time>
      </trkpt>
      <trkpt lat="47.62062" lon="6.17938">
        <ele>216.6</ele>
        <time>2021-07-03T09:43:40Z</time>
      </trkpt>
      <trkpt lat="47.62063" lon="6.17926">
        <ele>216.5</ele>
        <time>2021-07-03T09:43:42Z</time>
      </trkpt>
      <trkpt lat="47.62065" lon="6.17913">
        <ele>216.4</ele>
        <time>2021-07-03T09:43:44Z</time>
      </trkpt>
      <trkpt lat="47.62066" lon="6.17906">
        <ele>216.4</ele>
        <time>2021-07-03T09:43:45Z</time>
      </trkpt>
      <trkpt lat="47.62067" lon="6.17894">
        <ele>216.3</ele>
        <time>2021-07-03T09:43:47Z</time>
      </trkpt>
      <trkpt lat="47.62071" lon="6.17882">
        <ele>216.2</ele>
        <time>2021-07-03T09:43:49Z</time>
      </trkpt>
      <trkpt lat="47.62071" lon="6.17869">
        <ele>216.1</ele>
        <time>2021-07-03T09:43:53Z</time>
      </trkpt>
      <trkpt lat="47.62072" lon="6.17861">
        <ele>216.1</ele>
        <time>2021-07-03T09:43:54Z</time>
      </trkpt>
      <trkpt lat="47.62074" lon="6.17845">
        <ele>216</ele>
        <time>2021-07-03T09:43:54Z</time>
      </trkpt>
      <trkpt lat="47.62075" lon="6.17838">
        <ele>216</ele>
        <time>2021-07-03T09:43:55Z</time>
      </trkpt>
      <trkpt lat="47.62076" lon="6.17831">
        <ele>216</ele>
        <time>2021-07-03T09:43:56Z</time>
      </trkpt>
      <trkpt lat="47.62077" lon="6.17825">
        <ele>216</ele>
        <time>2021-07-03T09:43:57Z</time>
      </trkpt>
      <trkpt lat="47.62078" lon="6.17811">
        <ele>216</ele>
        <time>2021-07-03T09:43:59Z</time>
      </trkpt>
      <trkpt lat="47.62079" lon="6.17798">
        <ele>216</ele>
        <time>2021-07-03T09:44:01Z</time>
      </trkpt>
      <trkpt lat="47.62081" lon="6.17785">
        <ele>216</ele>
        <time>2021-07-03T09:44:03Z</time>
      </trkpt>
      <trkpt lat="47.62082" lon="6.17773">
        <ele>216</ele>
        <time>2021-07-03T09:44:05Z</time>
      </trkpt>
      <trkpt lat="47.62083" lon="6.1776">
        <ele>216</ele>
        <time>2021-07-03T09:44:07Z</time>
      </trkpt>
      <trkpt lat="47.62084" lon="6.17747">
        <ele>215.9</ele>
        <time>2021-07-03T09:44:09Z</time>
      </trkpt>
      <trkpt lat="47.62085" lon="6.17734">
        <ele>215.6</ele>
        <time>2021-07-03T09:44:11Z</time>
      </trkpt>
      <trkpt lat="47.62086" lon="6.17724">
        <ele>215.3</ele>
        <time>2021-07-03T09:44:14Z</time>
      </trkpt>
      <trkpt lat="47.62087" lon="6.17717">
        <ele>215.2</ele>
        <time>2021-07-03T09:44:15Z</time>
      </trkpt>
      <trkpt lat="47.62088" lon="6.17705">
        <ele>214.9</ele>
        <time>2021-07-03T09:44:17Z</time>
      </trkpt>
      <trkpt lat="47.62091" lon="6.17699">
        <ele>214.8</ele>
        <time>2021-07-03T09:44:20Z</time>
      </trkpt>
      <trkpt lat="47.62093" lon="6.1769">
        <ele>214.6</ele>
        <time>2021-07-03T09:44:21Z</time>
      </trkpt>
      <trkpt lat="47.62093" lon="6.17681">
        <ele>214.4</ele>
        <time>2021-07-03T09:44:22Z</time>
      </trkpt>
      <trkpt lat="47.62092" lon="6.17673">
        <ele>214.2</ele>
        <time>2021-07-03T09:44:24Z</time>
      </trkpt>
      <trkpt lat="47.62093" lon="6.17654">
        <ele>214.4</ele>
        <time>2021-07-03T09:44:26Z</time>
      </trkpt>
      <trkpt lat="47.62094" lon="6.17645">
        <ele>214.6</ele>
        <time>2021-07-03T09:44:27Z</time>
      </trkpt>
      <trkpt lat="47.62095" lon="6.17634">
        <ele>214.8</ele>
        <time>2021-07-03T09:44:30Z</time>
      </trkpt>
      <trkpt lat="47.62095" lon="6.17628">
        <ele>214.9</ele>
        <time>2021-07-03T09:44:31Z</time>
      </trkpt>
      <trkpt lat="47.62095" lon="6.17619">
        <ele>215.1</ele>
        <time>2021-07-03T09:44:32Z</time>
      </trkpt>
      <trkpt lat="47.62096" lon="6.17612">
        <ele>215.3</ele>
        <time>2021-07-03T09:44:34Z</time>
      </trkpt>
      <trkpt lat="47.62097" lon="6.17598">
        <ele>215.5</ele>
        <time>2021-07-03T09:44:36Z</time>
      </trkpt>
      <trkpt lat="47.62098" lon="6.17581">
        <ele>215.9</ele>
        <time>2021-07-03T09:44:39Z</time>
      </trkpt>
      <trkpt lat="47.62099" lon="6.17573">
        <ele>216</ele>
        <time>2021-07-03T09:44:40Z</time>
      </trkpt>
      <trkpt lat="47.621" lon="6.17561">
        <ele>216.3</ele>
        <time>2021-07-03T09:44:41Z</time>
      </trkpt>
      <trkpt lat="47.62101" lon="6.17549">
        <ele>216.6</ele>
        <time>2021-07-03T09:44:43Z</time>
      </trkpt>
      <trkpt lat="47.62101" lon="6.17539">
        <ele>216.8</ele>
        <time>2021-07-03T09:44:46Z</time>
      </trkpt>
      <trkpt lat="47.62102" lon="6.17525">
        <ele>217.2</ele>
        <time>2021-07-03T09:44:48Z</time>
      </trkpt>
      <trkpt lat="47.62102" lon="6.17515">
        <ele>217.4</ele>
        <time>2021-07-03T09:44:50Z</time>
      </trkpt>
      <trkpt lat="47.62103" lon="6.17496">
        <ele>217.7</ele>
        <time>2021-07-03T09:44:52Z</time>
      </trkpt>
      <trkpt lat="47.62103" lon="6.17483">
        <ele>217.5</ele>
        <time>2021-07-03T09:44:55Z</time>
      </trkpt>
      <trkpt lat="47.62104" lon="6.17474">
        <ele>217.4</ele>
        <time>2021-07-03T09:44:57Z</time>
      </trkpt>
      <trkpt lat="47.62104" lon="6.17466">
        <ele>217.2</ele>
        <time>2021-07-03T09:44:58Z</time>
      </trkpt>
      <trkpt lat="47.62105" lon="6.1745">
        <ele>217</ele>
        <time>2021-07-03T09:45:00Z</time>
      </trkpt>
      <trkpt lat="47.62105" lon="6.17443">
        <ele>216.9</ele>
        <time>2021-07-03T09:45:02Z</time>
      </trkpt>
      <trkpt lat="47.62105" lon="6.17434">
        <ele>216.8</ele>
        <time>2021-07-03T09:45:03Z</time>
      </trkpt>
      <trkpt lat="47.62105" lon="6.17421">
        <ele>216.6</ele>
        <time>2021-07-03T09:45:05Z</time>
      </trkpt>
      <trkpt lat="47.62105" lon="6.17409">
        <ele>216.5</ele>
        <time>2021-07-03T09:45:06Z</time>
      </trkpt>
      <trkpt lat="47.62105" lon="6.174">
        <ele>216.5</ele>
        <time>2021-07-03T09:45:08Z</time>
      </trkpt>
      <trkpt lat="47.62106" lon="6.17392">
        <ele>216.5</ele>
        <time>2021-07-03T09:45:10Z</time>
      </trkpt>
      <trkpt lat="47.62106" lon="6.17379">
        <ele>216.5</ele>
        <time>2021-07-03T09:45:12Z</time>
      </trkpt>
      <trkpt lat="47.62107" lon="6.17362">
        <ele>216.6</ele>
        <time>2021-07-03T09:45:14Z</time>
      </trkpt>
      <trkpt lat="47.62108" lon="6.17351">
        <ele>216.6</ele>
        <time>2021-07-03T09:45:16Z</time>
      </trkpt>
      <trkpt lat="47.62109" lon="6.17343">
        <ele>216.6</ele>
        <time>2021-07-03T09:45:17Z</time>
      </trkpt>
      <trkpt lat="47.6211" lon="6.17333">
        <ele>216.6</ele>
        <time>2021-07-03T09:45:18Z</time>
      </trkpt>
      <trkpt lat="47.62111" lon="6.17323">
        <ele>216.6</ele>
        <time>2021-07-03T09:45:20Z</time>
      </trkpt>
      <trkpt lat="47.62113" lon="6.17305">
        <ele>216.6</ele>
        <time>2021-07-03T09:45:23Z</time>
      </trkpt>
      <trkpt lat="47.62116" lon="6.1729">
        <ele>216.6</ele>
        <time>2021-07-03T09:45:24Z</time>
      </trkpt>
      <trkpt lat="47.62118" lon="6.17282">
        <ele>216.6</ele>
        <time>2021-07-03T09:45:26Z</time>
      </trkpt>
      <trkpt lat="47.6212" lon="6.17275">
        <ele>216.6</ele>
        <time>2021-07-03T09:45:28Z</time>
      </trkpt>
      <trkpt lat="47.62121" lon="6.17268">
        <ele>216.5</ele>
        <time>2021-07-03T09:45:29Z</time>
      </trkpt>
      <trkpt lat="47.62123" lon="6.17255">
        <ele>216.5</ele>
        <time>2021-07-03T09:45:31Z</time>
      </trkpt>
      <trkpt lat="47.62126" lon="6.17243">
        <ele>216.4</ele>
        <time>2021-07-03T09:45:32Z</time>
      </trkpt>
      <trkpt lat="47.62129" lon="6.1723">
        <ele>216.3</ele>
        <time>2021-07-03T09:45:35Z</time>
      </trkpt>
      <trkpt lat="47.62131" lon="6.17222">
        <ele>216.2</ele>
        <time>2021-07-03T09:45:36Z</time>
      </trkpt>
      <trkpt lat="47.62132" lon="6.17215">
        <ele>216.2</ele>
        <time>2021-07-03T09:45:38Z</time>
      </trkpt>
      <trkpt lat="47.62134" lon="6.17208">
        <ele>216.1</ele>
        <time>2021-07-03T09:45:39Z</time>
      </trkpt>
      <trkpt lat="47.62137" lon="6.17188">
        <ele>215.9</ele>
        <time>2021-07-03T09:45:42Z</time>
      </trkpt>
      <trkpt lat="47.62139" lon="6.17181">
        <ele>215.8</ele>
        <time>2021-07-03T09:45:43Z</time>
      </trkpt>
      <trkpt lat="47.62141" lon="6.1717">
        <ele>215.7</ele>
        <time>2021-07-03T09:45:45Z</time>
      </trkpt>
      <trkpt lat="47.62143" lon="6.17163">
        <ele>215.8</ele>
        <time>2021-07-03T09:45:46Z</time>
      </trkpt>
      <trkpt lat="47.62144" lon="6.17156">
        <ele>215.9</ele>
        <time>2021-07-03T09:45:47Z</time>
      </trkpt>
      <trkpt lat="47.62146" lon="6.17142">
        <ele>216.1</ele>
        <time>2021-07-03T09:45:49Z</time>
      </trkpt>
      <trkpt lat="47.62149" lon="6.17123">
        <ele>216.4</ele>
        <time>2021-07-03T09:45:52Z</time>
      </trkpt>
      <trkpt lat="47.62151" lon="6.17116">
        <ele>216.5</ele>
        <time>2021-07-03T09:45:53Z</time>
      </trkpt>
      <trkpt lat="47.62155" lon="6.17099">
        <ele>216.8</ele>
        <time>2021-07-03T09:45:56Z</time>
      </trkpt>
      <trkpt lat="47.62157" lon="6.17082">
        <ele>217</ele>
        <time>2021-07-03T09:45:59Z</time>
      </trkpt>
      <trkpt lat="47.62158" lon="6.17074">
        <ele>217.1</ele>
        <time>2021-07-03T09:46:01Z</time>
      </trkpt>
      <trkpt lat="47.62159" lon="6.17065">
        <ele>217.3</ele>
        <time>2021-07-03T09:46:03Z</time>
      </trkpt>
      <trkpt lat="47.6216" lon="6.17058">
        <ele>217.4</ele>
        <time>2021-07-03T09:46:05Z</time>
      </trkpt>
      <trkpt lat="47.62161" lon="6.17048">
        <ele>217.5</ele>
        <time>2021-07-03T09:46:08Z</time>
      </trkpt>
      <trkpt lat="47.62163" lon="6.17041">
        <ele>217.6</ele>
        <time>2021-07-03T09:46:10Z</time>
      </trkpt>
      <trkpt lat="47.62163" lon="6.17034">
        <ele>217.6</ele>
        <time>2021-07-03T09:46:12Z</time>
      </trkpt>
      <trkpt lat="47.62163" lon="6.17026">
        <ele>217.8</ele>
        <time>2021-07-03T09:46:15Z</time>
      </trkpt>
      <trkpt lat="47.62165" lon="6.17019">
        <ele>217.8</ele>
        <time>2021-07-03T09:46:19Z</time>
      </trkpt>
      <trkpt lat="47.62167" lon="6.17013">
        <ele>217.8</ele>
        <time>2021-07-03T09:46:22Z</time>
      </trkpt>
      <trkpt lat="47.6217" lon="6.17005">
        <ele>217.9</ele>
        <time>2021-07-03T09:46:25Z</time>
      </trkpt>
      <trkpt lat="47.62172" lon="6.16999">
        <ele>218</ele>
        <time>2021-07-03T09:46:27Z</time>
      </trkpt>
      <trkpt lat="47.62175" lon="6.1699">
        <ele>218.1</ele>
        <time>2021-07-03T09:46:30Z</time>
      </trkpt>
      <trkpt lat="47.62179" lon="6.16993">
        <ele>218.1</ele>
        <time>2021-07-03T09:46:34Z</time>
      </trkpt>
      <trkpt lat="47.62184" lon="6.16996">
        <ele>218</ele>
        <time>2021-07-03T09:46:36Z</time>
      </trkpt>
      <trkpt lat="47.62188" lon="6.17">
        <ele>218</ele>
        <time>2021-07-03T09:46:38Z</time>
      </trkpt>
      <trkpt lat="47.62194" lon="6.17006">
        <ele>217.9</ele>
        <time>2021-07-03T09:46:39Z</time>
      </trkpt>
      <trkpt lat="47.62201" lon="6.17011">
        <ele>217.9</ele>
        <time>2021-07-03T09:46:42Z</time>
      </trkpt>
      <trkpt lat="47.62213" lon="6.17021">
        <ele>217.8</ele>
        <time>2021-07-03T09:46:45Z</time>
      </trkpt>
      <trkpt lat="47.62221" lon="6.17029">
        <ele>217.7</ele>
        <time>2021-07-03T09:46:46Z</time>
      </trkpt>
      <trkpt lat="47.62227" lon="6.17035">
        <ele>217.6</ele>
        <time>2021-07-03T09:46:48Z</time>
      </trkpt>
      <trkpt lat="47.62234" lon="6.17042">
        <ele>217.5</ele>
        <time>2021-07-03T09:46:50Z</time>
      </trkpt>
      <trkpt lat="47.62239" lon="6.17047">
        <ele>217.4</ele>
        <time>2021-07-03T09:46:53Z</time>
      </trkpt>
      <trkpt lat="47.62251" lon="6.17055">
        <ele>217.4</ele>
        <time>2021-07-03T09:46:55Z</time>
      </trkpt>
      <trkpt lat="47.62258" lon="6.17059">
        <ele>217.5</ele>
        <time>2021-07-03T09:46:58Z</time>
      </trkpt>
      <trkpt lat="47.62269" lon="6.17064">
        <ele>217.7</ele>
        <time>2021-07-03T09:47:01Z</time>
      </trkpt>
      <trkpt lat="47.62277" lon="6.17068">
        <ele>217.9</ele>
        <time>2021-07-03T09:47:03Z</time>
      </trkpt>
      <trkpt lat="47.62285" lon="6.17072">
        <ele>218</ele>
        <time>2021-07-03T09:47:04Z</time>
      </trkpt>
      <trkpt lat="47.62294" lon="6.17076">
        <ele>218.2</ele>
        <time>2021-07-03T09:47:06Z</time>
      </trkpt>
      <trkpt lat="47.623" lon="6.17079">
        <ele>218.3</ele>
        <time>2021-07-03T09:47:09Z</time>
      </trkpt>
      <trkpt lat="47.62305" lon="6.17081">
        <ele>218.4</ele>
        <time>2021-07-03T09:47:10Z</time>
      </trkpt>
      <trkpt lat="47.62316" lon="6.17087">
        <ele>218.5</ele>
        <time>2021-07-03T09:47:13Z</time>
      </trkpt>
      <trkpt lat="47.62328" lon="6.17092">
        <ele>218.7</ele>
        <time>2021-07-03T09:47:15Z</time>
      </trkpt>
      <trkpt lat="47.62336" lon="6.17095">
        <ele>218.8</ele>
        <time>2021-07-03T09:47:17Z</time>
      </trkpt>
      <trkpt lat="47.62343" lon="6.17098">
        <ele>218.8</ele>
        <time>2021-07-03T09:47:20Z</time>
      </trkpt>
      <trkpt lat="47.62352" lon="6.17101">
        <ele>218.8</ele>
        <time>2021-07-03T09:47:22Z</time>
      </trkpt>
      <trkpt lat="47.62365" lon="6.17104">
        <ele>219</ele>
        <time>2021-07-03T09:47:25Z</time>
      </trkpt>
      <trkpt lat="47.62375" lon="6.17108">
        <ele>219.1</ele>
        <time>2021-07-03T09:47:26Z</time>
      </trkpt>
      <trkpt lat="47.62383" lon="6.1711">
        <ele>219.2</ele>
        <time>2021-07-03T09:47:28Z</time>
      </trkpt>
      <trkpt lat="47.62391" lon="6.17113">
        <ele>219.2</ele>
        <time>2021-07-03T09:47:30Z</time>
      </trkpt>
      <trkpt lat="47.62399" lon="6.17115">
        <ele>219.3</ele>
        <time>2021-07-03T09:47:32Z</time>
      </trkpt>
      <trkpt lat="47.62404" lon="6.17115">
        <ele>219.4</ele>
        <time>2021-07-03T09:47:33Z</time>
      </trkpt>
      <trkpt lat="47.62409" lon="6.17117">
        <ele>219.5</ele>
        <time>2021-07-03T09:47:34Z</time>
      </trkpt>
      <trkpt lat="47.62416" lon="6.17119">
        <ele>219.6</ele>
        <time>2021-07-03T09:47:36Z</time>
      </trkpt>
      <trkpt lat="47.62424" lon="6.17121">
        <ele>219.7</ele>
        <time>2021-07-03T09:47:38Z</time>
      </trkpt>
      <trkpt lat="47.62432" lon="6.17123">
        <ele>219.9</ele>
        <time>2021-07-03T09:47:40Z</time>
      </trkpt>
      <trkpt lat="47.6244" lon="6.17126">
        <ele>220.1</ele>
        <time>2021-07-03T09:47:42Z</time>
      </trkpt>
      <trkpt lat="47.62448" lon="6.17129">
        <ele>220.2</ele>
        <time>2021-07-03T09:47:44Z</time>
      </trkpt>
      <trkpt lat="47.62455" lon="6.17132">
        <ele>220.3</ele>
        <time>2021-07-03T09:47:46Z</time>
      </trkpt>
      <trkpt lat="47.62463" lon="6.17134">
        <ele>220.5</ele>
        <time>2021-07-03T09:47:48Z</time>
      </trkpt>
      <trkpt lat="47.62469" lon="6.17135">
        <ele>220.6</ele>
        <time>2021-07-03T09:47:51Z</time>
      </trkpt>
      <trkpt lat="47.6248" lon="6.17139">
        <ele>220.8</ele>
        <time>2021-07-03T09:47:54Z</time>
      </trkpt>
      <trkpt lat="47.6249" lon="6.17143">
        <ele>221</ele>
        <time>2021-07-03T09:47:57Z</time>
      </trkpt>
      <trkpt lat="47.62502" lon="6.17147">
        <ele>221.2</ele>
        <time>2021-07-03T09:47:59Z</time>
      </trkpt>
      <trkpt lat="47.62509" lon="6.17148">
        <ele>221</ele>
        <time>2021-07-03T09:48:01Z</time>
      </trkpt>
      <trkpt lat="47.62515" lon="6.17151">
        <ele>220.8</ele>
        <time>2021-07-03T09:48:04Z</time>
      </trkpt>
      <trkpt lat="47.62526" lon="6.17155">
        <ele>220.5</ele>
        <time>2021-07-03T09:48:06Z</time>
      </trkpt>
      <trkpt lat="47.62533" lon="6.17157">
        <ele>220.3</ele>
        <time>2021-07-03T09:48:08Z</time>
      </trkpt>
      <trkpt lat="47.62539" lon="6.17159">
        <ele>220.1</ele>
        <time>2021-07-03T09:48:11Z</time>
      </trkpt>
      <trkpt lat="47.62549" lon="6.17162">
        <ele>219.8</ele>
        <time>2021-07-03T09:48:14Z</time>
      </trkpt>
      <trkpt lat="47.62559" lon="6.17164">
        <ele>219.6</ele>
        <time>2021-07-03T09:48:15Z</time>
      </trkpt>
      <trkpt lat="47.62566" lon="6.17167">
        <ele>219.4</ele>
        <time>2021-07-03T09:48:17Z</time>
      </trkpt>
      <trkpt lat="47.62575" lon="6.17169">
        <ele>219.2</ele>
        <time>2021-07-03T09:48:19Z</time>
      </trkpt>
      <trkpt lat="47.62581" lon="6.17171">
        <ele>219</ele>
        <time>2021-07-03T09:48:22Z</time>
      </trkpt>
      <trkpt lat="47.62594" lon="6.17176">
        <ele>218.9</ele>
        <time>2021-07-03T09:48:24Z</time>
      </trkpt>
      <trkpt lat="47.62601" lon="6.17179">
        <ele>218.9</ele>
        <time>2021-07-03T09:48:26Z</time>
      </trkpt>
      <trkpt lat="47.62609" lon="6.17182">
        <ele>218.8</ele>
        <time>2021-07-03T09:48:28Z</time>
      </trkpt>
      <trkpt lat="47.62616" lon="6.17184">
        <ele>218.8</ele>
        <time>2021-07-03T09:48:30Z</time>
      </trkpt>
      <trkpt lat="47.62624" lon="6.17187">
        <ele>218.8</ele>
        <time>2021-07-03T09:48:32Z</time>
      </trkpt>
      <trkpt lat="47.62631" lon="6.17189">
        <ele>218.7</ele>
        <time>2021-07-03T09:48:34Z</time>
      </trkpt>
      <trkpt lat="47.62637" lon="6.17191">
        <ele>218.7</ele>
        <time>2021-07-03T09:48:37Z</time>
      </trkpt>
      <trkpt lat="47.62644" lon="6.17193">
        <ele>218.7</ele>
        <time>2021-07-03T09:48:38Z</time>
      </trkpt>
      <trkpt lat="47.6265" lon="6.17195">
        <ele>218.7</ele>
        <time>2021-07-03T09:48:40Z</time>
      </trkpt>
      <trkpt lat="47.62656" lon="6.17197">
        <ele>218.6</ele>
        <time>2021-07-03T09:48:42Z</time>
      </trkpt>
      <trkpt lat="47.62663" lon="6.17199">
        <ele>218.6</ele>
        <time>2021-07-03T09:48:44Z</time>
      </trkpt>
      <trkpt lat="47.62669" lon="6.172">
        <ele>218.6</ele>
        <time>2021-07-03T09:48:46Z</time>
      </trkpt>
      <trkpt lat="47.62676" lon="6.17202">
        <ele>218.7</ele>
        <time>2021-07-03T09:48:48Z</time>
      </trkpt>
      <trkpt lat="47.62683" lon="6.17204">
        <ele>218.7</ele>
        <time>2021-07-03T09:48:50Z</time>
      </trkpt>
      <trkpt lat="47.6269" lon="6.17206">
        <ele>218.8</ele>
        <time>2021-07-03T09:48:52Z</time>
      </trkpt>
      <trkpt lat="47.62697" lon="6.17208">
        <ele>218.9</ele>
        <time>2021-07-03T09:48:54Z</time>
      </trkpt>
      <trkpt lat="47.62704" lon="6.17211">
        <ele>218.9</ele>
        <time>2021-07-03T09:48:57Z</time>
      </trkpt>
      <trkpt lat="47.62712" lon="6.17214">
        <ele>219</ele>
        <time>2021-07-03T09:48:58Z</time>
      </trkpt>
      <trkpt lat="47.62719" lon="6.17217">
        <ele>219.1</ele>
        <time>2021-07-03T09:49:01Z</time>
      </trkpt>
      <trkpt lat="47.62727" lon="6.1722">
        <ele>219.3</ele>
        <time>2021-07-03T09:49:02Z</time>
      </trkpt>
      <trkpt lat="47.62734" lon="6.17222">
        <ele>219.4</ele>
        <time>2021-07-03T09:49:05Z</time>
      </trkpt>
      <trkpt lat="47.62742" lon="6.17224">
        <ele>219.5</ele>
        <time>2021-07-03T09:49:06Z</time>
      </trkpt>
      <trkpt lat="47.62748" lon="6.17226">
        <ele>219.7</ele>
        <time>2021-07-03T09:49:09Z</time>
      </trkpt>
      <trkpt lat="47.6276" lon="6.17229">
        <ele>219.9</ele>
        <time>2021-07-03T09:49:12Z</time>
      </trkpt>
      <trkpt lat="47.62777" lon="6.17235">
        <ele>220.3</ele>
        <time>2021-07-03T09:49:15Z</time>
      </trkpt>
      <trkpt lat="47.62785" lon="6.17236">
        <ele>220.4</ele>
        <time>2021-07-03T09:49:17Z</time>
      </trkpt>
      <trkpt lat="47.62794" lon="6.17237">
        <ele>220.5</ele>
        <time>2021-07-03T09:49:19Z</time>
      </trkpt>
      <trkpt lat="47.62801" lon="6.1724">
        <ele>220.6</ele>
        <time>2021-07-03T09:49:21Z</time>
      </trkpt>
      <trkpt lat="47.62809" lon="6.17242">
        <ele>220.7</ele>
        <time>2021-07-03T09:49:23Z</time>
      </trkpt>
      <trkpt lat="47.62817" lon="6.17244">
        <ele>220.8</ele>
        <time>2021-07-03T09:49:25Z</time>
      </trkpt>
      <trkpt lat="47.62823" lon="6.17247">
        <ele>220.9</ele>
        <time>2021-07-03T09:49:28Z</time>
      </trkpt>
      <trkpt lat="47.62834" lon="6.17251">
        <ele>221</ele>
        <time>2021-07-03T09:49:31Z</time>
      </trkpt>
      <trkpt lat="47.62839" lon="6.17252">
        <ele>220.9</ele>
        <time>2021-07-03T09:49:32Z</time>
      </trkpt>
      <trkpt lat="47.62845" lon="6.17254">
        <ele>220.9</ele>
        <time>2021-07-03T09:49:34Z</time>
      </trkpt>
      <trkpt lat="47.62857" lon="6.17256">
        <ele>220.7</ele>
        <time>2021-07-03T09:49:36Z</time>
      </trkpt>
      <trkpt lat="47.62864" lon="6.17258">
        <ele>220.6</ele>
        <time>2021-07-03T09:49:38Z</time>
      </trkpt>
      <trkpt lat="47.6287" lon="6.1726">
        <ele>220.6</ele>
        <time>2021-07-03T09:49:40Z</time>
      </trkpt>
      <trkpt lat="47.62877" lon="6.17262">
        <ele>220.5</ele>
        <time>2021-07-03T09:49:42Z</time>
      </trkpt>
      <trkpt lat="47.62881" lon="6.17263">
        <ele>220.4</ele>
        <time>2021-07-03T09:49:45Z</time>
      </trkpt>
      <trkpt lat="47.62892" lon="6.17264">
        <ele>220.3</ele>
        <time>2021-07-03T09:49:47Z</time>
      </trkpt>
      <trkpt lat="47.62899" lon="6.17263">
        <ele>220.2</ele>
        <time>2021-07-03T09:49:49Z</time>
      </trkpt>
      <trkpt lat="47.62905" lon="6.17263">
        <ele>220.1</ele>
        <time>2021-07-03T09:49:52Z</time>
      </trkpt>
      <trkpt lat="47.62911" lon="6.17263">
        <ele>220.1</ele>
        <time>2021-07-03T09:49:53Z</time>
      </trkpt>
      <trkpt lat="47.62916" lon="6.17263">
        <ele>220</ele>
        <time>2021-07-03T09:49:56Z</time>
      </trkpt>
      <trkpt lat="47.62923" lon="6.1726">
        <ele>219.9</ele>
        <time>2021-07-03T09:49:57Z</time>
      </trkpt>
      <trkpt lat="47.62928" lon="6.1726">
        <ele>219.7</ele>
        <time>2021-07-03T09:50:00Z</time>
      </trkpt>
      <trkpt lat="47.62933" lon="6.17265">
        <ele>219.6</ele>
        <time>2021-07-03T09:50:02Z</time>
      </trkpt>
      <trkpt lat="47.62934" lon="6.17272">
        <ele>219.6</ele>
        <time>2021-07-03T09:50:04Z</time>
      </trkpt>
      <trkpt lat="47.62937" lon="6.1728">
        <ele>219.5</ele>
        <time>2021-07-03T09:50:06Z</time>
      </trkpt>
      <trkpt lat="47.62942" lon="6.17284">
        <ele>219.4</ele>
        <time>2021-07-03T09:50:09Z</time>
      </trkpt>
      <trkpt lat="47.62947" lon="6.17289">
        <ele>219.3</ele>
        <time>2021-07-03T09:50:11Z</time>
      </trkpt>
      <trkpt lat="47.62952" lon="6.17294">
        <ele>219.1</ele>
        <time>2021-07-03T09:50:14Z</time>
      </trkpt>
      <trkpt lat="47.62958" lon="6.17301">
        <ele>219</ele>
        <time>2021-07-03T09:50:16Z</time>
      </trkpt>
      <trkpt lat="47.62965" lon="6.17306">
        <ele>218.8</ele>
        <time>2021-07-03T09:50:17Z</time>
      </trkpt>
      <trkpt lat="47.62971" lon="6.1731">
        <ele>218.7</ele>
        <time>2021-07-03T09:50:20Z</time>
      </trkpt>
      <trkpt lat="47.62984" lon="6.17317">
        <ele>218.4</ele>
        <time>2021-07-03T09:50:22Z</time>
      </trkpt>
      <trkpt lat="47.62989" lon="6.1732">
        <ele>218.3</ele>
        <time>2021-07-03T09:50:24Z</time>
      </trkpt>
      <trkpt lat="47.62997" lon="6.17323">
        <ele>218.1</ele>
        <time>2021-07-03T09:50:26Z</time>
      </trkpt>
      <trkpt lat="47.63003" lon="6.17327">
        <ele>218</ele>
        <time>2021-07-03T09:50:27Z</time>
      </trkpt>
      <trkpt lat="47.63008" lon="6.1733">
        <ele>218</ele>
        <time>2021-07-03T09:50:30Z</time>
      </trkpt>
      <trkpt lat="47.63015" lon="6.17332">
        <ele>218</ele>
        <time>2021-07-03T09:50:32Z</time>
      </trkpt>
      <trkpt lat="47.6302" lon="6.17334">
        <ele>218</ele>
        <time>2021-07-03T09:50:35Z</time>
      </trkpt>
      <trkpt lat="47.63025" lon="6.17335">
        <ele>218</ele>
        <time>2021-07-03T09:50:37Z</time>
      </trkpt>
      <trkpt lat="47.63031" lon="6.17337">
        <ele>218</ele>
        <time>2021-07-03T09:50:39Z</time>
      </trkpt>
      <trkpt lat="47.63037" lon="6.17339">
        <ele>218</ele>
        <time>2021-07-03T09:50:41Z</time>
      </trkpt>
      <trkpt lat="47.63043" lon="6.17342">
        <ele>218.1</ele>
        <time>2021-07-03T09:50:43Z</time>
      </trkpt>
      <trkpt lat="47.6305" lon="6.17345">
        <ele>218.1</ele>
        <time>2021-07-03T09:50:45Z</time>
      </trkpt>
      <trkpt lat="47.63057" lon="6.17348">
        <ele>218.1</ele>
        <time>2021-07-03T09:50:46Z</time>
      </trkpt>
      <trkpt lat="47.63062" lon="6.1735">
        <ele>218.1</ele>
        <time>2021-07-03T09:50:49Z</time>
      </trkpt>
      <trkpt lat="47.63073" lon="6.17354">
        <ele>218.2</ele>
        <time>2021-07-03T09:50:52Z</time>
      </trkpt>
      <trkpt lat="47.6308" lon="6.17357">
        <ele>218.3</ele>
        <time>2021-07-03T09:50:54Z</time>
      </trkpt>
      <trkpt lat="47.63087" lon="6.1736">
        <ele>218.3</ele>
        <time>2021-07-03T09:50:55Z</time>
      </trkpt>
      <trkpt lat="47.63092" lon="6.17361">
        <ele>218.3</ele>
        <time>2021-07-03T09:50:57Z</time>
      </trkpt>
      <trkpt lat="47.63099" lon="6.17363">
        <ele>218.3</ele>
        <time>2021-07-03T09:51:00Z</time>
      </trkpt>
      <trkpt lat="47.63104" lon="6.17364">
        <ele>218.3</ele>
        <time>2021-07-03T09:51:02Z</time>
      </trkpt>
      <trkpt lat="47.63109" lon="6.17365">
        <ele>218.3</ele>
        <time>2021-07-03T09:51:03Z</time>
      </trkpt>
      <trkpt lat="47.63113" lon="6.17367">
        <ele>218.3</ele>
        <time>2021-07-03T09:51:04Z</time>
      </trkpt>
      <trkpt lat="47.63119" lon="6.1737">
        <ele>218.4</ele>
        <time>2021-07-03T09:51:06Z</time>
      </trkpt>
      <trkpt lat="47.63124" lon="6.17371">
        <ele>218.4</ele>
        <time>2021-07-03T09:51:07Z</time>
      </trkpt>
      <trkpt lat="47.63139" lon="6.17376">
        <ele>218.5</ele>
        <time>2021-07-03T09:51:10Z</time>
      </trkpt>
      <trkpt lat="47.63145" lon="6.17378">
        <ele>218.6</ele>
        <time>2021-07-03T09:51:12Z</time>
      </trkpt>
      <trkpt lat="47.63154" lon="6.17382">
        <ele>218.7</ele>
        <time>2021-07-03T09:51:14Z</time>
      </trkpt>
      <trkpt lat="47.6316" lon="6.17384">
        <ele>218.8</ele>
        <time>2021-07-03T09:51:16Z</time>
      </trkpt>
      <trkpt lat="47.63166" lon="6.17387">
        <ele>218.9</ele>
        <time>2021-07-03T09:51:18Z</time>
      </trkpt>
      <trkpt lat="47.63177" lon="6.17392">
        <ele>218.9</ele>
        <time>2021-07-03T09:51:21Z</time>
      </trkpt>
      <trkpt lat="47.63183" lon="6.17395">
        <ele>218.9</ele>
        <time>2021-07-03T09:51:22Z</time>
      </trkpt>
      <trkpt lat="47.63188" lon="6.17397">
        <ele>218.9</ele>
        <time>2021-07-03T09:51:25Z</time>
      </trkpt>
      <trkpt lat="47.63195" lon="6.17401">
        <ele>218.9</ele>
        <time>2021-07-03T09:51:26Z</time>
      </trkpt>
      <trkpt lat="47.632" lon="6.17403">
        <ele>218.9</ele>
        <time>2021-07-03T09:51:29Z</time>
      </trkpt>
      <trkpt lat="47.63205" lon="6.17407">
        <ele>218.8</ele>
        <time>2021-07-03T09:51:31Z</time>
      </trkpt>
      <trkpt lat="47.6321" lon="6.17411">
        <ele>218.8</ele>
        <time>2021-07-03T09:51:33Z</time>
      </trkpt>
      <trkpt lat="47.63215" lon="6.17414">
        <ele>218.8</ele>
        <time>2021-07-03T09:51:35Z</time>
      </trkpt>
      <trkpt lat="47.63221" lon="6.17417">
        <ele>218.7</ele>
        <time>2021-07-03T09:51:38Z</time>
      </trkpt>
      <trkpt lat="47.63226" lon="6.1742">
        <ele>218.9</ele>
        <time>2021-07-03T09:51:39Z</time>
      </trkpt>
      <trkpt lat="47.6323" lon="6.17424">
        <ele>219.1</ele>
        <time>2021-07-03T09:51:43Z</time>
      </trkpt>
      <trkpt lat="47.63235" lon="6.17426">
        <ele>219.3</ele>
        <time>2021-07-03T09:51:45Z</time>
      </trkpt>
      <trkpt lat="47.63239" lon="6.17429">
        <ele>219.5</ele>
        <time>2021-07-03T09:51:47Z</time>
      </trkpt>
      <trkpt lat="47.63244" lon="6.17432">
        <ele>219.7</ele>
        <time>2021-07-03T09:51:49Z</time>
      </trkpt>
      <trkpt lat="47.63248" lon="6.17434">
        <ele>219.9</ele>
        <time>2021-07-03T09:51:52Z</time>
      </trkpt>
      <trkpt lat="47.63253" lon="6.17436">
        <ele>220.2</ele>
        <time>2021-07-03T09:51:55Z</time>
      </trkpt>
      <trkpt lat="47.63258" lon="6.17439">
        <ele>220.6</ele>
        <time>2021-07-03T09:51:57Z</time>
      </trkpt>
      <trkpt lat="47.63262" lon="6.17442">
        <ele>221</ele>
        <time>2021-07-03T09:51:59Z</time>
      </trkpt>
      <trkpt lat="47.63267" lon="6.17446">
        <ele>221.4</ele>
        <time>2021-07-03T09:52:03Z</time>
      </trkpt>
      <trkpt lat="47.63272" lon="6.17448">
        <ele>221.7</ele>
        <time>2021-07-03T09:52:05Z</time>
      </trkpt>
      <trkpt lat="47.63277" lon="6.17451">
        <ele>222.1</ele>
        <time>2021-07-03T09:52:07Z</time>
      </trkpt>
      <trkpt lat="47.63282" lon="6.17453">
        <ele>222.4</ele>
        <time>2021-07-03T09:52:11Z</time>
      </trkpt>
      <trkpt lat="47.63287" lon="6.17455">
        <ele>222.6</ele>
        <time>2021-07-03T09:52:12Z</time>
      </trkpt>
      <trkpt lat="47.63292" lon="6.17458">
        <ele>223</ele>
        <time>2021-07-03T09:52:15Z</time>
      </trkpt>
      <trkpt lat="47.63297" lon="6.17461">
        <ele>223.4</ele>
        <time>2021-07-03T09:52:17Z</time>
      </trkpt>
      <trkpt lat="47.63302" lon="6.17465">
        <ele>223.8</ele>
        <time>2021-07-03T09:52:21Z</time>
      </trkpt>
      <trkpt lat="47.63308" lon="6.17467">
        <ele>224</ele>
        <time>2021-07-03T09:52:23Z</time>
      </trkpt>
      <trkpt lat="47.63312" lon="6.1747">
        <ele>224.3</ele>
        <time>2021-07-03T09:52:24Z</time>
      </trkpt>
      <trkpt lat="47.63318" lon="6.17473">
        <ele>224.6</ele>
        <time>2021-07-03T09:52:27Z</time>
      </trkpt>
      <trkpt lat="47.63323" lon="6.17476">
        <ele>224.9</ele>
        <time>2021-07-03T09:52:31Z</time>
      </trkpt>
      <trkpt lat="47.63328" lon="6.17479">
        <ele>225.2</ele>
        <time>2021-07-03T09:52:32Z</time>
      </trkpt>
      <trkpt lat="47.63332" lon="6.17483">
        <ele>225.6</ele>
        <time>2021-07-03T09:52:36Z</time>
      </trkpt>
      <trkpt lat="47.63337" lon="6.17485">
        <ele>225.5</ele>
        <time>2021-07-03T09:52:38Z</time>
      </trkpt>
      <trkpt lat="47.63341" lon="6.17488">
        <ele>225.5</ele>
        <time>2021-07-03T09:52:40Z</time>
      </trkpt>
      <trkpt lat="47.63347" lon="6.17491">
        <ele>225.5</ele>
        <time>2021-07-03T09:52:43Z</time>
      </trkpt>
      <trkpt lat="47.63352" lon="6.17495">
        <ele>225.5</ele>
        <time>2021-07-03T09:52:45Z</time>
      </trkpt>
      <trkpt lat="47.63357" lon="6.17498">
        <ele>225.4</ele>
        <time>2021-07-03T09:52:48Z</time>
      </trkpt>
      <trkpt lat="47.63362" lon="6.17501">
        <ele>225.4</ele>
        <time>2021-07-03T09:52:50Z</time>
      </trkpt>
      <trkpt lat="47.63367" lon="6.17504">
        <ele>225.3</ele>
        <time>2021-07-03T09:52:51Z</time>
      </trkpt>
      <trkpt lat="47.63371" lon="6.17506">
        <ele>225.3</ele>
        <time>2021-07-03T09:52:53Z</time>
      </trkpt>
      <trkpt lat="47.63376" lon="6.17509">
        <ele>225.3</ele>
        <time>2021-07-03T09:52:55Z</time>
      </trkpt>
      <trkpt lat="47.63381" lon="6.17513">
        <ele>225.3</ele>
        <time>2021-07-03T09:52:59Z</time>
      </trkpt>
      <trkpt lat="47.63387" lon="6.17518">
        <ele>225.4</ele>
        <time>2021-07-03T09:53:02Z</time>
      </trkpt>
      <trkpt lat="47.63394" lon="6.17522">
        <ele>225.4</ele>
        <time>2021-07-03T09:53:04Z</time>
      </trkpt>
      <trkpt lat="47.634" lon="6.17526">
        <ele>225.4</ele>
        <time>2021-07-03T09:53:08Z</time>
      </trkpt>
      <trkpt lat="47.63406" lon="6.17529">
        <ele>225.4</ele>
        <time>2021-07-03T09:53:09Z</time>
      </trkpt>
      <trkpt lat="47.63411" lon="6.17533">
        <ele>225.5</ele>
        <time>2021-07-03T09:53:12Z</time>
      </trkpt>
      <trkpt lat="47.63415" lon="6.17536">
        <ele>225.5</ele>
        <time>2021-07-03T09:53:15Z</time>
      </trkpt>
      <trkpt lat="47.6342" lon="6.17539">
        <ele>225.6</ele>
        <time>2021-07-03T09:53:17Z</time>
      </trkpt>
      <trkpt lat="47.63426" lon="6.17543">
        <ele>225.7</ele>
        <time>2021-07-03T09:53:19Z</time>
      </trkpt>
      <trkpt lat="47.6343" lon="6.17547">
        <ele>225.8</ele>
        <time>2021-07-03T09:53:21Z</time>
      </trkpt>
      <trkpt lat="47.63435" lon="6.17551">
        <ele>225.9</ele>
        <time>2021-07-03T09:53:22Z</time>
      </trkpt>
      <trkpt lat="47.6344" lon="6.17555">
        <ele>226</ele>
        <time>2021-07-03T09:53:26Z</time>
      </trkpt>
      <trkpt lat="47.63445" lon="6.17559">
        <ele>226</ele>
        <time>2021-07-03T09:53:28Z</time>
      </trkpt>
      <trkpt lat="47.63449" lon="6.17562">
        <ele>226</ele>
        <time>2021-07-03T09:53:30Z</time>
      </trkpt>
      <trkpt lat="47.63453" lon="6.17565">
        <ele>226</ele>
        <time>2021-07-03T09:53:32Z</time>
      </trkpt>
      <trkpt lat="47.63458" lon="6.17569">
        <ele>226</ele>
        <time>2021-07-03T09:53:33Z</time>
      </trkpt>
      <trkpt lat="47.63462" lon="6.17573">
        <ele>226</ele>
        <time>2021-07-03T09:53:36Z</time>
      </trkpt>
      <trkpt lat="47.63467" lon="6.17578">
        <ele>226</ele>
        <time>2021-07-03T09:53:39Z</time>
      </trkpt>
      <trkpt lat="47.63472" lon="6.17582">
        <ele>225.9</ele>
        <time>2021-07-03T09:53:41Z</time>
      </trkpt>
      <trkpt lat="47.63477" lon="6.17585">
        <ele>225.8</ele>
        <time>2021-07-03T09:53:43Z</time>
      </trkpt>
      <trkpt lat="47.63481" lon="6.17589">
        <ele>225.8</ele>
        <time>2021-07-03T09:53:45Z</time>
      </trkpt>
      <trkpt lat="47.63485" lon="6.17593">
        <ele>225.9</ele>
        <time>2021-07-03T09:53:47Z</time>
      </trkpt>
      <trkpt lat="47.63492" lon="6.17598">
        <ele>225.9</ele>
        <time>2021-07-03T09:53:47Z</time>
      </trkpt>
      <trkpt lat="47.63497" lon="6.17602">
        <ele>225.8</ele>
        <time>2021-07-03T09:53:51Z</time>
      </trkpt>
      <trkpt lat="47.63502" lon="6.17606">
        <ele>225.9</ele>
        <time>2021-07-03T09:53:52Z</time>
      </trkpt>
      <trkpt lat="47.63509" lon="6.17612">
        <ele>226</ele>
        <time>2021-07-03T09:53:53Z</time>
      </trkpt>
      <trkpt lat="47.63514" lon="6.17616">
        <ele>226.1</ele>
        <time>2021-07-03T09:53:57Z</time>
      </trkpt>
      <trkpt lat="47.63519" lon="6.17621">
        <ele>226.2</ele>
        <time>2021-07-03T09:53:57Z</time>
      </trkpt>
      <trkpt lat="47.63523" lon="6.17626">
        <ele>226.3</ele>
        <time>2021-07-03T09:54:01Z</time>
      </trkpt>
      <trkpt lat="47.63528" lon="6.1763">
        <ele>226.3</ele>
        <time>2021-07-03T09:54:03Z</time>
      </trkpt>
      <trkpt lat="47.63534" lon="6.17636">
        <ele>226.4</ele>
        <time>2021-07-03T09:54:05Z</time>
      </trkpt>
      <trkpt lat="47.63539" lon="6.17642">
        <ele>226.3</ele>
        <time>2021-07-03T09:54:07Z</time>
      </trkpt>
      <trkpt lat="47.63545" lon="6.17647">
        <ele>226.2</ele>
        <time>2021-07-03T09:54:09Z</time>
      </trkpt>
      <trkpt lat="47.6355" lon="6.17652">
        <ele>226.1</ele>
        <time>2021-07-03T09:54:10Z</time>
      </trkpt>
      <trkpt lat="47.63555" lon="6.17657">
        <ele>225.9</ele>
        <time>2021-07-03T09:54:10Z</time>
      </trkpt>
      <trkpt lat="47.63562" lon="6.17663">
        <ele>225.7</ele>
        <time>2021-07-03T09:54:14Z</time>
      </trkpt>
      <trkpt lat="47.63571" lon="6.17672">
        <ele>225.4</ele>
        <time>2021-07-03T09:54:17Z</time>
      </trkpt>
      <trkpt lat="47.63575" lon="6.17676">
        <ele>225.3</ele>
        <time>2021-07-03T09:54:18Z</time>
      </trkpt>
      <trkpt lat="47.6358" lon="6.17681">
        <ele>225.1</ele>
        <time>2021-07-03T09:54:20Z</time>
      </trkpt>
      <trkpt lat="47.63584" lon="6.17685">
        <ele>225.1</ele>
        <time>2021-07-03T09:54:21Z</time>
      </trkpt>
      <trkpt lat="47.63588" lon="6.17689">
        <ele>225.1</ele>
        <time>2021-07-03T09:54:22Z</time>
      </trkpt>
      <trkpt lat="47.63593" lon="6.17694">
        <ele>225</ele>
        <time>2021-07-03T09:54:24Z</time>
      </trkpt>
      <trkpt lat="47.63597" lon="6.17698">
        <ele>225</ele>
        <time>2021-07-03T09:54:26Z</time>
      </trkpt>
      <trkpt lat="47.63602" lon="6.17703">
        <ele>224.9</ele>
        <time>2021-07-03T09:54:28Z</time>
      </trkpt>
      <trkpt lat="47.63606" lon="6.17708">
        <ele>224.8</ele>
        <time>2021-07-03T09:54:30Z</time>
      </trkpt>
      <trkpt lat="47.63612" lon="6.17711">
        <ele>224.6</ele>
        <time>2021-07-03T09:54:32Z</time>
      </trkpt>
      <trkpt lat="47.63616" lon="6.17715">
        <ele>224.4</ele>
        <time>2021-07-03T09:54:34Z</time>
      </trkpt>
      <trkpt lat="47.63619" lon="6.17719">
        <ele>224.3</ele>
        <time>2021-07-03T09:54:36Z</time>
      </trkpt>
      <trkpt lat="47.63624" lon="6.17723">
        <ele>224.1</ele>
        <time>2021-07-03T09:54:36Z</time>
      </trkpt>
      <trkpt lat="47.63627" lon="6.17728">
        <ele>224</ele>
        <time>2021-07-03T09:54:40Z</time>
      </trkpt>
      <trkpt lat="47.63633" lon="6.17733">
        <ele>223.7</ele>
        <time>2021-07-03T09:54:43Z</time>
      </trkpt>
      <trkpt lat="47.63636" lon="6.17737">
        <ele>223.6</ele>
        <time>2021-07-03T09:54:45Z</time>
      </trkpt>
      <trkpt lat="47.63641" lon="6.17742">
        <ele>223.3</ele>
        <time>2021-07-03T09:54:45Z</time>
      </trkpt>
      <trkpt lat="47.63644" lon="6.17747">
        <ele>223.1</ele>
        <time>2021-07-03T09:54:47Z</time>
      </trkpt>
      <trkpt lat="47.63648" lon="6.17751">
        <ele>222.8</ele>
        <time>2021-07-03T09:54:51Z</time>
      </trkpt>
      <trkpt lat="47.63654" lon="6.17756">
        <ele>222.7</ele>
        <time>2021-07-03T09:54:54Z</time>
      </trkpt>
      <trkpt lat="47.63658" lon="6.17761">
        <ele>222.5</ele>
        <time>2021-07-03T09:54:54Z</time>
      </trkpt>
      <trkpt lat="47.63663" lon="6.17766">
        <ele>222.3</ele>
        <time>2021-07-03T09:54:59Z</time>
      </trkpt>
      <trkpt lat="47.63668" lon="6.17771">
        <ele>222.2</ele>
        <time>2021-07-03T09:55:02Z</time>
      </trkpt>
      <trkpt lat="47.63673" lon="6.17775">
        <ele>222.4</ele>
        <time>2021-07-03T09:55:05Z</time>
      </trkpt>
      <trkpt lat="47.63679" lon="6.1778">
        <ele>222.5</ele>
        <time>2021-07-03T09:55:08Z</time>
      </trkpt>
      <trkpt lat="47.63684" lon="6.17785">
        <ele>222.7</ele>
        <time>2021-07-03T09:55:11Z</time>
      </trkpt>
      <trkpt lat="47.63688" lon="6.17789">
        <ele>222.8</ele>
        <time>2021-07-03T09:55:11Z</time>
      </trkpt>
      <trkpt lat="47.63693" lon="6.17795">
        <ele>223.1</ele>
        <time>2021-07-03T09:55:16Z</time>
      </trkpt>
      <trkpt lat="47.63698" lon="6.178">
        <ele>223.2</ele>
        <time>2021-07-03T09:55:19Z</time>
      </trkpt>
      <trkpt lat="47.63703" lon="6.17806">
        <ele>223.3</ele>
        <time>2021-07-03T09:55:22Z</time>
      </trkpt>
      <trkpt lat="47.63706" lon="6.17809">
        <ele>223.4</ele>
        <time>2021-07-03T09:55:24Z</time>
      </trkpt>
      <trkpt lat="47.6371" lon="6.17813">
        <ele>223.5</ele>
        <time>2021-07-03T09:55:24Z</time>
      </trkpt>
      <trkpt lat="47.63725" lon="6.1783">
        <ele>223.7</ele>
        <time>2021-07-03T09:55:32Z</time>
      </trkpt>
      <trkpt lat="47.6373" lon="6.17835">
        <ele>223.8</ele>
        <time>2021-07-03T09:55:35Z</time>
      </trkpt>
      <trkpt lat="47.63734" lon="6.17839">
        <ele>224</ele>
        <time>2021-07-03T09:55:37Z</time>
      </trkpt>
      <trkpt lat="47.63738" lon="6.17844">
        <ele>224.2</ele>
        <time>2021-07-03T09:55:39Z</time>
      </trkpt>
      <trkpt lat="47.6374" lon="6.17849">
        <ele>224.4</ele>
        <time>2021-07-03T09:55:41Z</time>
      </trkpt>
      <trkpt lat="47.63746" lon="6.17855">
        <ele>224.5</ele>
        <time>2021-07-03T09:55:46Z</time>
      </trkpt>
      <trkpt lat="47.6375" lon="6.17859">
        <ele>224.5</ele>
        <time>2021-07-03T09:55:48Z</time>
      </trkpt>
      <trkpt lat="47.63754" lon="6.17863">
        <ele>224.6</ele>
        <time>2021-07-03T09:55:48Z</time>
      </trkpt>
      <trkpt lat="47.63758" lon="6.17867">
        <ele>224.6</ele>
        <time>2021-07-03T09:55:50Z</time>
      </trkpt>
      <trkpt lat="47.63762" lon="6.17873">
        <ele>224.7</ele>
        <time>2021-07-03T09:55:55Z</time>
      </trkpt>
      <trkpt lat="47.63766" lon="6.17878">
        <ele>224.8</ele>
        <time>2021-07-03T09:55:55Z</time>
      </trkpt>
      <trkpt lat="47.6377" lon="6.17883">
        <ele>224.9</ele>
        <time>2021-07-03T09:55:59Z</time>
      </trkpt>
      <trkpt lat="47.63774" lon="6.17889">
        <ele>224.9</ele>
        <time>2021-07-03T09:56:02Z</time>
      </trkpt>
      <trkpt lat="47.63779" lon="6.17896">
        <ele>224.9</ele>
        <time>2021-07-03T09:56:05Z</time>
      </trkpt>
      <trkpt lat="47.63783" lon="6.17902">
        <ele>224.9</ele>
        <time>2021-07-03T09:56:07Z</time>
      </trkpt>
      <trkpt lat="47.63787" lon="6.17907">
        <ele>224.9</ele>
        <time>2021-07-03T09:56:07Z</time>
      </trkpt>
      <trkpt lat="47.63792" lon="6.17912">
        <ele>224.8</ele>
        <time>2021-07-03T09:56:12Z</time>
      </trkpt>
      <trkpt lat="47.63795" lon="6.17917">
        <ele>224.7</ele>
        <time>2021-07-03T09:56:14Z</time>
      </trkpt>
      <trkpt lat="47.638" lon="6.17923">
        <ele>224.9</ele>
        <time>2021-07-03T09:56:15Z</time>
      </trkpt>
      <trkpt lat="47.63804" lon="6.17928">
        <ele>224.9</ele>
        <time>2021-07-03T09:56:20Z</time>
      </trkpt>
      <trkpt lat="47.63809" lon="6.17935">
        <ele>224.9</ele>
        <time>2021-07-03T09:56:21Z</time>
      </trkpt>
      <trkpt lat="47.63814" lon="6.17942">
        <ele>224.9</ele>
        <time>2021-07-03T09:56:24Z</time>
      </trkpt>
      <trkpt lat="47.63818" lon="6.17948">
        <ele>224.9</ele>
        <time>2021-07-03T09:56:28Z</time>
      </trkpt>
      <trkpt lat="47.63823" lon="6.17955">
        <ele>224.9</ele>
        <time>2021-07-03T09:56:28Z</time>
      </trkpt>
      <trkpt lat="47.63826" lon="6.1796">
        <ele>224.9</ele>
        <time>2021-07-03T09:56:32Z</time>
      </trkpt>
      <trkpt lat="47.63831" lon="6.17966">
        <ele>224.7</ele>
        <time>2021-07-03T09:56:34Z</time>
      </trkpt>
      <trkpt lat="47.63835" lon="6.17974">
        <ele>224.6</ele>
        <time>2021-07-03T09:56:36Z</time>
      </trkpt>
      <trkpt lat="47.63839" lon="6.17979">
        <ele>224.6</ele>
        <time>2021-07-03T09:56:37Z</time>
      </trkpt>
      <trkpt lat="47.63843" lon="6.17985">
        <ele>224.5</ele>
        <time>2021-07-03T09:56:39Z</time>
      </trkpt>
      <trkpt lat="47.63851" lon="6.17998">
        <ele>224.4</ele>
        <time>2021-07-03T09:56:42Z</time>
      </trkpt>
      <trkpt lat="47.63855" lon="6.18004">
        <ele>224.3</ele>
        <time>2021-07-03T09:56:43Z</time>
      </trkpt>
      <trkpt lat="47.63865" lon="6.18018">
        <ele>224.1</ele>
        <time>2021-07-03T09:56:44Z</time>
      </trkpt>
      <trkpt lat="47.6387" lon="6.18026">
        <ele>224</ele>
        <time>2021-07-03T09:56:48Z</time>
      </trkpt>
      <trkpt lat="47.63879" lon="6.18039">
        <ele>223.8</ele>
        <time>2021-07-03T09:56:51Z</time>
      </trkpt>
      <trkpt lat="47.63884" lon="6.18046">
        <ele>223.6</ele>
        <time>2021-07-03T09:56:52Z</time>
      </trkpt>
      <trkpt lat="47.63888" lon="6.18051">
        <ele>223.5</ele>
        <time>2021-07-03T09:56:54Z</time>
      </trkpt>
      <trkpt lat="47.63892" lon="6.18057">
        <ele>223.3</ele>
        <time>2021-07-03T09:56:55Z</time>
      </trkpt>
      <trkpt lat="47.63897" lon="6.18063">
        <ele>223.1</ele>
        <time>2021-07-03T09:56:57Z</time>
      </trkpt>
      <trkpt lat="47.63902" lon="6.1807">
        <ele>222.9</ele>
        <time>2021-07-03T09:56:58Z</time>
      </trkpt>
      <trkpt lat="47.63906" lon="6.18075">
        <ele>222.7</ele>
        <time>2021-07-03T09:57:00Z</time>
      </trkpt>
      <trkpt lat="47.63916" lon="6.18089">
        <ele>222.5</ele>
        <time>2021-07-03T09:57:03Z</time>
      </trkpt>
      <trkpt lat="47.63921" lon="6.18095">
        <ele>222.7</ele>
        <time>2021-07-03T09:57:04Z</time>
      </trkpt>
      <trkpt lat="47.63926" lon="6.18102">
        <ele>223</ele>
        <time>2021-07-03T09:57:06Z</time>
      </trkpt>
      <trkpt lat="47.63931" lon="6.18109">
        <ele>223.2</ele>
        <time>2021-07-03T09:57:07Z</time>
      </trkpt>
      <trkpt lat="47.63942" lon="6.18124">
        <ele>223.6</ele>
        <time>2021-07-03T09:57:07Z</time>
      </trkpt>
      <trkpt lat="47.63946" lon="6.1813">
        <ele>223.7</ele>
        <time>2021-07-03T09:57:08Z</time>
      </trkpt>
      <trkpt lat="47.63949" lon="6.18135">
        <ele>223.8</ele>
        <time>2021-07-03T09:57:09Z</time>
      </trkpt>
      <trkpt lat="47.63955" lon="6.18144">
        <ele>224</ele>
        <time>2021-07-03T09:57:11Z</time>
      </trkpt>
      <trkpt lat="47.6396" lon="6.18153">
        <ele>224.2</ele>
        <time>2021-07-03T09:57:13Z</time>
      </trkpt>
      <trkpt lat="47.63964" lon="6.18162">
        <ele>224.3</ele>
        <time>2021-07-03T09:57:17Z</time>
      </trkpt>
      <trkpt lat="47.63969" lon="6.18167">
        <ele>224.3</ele>
        <time>2021-07-03T09:57:17Z</time>
      </trkpt>
      <trkpt lat="47.63974" lon="6.18173">
        <ele>224.3</ele>
        <time>2021-07-03T09:57:21Z</time>
      </trkpt>
      <trkpt lat="47.6398" lon="6.18177">
        <ele>224</ele>
        <time>2021-07-03T09:57:23Z</time>
      </trkpt>
      <trkpt lat="47.63986" lon="6.1818">
        <ele>223.7</ele>
        <time>2021-07-03T09:57:25Z</time>
      </trkpt>
      <trkpt lat="47.63992" lon="6.18184">
        <ele>223.3</ele>
        <time>2021-07-03T09:57:27Z</time>
      </trkpt>
      <trkpt lat="47.63997" lon="6.18188">
        <ele>223</ele>
        <time>2021-07-03T09:57:29Z</time>
      </trkpt>
      <trkpt lat="47.64003" lon="6.18192">
        <ele>222.9</ele>
        <time>2021-07-03T09:57:29Z</time>
      </trkpt>
      <trkpt lat="47.64008" lon="6.18195">
        <ele>222.9</ele>
        <time>2021-07-03T09:57:33Z</time>
      </trkpt>
      <trkpt lat="47.64013" lon="6.18198">
        <ele>223</ele>
        <time>2021-07-03T09:57:34Z</time>
      </trkpt>
      <trkpt lat="47.64018" lon="6.18202">
        <ele>223.1</ele>
        <time>2021-07-03T09:57:34Z</time>
      </trkpt>
      <trkpt lat="47.64023" lon="6.18205">
        <ele>223.1</ele>
        <time>2021-07-03T09:57:38Z</time>
      </trkpt>
      <trkpt lat="47.64029" lon="6.1821">
        <ele>223.2</ele>
        <time>2021-07-03T09:57:40Z</time>
      </trkpt>
      <trkpt lat="47.64035" lon="6.18215">
        <ele>223.3</ele>
        <time>2021-07-03T09:57:40Z</time>
      </trkpt>
      <trkpt lat="47.6404" lon="6.18219">
        <ele>223.4</ele>
        <time>2021-07-03T09:57:42Z</time>
      </trkpt>
      <trkpt lat="47.64046" lon="6.18222">
        <ele>223.5</ele>
        <time>2021-07-03T09:57:44Z</time>
      </trkpt>
      <trkpt lat="47.64052" lon="6.18226">
        <ele>223.5</ele>
        <time>2021-07-03T09:57:48Z</time>
      </trkpt>
      <trkpt lat="47.64058" lon="6.18227">
        <ele>223.5</ele>
        <time>2021-07-03T09:57:50Z</time>
      </trkpt>
      <trkpt lat="47.64064" lon="6.18225">
        <ele>223.3</ele>
        <time>2021-07-03T09:57:52Z</time>
      </trkpt>
      <trkpt lat="47.64068" lon="6.18219">
        <ele>223</ele>
        <time>2021-07-03T09:57:54Z</time>
      </trkpt>
      <trkpt lat="47.6407" lon="6.1821">
        <ele>222.7</ele>
        <time>2021-07-03T09:57:55Z</time>
      </trkpt>
      <trkpt lat="47.64072" lon="6.18204">
        <ele>222.5</ele>
        <time>2021-07-03T09:57:57Z</time>
      </trkpt>
      <trkpt lat="47.64074" lon="6.18197">
        <ele>222.2</ele>
        <time>2021-07-03T09:57:58Z</time>
      </trkpt>
      <trkpt lat="47.64079" lon="6.1819">
        <ele>221.9</ele>
        <time>2021-07-03T09:58:00Z</time>
      </trkpt>
      <trkpt lat="47.64089" lon="6.18195">
        <ele>221.9</ele>
        <time>2021-07-03T09:58:03Z</time>
      </trkpt>
      <trkpt lat="47.64093" lon="6.18199">
        <ele>222</ele>
        <time>2021-07-03T09:58:04Z</time>
      </trkpt>
      <trkpt lat="47.64099" lon="6.18204">
        <ele>222.1</ele>
        <time>2021-07-03T09:58:06Z</time>
      </trkpt>
      <trkpt lat="47.64104" lon="6.1821">
        <ele>222.2</ele>
        <time>2021-07-03T09:58:06Z</time>
      </trkpt>
      <trkpt lat="47.64108" lon="6.18214">
        <ele>222.3</ele>
        <time>2021-07-03T09:58:09Z</time>
      </trkpt>
      <trkpt lat="47.64115" lon="6.1822">
        <ele>222.4</ele>
        <time>2021-07-03T09:58:12Z</time>
      </trkpt>
      <trkpt lat="47.6412" lon="6.18225">
        <ele>222.5</ele>
        <time>2021-07-03T09:58:14Z</time>
      </trkpt>
      <trkpt lat="47.64125" lon="6.18228">
        <ele>222.6</ele>
        <time>2021-07-03T09:58:16Z</time>
      </trkpt>
      <trkpt lat="47.64129" lon="6.18231">
        <ele>222.7</ele>
        <time>2021-07-03T09:58:17Z</time>
      </trkpt>
      <trkpt lat="47.64134" lon="6.18236">
        <ele>222.8</ele>
        <time>2021-07-03T09:58:20Z</time>
      </trkpt>
      <trkpt lat="47.64141" lon="6.1824">
        <ele>222.9</ele>
        <time>2021-07-03T09:58:20Z</time>
      </trkpt>
      <trkpt lat="47.64145" lon="6.18242">
        <ele>222.9</ele>
        <time>2021-07-03T09:58:24Z</time>
      </trkpt>
      <trkpt lat="47.64151" lon="6.18246">
        <ele>223</ele>
        <time>2021-07-03T09:58:24Z</time>
      </trkpt>
      <trkpt lat="47.64157" lon="6.1825">
        <ele>223.1</ele>
        <time>2021-07-03T09:58:26Z</time>
      </trkpt>
      <trkpt lat="47.64161" lon="6.18252">
        <ele>223.3</ele>
        <time>2021-07-03T09:58:30Z</time>
      </trkpt>
      <trkpt lat="47.64167" lon="6.18255">
        <ele>223.5</ele>
        <time>2021-07-03T09:58:32Z</time>
      </trkpt>
      <trkpt lat="47.64172" lon="6.18257">
        <ele>223.5</ele>
        <time>2021-07-03T09:58:33Z</time>
      </trkpt>
      <trkpt lat="47.64179" lon="6.18259">
        <ele>223.6</ele>
        <time>2021-07-03T09:58:34Z</time>
      </trkpt>
      <trkpt lat="47.64184" lon="6.18261">
        <ele>223.6</ele>
        <time>2021-07-03T09:58:36Z</time>
      </trkpt>
      <trkpt lat="47.64189" lon="6.18262">
        <ele>223.6</ele>
        <time>2021-07-03T09:58:38Z</time>
      </trkpt>
      <trkpt lat="47.64195" lon="6.18264">
        <ele>223.5</ele>
        <time>2021-07-03T09:58:41Z</time>
      </trkpt>
      <trkpt lat="47.642" lon="6.18265">
        <ele>223.5</ele>
        <time>2021-07-03T09:58:44Z</time>
      </trkpt>
      <trkpt lat="47.64205" lon="6.18265">
        <ele>223.3</ele>
        <time>2021-07-03T09:58:49Z</time>
      </trkpt>
      <trkpt lat="47.6421" lon="6.18264">
        <ele>223.1</ele>
        <time>2021-07-03T09:58:50Z</time>
      </trkpt>
      <trkpt lat="47.64215" lon="6.18264">
        <ele>223</ele>
        <time>2021-07-03T09:58:53Z</time>
      </trkpt>
      <trkpt lat="47.64219" lon="6.18267">
        <ele>223</ele>
        <time>2021-07-03T09:58:56Z</time>
      </trkpt>
      <trkpt lat="47.64223" lon="6.1827">
        <ele>222.9</ele>
        <time>2021-07-03T09:59:02Z</time>
      </trkpt>
      <trkpt lat="47.64227" lon="6.18275">
        <ele>222.9</ele>
        <time>2021-07-03T09:59:02Z</time>
      </trkpt>
      <trkpt lat="47.64232" lon="6.18276">
        <ele>222.7</ele>
        <time>2021-07-03T09:59:04Z</time>
      </trkpt>
      <trkpt lat="47.64238" lon="6.18276">
        <ele>222.5</ele>
        <time>2021-07-03T09:59:08Z</time>
      </trkpt>
      <trkpt lat="47.64247" lon="6.18279">
        <ele>222.1</ele>
        <time>2021-07-03T09:59:10Z</time>
      </trkpt>
      <trkpt lat="47.64254" lon="6.18283">
        <ele>221.9</ele>
        <time>2021-07-03T09:59:10Z</time>
      </trkpt>
      <trkpt lat="47.64261" lon="6.18286">
        <ele>221.9</ele>
        <time>2021-07-03T09:59:12Z</time>
      </trkpt>
      <trkpt lat="47.64266" lon="6.1829">
        <ele>221.8</ele>
        <time>2021-07-03T09:59:16Z</time>
      </trkpt>
      <trkpt lat="47.6427" lon="6.18295">
        <ele>221.8</ele>
        <time>2021-07-03T09:59:18Z</time>
      </trkpt>
      <trkpt lat="47.64275" lon="6.18298">
        <ele>221.7</ele>
        <time>2021-07-03T09:59:20Z</time>
      </trkpt>
      <trkpt lat="47.64279" lon="6.18302">
        <ele>221.6</ele>
        <time>2021-07-03T09:59:22Z</time>
      </trkpt>
      <trkpt lat="47.64287" lon="6.18312">
        <ele>221.6</ele>
        <time>2021-07-03T09:59:25Z</time>
      </trkpt>
      <trkpt lat="47.64293" lon="6.18318">
        <ele>221.5</ele>
        <time>2021-07-03T09:59:27Z</time>
      </trkpt>
      <trkpt lat="47.64297" lon="6.18322">
        <ele>221.4</ele>
        <time>2021-07-03T09:59:29Z</time>
      </trkpt>
      <trkpt lat="47.64302" lon="6.18329">
        <ele>221.4</ele>
        <time>2021-07-03T09:59:32Z</time>
      </trkpt>
      <trkpt lat="47.64307" lon="6.18333">
        <ele>221.3</ele>
        <time>2021-07-03T09:59:34Z</time>
      </trkpt>
      <trkpt lat="47.64311" lon="6.18338">
        <ele>221.3</ele>
        <time>2021-07-03T09:59:36Z</time>
      </trkpt>
      <trkpt lat="47.64316" lon="6.18342">
        <ele>221.3</ele>
        <time>2021-07-03T09:59:39Z</time>
      </trkpt>
      <trkpt lat="47.6432" lon="6.18347">
        <ele>221.3</ele>
        <time>2021-07-03T09:59:39Z</time>
      </trkpt>
      <trkpt lat="47.64323" lon="6.18352">
        <ele>221.3</ele>
        <time>2021-07-03T09:59:43Z</time>
      </trkpt>
      <trkpt lat="47.64327" lon="6.18358">
        <ele>221.4</ele>
        <time>2021-07-03T09:59:46Z</time>
      </trkpt>
      <trkpt lat="47.64332" lon="6.18363">
        <ele>221.4</ele>
        <time>2021-07-03T09:59:48Z</time>
      </trkpt>
      <trkpt lat="47.64335" lon="6.18367">
        <ele>221.6</ele>
        <time>2021-07-03T09:59:48Z</time>
      </trkpt>
      <trkpt lat="47.64339" lon="6.18372">
        <ele>222.3</ele>
        <time>2021-07-03T09:59:53Z</time>
      </trkpt>
      <trkpt lat="47.64343" lon="6.18377">
        <ele>222.9</ele>
        <time>2021-07-03T09:59:56Z</time>
      </trkpt>
      <trkpt lat="47.64348" lon="6.1838">
        <ele>223.7</ele>
        <time>2021-07-03T09:59:59Z</time>
      </trkpt>
      <trkpt lat="47.64354" lon="6.18381">
        <ele>224.6</ele>
        <time>2021-07-03T10:00:01Z</time>
      </trkpt>
      <trkpt lat="47.64359" lon="6.18376">
        <ele>225</ele>
        <time>2021-07-03T10:00:04Z</time>
      </trkpt>
      <trkpt lat="47.64362" lon="6.18372">
        <ele>225.3</ele>
        <time>2021-07-03T10:00:06Z</time>
      </trkpt>
      <trkpt lat="47.64369" lon="6.18368">
        <ele>226</ele>
        <time>2021-07-03T10:00:09Z</time>
      </trkpt>
      <trkpt lat="47.64374" lon="6.18364">
        <ele>226.4</ele>
        <time>2021-07-03T10:00:11Z</time>
      </trkpt>
      <trkpt lat="47.64379" lon="6.18359">
        <ele>226.7</ele>
        <time>2021-07-03T10:00:13Z</time>
      </trkpt>
      <trkpt lat="47.64384" lon="6.18355">
        <ele>227</ele>
        <time>2021-07-03T10:00:17Z</time>
      </trkpt>
      <trkpt lat="47.64389" lon="6.18352">
        <ele>227.2</ele>
        <time>2021-07-03T10:00:17Z</time>
      </trkpt>
      <trkpt lat="47.64393" lon="6.18347">
        <ele>227.3</ele>
        <time>2021-07-03T10:00:19Z</time>
      </trkpt>
      <trkpt lat="47.64399" lon="6.18342">
        <ele>227.4</ele>
        <time>2021-07-03T10:00:22Z</time>
      </trkpt>
      <trkpt lat="47.64403" lon="6.18338">
        <ele>227.3</ele>
        <time>2021-07-03T10:00:26Z</time>
      </trkpt>
      <trkpt lat="47.64407" lon="6.18334">
        <ele>227.3</ele>
        <time>2021-07-03T10:00:26Z</time>
      </trkpt>
      <trkpt lat="47.64412" lon="6.18329">
        <ele>227.3</ele>
        <time>2021-07-03T10:00:29Z</time>
      </trkpt>
      <trkpt lat="47.64417" lon="6.18325">
        <ele>227.4</ele>
        <time>2021-07-03T10:00:32Z</time>
      </trkpt>
      <trkpt lat="47.64422" lon="6.18324">
        <ele>228.3</ele>
        <time>2021-07-03T10:02:46Z</time>
      </trkpt>
      <trkpt lat="47.64427" lon="6.18321">
        <ele>228.9</ele>
        <time>2021-07-03T10:02:50Z</time>
      </trkpt>
      <trkpt lat="47.64431" lon="6.18317">
        <ele>229.3</ele>
        <time>2021-07-03T10:02:53Z</time>
      </trkpt>
      <trkpt lat="47.64435" lon="6.18311">
        <ele>229.5</ele>
        <time>2021-07-03T10:02:57Z</time>
      </trkpt>
      <trkpt lat="47.6444" lon="6.18308">
        <ele>230.1</ele>
        <time>2021-07-03T10:03:01Z</time>
      </trkpt>
      <trkpt lat="47.64444" lon="6.18302">
        <ele>230.2</ele>
        <time>2021-07-03T10:03:04Z</time>
      </trkpt>
      <trkpt lat="47.64447" lon="6.18295">
        <ele>230</ele>
        <time>2021-07-03T10:03:08Z</time>
      </trkpt>
      <trkpt lat="47.64451" lon="6.18289">
        <ele>229.7</ele>
        <time>2021-07-03T10:03:10Z</time>
      </trkpt>
      <trkpt lat="47.64455" lon="6.18283">
        <ele>229.8</ele>
        <time>2021-07-03T10:03:13Z</time>
      </trkpt>
      <trkpt lat="47.64458" lon="6.18279">
        <ele>229.7</ele>
        <time>2021-07-03T10:03:16Z</time>
      </trkpt>
      <trkpt lat="47.64462" lon="6.18274">
        <ele>229.6</ele>
        <time>2021-07-03T10:03:19Z</time>
      </trkpt>
      <trkpt lat="47.64465" lon="6.18269">
        <ele>229.6</ele>
        <time>2021-07-03T10:03:22Z</time>
      </trkpt>
      <trkpt lat="47.64469" lon="6.18264">
        <ele>229.5</ele>
        <time>2021-07-03T10:03:25Z</time>
      </trkpt>
      <trkpt lat="47.64473" lon="6.18259">
        <ele>229.3</ele>
        <time>2021-07-03T10:03:27Z</time>
      </trkpt>
      <trkpt lat="47.64477" lon="6.18253">
        <ele>229</ele>
        <time>2021-07-03T10:03:29Z</time>
      </trkpt>
      <trkpt lat="47.64482" lon="6.18246">
        <ele>228.8</ele>
        <time>2021-07-03T10:03:31Z</time>
      </trkpt>
      <trkpt lat="47.64486" lon="6.18238">
        <ele>228.8</ele>
        <time>2021-07-03T10:03:33Z</time>
      </trkpt>
      <trkpt lat="47.64489" lon="6.1823">
        <ele>228.6</ele>
        <time>2021-07-03T10:03:35Z</time>
      </trkpt>
      <trkpt lat="47.64492" lon="6.18223">
        <ele>228.4</ele>
        <time>2021-07-03T10:03:37Z</time>
      </trkpt>
      <trkpt lat="47.64495" lon="6.18218">
        <ele>228.3</ele>
        <time>2021-07-03T10:03:39Z</time>
      </trkpt>
      <trkpt lat="47.64497" lon="6.18209">
        <ele>227.9</ele>
        <time>2021-07-03T10:03:42Z</time>
      </trkpt>
      <trkpt lat="47.645" lon="6.18199">
        <ele>227.4</ele>
        <time>2021-07-03T10:03:46Z</time>
      </trkpt>
      <trkpt lat="47.64502" lon="6.18191">
        <ele>227.2</ele>
        <time>2021-07-03T10:03:47Z</time>
      </trkpt>
      <trkpt lat="47.64502" lon="6.1818">
        <ele>226.4</ele>
        <time>2021-07-03T10:03:50Z</time>
      </trkpt>
      <trkpt lat="47.645" lon="6.1817">
        <ele>225.2</ele>
        <time>2021-07-03T10:03:51Z</time>
      </trkpt>
      <trkpt lat="47.64497" lon="6.1816">
        <ele>224.8</ele>
        <time>2021-07-03T10:03:53Z</time>
      </trkpt>
      <trkpt lat="47.64497" lon="6.18149">
        <ele>224.5</ele>
        <time>2021-07-03T10:03:55Z</time>
      </trkpt>
      <trkpt lat="47.64497" lon="6.18139">
        <ele>224.3</ele>
        <time>2021-07-03T10:03:58Z</time>
      </trkpt>
      <trkpt lat="47.64498" lon="6.18133">
        <ele>224.1</ele>
        <time>2021-07-03T10:03:59Z</time>
      </trkpt>
      <trkpt lat="47.64499" lon="6.18122">
        <ele>223.9</ele>
        <time>2021-07-03T10:04:00Z</time>
      </trkpt>
      <trkpt lat="47.64501" lon="6.18113">
        <ele>223.8</ele>
        <time>2021-07-03T10:04:03Z</time>
      </trkpt>
      <trkpt lat="47.64502" lon="6.18104">
        <ele>224</ele>
        <time>2021-07-03T10:04:04Z</time>
      </trkpt>
      <trkpt lat="47.64504" lon="6.18098">
        <ele>224.1</ele>
        <time>2021-07-03T10:04:07Z</time>
      </trkpt>
      <trkpt lat="47.64506" lon="6.18089">
        <ele>224.3</ele>
        <time>2021-07-03T10:04:08Z</time>
      </trkpt>
      <trkpt lat="47.64507" lon="6.18082">
        <ele>224.5</ele>
        <time>2021-07-03T10:04:10Z</time>
      </trkpt>
      <trkpt lat="47.64509" lon="6.18074">
        <ele>224.7</ele>
        <time>2021-07-03T10:04:12Z</time>
      </trkpt>
      <trkpt lat="47.64511" lon="6.18068">
        <ele>225</ele>
        <time>2021-07-03T10:04:14Z</time>
      </trkpt>
      <trkpt lat="47.64512" lon="6.18058">
        <ele>225.2</ele>
        <time>2021-07-03T10:04:17Z</time>
      </trkpt>
      <trkpt lat="47.6451" lon="6.18049">
        <ele>224.7</ele>
        <time>2021-07-03T10:04:20Z</time>
      </trkpt>
      <trkpt lat="47.64505" lon="6.18047">
        <ele>223.8</ele>
        <time>2021-07-03T10:04:22Z</time>
      </trkpt>
      <trkpt lat="47.64499" lon="6.18044">
        <ele>223</ele>
        <time>2021-07-03T10:04:24Z</time>
      </trkpt>
      <trkpt lat="47.64492" lon="6.18041">
        <ele>223</ele>
        <time>2021-07-03T10:04:27Z</time>
      </trkpt>
      <trkpt lat="47.64481" lon="6.18033">
        <ele>222.9</ele>
        <time>2021-07-03T10:04:29Z</time>
      </trkpt>
      <trkpt lat="47.64476" lon="6.18028">
        <ele>222.8</ele>
        <time>2021-07-03T10:04:31Z</time>
      </trkpt>
      <trkpt lat="47.64469" lon="6.18026">
        <ele>222.7</ele>
        <time>2021-07-03T10:04:33Z</time>
      </trkpt>
      <trkpt lat="47.64464" lon="6.18032">
        <ele>222.7</ele>
        <time>2021-07-03T10:04:36Z</time>
      </trkpt>
      <trkpt lat="47.64462" lon="6.1804">
        <ele>222.8</ele>
        <time>2021-07-03T10:04:37Z</time>
      </trkpt>
      <trkpt lat="47.64462" lon="6.18047">
        <ele>222.8</ele>
        <time>2021-07-03T10:04:41Z</time>
      </trkpt>
      <trkpt lat="47.6446" lon="6.18054">
        <ele>222.8</ele>
        <time>2021-07-03T10:04:46Z</time>
      </trkpt>
      <trkpt lat="47.6446" lon="6.18061">
        <ele>222.9</ele>
        <time>2021-07-03T10:04:50Z</time>
      </trkpt>
      <trkpt lat="47.64462" lon="6.18067">
        <ele>222.9</ele>
        <time>2021-07-03T10:04:53Z</time>
      </trkpt>
      <trkpt lat="47.64466" lon="6.18074">
        <ele>223</ele>
        <time>2021-07-03T10:04:56Z</time>
      </trkpt>
      <trkpt lat="47.6447" lon="6.18071">
        <ele>222.9</ele>
        <time>2021-07-03T10:05:05Z</time>
      </trkpt>
    </trkseg>
  </trk>
</gpx>